<?xml version="1.0" encoding="UTF-8"?>
<gpx version="1.1" creator="https://www.youtrack.es" xsi:schemaLocation="http://www.topografix.com/GPX/1/1 http://www.topografix.com/GPX/1/1/gpx.xsd http://www.garmin.com/xmlschemas/GpxExtensions/v3 http://www.garmin.com/xmlschemas/GpxExtensionsv3.xsd http://www.garmin.com/xmlschemas/TrackPointExtension/v1 http://www.garmin.com/xmlschemas/TrackPointExtensionv1.xsd" xmlns:gpxtpx="http://www.garmin.com/xmlschemas/TrackPointExtension/v1" xmlns:gpxx="http://www.garmin.com/xmlschemas/GpxExtensions/v3" xmlns:xsi="http://www.w3.org/2001/XMLSchema-instance">
  <metadata>
    <link href="https://www.youtrack.es">
      <text>YouTrack.es</text>
    </link>
    <time>2026-05-08T23:34:03Z</time>
  </metadata>
  <trk>
    <src>https://www.youtrack.es</src>
    <link href="https://www.youtrack.es/ruta/6563-gr-48-etapa-1-jaen">
      <text>YouTrack.es</text>
    </link>
    <trkseg>
      <trkpt lat="38.044762" lon="-4.171088">
        <ele>244.5</ele>
        <time>2009-04-06T16:16:13Z</time>
      </trkpt>
      <trkpt lat="38.044776" lon="-4.171084">
        <ele>244.6</ele>
        <time>2009-04-06T16:16:45Z</time>
      </trkpt>
      <trkpt lat="38.044863" lon="-4.171083">
        <ele>244.7</ele>
        <time>2009-04-06T16:17:14Z</time>
      </trkpt>
      <trkpt lat="38.044890" lon="-4.171054">
        <ele>244.8</ele>
        <time>2009-04-06T16:17:33Z</time>
      </trkpt>
      <trkpt lat="38.044923" lon="-4.171005">
        <ele>244.9</ele>
        <time>2009-04-06T16:18:15Z</time>
      </trkpt>
      <trkpt lat="38.044993" lon="-4.171005">
        <ele>245.0</ele>
        <time>2009-04-06T16:18:45Z</time>
      </trkpt>
      <trkpt lat="38.045139" lon="-4.171085">
        <ele>245.1</ele>
        <time>2009-04-06T16:18:58Z</time>
      </trkpt>
      <trkpt lat="38.045275" lon="-4.171119">
        <ele>245.1</ele>
        <time>2009-04-06T16:19:12Z</time>
      </trkpt>
      <trkpt lat="38.045404" lon="-4.171100">
        <ele>245.3</ele>
        <time>2009-04-06T16:19:25Z</time>
      </trkpt>
      <trkpt lat="38.045441" lon="-4.171049">
        <ele>245.5</ele>
        <time>2009-04-06T16:19:53Z</time>
      </trkpt>
      <trkpt lat="38.045519" lon="-4.171116">
        <ele>245.4</ele>
        <time>2009-04-06T16:20:07Z</time>
      </trkpt>
      <trkpt lat="38.045635" lon="-4.171186">
        <ele>245.5</ele>
        <time>2009-04-06T16:20:21Z</time>
      </trkpt>
      <trkpt lat="38.045740" lon="-4.171204">
        <ele>245.6</ele>
        <time>2009-04-06T16:20:34Z</time>
      </trkpt>
      <trkpt lat="38.045893" lon="-4.171217">
        <ele>245.8</ele>
        <time>2009-04-06T16:20:48Z</time>
      </trkpt>
      <trkpt lat="38.046020" lon="-4.171299">
        <ele>245.8</ele>
        <time>2009-04-06T16:21:02Z</time>
      </trkpt>
      <trkpt lat="38.046220" lon="-4.171388">
        <ele>245.5</ele>
        <time>2009-04-06T16:21:16Z</time>
      </trkpt>
      <trkpt lat="38.046441" lon="-4.171441">
        <ele>245.3</ele>
        <time>2009-04-06T16:21:32Z</time>
      </trkpt>
      <trkpt lat="38.046606" lon="-4.171491">
        <ele>245.2</ele>
        <time>2009-04-06T16:21:48Z</time>
      </trkpt>
      <trkpt lat="38.046858" lon="-4.171574">
        <ele>245.0</ele>
        <time>2009-04-06T16:22:09Z</time>
      </trkpt>
      <trkpt lat="38.047042" lon="-4.171682">
        <ele>244.5</ele>
        <time>2009-04-06T16:22:25Z</time>
      </trkpt>
      <trkpt lat="38.047167" lon="-4.171716">
        <ele>244.2</ele>
        <time>2009-04-06T16:22:37Z</time>
      </trkpt>
      <trkpt lat="38.047282" lon="-4.171766">
        <ele>244.0</ele>
        <time>2009-04-06T16:22:52Z</time>
      </trkpt>
      <trkpt lat="38.047349" lon="-4.171753">
        <ele>243.8</ele>
        <time>2009-04-06T16:23:26Z</time>
      </trkpt>
      <trkpt lat="38.047492" lon="-4.171835">
        <ele>243.5</ele>
        <time>2009-04-06T16:23:39Z</time>
      </trkpt>
      <trkpt lat="38.047492" lon="-4.171888">
        <ele>243.5</ele>
        <time>2009-04-06T16:25:22Z</time>
      </trkpt>
      <trkpt lat="38.047536" lon="-4.171969">
        <ele>243.4</ele>
        <time>2009-04-06T16:25:34Z</time>
      </trkpt>
      <trkpt lat="38.047536" lon="-4.172036">
        <ele>243.3</ele>
        <time>2009-04-06T16:25:39Z</time>
      </trkpt>
      <trkpt lat="38.047474" lon="-4.172233">
        <ele>243.3</ele>
        <time>2009-04-06T16:25:54Z</time>
      </trkpt>
      <trkpt lat="38.047463" lon="-4.172347">
        <ele>243.3</ele>
        <time>2009-04-06T16:26:01Z</time>
      </trkpt>
      <trkpt lat="38.047375" lon="-4.172538">
        <ele>243.2</ele>
        <time>2009-04-06T16:26:17Z</time>
      </trkpt>
      <trkpt lat="38.047374" lon="-4.172587">
        <ele>243.2</ele>
        <time>2009-04-06T16:26:28Z</time>
      </trkpt>
      <trkpt lat="38.047385" lon="-4.172613">
        <ele>243.2</ele>
        <time>2009-04-06T16:26:54Z</time>
      </trkpt>
      <trkpt lat="38.047333" lon="-4.172766">
        <ele>243.0</ele>
        <time>2009-04-06T16:27:12Z</time>
      </trkpt>
      <trkpt lat="38.047164" lon="-4.173486">
        <ele>241.9</ele>
        <time>2009-04-06T16:27:22Z</time>
      </trkpt>
      <trkpt lat="38.046886" lon="-4.174989">
        <ele>238.7</ele>
        <time>2009-04-06T16:27:37Z</time>
      </trkpt>
      <trkpt lat="38.046830" lon="-4.175744">
        <ele>238.0</ele>
        <time>2009-04-06T16:27:46Z</time>
      </trkpt>
      <trkpt lat="38.046889" lon="-4.175941">
        <ele>238.0</ele>
        <time>2009-04-06T16:27:55Z</time>
      </trkpt>
      <trkpt lat="38.046882" lon="-4.175942">
        <ele>238.0</ele>
        <time>2009-04-06T16:28:11Z</time>
      </trkpt>
      <trkpt lat="38.046855" lon="-4.175947">
        <ele>238.0</ele>
        <time>2009-04-06T16:28:33Z</time>
      </trkpt>
      <trkpt lat="38.046831" lon="-4.175939">
        <ele>238.0</ele>
        <time>2009-04-06T16:29:47Z</time>
      </trkpt>
      <trkpt lat="38.046835" lon="-4.175919">
        <ele>238.0</ele>
        <time>2009-04-06T16:29:57Z</time>
      </trkpt>
      <trkpt lat="38.046849" lon="-4.175962">
        <ele>238.0</ele>
        <time>2009-04-06T16:30:07Z</time>
      </trkpt>
      <trkpt lat="38.047080" lon="-4.176748">
        <ele>237.5</ele>
        <time>2009-04-06T16:30:17Z</time>
      </trkpt>
      <trkpt lat="38.047482" lon="-4.178136">
        <ele>238.0</ele>
        <time>2009-04-06T16:30:29Z</time>
      </trkpt>
      <trkpt lat="38.047581" lon="-4.178457">
        <ele>238.5</ele>
        <time>2009-04-06T16:30:32Z</time>
      </trkpt>
      <trkpt lat="38.047639" lon="-4.178576">
        <ele>238.8</ele>
        <time>2009-04-06T16:30:40Z</time>
      </trkpt>
      <trkpt lat="38.047632" lon="-4.178569">
        <ele>238.7</ele>
        <time>2009-04-06T16:30:58Z</time>
      </trkpt>
      <trkpt lat="38.047635" lon="-4.178559">
        <ele>238.7</ele>
        <time>2009-04-06T16:31:21Z</time>
      </trkpt>
      <trkpt lat="38.047720" lon="-4.178980">
        <ele>239.0</ele>
        <time>2009-04-06T16:31:30Z</time>
      </trkpt>
      <trkpt lat="38.047918" lon="-4.180008">
        <ele>237.8</ele>
        <time>2009-04-06T16:31:39Z</time>
      </trkpt>
      <trkpt lat="38.048300" lon="-4.181929">
        <ele>236.0</ele>
        <time>2009-04-06T16:31:53Z</time>
      </trkpt>
      <trkpt lat="38.048992" lon="-4.183282">
        <ele>236.2</ele>
        <time>2009-04-06T16:32:03Z</time>
      </trkpt>
      <trkpt lat="38.049966" lon="-4.185061">
        <ele>235.1</ele>
        <time>2009-04-06T16:32:16Z</time>
      </trkpt>
      <trkpt lat="38.050041" lon="-4.185183">
        <ele>235.1</ele>
        <time>2009-04-06T16:32:17Z</time>
      </trkpt>
      <trkpt lat="38.050570" lon="-4.185682">
        <ele>232.9</ele>
        <time>2009-04-06T16:32:22Z</time>
      </trkpt>
      <trkpt lat="38.051751" lon="-4.186329">
        <ele>231.8</ele>
        <time>2009-04-06T16:32:31Z</time>
      </trkpt>
      <trkpt lat="38.052282" lon="-4.186454">
        <ele>230.9</ele>
        <time>2009-04-06T16:32:35Z</time>
      </trkpt>
      <trkpt lat="38.053423" lon="-4.186981">
        <ele>224.2</ele>
        <time>2009-04-06T16:32:44Z</time>
      </trkpt>
      <trkpt lat="38.053803" lon="-4.187633">
        <ele>212.3</ele>
        <time>2009-04-06T16:32:50Z</time>
      </trkpt>
      <trkpt lat="38.053770" lon="-4.187960">
        <ele>211.0</ele>
        <time>2009-04-06T16:32:52Z</time>
      </trkpt>
      <trkpt lat="38.053374" lon="-4.190820">
        <ele>194.0</ele>
        <time>2009-04-06T16:33:07Z</time>
      </trkpt>
      <trkpt lat="38.053240" lon="-4.191858">
        <ele>191.8</ele>
        <time>2009-04-06T16:33:14Z</time>
      </trkpt>
      <trkpt lat="38.053277" lon="-4.192025">
        <ele>191.0</ele>
        <time>2009-04-06T16:33:21Z</time>
      </trkpt>
      <trkpt lat="38.053190" lon="-4.191985">
        <ele>191.3</ele>
        <time>2009-04-06T16:34:27Z</time>
      </trkpt>
      <trkpt lat="38.053257" lon="-4.191997">
        <ele>191.2</ele>
        <time>2009-04-06T16:34:47Z</time>
      </trkpt>
      <trkpt lat="38.053295" lon="-4.191986">
        <ele>191.2</ele>
        <time>2009-04-06T16:35:42Z</time>
      </trkpt>
      <trkpt lat="38.053289" lon="-4.192002">
        <ele>191.1</ele>
        <time>2009-04-06T16:35:51Z</time>
      </trkpt>
      <trkpt lat="38.053284" lon="-4.192101">
        <ele>190.7</ele>
        <time>2009-04-06T16:35:55Z</time>
      </trkpt>
      <trkpt lat="38.053331" lon="-4.192405">
        <ele>189.5</ele>
        <time>2009-04-06T16:35:59Z</time>
      </trkpt>
      <trkpt lat="38.053396" lon="-4.192600">
        <ele>189.0</ele>
        <time>2009-04-06T16:36:01Z</time>
      </trkpt>
      <trkpt lat="38.054233" lon="-4.193782">
        <ele>181.5</ele>
        <time>2009-04-06T16:36:13Z</time>
      </trkpt>
      <trkpt lat="38.054466" lon="-4.194184">
        <ele>188.0</ele>
        <time>2009-04-06T16:36:21Z</time>
      </trkpt>
      <trkpt lat="38.054481" lon="-4.194247">
        <ele>188.9</ele>
        <time>2009-04-06T16:36:30Z</time>
      </trkpt>
      <trkpt lat="38.054473" lon="-4.194217">
        <ele>188.5</ele>
        <time>2009-04-06T16:36:43Z</time>
      </trkpt>
      <trkpt lat="38.054477" lon="-4.194200">
        <ele>188.3</ele>
        <time>2009-04-06T16:37:34Z</time>
      </trkpt>
      <trkpt lat="38.054474" lon="-4.194192">
        <ele>188.2</ele>
        <time>2009-04-06T16:38:34Z</time>
      </trkpt>
      <trkpt lat="38.054456" lon="-4.194197">
        <ele>187.9</ele>
        <time>2009-04-06T16:39:12Z</time>
      </trkpt>
      <trkpt lat="38.054419" lon="-4.194207">
        <ele>187.4</ele>
        <time>2009-04-06T16:40:58Z</time>
      </trkpt>
      <trkpt lat="38.054460" lon="-4.194213">
        <ele>188.2</ele>
        <time>2009-04-06T16:41:16Z</time>
      </trkpt>
      <trkpt lat="38.054528" lon="-4.193899">
        <ele>185.9</ele>
        <time>2009-04-06T16:41:36Z</time>
      </trkpt>
      <trkpt lat="38.054566" lon="-4.193849">
        <ele>186.0</ele>
        <time>2009-04-06T16:41:50Z</time>
      </trkpt>
      <trkpt lat="38.054735" lon="-4.193502">
        <ele>185.6</ele>
        <time>2009-04-06T16:41:59Z</time>
      </trkpt>
      <trkpt lat="38.054946" lon="-4.193207">
        <ele>186.7</ele>
        <time>2009-04-06T16:42:04Z</time>
      </trkpt>
      <trkpt lat="38.055373" lon="-4.192721">
        <ele>189.9</ele>
        <time>2009-04-06T16:42:12Z</time>
      </trkpt>
      <trkpt lat="38.055655" lon="-4.192517">
        <ele>193.9</ele>
        <time>2009-04-06T16:42:16Z</time>
      </trkpt>
      <trkpt lat="38.056199" lon="-4.191792">
        <ele>195.0</ele>
        <time>2009-04-06T16:42:27Z</time>
      </trkpt>
      <trkpt lat="38.056757" lon="-4.190851">
        <ele>196.7</ele>
        <time>2009-04-06T16:42:37Z</time>
      </trkpt>
      <trkpt lat="38.056856" lon="-4.190618">
        <ele>193.6</ele>
        <time>2009-04-06T16:42:39Z</time>
      </trkpt>
      <trkpt lat="38.057140" lon="-4.189559">
        <ele>187.4</ele>
        <time>2009-04-06T16:42:48Z</time>
      </trkpt>
      <trkpt lat="38.057603" lon="-4.189077">
        <ele>191.1</ele>
        <time>2009-04-06T16:42:57Z</time>
      </trkpt>
      <trkpt lat="38.057655" lon="-4.189067">
        <ele>191.8</ele>
        <time>2009-04-06T16:43:07Z</time>
      </trkpt>
      <trkpt lat="38.057666" lon="-4.189070">
        <ele>192.1</ele>
        <time>2009-04-06T16:43:19Z</time>
      </trkpt>
      <trkpt lat="38.057729" lon="-4.189047">
        <ele>192.7</ele>
        <time>2009-04-06T16:43:33Z</time>
      </trkpt>
      <trkpt lat="38.057634" lon="-4.189021">
        <ele>190.6</ele>
        <time>2009-04-06T16:44:47Z</time>
      </trkpt>
      <trkpt lat="38.057695" lon="-4.189024">
        <ele>191.7</ele>
        <time>2009-04-06T16:45:33Z</time>
      </trkpt>
      <trkpt lat="38.057711" lon="-4.189028">
        <ele>192.0</ele>
        <time>2009-04-06T16:46:06Z</time>
      </trkpt>
      <trkpt lat="38.057717" lon="-4.189039">
        <ele>192.4</ele>
        <time>2009-04-06T16:46:39Z</time>
      </trkpt>
      <trkpt lat="38.057709" lon="-4.189016">
        <ele>191.8</ele>
        <time>2009-04-06T16:46:54Z</time>
      </trkpt>
      <trkpt lat="38.057677" lon="-4.188966">
        <ele>190.3</ele>
        <time>2009-04-06T16:47:35Z</time>
      </trkpt>
      <trkpt lat="38.057766" lon="-4.188950">
        <ele>191.5</ele>
        <time>2009-04-06T16:47:44Z</time>
      </trkpt>
      <trkpt lat="38.057795" lon="-4.189012">
        <ele>193.2</ele>
        <time>2009-04-06T16:47:55Z</time>
      </trkpt>
      <trkpt lat="38.057820" lon="-4.189078">
        <ele>194.9</ele>
        <time>2009-04-06T16:48:08Z</time>
      </trkpt>
      <trkpt lat="38.058061" lon="-4.189015">
        <ele>197.8</ele>
        <time>2009-04-06T16:48:17Z</time>
      </trkpt>
      <trkpt lat="38.058198" lon="-4.188936">
        <ele>198.5</ele>
        <time>2009-04-06T16:48:20Z</time>
      </trkpt>
      <trkpt lat="38.058528" lon="-4.189073">
        <ele>207.0</ele>
        <time>2009-04-06T16:48:26Z</time>
      </trkpt>
      <trkpt lat="38.058686" lon="-4.189242">
        <ele>210.7</ele>
        <time>2009-04-06T16:48:29Z</time>
      </trkpt>
      <trkpt lat="38.058989" lon="-4.189344">
        <ele>212.4</ele>
        <time>2009-04-06T16:48:34Z</time>
      </trkpt>
      <trkpt lat="38.059260" lon="-4.189318">
        <ele>211.5</ele>
        <time>2009-04-06T16:48:37Z</time>
      </trkpt>
      <trkpt lat="38.059613" lon="-4.189369">
        <ele>211.6</ele>
        <time>2009-04-06T16:48:44Z</time>
      </trkpt>
      <trkpt lat="38.060085" lon="-4.189493">
        <ele>211.7</ele>
        <time>2009-04-06T16:48:53Z</time>
      </trkpt>
      <trkpt lat="38.060633" lon="-4.189658">
        <ele>209.7</ele>
        <time>2009-04-06T16:48:59Z</time>
      </trkpt>
      <trkpt lat="38.060928" lon="-4.189896">
        <ele>211.4</ele>
        <time>2009-04-06T16:49:06Z</time>
      </trkpt>
      <trkpt lat="38.060929" lon="-4.189896">
        <ele>211.3</ele>
        <time>2009-04-06T16:49:27Z</time>
      </trkpt>
      <trkpt lat="38.060980" lon="-4.190028">
        <ele>213.3</ele>
        <time>2009-04-06T16:49:42Z</time>
      </trkpt>
      <trkpt lat="38.060977" lon="-4.190060">
        <ele>213.9</ele>
        <time>2009-04-06T16:50:03Z</time>
      </trkpt>
      <trkpt lat="38.060970" lon="-4.190054">
        <ele>213.9</ele>
        <time>2009-04-06T16:50:46Z</time>
      </trkpt>
      <trkpt lat="38.060968" lon="-4.190051">
        <ele>213.8</ele>
        <time>2009-04-06T16:51:15Z</time>
      </trkpt>
      <trkpt lat="38.060973" lon="-4.190030">
        <ele>213.4</ele>
        <time>2009-04-06T16:51:46Z</time>
      </trkpt>
      <trkpt lat="38.060980" lon="-4.190022">
        <ele>213.2</ele>
        <time>2009-04-06T16:51:51Z</time>
      </trkpt>
      <trkpt lat="38.061043" lon="-4.190018">
        <ele>212.8</ele>
        <time>2009-04-06T16:52:10Z</time>
      </trkpt>
      <trkpt lat="38.061043" lon="-4.190027">
        <ele>212.9</ele>
        <time>2009-04-06T16:52:17Z</time>
      </trkpt>
      <trkpt lat="38.061334" lon="-4.190289">
        <ele>213.0</ele>
        <time>2009-04-06T16:52:26Z</time>
      </trkpt>
      <trkpt lat="38.061495" lon="-4.190420">
        <ele>211.8</ele>
        <time>2009-04-06T16:52:29Z</time>
      </trkpt>
      <trkpt lat="38.061940" lon="-4.190404">
        <ele>207.2</ele>
        <time>2009-04-06T16:52:36Z</time>
      </trkpt>
      <trkpt lat="38.062297" lon="-4.190082">
        <ele>213.0</ele>
        <time>2009-04-06T16:52:42Z</time>
      </trkpt>
      <trkpt lat="38.062569" lon="-4.190006">
        <ele>216.4</ele>
        <time>2009-04-06T16:52:47Z</time>
      </trkpt>
      <trkpt lat="38.062654" lon="-4.190015">
        <ele>217.3</ele>
        <time>2009-04-06T16:52:56Z</time>
      </trkpt>
      <trkpt lat="38.062658" lon="-4.190015">
        <ele>217.4</ele>
        <time>2009-04-06T16:53:00Z</time>
      </trkpt>
      <trkpt lat="38.062728" lon="-4.190054">
        <ele>218.0</ele>
        <time>2009-04-06T16:53:14Z</time>
      </trkpt>
      <trkpt lat="38.062744" lon="-4.190066">
        <ele>218.1</ele>
        <time>2009-04-06T16:53:28Z</time>
      </trkpt>
      <trkpt lat="38.062723" lon="-4.190064">
        <ele>218.0</ele>
        <time>2009-04-06T16:54:10Z</time>
      </trkpt>
      <trkpt lat="38.062730" lon="-4.190059">
        <ele>218.0</ele>
        <time>2009-04-06T16:54:49Z</time>
      </trkpt>
      <trkpt lat="38.062709" lon="-4.190052">
        <ele>217.9</ele>
        <time>2009-04-06T16:56:06Z</time>
      </trkpt>
      <trkpt lat="38.062714" lon="-4.190052">
        <ele>217.9</ele>
        <time>2009-04-06T16:56:21Z</time>
      </trkpt>
      <trkpt lat="38.062729" lon="-4.190067">
        <ele>218.0</ele>
        <time>2009-04-06T16:56:29Z</time>
      </trkpt>
      <trkpt lat="38.062920" lon="-4.190098">
        <ele>219.5</ele>
        <time>2009-04-06T16:56:35Z</time>
      </trkpt>
      <trkpt lat="38.063027" lon="-4.190088">
        <ele>220.2</ele>
        <time>2009-04-06T16:56:37Z</time>
      </trkpt>
      <trkpt lat="38.063723" lon="-4.189696">
        <ele>220.0</ele>
        <time>2009-04-06T16:56:48Z</time>
      </trkpt>
      <trkpt lat="38.063848" lon="-4.189626">
        <ele>219.6</ele>
        <time>2009-04-06T16:56:50Z</time>
      </trkpt>
      <trkpt lat="38.064205" lon="-4.189639">
        <ele>220.7</ele>
        <time>2009-04-06T16:56:56Z</time>
      </trkpt>
      <trkpt lat="38.064418" lon="-4.189800">
        <ele>223.2</ele>
        <time>2009-04-06T16:57:04Z</time>
      </trkpt>
      <trkpt lat="38.064382" lon="-4.189790">
        <ele>223.0</ele>
        <time>2009-04-06T16:57:22Z</time>
      </trkpt>
      <trkpt lat="38.064442" lon="-4.189833">
        <ele>223.6</ele>
        <time>2009-04-06T16:57:40Z</time>
      </trkpt>
      <trkpt lat="38.064578" lon="-4.189913">
        <ele>224.9</ele>
        <time>2009-04-06T16:57:58Z</time>
      </trkpt>
      <trkpt lat="38.064609" lon="-4.189947">
        <ele>225.3</ele>
        <time>2009-04-06T16:58:06Z</time>
      </trkpt>
      <trkpt lat="38.064637" lon="-4.189989">
        <ele>225.9</ele>
        <time>2009-04-06T16:58:10Z</time>
      </trkpt>
      <trkpt lat="38.064699" lon="-4.190024">
        <ele>226.4</ele>
        <time>2009-04-06T16:58:27Z</time>
      </trkpt>
      <trkpt lat="38.064704" lon="-4.190021">
        <ele>226.4</ele>
        <time>2009-04-06T16:59:47Z</time>
      </trkpt>
      <trkpt lat="38.064710" lon="-4.190011">
        <ele>226.3</ele>
        <time>2009-04-06T17:00:00Z</time>
      </trkpt>
      <trkpt lat="38.064757" lon="-4.189979">
        <ele>226.0</ele>
        <time>2009-04-06T17:00:19Z</time>
      </trkpt>
      <trkpt lat="38.064750" lon="-4.189995">
        <ele>226.2</ele>
        <time>2009-04-06T17:00:47Z</time>
      </trkpt>
      <trkpt lat="38.064808" lon="-4.190037">
        <ele>226.7</ele>
        <time>2009-04-06T17:00:50Z</time>
      </trkpt>
      <trkpt lat="38.065457" lon="-4.190114">
        <ele>229.4</ele>
        <time>2009-04-06T17:01:00Z</time>
      </trkpt>
      <trkpt lat="38.065671" lon="-4.190117">
        <ele>230.4</ele>
        <time>2009-04-06T17:01:03Z</time>
      </trkpt>
      <trkpt lat="38.066222" lon="-4.190339">
        <ele>233.3</ele>
        <time>2009-04-06T17:01:13Z</time>
      </trkpt>
      <trkpt lat="38.066512" lon="-4.190366">
        <ele>232.9</ele>
        <time>2009-04-06T17:01:18Z</time>
      </trkpt>
      <trkpt lat="38.066902" lon="-4.190250">
        <ele>230.6</ele>
        <time>2009-04-06T17:01:23Z</time>
      </trkpt>
      <trkpt lat="38.067961" lon="-4.190285">
        <ele>233.8</ele>
        <time>2009-04-06T17:01:33Z</time>
      </trkpt>
      <trkpt lat="38.069024" lon="-4.190158">
        <ele>236.3</ele>
        <time>2009-04-06T17:01:43Z</time>
      </trkpt>
      <trkpt lat="38.069090" lon="-4.190144">
        <ele>236.4</ele>
        <time>2009-04-06T17:01:49Z</time>
      </trkpt>
      <trkpt lat="38.069144" lon="-4.190143">
        <ele>236.5</ele>
        <time>2009-04-06T17:02:03Z</time>
      </trkpt>
      <trkpt lat="38.069262" lon="-4.190140">
        <ele>236.5</ele>
        <time>2009-04-06T17:02:21Z</time>
      </trkpt>
      <trkpt lat="38.069523" lon="-4.190182">
        <ele>237.8</ele>
        <time>2009-04-06T17:02:41Z</time>
      </trkpt>
      <trkpt lat="38.069564" lon="-4.190215">
        <ele>238.1</ele>
        <time>2009-04-06T17:02:55Z</time>
      </trkpt>
      <trkpt lat="38.069548" lon="-4.190228">
        <ele>237.9</ele>
        <time>2009-04-06T17:03:55Z</time>
      </trkpt>
      <trkpt lat="38.069572" lon="-4.190202">
        <ele>238.2</ele>
        <time>2009-04-06T17:04:19Z</time>
      </trkpt>
      <trkpt lat="38.069589" lon="-4.190199">
        <ele>238.3</ele>
        <time>2009-04-06T17:04:40Z</time>
      </trkpt>
      <trkpt lat="38.069982" lon="-4.190159">
        <ele>241.7</ele>
        <time>2009-04-06T17:04:49Z</time>
      </trkpt>
      <trkpt lat="38.070688" lon="-4.190203">
        <ele>244.4</ele>
        <time>2009-04-06T17:05:00Z</time>
      </trkpt>
      <trkpt lat="38.070973" lon="-4.190230">
        <ele>245.0</ele>
        <time>2009-04-06T17:05:05Z</time>
      </trkpt>
      <trkpt lat="38.071252" lon="-4.190126">
        <ele>245.7</ele>
        <time>2009-04-06T17:05:09Z</time>
      </trkpt>
      <trkpt lat="38.071673" lon="-4.190052">
        <ele>246.6</ele>
        <time>2009-04-06T17:05:15Z</time>
      </trkpt>
      <trkpt lat="38.071920" lon="-4.190259">
        <ele>246.8</ele>
        <time>2009-04-06T17:05:24Z</time>
      </trkpt>
      <trkpt lat="38.072515" lon="-4.190679">
        <ele>253.1</ele>
        <time>2009-04-06T17:05:33Z</time>
      </trkpt>
      <trkpt lat="38.072669" lon="-4.190790">
        <ele>255.2</ele>
        <time>2009-04-06T17:05:35Z</time>
      </trkpt>
      <trkpt lat="38.072896" lon="-4.190843">
        <ele>255.6</ele>
        <time>2009-04-06T17:05:39Z</time>
      </trkpt>
      <trkpt lat="38.072963" lon="-4.190832">
        <ele>255.1</ele>
        <time>2009-04-06T17:05:51Z</time>
      </trkpt>
      <trkpt lat="38.072937" lon="-4.190800">
        <ele>254.6</ele>
        <time>2009-04-06T17:06:18Z</time>
      </trkpt>
      <trkpt lat="38.072926" lon="-4.190801">
        <ele>254.7</ele>
        <time>2009-04-06T17:06:43Z</time>
      </trkpt>
      <trkpt lat="38.073037" lon="-4.190821">
        <ele>254.7</ele>
        <time>2009-04-06T17:07:00Z</time>
      </trkpt>
      <trkpt lat="38.073034" lon="-4.190812">
        <ele>254.5</ele>
        <time>2009-04-06T17:07:55Z</time>
      </trkpt>
      <trkpt lat="38.073036" lon="-4.190818">
        <ele>254.6</ele>
        <time>2009-04-06T17:07:56Z</time>
      </trkpt>
      <trkpt lat="38.073065" lon="-4.190835">
        <ele>254.8</ele>
        <time>2009-04-06T17:08:00Z</time>
      </trkpt>
      <trkpt lat="38.073063" lon="-4.190855">
        <ele>255.1</ele>
        <time>2009-04-06T17:08:14Z</time>
      </trkpt>
      <trkpt lat="38.073084" lon="-4.190848">
        <ele>254.9</ele>
        <time>2009-04-06T17:08:53Z</time>
      </trkpt>
      <trkpt lat="38.073093" lon="-4.190848">
        <ele>254.9</ele>
        <time>2009-04-06T17:09:02Z</time>
      </trkpt>
      <trkpt lat="38.073078" lon="-4.190817">
        <ele>254.5</ele>
        <time>2009-04-06T17:09:09Z</time>
      </trkpt>
      <trkpt lat="38.073078" lon="-4.190818">
        <ele>254.5</ele>
        <time>2009-04-06T17:09:10Z</time>
      </trkpt>
      <trkpt lat="38.073343" lon="-4.190857">
        <ele>254.1</ele>
        <time>2009-04-06T17:09:17Z</time>
      </trkpt>
      <trkpt lat="38.073538" lon="-4.190935">
        <ele>254.1</ele>
        <time>2009-04-06T17:09:20Z</time>
      </trkpt>
      <trkpt lat="38.074405" lon="-4.191582">
        <ele>258.4</ele>
        <time>2009-04-06T17:09:32Z</time>
      </trkpt>
      <trkpt lat="38.074953" lon="-4.191588">
        <ele>256.6</ele>
        <time>2009-04-06T17:09:38Z</time>
      </trkpt>
      <trkpt lat="38.075727" lon="-4.191869">
        <ele>256.7</ele>
        <time>2009-04-06T17:09:47Z</time>
      </trkpt>
      <trkpt lat="38.075856" lon="-4.191966">
        <ele>256.6</ele>
        <time>2009-04-06T17:09:55Z</time>
      </trkpt>
      <trkpt lat="38.076008" lon="-4.192019">
        <ele>257.5</ele>
        <time>2009-04-06T17:09:59Z</time>
      </trkpt>
      <trkpt lat="38.076336" lon="-4.191984">
        <ele>255.6</ele>
        <time>2009-04-06T17:10:04Z</time>
      </trkpt>
      <trkpt lat="38.076695" lon="-4.192094">
        <ele>256.6</ele>
        <time>2009-04-06T17:10:09Z</time>
      </trkpt>
      <trkpt lat="38.077411" lon="-4.192806">
        <ele>263.1</ele>
        <time>2009-04-06T17:10:23Z</time>
      </trkpt>
      <trkpt lat="38.077654" lon="-4.193021">
        <ele>264.5</ele>
        <time>2009-04-06T17:10:31Z</time>
      </trkpt>
      <trkpt lat="38.077656" lon="-4.193037">
        <ele>264.7</ele>
        <time>2009-04-06T17:10:44Z</time>
      </trkpt>
      <trkpt lat="38.077620" lon="-4.193026">
        <ele>264.9</ele>
        <time>2009-04-06T17:12:12Z</time>
      </trkpt>
      <trkpt lat="38.077625" lon="-4.193009">
        <ele>264.6</ele>
        <time>2009-04-06T17:12:56Z</time>
      </trkpt>
      <trkpt lat="38.077637" lon="-4.192995">
        <ele>264.3</ele>
        <time>2009-04-06T17:13:24Z</time>
      </trkpt>
      <trkpt lat="38.077627" lon="-4.192986">
        <ele>264.2</ele>
        <time>2009-04-06T17:13:36Z</time>
      </trkpt>
      <trkpt lat="38.077627" lon="-4.192987">
        <ele>264.2</ele>
        <time>2009-04-06T17:13:43Z</time>
      </trkpt>
      <trkpt lat="38.077884" lon="-4.193254">
        <ele>267.3</ele>
        <time>2009-04-06T17:13:52Z</time>
      </trkpt>
      <trkpt lat="38.078199" lon="-4.193429">
        <ele>267.7</ele>
        <time>2009-04-06T17:13:57Z</time>
      </trkpt>
      <trkpt lat="38.079104" lon="-4.194170">
        <ele>272.0</ele>
        <time>2009-04-06T17:14:09Z</time>
      </trkpt>
      <trkpt lat="38.080072" lon="-4.194904">
        <ele>272.7</ele>
        <time>2009-04-06T17:14:21Z</time>
      </trkpt>
      <trkpt lat="38.080453" lon="-4.194890">
        <ele>273.2</ele>
        <time>2009-04-06T17:14:26Z</time>
      </trkpt>
      <trkpt lat="38.081313" lon="-4.194229">
        <ele>274.6</ele>
        <time>2009-04-06T17:14:38Z</time>
      </trkpt>
      <trkpt lat="38.081330" lon="-4.194210">
        <ele>274.7</ele>
        <time>2009-04-06T17:14:48Z</time>
      </trkpt>
      <trkpt lat="38.081442" lon="-4.194154">
        <ele>275.0</ele>
        <time>2009-04-06T17:14:58Z</time>
      </trkpt>
      <trkpt lat="38.081892" lon="-4.194223">
        <ele>275.0</ele>
        <time>2009-04-06T17:15:06Z</time>
      </trkpt>
      <trkpt lat="38.081961" lon="-4.194095">
        <ele>275.7</ele>
        <time>2009-04-06T17:15:08Z</time>
      </trkpt>
      <trkpt lat="38.082053" lon="-4.193760">
        <ele>277.2</ele>
        <time>2009-04-06T17:15:12Z</time>
      </trkpt>
      <trkpt lat="38.082333" lon="-4.193662">
        <ele>278.6</ele>
        <time>2009-04-06T17:15:18Z</time>
      </trkpt>
      <trkpt lat="38.082378" lon="-4.193733">
        <ele>278.5</ele>
        <time>2009-04-06T17:15:19Z</time>
      </trkpt>
      <trkpt lat="38.082517" lon="-4.193988">
        <ele>277.8</ele>
        <time>2009-04-06T17:15:22Z</time>
      </trkpt>
      <trkpt lat="38.082795" lon="-4.194209">
        <ele>279.0</ele>
        <time>2009-04-06T17:15:26Z</time>
      </trkpt>
      <trkpt lat="38.083229" lon="-4.194176">
        <ele>285.8</ele>
        <time>2009-04-06T17:15:32Z</time>
      </trkpt>
      <trkpt lat="38.083512" lon="-4.193874">
        <ele>288.4</ele>
        <time>2009-04-06T17:15:36Z</time>
      </trkpt>
      <trkpt lat="38.083836" lon="-4.193230">
        <ele>293.0</ele>
        <time>2009-04-06T17:15:42Z</time>
      </trkpt>
      <trkpt lat="38.084611" lon="-4.192688">
        <ele>295.1</ele>
        <time>2009-04-06T17:15:51Z</time>
      </trkpt>
      <trkpt lat="38.084795" lon="-4.192571">
        <ele>297.6</ele>
        <time>2009-04-06T17:15:53Z</time>
      </trkpt>
      <trkpt lat="38.085415" lon="-4.191712">
        <ele>305.4</ele>
        <time>2009-04-06T17:16:02Z</time>
      </trkpt>
      <trkpt lat="38.085691" lon="-4.190939">
        <ele>313.4</ele>
        <time>2009-04-06T17:16:07Z</time>
      </trkpt>
      <trkpt lat="38.086173" lon="-4.191116">
        <ele>307.6</ele>
        <time>2009-04-06T17:16:13Z</time>
      </trkpt>
      <trkpt lat="38.086312" lon="-4.190854">
        <ele>311.4</ele>
        <time>2009-04-06T17:16:20Z</time>
      </trkpt>
      <trkpt lat="38.086303" lon="-4.190622">
        <ele>314.4</ele>
        <time>2009-04-06T17:16:30Z</time>
      </trkpt>
      <trkpt lat="38.086281" lon="-4.190587">
        <ele>314.9</ele>
        <time>2009-04-06T17:17:36Z</time>
      </trkpt>
      <trkpt lat="38.086426" lon="-4.190369">
        <ele>318.1</ele>
        <time>2009-04-06T17:18:41Z</time>
      </trkpt>
      <trkpt lat="38.086614" lon="-4.190431">
        <ele>317.7</ele>
        <time>2009-04-06T17:18:48Z</time>
      </trkpt>
      <trkpt lat="38.086660" lon="-4.190486">
        <ele>317.1</ele>
        <time>2009-04-06T17:18:49Z</time>
      </trkpt>
      <trkpt lat="38.087123" lon="-4.191118">
        <ele>311.2</ele>
        <time>2009-04-06T17:18:57Z</time>
      </trkpt>
      <trkpt lat="38.087400" lon="-4.191216">
        <ele>313.0</ele>
        <time>2009-04-06T17:19:01Z</time>
      </trkpt>
      <trkpt lat="38.087804" lon="-4.191139">
        <ele>315.7</ele>
        <time>2009-04-06T17:19:06Z</time>
      </trkpt>
      <trkpt lat="38.088039" lon="-4.190974">
        <ele>319.2</ele>
        <time>2009-04-06T17:19:10Z</time>
      </trkpt>
      <trkpt lat="38.088201" lon="-4.190746">
        <ele>322.1</ele>
        <time>2009-04-06T17:19:13Z</time>
      </trkpt>
      <trkpt lat="38.088342" lon="-4.190140">
        <ele>328.0</ele>
        <time>2009-04-06T17:19:21Z</time>
      </trkpt>
      <trkpt lat="38.088334" lon="-4.190078">
        <ele>329.0</ele>
        <time>2009-04-06T17:19:31Z</time>
      </trkpt>
      <trkpt lat="38.088348" lon="-4.190037">
        <ele>329.5</ele>
        <time>2009-04-06T17:19:38Z</time>
      </trkpt>
      <trkpt lat="38.088378" lon="-4.189891">
        <ele>331.5</ele>
        <time>2009-04-06T17:19:53Z</time>
      </trkpt>
      <trkpt lat="38.088381" lon="-4.189852">
        <ele>332.1</ele>
        <time>2009-04-06T17:20:08Z</time>
      </trkpt>
      <trkpt lat="38.088377" lon="-4.189861">
        <ele>332.0</ele>
        <time>2009-04-06T17:20:26Z</time>
      </trkpt>
      <trkpt lat="38.088385" lon="-4.189876">
        <ele>331.7</ele>
        <time>2009-04-06T17:21:38Z</time>
      </trkpt>
      <trkpt lat="38.088370" lon="-4.189923">
        <ele>331.1</ele>
        <time>2009-04-06T17:22:07Z</time>
      </trkpt>
      <trkpt lat="38.088382" lon="-4.189912">
        <ele>331.2</ele>
        <time>2009-04-06T17:22:15Z</time>
      </trkpt>
      <trkpt lat="38.088410" lon="-4.189670">
        <ele>334.7</ele>
        <time>2009-04-06T17:22:21Z</time>
      </trkpt>
      <trkpt lat="38.088632" lon="-4.188620">
        <ele>337.8</ele>
        <time>2009-04-06T17:22:33Z</time>
      </trkpt>
      <trkpt lat="38.088714" lon="-4.188223">
        <ele>335.6</ele>
        <time>2009-04-06T17:22:37Z</time>
      </trkpt>
      <trkpt lat="38.089049" lon="-4.187966">
        <ele>338.3</ele>
        <time>2009-04-06T17:22:43Z</time>
      </trkpt>
      <trkpt lat="38.089434" lon="-4.187914">
        <ele>342.9</ele>
        <time>2009-04-06T17:22:47Z</time>
      </trkpt>
      <trkpt lat="38.089677" lon="-4.187655">
        <ele>342.0</ele>
        <time>2009-04-06T17:22:51Z</time>
      </trkpt>
      <trkpt lat="38.089865" lon="-4.187414">
        <ele>340.7</ele>
        <time>2009-04-06T17:22:54Z</time>
      </trkpt>
      <trkpt lat="38.090021" lon="-4.187038">
        <ele>337.5</ele>
        <time>2009-04-06T17:22:58Z</time>
      </trkpt>
      <trkpt lat="38.090092" lon="-4.186162">
        <ele>338.4</ele>
        <time>2009-04-06T17:23:06Z</time>
      </trkpt>
      <trkpt lat="38.090345" lon="-4.185570">
        <ele>341.8</ele>
        <time>2009-04-06T17:23:13Z</time>
      </trkpt>
      <trkpt lat="38.090637" lon="-4.185330">
        <ele>343.8</ele>
        <time>2009-04-06T17:23:18Z</time>
      </trkpt>
      <trkpt lat="38.090918" lon="-4.185247">
        <ele>344.5</ele>
        <time>2009-04-06T17:23:21Z</time>
      </trkpt>
      <trkpt lat="38.091108" lon="-4.184968">
        <ele>340.0</ele>
        <time>2009-04-06T17:23:25Z</time>
      </trkpt>
      <trkpt lat="38.091507" lon="-4.183804">
        <ele>337.7</ele>
        <time>2009-04-06T17:23:35Z</time>
      </trkpt>
      <trkpt lat="38.091554" lon="-4.183704">
        <ele>339.2</ele>
        <time>2009-04-06T17:23:36Z</time>
      </trkpt>
      <trkpt lat="38.092149" lon="-4.183120">
        <ele>350.0</ele>
        <time>2009-04-06T17:23:43Z</time>
      </trkpt>
      <trkpt lat="38.092214" lon="-4.182834">
        <ele>350.9</ele>
        <time>2009-04-06T17:23:49Z</time>
      </trkpt>
      <trkpt lat="38.092053" lon="-4.182326">
        <ele>345.3</ele>
        <time>2009-04-06T17:23:52Z</time>
      </trkpt>
      <trkpt lat="38.092058" lon="-4.181929">
        <ele>343.9</ele>
        <time>2009-04-06T17:23:59Z</time>
      </trkpt>
      <trkpt lat="38.092289" lon="-4.181838">
        <ele>351.2</ele>
        <time>2009-04-06T17:24:01Z</time>
      </trkpt>
      <trkpt lat="38.092428" lon="-4.181845">
        <ele>355.7</ele>
        <time>2009-04-06T17:24:03Z</time>
      </trkpt>
      <trkpt lat="38.092895" lon="-4.181690">
        <ele>365.5</ele>
        <time>2009-04-06T17:24:08Z</time>
      </trkpt>
      <trkpt lat="38.093446" lon="-4.181585">
        <ele>372.6</ele>
        <time>2009-04-06T17:24:13Z</time>
      </trkpt>
      <trkpt lat="38.094225" lon="-4.181240">
        <ele>388.9</ele>
        <time>2009-04-06T17:24:21Z</time>
      </trkpt>
      <trkpt lat="38.095381" lon="-4.181089">
        <ele>406.1</ele>
        <time>2009-04-06T17:24:32Z</time>
      </trkpt>
      <trkpt lat="38.095461" lon="-4.181078">
        <ele>407.0</ele>
        <time>2009-04-06T17:24:33Z</time>
      </trkpt>
      <trkpt lat="38.095471" lon="-4.180833">
        <ele>403.0</ele>
        <time>2009-04-06T17:24:39Z</time>
      </trkpt>
      <trkpt lat="38.095065" lon="-4.180550">
        <ele>390.4</ele>
        <time>2009-04-06T17:24:44Z</time>
      </trkpt>
      <trkpt lat="38.094759" lon="-4.179910">
        <ele>381.6</ele>
        <time>2009-04-06T17:24:51Z</time>
      </trkpt>
      <trkpt lat="38.094721" lon="-4.179790">
        <ele>381.5</ele>
        <time>2009-04-06T17:24:59Z</time>
      </trkpt>
      <trkpt lat="38.094716" lon="-4.179705">
        <ele>382.0</ele>
        <time>2009-04-06T17:25:14Z</time>
      </trkpt>
      <trkpt lat="38.094716" lon="-4.179705">
        <ele>382.0</ele>
        <time>2009-04-06T17:25:25Z</time>
      </trkpt>
      <trkpt lat="38.094715" lon="-4.179705">
        <ele>382.0</ele>
        <time>2009-04-06T17:25:38Z</time>
      </trkpt>
      <trkpt lat="38.094716" lon="-4.179705">
        <ele>382.0</ele>
        <time>2009-04-06T17:25:50Z</time>
      </trkpt>
      <trkpt lat="38.094989" lon="-4.179436">
        <ele>392.1</ele>
        <time>2009-04-06T17:25:59Z</time>
      </trkpt>
      <trkpt lat="38.095115" lon="-4.179346">
        <ele>395.8</ele>
        <time>2009-04-06T17:26:01Z</time>
      </trkpt>
      <trkpt lat="38.095292" lon="-4.179162">
        <ele>399.8</ele>
        <time>2009-04-06T17:26:04Z</time>
      </trkpt>
      <trkpt lat="38.095569" lon="-4.178942">
        <ele>405.9</ele>
        <time>2009-04-06T17:26:08Z</time>
      </trkpt>
      <trkpt lat="38.096106" lon="-4.178680">
        <ele>419.1</ele>
        <time>2009-04-06T17:26:14Z</time>
      </trkpt>
      <trkpt lat="38.096442" lon="-4.178279">
        <ele>420.6</ele>
        <time>2009-04-06T17:26:20Z</time>
      </trkpt>
      <trkpt lat="38.096713" lon="-4.178118">
        <ele>424.8</ele>
        <time>2009-04-06T17:26:26Z</time>
      </trkpt>
      <trkpt lat="38.096684" lon="-4.177901">
        <ele>422.4</ele>
        <time>2009-04-06T17:26:27Z</time>
      </trkpt>
      <trkpt lat="38.096569" lon="-4.177644">
        <ele>417.8</ele>
        <time>2009-04-06T17:26:34Z</time>
      </trkpt>
      <trkpt lat="38.096584" lon="-4.177637">
        <ele>418.1</ele>
        <time>2009-04-06T17:26:48Z</time>
      </trkpt>
      <trkpt lat="38.096587" lon="-4.177643">
        <ele>418.2</ele>
        <time>2009-04-06T17:27:11Z</time>
      </trkpt>
      <trkpt lat="38.096601" lon="-4.177534">
        <ele>418.0</ele>
        <time>2009-04-06T17:27:40Z</time>
      </trkpt>
      <trkpt lat="38.096689" lon="-4.177465">
        <ele>419.7</ele>
        <time>2009-04-06T17:27:43Z</time>
      </trkpt>
      <trkpt lat="38.096912" lon="-4.177421">
        <ele>424.9</ele>
        <time>2009-04-06T17:27:47Z</time>
      </trkpt>
      <trkpt lat="38.097158" lon="-4.177262">
        <ele>430.5</ele>
        <time>2009-04-06T17:27:51Z</time>
      </trkpt>
      <trkpt lat="38.097756" lon="-4.176657">
        <ele>439.3</ele>
        <time>2009-04-06T17:28:01Z</time>
      </trkpt>
      <trkpt lat="38.097943" lon="-4.176267">
        <ele>437.0</ele>
        <time>2009-04-06T17:28:07Z</time>
      </trkpt>
      <trkpt lat="38.097990" lon="-4.176124">
        <ele>435.9</ele>
        <time>2009-04-06T17:28:17Z</time>
      </trkpt>
      <trkpt lat="38.097932" lon="-4.176134">
        <ele>434.7</ele>
        <time>2009-04-06T17:28:42Z</time>
      </trkpt>
      <trkpt lat="38.097945" lon="-4.176121">
        <ele>434.8</ele>
        <time>2009-04-06T17:29:02Z</time>
      </trkpt>
      <trkpt lat="38.097918" lon="-4.176099">
        <ele>434.0</ele>
        <time>2009-04-06T17:30:39Z</time>
      </trkpt>
      <trkpt lat="38.097892" lon="-4.176113">
        <ele>433.5</ele>
        <time>2009-04-06T17:30:59Z</time>
      </trkpt>
      <trkpt lat="38.097886" lon="-4.176123">
        <ele>433.5</ele>
        <time>2009-04-06T17:32:28Z</time>
      </trkpt>
      <trkpt lat="38.097897" lon="-4.176117">
        <ele>433.7</ele>
        <time>2009-04-06T17:33:02Z</time>
      </trkpt>
      <trkpt lat="38.097902" lon="-4.176116">
        <ele>433.8</ele>
        <time>2009-04-06T17:33:04Z</time>
      </trkpt>
      <trkpt lat="38.097933" lon="-4.176110">
        <ele>434.4</ele>
        <time>2009-04-06T17:33:18Z</time>
      </trkpt>
      <trkpt lat="38.097938" lon="-4.176094">
        <ele>434.4</ele>
        <time>2009-04-06T17:33:41Z</time>
      </trkpt>
      <trkpt lat="38.097965" lon="-4.176109">
        <ele>435.1</ele>
        <time>2009-04-06T17:36:23Z</time>
      </trkpt>
      <trkpt lat="38.098093" lon="-4.175878">
        <ele>435.9</ele>
        <time>2009-04-06T17:36:31Z</time>
      </trkpt>
      <trkpt lat="38.098356" lon="-4.175852">
        <ele>442.0</ele>
        <time>2009-04-06T17:36:37Z</time>
      </trkpt>
      <trkpt lat="38.098619" lon="-4.175863">
        <ele>448.2</ele>
        <time>2009-04-06T17:36:42Z</time>
      </trkpt>
      <trkpt lat="38.099215" lon="-4.175587">
        <ele>458.6</ele>
        <time>2009-04-06T17:36:52Z</time>
      </trkpt>
      <trkpt lat="38.099561" lon="-4.175368">
        <ele>461.1</ele>
        <time>2009-04-06T17:36:57Z</time>
      </trkpt>
      <trkpt lat="38.099660" lon="-4.175152">
        <ele>460.0</ele>
        <time>2009-04-06T17:37:03Z</time>
      </trkpt>
      <trkpt lat="38.099539" lon="-4.174746">
        <ele>453.6</ele>
        <time>2009-04-06T17:37:10Z</time>
      </trkpt>
      <trkpt lat="38.099666" lon="-4.174492">
        <ele>453.1</ele>
        <time>2009-04-06T17:37:12Z</time>
      </trkpt>
      <trkpt lat="38.099840" lon="-4.174013">
        <ele>454.4</ele>
        <time>2009-04-06T17:37:19Z</time>
      </trkpt>
      <trkpt lat="38.099652" lon="-4.173712">
        <ele>447.8</ele>
        <time>2009-04-06T17:37:22Z</time>
      </trkpt>
      <trkpt lat="38.099717" lon="-4.173340">
        <ele>448.0</ele>
        <time>2009-04-06T17:37:28Z</time>
      </trkpt>
      <trkpt lat="38.099895" lon="-4.173084">
        <ele>451.2</ele>
        <time>2009-04-06T17:37:32Z</time>
      </trkpt>
      <trkpt lat="38.100301" lon="-4.172966">
        <ele>457.7</ele>
        <time>2009-04-06T17:37:40Z</time>
      </trkpt>
      <trkpt lat="38.100400" lon="-4.173000">
        <ele>458.3</ele>
        <time>2009-04-06T17:37:42Z</time>
      </trkpt>
      <trkpt lat="38.100645" lon="-4.172938">
        <ele>459.1</ele>
        <time>2009-04-06T17:37:47Z</time>
      </trkpt>
      <trkpt lat="38.100831" lon="-4.172745">
        <ele>459.2</ele>
        <time>2009-04-06T17:37:51Z</time>
      </trkpt>
      <trkpt lat="38.100977" lon="-4.172450">
        <ele>456.8</ele>
        <time>2009-04-06T17:37:55Z</time>
      </trkpt>
      <trkpt lat="38.101088" lon="-4.172120">
        <ele>453.3</ele>
        <time>2009-04-06T17:37:59Z</time>
      </trkpt>
      <trkpt lat="38.101322" lon="-4.171868">
        <ele>450.9</ele>
        <time>2009-04-06T17:38:04Z</time>
      </trkpt>
      <trkpt lat="38.102195" lon="-4.171340">
        <ele>450.2</ele>
        <time>2009-04-06T17:38:18Z</time>
      </trkpt>
      <trkpt lat="38.102375" lon="-4.171080">
        <ele>450.0</ele>
        <time>2009-04-06T17:38:22Z</time>
      </trkpt>
      <trkpt lat="38.102644" lon="-4.170876">
        <ele>450.7</ele>
        <time>2009-04-06T17:38:27Z</time>
      </trkpt>
      <trkpt lat="38.103196" lon="-4.170843">
        <ele>455.4</ele>
        <time>2009-04-06T17:38:34Z</time>
      </trkpt>
      <trkpt lat="38.103466" lon="-4.170625">
        <ele>456.7</ele>
        <time>2009-04-06T17:38:39Z</time>
      </trkpt>
      <trkpt lat="38.103559" lon="-4.170264">
        <ele>455.4</ele>
        <time>2009-04-06T17:38:43Z</time>
      </trkpt>
      <trkpt lat="38.103638" lon="-4.169596">
        <ele>459.9</ele>
        <time>2009-04-06T17:38:48Z</time>
      </trkpt>
      <trkpt lat="38.103823" lon="-4.169357">
        <ele>459.7</ele>
        <time>2009-04-06T17:38:55Z</time>
      </trkpt>
      <trkpt lat="38.104154" lon="-4.169238">
        <ele>459.2</ele>
        <time>2009-04-06T17:39:05Z</time>
      </trkpt>
      <trkpt lat="38.104167" lon="-4.169235">
        <ele>459.2</ele>
        <time>2009-04-06T17:39:22Z</time>
      </trkpt>
      <trkpt lat="38.104225" lon="-4.169228">
        <ele>459.2</ele>
        <time>2009-04-06T17:39:39Z</time>
      </trkpt>
      <trkpt lat="38.104237" lon="-4.169213">
        <ele>459.2</ele>
        <time>2009-04-06T17:39:53Z</time>
      </trkpt>
      <trkpt lat="38.104234" lon="-4.169203">
        <ele>459.2</ele>
        <time>2009-04-06T17:40:23Z</time>
      </trkpt>
      <trkpt lat="38.104248" lon="-4.169174">
        <ele>459.2</ele>
        <time>2009-04-06T17:41:08Z</time>
      </trkpt>
      <trkpt lat="38.104256" lon="-4.169188">
        <ele>459.2</ele>
        <time>2009-04-06T17:42:27Z</time>
      </trkpt>
      <trkpt lat="38.104295" lon="-4.169209">
        <ele>459.3</ele>
        <time>2009-04-06T17:42:47Z</time>
      </trkpt>
      <trkpt lat="38.104680" lon="-4.169333">
        <ele>461.9</ele>
        <time>2009-04-06T17:42:57Z</time>
      </trkpt>
      <trkpt lat="38.105036" lon="-4.169462">
        <ele>464.8</ele>
        <time>2009-04-06T17:43:03Z</time>
      </trkpt>
      <trkpt lat="38.105268" lon="-4.169392">
        <ele>467.3</ele>
        <time>2009-04-06T17:43:10Z</time>
      </trkpt>
      <trkpt lat="38.105739" lon="-4.168690">
        <ele>472.4</ele>
        <time>2009-04-06T17:43:19Z</time>
      </trkpt>
      <trkpt lat="38.105909" lon="-4.168511">
        <ele>474.8</ele>
        <time>2009-04-06T17:43:22Z</time>
      </trkpt>
      <trkpt lat="38.106177" lon="-4.168196">
        <ele>479.8</ele>
        <time>2009-04-06T17:43:27Z</time>
      </trkpt>
      <trkpt lat="38.106500" lon="-4.167845">
        <ele>483.1</ele>
        <time>2009-04-06T17:43:34Z</time>
      </trkpt>
      <trkpt lat="38.106921" lon="-4.167764">
        <ele>486.5</ele>
        <time>2009-04-06T17:43:38Z</time>
      </trkpt>
      <trkpt lat="38.107313" lon="-4.167436">
        <ele>493.4</ele>
        <time>2009-04-06T17:43:44Z</time>
      </trkpt>
      <trkpt lat="38.107454" lon="-4.166873">
        <ele>495.1</ele>
        <time>2009-04-06T17:43:50Z</time>
      </trkpt>
      <trkpt lat="38.107436" lon="-4.166707">
        <ele>497.7</ele>
        <time>2009-04-06T17:43:52Z</time>
      </trkpt>
      <trkpt lat="38.107621" lon="-4.166516">
        <ele>499.7</ele>
        <time>2009-04-06T17:43:59Z</time>
      </trkpt>
      <trkpt lat="38.107696" lon="-4.166933">
        <ele>494.7</ele>
        <time>2009-04-06T17:44:05Z</time>
      </trkpt>
      <trkpt lat="38.107805" lon="-4.167578">
        <ele>501.4</ele>
        <time>2009-04-06T17:44:11Z</time>
      </trkpt>
      <trkpt lat="38.107649" lon="-4.168036">
        <ele>502.5</ele>
        <time>2009-04-06T17:44:19Z</time>
      </trkpt>
      <trkpt lat="38.107544" lon="-4.168498">
        <ele>506.4</ele>
        <time>2009-04-06T17:44:26Z</time>
      </trkpt>
      <trkpt lat="38.107649" lon="-4.168841">
        <ele>509.5</ele>
        <time>2009-04-06T17:44:29Z</time>
      </trkpt>
      <trkpt lat="38.107396" lon="-4.169067">
        <ele>503.7</ele>
        <time>2009-04-06T17:44:36Z</time>
      </trkpt>
      <trkpt lat="38.107131" lon="-4.169140">
        <ele>498.3</ele>
        <time>2009-04-06T17:44:37Z</time>
      </trkpt>
      <trkpt lat="38.107072" lon="-4.169455">
        <ele>496.3</ele>
        <time>2009-04-06T17:44:44Z</time>
      </trkpt>
      <trkpt lat="38.107377" lon="-4.169731">
        <ele>502.8</ele>
        <time>2009-04-06T17:44:51Z</time>
      </trkpt>
      <trkpt lat="38.107959" lon="-4.169719">
        <ele>506.8</ele>
        <time>2009-04-06T17:45:04Z</time>
      </trkpt>
      <trkpt lat="38.107998" lon="-4.169676">
        <ele>506.4</ele>
        <time>2009-04-06T17:45:12Z</time>
      </trkpt>
      <trkpt lat="38.108035" lon="-4.169547">
        <ele>506.0</ele>
        <time>2009-04-06T17:45:16Z</time>
      </trkpt>
      <trkpt lat="38.108145" lon="-4.169038">
        <ele>509.0</ele>
        <time>2009-04-06T17:45:28Z</time>
      </trkpt>
      <trkpt lat="38.108138" lon="-4.169023">
        <ele>509.2</ele>
        <time>2009-04-06T17:45:43Z</time>
      </trkpt>
      <trkpt lat="38.108147" lon="-4.169003">
        <ele>509.4</ele>
        <time>2009-04-06T17:46:01Z</time>
      </trkpt>
      <trkpt lat="38.108159" lon="-4.169001">
        <ele>509.4</ele>
        <time>2009-04-06T17:46:26Z</time>
      </trkpt>
      <trkpt lat="38.108157" lon="-4.168998">
        <ele>509.4</ele>
        <time>2009-04-06T17:47:27Z</time>
      </trkpt>
      <trkpt lat="38.108158" lon="-4.168998">
        <ele>509.4</ele>
        <time>2009-04-06T17:48:08Z</time>
      </trkpt>
      <trkpt lat="38.108170" lon="-4.169002">
        <ele>509.4</ele>
        <time>2009-04-06T17:48:24Z</time>
      </trkpt>
      <trkpt lat="38.108354" lon="-4.168770">
        <ele>511.9</ele>
        <time>2009-04-06T17:48:35Z</time>
      </trkpt>
      <trkpt lat="38.108396" lon="-4.168729">
        <ele>512.4</ele>
        <time>2009-04-06T17:48:36Z</time>
      </trkpt>
      <trkpt lat="38.108702" lon="-4.168593">
        <ele>509.0</ele>
        <time>2009-04-06T17:48:41Z</time>
      </trkpt>
      <trkpt lat="38.108936" lon="-4.168424">
        <ele>505.8</ele>
        <time>2009-04-06T17:48:45Z</time>
      </trkpt>
      <trkpt lat="38.109429" lon="-4.167544">
        <ele>520.2</ele>
        <time>2009-04-06T17:48:55Z</time>
      </trkpt>
      <trkpt lat="38.109484" lon="-4.167460">
        <ele>520.5</ele>
        <time>2009-04-06T17:48:56Z</time>
      </trkpt>
      <trkpt lat="38.109963" lon="-4.166984">
        <ele>524.8</ele>
        <time>2009-04-06T17:49:01Z</time>
      </trkpt>
      <trkpt lat="38.110259" lon="-4.167177">
        <ele>514.1</ele>
        <time>2009-04-06T17:49:07Z</time>
      </trkpt>
      <trkpt lat="38.110585" lon="-4.167114">
        <ele>514.4</ele>
        <time>2009-04-06T17:49:13Z</time>
      </trkpt>
      <trkpt lat="38.110839" lon="-4.166518">
        <ele>531.6</ele>
        <time>2009-04-06T17:49:20Z</time>
      </trkpt>
      <trkpt lat="38.111101" lon="-4.166334">
        <ele>536.1</ele>
        <time>2009-04-06T17:49:24Z</time>
      </trkpt>
      <trkpt lat="38.111415" lon="-4.166330">
        <ele>533.9</ele>
        <time>2009-04-06T17:49:28Z</time>
      </trkpt>
      <trkpt lat="38.111931" lon="-4.166169">
        <ele>536.7</ele>
        <time>2009-04-06T17:49:36Z</time>
      </trkpt>
      <trkpt lat="38.112333" lon="-4.166370">
        <ele>530.1</ele>
        <time>2009-04-06T17:49:42Z</time>
      </trkpt>
      <trkpt lat="38.112661" lon="-4.166096">
        <ele>539.9</ele>
        <time>2009-04-06T17:49:48Z</time>
      </trkpt>
      <trkpt lat="38.112582" lon="-4.165506">
        <ele>555.5</ele>
        <time>2009-04-06T17:49:54Z</time>
      </trkpt>
      <trkpt lat="38.112528" lon="-4.165420">
        <ele>557.8</ele>
        <time>2009-04-06T17:49:55Z</time>
      </trkpt>
      <trkpt lat="38.112437" lon="-4.165273">
        <ele>561.3</ele>
        <time>2009-04-06T17:49:57Z</time>
      </trkpt>
      <trkpt lat="38.112564" lon="-4.164680">
        <ele>567.9</ele>
        <time>2009-04-06T17:50:05Z</time>
      </trkpt>
      <trkpt lat="38.112593" lon="-4.164587">
        <ele>568.9</ele>
        <time>2009-04-06T17:50:06Z</time>
      </trkpt>
      <trkpt lat="38.113082" lon="-4.163380">
        <ele>575.0</ele>
        <time>2009-04-06T17:50:17Z</time>
      </trkpt>
      <trkpt lat="38.113451" lon="-4.162626">
        <ele>582.6</ele>
        <time>2009-04-06T17:50:25Z</time>
      </trkpt>
      <trkpt lat="38.113846" lon="-4.162465">
        <ele>588.7</ele>
        <time>2009-04-06T17:50:32Z</time>
      </trkpt>
      <trkpt lat="38.114078" lon="-4.162807">
        <ele>586.6</ele>
        <time>2009-04-06T17:50:37Z</time>
      </trkpt>
      <trkpt lat="38.114569" lon="-4.164257">
        <ele>574.2</ele>
        <time>2009-04-06T17:50:49Z</time>
      </trkpt>
      <trkpt lat="38.114693" lon="-4.164577">
        <ele>568.9</ele>
        <time>2009-04-06T17:50:52Z</time>
      </trkpt>
      <trkpt lat="38.115073" lon="-4.164663">
        <ele>575.4</ele>
        <time>2009-04-06T17:50:58Z</time>
      </trkpt>
      <trkpt lat="38.115207" lon="-4.164257">
        <ele>589.6</ele>
        <time>2009-04-06T17:51:04Z</time>
      </trkpt>
      <trkpt lat="38.115186" lon="-4.164177">
        <ele>591.6</ele>
        <time>2009-04-06T17:51:05Z</time>
      </trkpt>
      <trkpt lat="38.114740" lon="-4.163053">
        <ele>597.1</ele>
        <time>2009-04-06T17:51:16Z</time>
      </trkpt>
      <trkpt lat="38.114918" lon="-4.162471">
        <ele>605.0</ele>
        <time>2009-04-06T17:51:23Z</time>
      </trkpt>
      <trkpt lat="38.115334" lon="-4.162443">
        <ele>607.6</ele>
        <time>2009-04-06T17:51:25Z</time>
      </trkpt>
      <trkpt lat="38.115470" lon="-4.162079">
        <ele>608.0</ele>
        <time>2009-04-06T17:51:33Z</time>
      </trkpt>
      <trkpt lat="38.115293" lon="-4.161879">
        <ele>612.6</ele>
        <time>2009-04-06T17:51:36Z</time>
      </trkpt>
      <trkpt lat="38.115054" lon="-4.161483">
        <ele>617.4</ele>
        <time>2009-04-06T17:51:43Z</time>
      </trkpt>
      <trkpt lat="38.115372" lon="-4.160785">
        <ele>624.2</ele>
        <time>2009-04-06T17:51:52Z</time>
      </trkpt>
      <trkpt lat="38.115430" lon="-4.160566">
        <ele>625.6</ele>
        <time>2009-04-06T17:51:54Z</time>
      </trkpt>
      <trkpt lat="38.115497" lon="-4.160217">
        <ele>628.2</ele>
        <time>2009-04-06T17:51:57Z</time>
      </trkpt>
      <trkpt lat="38.115765" lon="-4.159874">
        <ele>629.3</ele>
        <time>2009-04-06T17:52:02Z</time>
      </trkpt>
      <trkpt lat="38.116100" lon="-4.159575">
        <ele>632.3</ele>
        <time>2009-04-06T17:52:07Z</time>
      </trkpt>
      <trkpt lat="38.116700" lon="-4.158737">
        <ele>641.1</ele>
        <time>2009-04-06T17:52:16Z</time>
      </trkpt>
      <trkpt lat="38.116713" lon="-4.158306">
        <ele>644.8</ele>
        <time>2009-04-06T17:52:20Z</time>
      </trkpt>
      <trkpt lat="38.116694" lon="-4.157952">
        <ele>647.6</ele>
        <time>2009-04-06T17:52:25Z</time>
      </trkpt>
      <trkpt lat="38.116660" lon="-4.157625">
        <ele>649.2</ele>
        <time>2009-04-06T17:52:29Z</time>
      </trkpt>
      <trkpt lat="38.116410" lon="-4.157122">
        <ele>650.5</ele>
        <time>2009-04-06T17:52:35Z</time>
      </trkpt>
      <trkpt lat="38.116326" lon="-4.156922">
        <ele>651.2</ele>
        <time>2009-04-06T17:52:37Z</time>
      </trkpt>
      <trkpt lat="38.116627" lon="-4.156116">
        <ele>653.9</ele>
        <time>2009-04-06T17:52:42Z</time>
      </trkpt>
      <trkpt lat="38.116631" lon="-4.155744">
        <ele>655.2</ele>
        <time>2009-04-06T17:52:51Z</time>
      </trkpt>
      <trkpt lat="38.116249" lon="-4.155574">
        <ele>658.4</ele>
        <time>2009-04-06T17:52:54Z</time>
      </trkpt>
      <trkpt lat="38.115184" lon="-4.155233">
        <ele>664.7</ele>
        <time>2009-04-06T17:53:06Z</time>
      </trkpt>
      <trkpt lat="38.115102" lon="-4.155138">
        <ele>663.0</ele>
        <time>2009-04-06T17:53:13Z</time>
      </trkpt>
      <trkpt lat="38.115101" lon="-4.155120">
        <ele>662.9</ele>
        <time>2009-04-06T17:53:38Z</time>
      </trkpt>
      <trkpt lat="38.115103" lon="-4.154684">
        <ele>661.3</ele>
        <time>2009-04-06T17:53:49Z</time>
      </trkpt>
      <trkpt lat="38.115109" lon="-4.154626">
        <ele>661.2</ele>
        <time>2009-04-06T17:53:58Z</time>
      </trkpt>
      <trkpt lat="38.115092" lon="-4.154614">
        <ele>661.0</ele>
        <time>2009-04-06T17:54:15Z</time>
      </trkpt>
      <trkpt lat="38.115076" lon="-4.154598">
        <ele>660.8</ele>
        <time>2009-04-06T17:55:12Z</time>
      </trkpt>
      <trkpt lat="38.115083" lon="-4.154613">
        <ele>660.9</ele>
        <time>2009-04-06T17:55:29Z</time>
      </trkpt>
      <trkpt lat="38.115095" lon="-4.154565">
        <ele>660.8</ele>
        <time>2009-04-06T17:55:38Z</time>
      </trkpt>
      <trkpt lat="38.114929" lon="-4.153934">
        <ele>662.5</ele>
        <time>2009-04-06T17:55:47Z</time>
      </trkpt>
      <trkpt lat="38.114608" lon="-4.153495">
        <ele>667.7</ele>
        <time>2009-04-06T17:55:52Z</time>
      </trkpt>
      <trkpt lat="38.114261" lon="-4.152462">
        <ele>672.9</ele>
        <time>2009-04-06T17:56:02Z</time>
      </trkpt>
      <trkpt lat="38.114208" lon="-4.151924">
        <ele>671.8</ele>
        <time>2009-04-06T17:56:09Z</time>
      </trkpt>
      <trkpt lat="38.114074" lon="-4.150962">
        <ele>668.1</ele>
        <time>2009-04-06T17:56:19Z</time>
      </trkpt>
      <trkpt lat="38.113807" lon="-4.149414">
        <ele>661.2</ele>
        <time>2009-04-06T17:56:29Z</time>
      </trkpt>
      <trkpt lat="38.113575" lon="-4.147876">
        <ele>658.8</ele>
        <time>2009-04-06T17:56:40Z</time>
      </trkpt>
      <trkpt lat="38.113485" lon="-4.146837">
        <ele>659.3</ele>
        <time>2009-04-06T17:56:50Z</time>
      </trkpt>
      <trkpt lat="38.113470" lon="-4.146512">
        <ele>660.7</ele>
        <time>2009-04-06T17:56:52Z</time>
      </trkpt>
      <trkpt lat="38.113518" lon="-4.145895">
        <ele>663.0</ele>
        <time>2009-04-06T17:56:57Z</time>
      </trkpt>
      <trkpt lat="38.114431" lon="-4.144290">
        <ele>660.7</ele>
        <time>2009-04-06T17:57:10Z</time>
      </trkpt>
      <trkpt lat="38.114391" lon="-4.144146">
        <ele>660.9</ele>
        <time>2009-04-06T17:57:11Z</time>
      </trkpt>
      <trkpt lat="38.114359" lon="-4.143683">
        <ele>661.0</ele>
        <time>2009-04-06T17:57:15Z</time>
      </trkpt>
      <trkpt lat="38.114142" lon="-4.142654">
        <ele>661.8</ele>
        <time>2009-04-06T17:57:22Z</time>
      </trkpt>
      <trkpt lat="38.113874" lon="-4.142141">
        <ele>662.3</ele>
        <time>2009-04-06T17:57:27Z</time>
      </trkpt>
      <trkpt lat="38.113756" lon="-4.141934">
        <ele>662.9</ele>
        <time>2009-04-06T17:57:30Z</time>
      </trkpt>
      <trkpt lat="38.113787" lon="-4.141706">
        <ele>664.0</ele>
        <time>2009-04-06T17:57:33Z</time>
      </trkpt>
      <trkpt lat="38.113900" lon="-4.141336">
        <ele>665.3</ele>
        <time>2009-04-06T17:57:41Z</time>
      </trkpt>
      <trkpt lat="38.113908" lon="-4.141297">
        <ele>665.5</ele>
        <time>2009-04-06T17:58:12Z</time>
      </trkpt>
      <trkpt lat="38.113914" lon="-4.141101">
        <ele>666.2</ele>
        <time>2009-04-06T17:58:27Z</time>
      </trkpt>
      <trkpt lat="38.113910" lon="-4.141082">
        <ele>666.2</ele>
        <time>2009-04-06T17:58:47Z</time>
      </trkpt>
      <trkpt lat="38.113893" lon="-4.141056">
        <ele>666.4</ele>
        <time>2009-04-06T18:00:03Z</time>
      </trkpt>
      <trkpt lat="38.113895" lon="-4.141063">
        <ele>666.4</ele>
        <time>2009-04-06T18:00:36Z</time>
      </trkpt>
      <trkpt lat="38.113932" lon="-4.141066">
        <ele>666.1</ele>
        <time>2009-04-06T18:01:07Z</time>
      </trkpt>
      <trkpt lat="38.113941" lon="-4.141080">
        <ele>666.0</ele>
        <time>2009-04-06T18:01:47Z</time>
      </trkpt>
      <trkpt lat="38.113932" lon="-4.141083">
        <ele>666.1</ele>
        <time>2009-04-06T18:01:58Z</time>
      </trkpt>
      <trkpt lat="38.113856" lon="-4.141046">
        <ele>666.6</ele>
        <time>2009-04-06T18:02:20Z</time>
      </trkpt>
      <trkpt lat="38.113837" lon="-4.141026">
        <ele>666.8</ele>
        <time>2009-04-06T18:03:08Z</time>
      </trkpt>
      <trkpt lat="38.113878" lon="-4.141083">
        <ele>666.4</ele>
        <time>2009-04-06T18:03:29Z</time>
      </trkpt>
      <trkpt lat="38.113877" lon="-4.141089">
        <ele>666.5</ele>
        <time>2009-04-06T18:03:30Z</time>
      </trkpt>
      <trkpt lat="38.113869" lon="-4.141137">
        <ele>666.4</ele>
        <time>2009-04-06T18:03:34Z</time>
      </trkpt>
      <trkpt lat="38.113888" lon="-4.141027">
        <ele>666.4</ele>
        <time>2009-04-06T18:03:49Z</time>
      </trkpt>
      <trkpt lat="38.113941" lon="-4.140970">
        <ele>666.2</ele>
        <time>2009-04-06T18:04:02Z</time>
      </trkpt>
      <trkpt lat="38.114179" lon="-4.140805">
        <ele>665.1</ele>
        <time>2009-04-06T18:04:09Z</time>
      </trkpt>
      <trkpt lat="38.114464" lon="-4.140611">
        <ele>664.7</ele>
        <time>2009-04-06T18:04:14Z</time>
      </trkpt>
      <trkpt lat="38.115142" lon="-4.140185">
        <ele>664.2</ele>
        <time>2009-04-06T18:04:24Z</time>
      </trkpt>
      <trkpt lat="38.115584" lon="-4.140122">
        <ele>662.8</ele>
        <time>2009-04-06T18:04:30Z</time>
      </trkpt>
      <trkpt lat="38.116482" lon="-4.140479">
        <ele>659.0</ele>
        <time>2009-04-06T18:04:40Z</time>
      </trkpt>
      <trkpt lat="38.117300" lon="-4.140594">
        <ele>657.1</ele>
        <time>2009-04-06T18:04:49Z</time>
      </trkpt>
      <trkpt lat="38.118028" lon="-4.140563">
        <ele>656.7</ele>
        <time>2009-04-06T18:04:57Z</time>
      </trkpt>
      <trkpt lat="38.118492" lon="-4.140622">
        <ele>656.8</ele>
        <time>2009-04-06T18:05:02Z</time>
      </trkpt>
      <trkpt lat="38.118649" lon="-4.140695">
        <ele>655.9</ele>
        <time>2009-04-06T18:05:04Z</time>
      </trkpt>
      <trkpt lat="38.118952" lon="-4.141022">
        <ele>653.7</ele>
        <time>2009-04-06T18:05:09Z</time>
      </trkpt>
      <trkpt lat="38.119243" lon="-4.141645">
        <ele>654.1</ele>
        <time>2009-04-06T18:05:16Z</time>
      </trkpt>
      <trkpt lat="38.119564" lon="-4.141821">
        <ele>653.4</ele>
        <time>2009-04-06T18:05:22Z</time>
      </trkpt>
      <trkpt lat="38.119997" lon="-4.141826">
        <ele>650.2</ele>
        <time>2009-04-06T18:05:27Z</time>
      </trkpt>
      <trkpt lat="38.120208" lon="-4.141907">
        <ele>649.2</ele>
        <time>2009-04-06T18:05:30Z</time>
      </trkpt>
      <trkpt lat="38.120399" lon="-4.142049">
        <ele>647.4</ele>
        <time>2009-04-06T18:05:34Z</time>
      </trkpt>
      <trkpt lat="38.120491" lon="-4.142162">
        <ele>646.3</ele>
        <time>2009-04-06T18:05:44Z</time>
      </trkpt>
      <trkpt lat="38.120495" lon="-4.142198">
        <ele>646.4</ele>
        <time>2009-04-06T18:05:59Z</time>
      </trkpt>
      <trkpt lat="38.120483" lon="-4.142224">
        <ele>646.6</ele>
        <time>2009-04-06T18:06:15Z</time>
      </trkpt>
      <trkpt lat="38.120633" lon="-4.142222">
        <ele>644.5</ele>
        <time>2009-04-06T18:06:55Z</time>
      </trkpt>
      <trkpt lat="38.120633" lon="-4.142222">
        <ele>644.5</ele>
        <time>2009-04-06T18:10:04Z</time>
      </trkpt>
      <trkpt lat="38.120706" lon="-4.142259">
        <ele>643.6</ele>
        <time>2009-04-07T06:49:44Z</time>
      </trkpt>
      <trkpt lat="38.120633" lon="-4.142222">
        <ele>644.5</ele>
        <time>2009-04-07T06:50:27Z</time>
      </trkpt>
      <trkpt lat="38.120706" lon="-4.142259">
        <ele>643.6</ele>
        <time>2009-04-07T06:50:42Z</time>
      </trkpt>
      <trkpt lat="38.120706" lon="-4.142259">
        <ele>643.6</ele>
        <time>2009-04-07T06:50:55Z</time>
      </trkpt>
      <trkpt lat="38.120919" lon="-4.141860">
        <ele>639.7</ele>
        <time>2009-04-07T06:51:09Z</time>
      </trkpt>
      <trkpt lat="38.121279" lon="-4.141482">
        <ele>636.5</ele>
        <time>2009-04-07T06:51:25Z</time>
      </trkpt>
      <trkpt lat="38.121507" lon="-4.140602">
        <ele>633.5</ele>
        <time>2009-04-07T06:51:41Z</time>
      </trkpt>
      <trkpt lat="38.121730" lon="-4.139688">
        <ele>626.4</ele>
        <time>2009-04-07T06:51:59Z</time>
      </trkpt>
      <trkpt lat="38.122084" lon="-4.139315">
        <ele>623.0</ele>
        <time>2009-04-07T06:52:11Z</time>
      </trkpt>
      <trkpt lat="38.122278" lon="-4.139206">
        <ele>622.3</ele>
        <time>2009-04-07T06:52:16Z</time>
      </trkpt>
      <trkpt lat="38.122348" lon="-4.139155">
        <ele>621.8</ele>
        <time>2009-04-07T06:52:18Z</time>
      </trkpt>
      <trkpt lat="38.122552" lon="-4.138979">
        <ele>619.3</ele>
        <time>2009-04-07T06:52:24Z</time>
      </trkpt>
      <trkpt lat="38.122665" lon="-4.138827">
        <ele>616.7</ele>
        <time>2009-04-07T06:52:28Z</time>
      </trkpt>
      <trkpt lat="38.122822" lon="-4.138433">
        <ele>615.1</ele>
        <time>2009-04-07T06:52:35Z</time>
      </trkpt>
      <trkpt lat="38.122976" lon="-4.138274">
        <ele>614.8</ele>
        <time>2009-04-07T06:52:40Z</time>
      </trkpt>
      <trkpt lat="38.123090" lon="-4.138242">
        <ele>614.2</ele>
        <time>2009-04-07T06:52:43Z</time>
      </trkpt>
      <trkpt lat="38.123371" lon="-4.138156">
        <ele>611.8</ele>
        <time>2009-04-07T06:52:49Z</time>
      </trkpt>
      <trkpt lat="38.123581" lon="-4.137960">
        <ele>607.9</ele>
        <time>2009-04-07T06:52:54Z</time>
      </trkpt>
      <trkpt lat="38.123881" lon="-4.137798">
        <ele>604.3</ele>
        <time>2009-04-07T06:53:00Z</time>
      </trkpt>
      <trkpt lat="38.124027" lon="-4.137769">
        <ele>603.5</ele>
        <time>2009-04-07T06:53:03Z</time>
      </trkpt>
      <trkpt lat="38.124551" lon="-4.137438">
        <ele>599.2</ele>
        <time>2009-04-07T06:53:14Z</time>
      </trkpt>
      <trkpt lat="38.124922" lon="-4.137137">
        <ele>591.5</ele>
        <time>2009-04-07T06:53:22Z</time>
      </trkpt>
      <trkpt lat="38.125140" lon="-4.137040">
        <ele>586.4</ele>
        <time>2009-04-07T06:53:26Z</time>
      </trkpt>
      <trkpt lat="38.125553" lon="-4.136884">
        <ele>579.4</ele>
        <time>2009-04-07T06:53:34Z</time>
      </trkpt>
      <trkpt lat="38.125709" lon="-4.136727">
        <ele>578.1</ele>
        <time>2009-04-07T06:53:38Z</time>
      </trkpt>
      <trkpt lat="38.125758" lon="-4.136622">
        <ele>577.9</ele>
        <time>2009-04-07T06:53:40Z</time>
      </trkpt>
      <trkpt lat="38.126013" lon="-4.136483">
        <ele>573.8</ele>
        <time>2009-04-07T06:53:47Z</time>
      </trkpt>
      <trkpt lat="38.126629" lon="-4.136543">
        <ele>566.5</ele>
        <time>2009-04-07T06:53:59Z</time>
      </trkpt>
      <trkpt lat="38.126804" lon="-4.136450">
        <ele>563.9</ele>
        <time>2009-04-07T06:54:03Z</time>
      </trkpt>
      <trkpt lat="38.127079" lon="-4.136282">
        <ele>558.0</ele>
        <time>2009-04-07T06:54:10Z</time>
      </trkpt>
      <trkpt lat="38.127390" lon="-4.136193">
        <ele>552.6</ele>
        <time>2009-04-07T06:54:17Z</time>
      </trkpt>
      <trkpt lat="38.127570" lon="-4.136245">
        <ele>549.4</ele>
        <time>2009-04-07T06:54:21Z</time>
      </trkpt>
      <trkpt lat="38.127659" lon="-4.136294">
        <ele>547.7</ele>
        <time>2009-04-07T06:54:23Z</time>
      </trkpt>
      <trkpt lat="38.128119" lon="-4.136773">
        <ele>538.2</ele>
        <time>2009-04-07T06:54:35Z</time>
      </trkpt>
      <trkpt lat="38.128146" lon="-4.136799">
        <ele>537.3</ele>
        <time>2009-04-07T06:54:36Z</time>
      </trkpt>
      <trkpt lat="38.128525" lon="-4.136795">
        <ele>531.4</ele>
        <time>2009-04-07T06:54:44Z</time>
      </trkpt>
      <trkpt lat="38.128798" lon="-4.136595">
        <ele>539.3</ele>
        <time>2009-04-07T06:54:49Z</time>
      </trkpt>
      <trkpt lat="38.129252" lon="-4.136672">
        <ele>540.8</ele>
        <time>2009-04-07T06:54:57Z</time>
      </trkpt>
      <trkpt lat="38.129344" lon="-4.136866">
        <ele>538.5</ele>
        <time>2009-04-07T06:55:00Z</time>
      </trkpt>
      <trkpt lat="38.129469" lon="-4.137174">
        <ele>535.0</ele>
        <time>2009-04-07T06:55:06Z</time>
      </trkpt>
      <trkpt lat="38.129804" lon="-4.137326">
        <ele>542.4</ele>
        <time>2009-04-07T06:55:13Z</time>
      </trkpt>
      <trkpt lat="38.130447" lon="-4.137067">
        <ele>559.8</ele>
        <time>2009-04-07T06:55:24Z</time>
      </trkpt>
      <trkpt lat="38.130719" lon="-4.137114">
        <ele>562.6</ele>
        <time>2009-04-07T06:55:29Z</time>
      </trkpt>
      <trkpt lat="38.130823" lon="-4.137171">
        <ele>563.9</ele>
        <time>2009-04-07T06:55:31Z</time>
      </trkpt>
      <trkpt lat="38.131449" lon="-4.137393">
        <ele>560.8</ele>
        <time>2009-04-07T06:55:43Z</time>
      </trkpt>
      <trkpt lat="38.131719" lon="-4.137406">
        <ele>556.4</ele>
        <time>2009-04-07T06:55:49Z</time>
      </trkpt>
      <trkpt lat="38.132108" lon="-4.137174">
        <ele>557.9</ele>
        <time>2009-04-07T06:55:57Z</time>
      </trkpt>
      <trkpt lat="38.132426" lon="-4.136866">
        <ele>561.8</ele>
        <time>2009-04-07T06:56:09Z</time>
      </trkpt>
      <trkpt lat="38.132417" lon="-4.136869">
        <ele>561.7</ele>
        <time>2009-04-07T06:56:30Z</time>
      </trkpt>
      <trkpt lat="38.132421" lon="-4.136866">
        <ele>561.8</ele>
        <time>2009-04-07T06:58:13Z</time>
      </trkpt>
      <trkpt lat="38.132412" lon="-4.136863">
        <ele>561.7</ele>
        <time>2009-04-07T06:58:37Z</time>
      </trkpt>
      <trkpt lat="38.132445" lon="-4.136830">
        <ele>561.8</ele>
        <time>2009-04-07T06:59:05Z</time>
      </trkpt>
      <trkpt lat="38.132672" lon="-4.136554">
        <ele>563.4</ele>
        <time>2009-04-07T06:59:13Z</time>
      </trkpt>
      <trkpt lat="38.133121" lon="-4.136487">
        <ele>558.9</ele>
        <time>2009-04-07T06:59:23Z</time>
      </trkpt>
      <trkpt lat="38.133372" lon="-4.136282">
        <ele>554.0</ele>
        <time>2009-04-07T06:59:31Z</time>
      </trkpt>
      <trkpt lat="38.133356" lon="-4.136093">
        <ele>552.6</ele>
        <time>2009-04-07T06:59:33Z</time>
      </trkpt>
      <trkpt lat="38.133368" lon="-4.135713">
        <ele>552.7</ele>
        <time>2009-04-07T06:59:41Z</time>
      </trkpt>
      <trkpt lat="38.133708" lon="-4.135681">
        <ele>547.9</ele>
        <time>2009-04-07T06:59:46Z</time>
      </trkpt>
      <trkpt lat="38.134062" lon="-4.135697">
        <ele>542.1</ele>
        <time>2009-04-07T06:59:52Z</time>
      </trkpt>
      <trkpt lat="38.134430" lon="-4.135600">
        <ele>535.6</ele>
        <time>2009-04-07T06:59:58Z</time>
      </trkpt>
      <trkpt lat="38.134731" lon="-4.135593">
        <ele>532.0</ele>
        <time>2009-04-07T07:00:03Z</time>
      </trkpt>
      <trkpt lat="38.135022" lon="-4.135475">
        <ele>528.2</ele>
        <time>2009-04-07T07:00:08Z</time>
      </trkpt>
      <trkpt lat="38.135135" lon="-4.135355">
        <ele>526.6</ele>
        <time>2009-04-07T07:00:18Z</time>
      </trkpt>
      <trkpt lat="38.135140" lon="-4.135370">
        <ele>526.6</ele>
        <time>2009-04-07T07:00:53Z</time>
      </trkpt>
      <trkpt lat="38.135124" lon="-4.135362">
        <ele>526.8</ele>
        <time>2009-04-07T07:01:17Z</time>
      </trkpt>
      <trkpt lat="38.135341" lon="-4.135191">
        <ele>524.7</ele>
        <time>2009-04-07T07:02:00Z</time>
      </trkpt>
      <trkpt lat="38.135579" lon="-4.135028">
        <ele>522.3</ele>
        <time>2009-04-07T07:02:05Z</time>
      </trkpt>
      <trkpt lat="38.136011" lon="-4.135048">
        <ele>516.8</ele>
        <time>2009-04-07T07:02:14Z</time>
      </trkpt>
      <trkpt lat="38.136785" lon="-4.135342">
        <ele>500.6</ele>
        <time>2009-04-07T07:02:27Z</time>
      </trkpt>
      <trkpt lat="38.137055" lon="-4.135304">
        <ele>496.2</ele>
        <time>2009-04-07T07:02:34Z</time>
      </trkpt>
      <trkpt lat="38.137235" lon="-4.135151">
        <ele>495.0</ele>
        <time>2009-04-07T07:02:39Z</time>
      </trkpt>
      <trkpt lat="38.137798" lon="-4.134556">
        <ele>496.1</ele>
        <time>2009-04-07T07:02:53Z</time>
      </trkpt>
      <trkpt lat="38.138170" lon="-4.134347">
        <ele>496.6</ele>
        <time>2009-04-07T07:03:03Z</time>
      </trkpt>
      <trkpt lat="38.138311" lon="-4.134186">
        <ele>496.7</ele>
        <time>2009-04-07T07:03:07Z</time>
      </trkpt>
      <trkpt lat="38.138651" lon="-4.134030">
        <ele>497.3</ele>
        <time>2009-04-07T07:03:16Z</time>
      </trkpt>
      <trkpt lat="38.138978" lon="-4.133901">
        <ele>500.0</ele>
        <time>2009-04-07T07:03:25Z</time>
      </trkpt>
      <trkpt lat="38.139205" lon="-4.133715">
        <ele>503.1</ele>
        <time>2009-04-07T07:03:29Z</time>
      </trkpt>
      <trkpt lat="38.139941" lon="-4.133019">
        <ele>496.2</ele>
        <time>2009-04-07T07:03:43Z</time>
      </trkpt>
      <trkpt lat="38.140068" lon="-4.132922">
        <ele>495.5</ele>
        <time>2009-04-07T07:03:45Z</time>
      </trkpt>
      <trkpt lat="38.140176" lon="-4.132813">
        <ele>495.0</ele>
        <time>2009-04-07T07:03:47Z</time>
      </trkpt>
      <trkpt lat="38.140322" lon="-4.132555">
        <ele>493.4</ele>
        <time>2009-04-07T07:03:51Z</time>
      </trkpt>
      <trkpt lat="38.140555" lon="-4.131785">
        <ele>490.7</ele>
        <time>2009-04-07T07:04:03Z</time>
      </trkpt>
      <trkpt lat="38.140671" lon="-4.131563">
        <ele>489.4</ele>
        <time>2009-04-07T07:04:08Z</time>
      </trkpt>
      <trkpt lat="38.140745" lon="-4.131483">
        <ele>488.9</ele>
        <time>2009-04-07T07:04:10Z</time>
      </trkpt>
      <trkpt lat="38.141061" lon="-4.131396">
        <ele>488.2</ele>
        <time>2009-04-07T07:04:16Z</time>
      </trkpt>
      <trkpt lat="38.141417" lon="-4.131215">
        <ele>484.7</ele>
        <time>2009-04-07T07:04:23Z</time>
      </trkpt>
      <trkpt lat="38.141514" lon="-4.131024">
        <ele>481.3</ele>
        <time>2009-04-07T07:04:26Z</time>
      </trkpt>
      <trkpt lat="38.141847" lon="-4.130964">
        <ele>479.6</ele>
        <time>2009-04-07T07:04:35Z</time>
      </trkpt>
      <trkpt lat="38.142076" lon="-4.130914">
        <ele>476.4</ele>
        <time>2009-04-07T07:04:40Z</time>
      </trkpt>
      <trkpt lat="38.142202" lon="-4.130755">
        <ele>472.5</ele>
        <time>2009-04-07T07:04:43Z</time>
      </trkpt>
      <trkpt lat="38.142454" lon="-4.130592">
        <ele>468.1</ele>
        <time>2009-04-07T07:04:48Z</time>
      </trkpt>
      <trkpt lat="38.142661" lon="-4.130570">
        <ele>466.4</ele>
        <time>2009-04-07T07:04:52Z</time>
      </trkpt>
      <trkpt lat="38.143258" lon="-4.130228">
        <ele>452.1</ele>
        <time>2009-04-07T07:05:03Z</time>
      </trkpt>
      <trkpt lat="38.143569" lon="-4.129632">
        <ele>444.6</ele>
        <time>2009-04-07T07:05:13Z</time>
      </trkpt>
      <trkpt lat="38.143771" lon="-4.128949">
        <ele>437.9</ele>
        <time>2009-04-07T07:05:25Z</time>
      </trkpt>
      <trkpt lat="38.143805" lon="-4.128791">
        <ele>437.1</ele>
        <time>2009-04-07T07:05:40Z</time>
      </trkpt>
      <trkpt lat="38.143812" lon="-4.128813">
        <ele>437.2</ele>
        <time>2009-04-07T07:05:54Z</time>
      </trkpt>
      <trkpt lat="38.143818" lon="-4.128811">
        <ele>437.2</ele>
        <time>2009-04-07T07:05:56Z</time>
      </trkpt>
      <trkpt lat="38.143819" lon="-4.128777">
        <ele>437.1</ele>
        <time>2009-04-07T07:06:10Z</time>
      </trkpt>
      <trkpt lat="38.143796" lon="-4.128783">
        <ele>437.1</ele>
        <time>2009-04-07T07:07:46Z</time>
      </trkpt>
      <trkpt lat="38.143806" lon="-4.128807">
        <ele>437.2</ele>
        <time>2009-04-07T07:08:08Z</time>
      </trkpt>
      <trkpt lat="38.143803" lon="-4.128798">
        <ele>437.1</ele>
        <time>2009-04-07T07:08:20Z</time>
      </trkpt>
      <trkpt lat="38.143789" lon="-4.128808">
        <ele>437.2</ele>
        <time>2009-04-07T07:08:36Z</time>
      </trkpt>
      <trkpt lat="38.143772" lon="-4.128792">
        <ele>437.1</ele>
        <time>2009-04-07T07:09:15Z</time>
      </trkpt>
      <trkpt lat="38.143803" lon="-4.128790">
        <ele>437.1</ele>
        <time>2009-04-07T07:09:55Z</time>
      </trkpt>
      <trkpt lat="38.143826" lon="-4.128784">
        <ele>437.1</ele>
        <time>2009-04-07T07:10:16Z</time>
      </trkpt>
      <trkpt lat="38.143826" lon="-4.128797">
        <ele>437.1</ele>
        <time>2009-04-07T07:10:43Z</time>
      </trkpt>
      <trkpt lat="38.143830" lon="-4.128788">
        <ele>437.1</ele>
        <time>2009-04-07T07:11:08Z</time>
      </trkpt>
      <trkpt lat="38.143842" lon="-4.128778">
        <ele>437.1</ele>
        <time>2009-04-07T07:11:22Z</time>
      </trkpt>
      <trkpt lat="38.143856" lon="-4.128759">
        <ele>437.0</ele>
        <time>2009-04-07T07:11:25Z</time>
      </trkpt>
      <trkpt lat="38.143934" lon="-4.128525">
        <ele>436.2</ele>
        <time>2009-04-07T07:11:45Z</time>
      </trkpt>
      <trkpt lat="38.143974" lon="-4.128458">
        <ele>436.1</ele>
        <time>2009-04-07T07:11:51Z</time>
      </trkpt>
      <trkpt lat="38.144030" lon="-4.128300">
        <ele>435.9</ele>
        <time>2009-04-07T07:12:02Z</time>
      </trkpt>
      <trkpt lat="38.144166" lon="-4.128026">
        <ele>437.4</ele>
        <time>2009-04-07T07:12:21Z</time>
      </trkpt>
      <trkpt lat="38.144311" lon="-4.127897">
        <ele>440.7</ele>
        <time>2009-04-07T07:12:43Z</time>
      </trkpt>
      <trkpt lat="38.144309" lon="-4.127901">
        <ele>440.6</ele>
        <time>2009-04-07T07:13:25Z</time>
      </trkpt>
      <trkpt lat="38.144317" lon="-4.127883">
        <ele>440.8</ele>
        <time>2009-04-07T07:14:33Z</time>
      </trkpt>
      <trkpt lat="38.144375" lon="-4.127888">
        <ele>441.8</ele>
        <time>2009-04-07T07:15:03Z</time>
      </trkpt>
      <trkpt lat="38.144586" lon="-4.127961">
        <ele>442.0</ele>
        <time>2009-04-07T07:15:21Z</time>
      </trkpt>
      <trkpt lat="38.144870" lon="-4.128131">
        <ele>440.2</ele>
        <time>2009-04-07T07:15:48Z</time>
      </trkpt>
      <trkpt lat="38.144886" lon="-4.128137">
        <ele>440.1</ele>
        <time>2009-04-07T07:16:12Z</time>
      </trkpt>
      <trkpt lat="38.144984" lon="-4.128184">
        <ele>439.1</ele>
        <time>2009-04-07T07:16:28Z</time>
      </trkpt>
      <trkpt lat="38.144986" lon="-4.128186">
        <ele>439.1</ele>
        <time>2009-04-07T07:16:59Z</time>
      </trkpt>
      <trkpt lat="38.144978" lon="-4.128195">
        <ele>439.0</ele>
        <time>2009-04-07T07:17:36Z</time>
      </trkpt>
      <trkpt lat="38.145003" lon="-4.128197">
        <ele>438.9</ele>
        <time>2009-04-07T07:18:23Z</time>
      </trkpt>
      <trkpt lat="38.145241" lon="-4.128199">
        <ele>438.3</ele>
        <time>2009-04-07T07:18:43Z</time>
      </trkpt>
      <trkpt lat="38.145455" lon="-4.128042">
        <ele>441.8</ele>
        <time>2009-04-07T07:19:02Z</time>
      </trkpt>
      <trkpt lat="38.145653" lon="-4.127794">
        <ele>447.6</ele>
        <time>2009-04-07T07:19:23Z</time>
      </trkpt>
      <trkpt lat="38.145802" lon="-4.127622">
        <ele>449.9</ele>
        <time>2009-04-07T07:19:39Z</time>
      </trkpt>
      <trkpt lat="38.146003" lon="-4.127413">
        <ele>453.5</ele>
        <time>2009-04-07T07:20:00Z</time>
      </trkpt>
      <trkpt lat="38.146048" lon="-4.127356">
        <ele>454.2</ele>
        <time>2009-04-07T07:20:05Z</time>
      </trkpt>
      <trkpt lat="38.146265" lon="-4.127159">
        <ele>456.1</ele>
        <time>2009-04-07T07:20:26Z</time>
      </trkpt>
      <trkpt lat="38.146474" lon="-4.127020">
        <ele>457.9</ele>
        <time>2009-04-07T07:20:44Z</time>
      </trkpt>
      <trkpt lat="38.146721" lon="-4.127003">
        <ele>457.5</ele>
        <time>2009-04-07T07:21:03Z</time>
      </trkpt>
      <trkpt lat="38.146910" lon="-4.126993">
        <ele>457.4</ele>
        <time>2009-04-07T07:21:19Z</time>
      </trkpt>
      <trkpt lat="38.147069" lon="-4.127005">
        <ele>457.1</ele>
        <time>2009-04-07T07:21:32Z</time>
      </trkpt>
      <trkpt lat="38.147283" lon="-4.126988">
        <ele>457.5</ele>
        <time>2009-04-07T07:21:47Z</time>
      </trkpt>
      <trkpt lat="38.147446" lon="-4.126915">
        <ele>459.2</ele>
        <time>2009-04-07T07:22:00Z</time>
      </trkpt>
      <trkpt lat="38.147632" lon="-4.126748">
        <ele>463.6</ele>
        <time>2009-04-07T07:22:18Z</time>
      </trkpt>
      <trkpt lat="38.147699" lon="-4.126684">
        <ele>465.4</ele>
        <time>2009-04-07T07:22:25Z</time>
      </trkpt>
      <trkpt lat="38.147746" lon="-4.126601">
        <ele>467.5</ele>
        <time>2009-04-07T07:22:32Z</time>
      </trkpt>
      <trkpt lat="38.147843" lon="-4.126375">
        <ele>473.3</ele>
        <time>2009-04-07T07:22:48Z</time>
      </trkpt>
      <trkpt lat="38.147929" lon="-4.126093">
        <ele>479.9</ele>
        <time>2009-04-07T07:23:05Z</time>
      </trkpt>
      <trkpt lat="38.147961" lon="-4.126018">
        <ele>480.8</ele>
        <time>2009-04-07T07:23:10Z</time>
      </trkpt>
      <trkpt lat="38.148117" lon="-4.125860">
        <ele>483.1</ele>
        <time>2009-04-07T07:23:16Z</time>
      </trkpt>
      <trkpt lat="38.148185" lon="-4.126109">
        <ele>479.2</ele>
        <time>2009-04-07T07:23:32Z</time>
      </trkpt>
      <trkpt lat="38.148302" lon="-4.126298">
        <ele>474.4</ele>
        <time>2009-04-07T07:23:48Z</time>
      </trkpt>
      <trkpt lat="38.148509" lon="-4.126356">
        <ele>472.6</ele>
        <time>2009-04-07T07:24:05Z</time>
      </trkpt>
      <trkpt lat="38.148681" lon="-4.126227">
        <ele>473.6</ele>
        <time>2009-04-07T07:24:21Z</time>
      </trkpt>
      <trkpt lat="38.148839" lon="-4.126042">
        <ele>475.8</ele>
        <time>2009-04-07T07:24:37Z</time>
      </trkpt>
      <trkpt lat="38.148981" lon="-4.125859">
        <ele>478.5</ele>
        <time>2009-04-07T07:24:53Z</time>
      </trkpt>
      <trkpt lat="38.149142" lon="-4.125683">
        <ele>481.3</ele>
        <time>2009-04-07T07:25:08Z</time>
      </trkpt>
      <trkpt lat="38.149301" lon="-4.125555">
        <ele>483.3</ele>
        <time>2009-04-07T07:25:22Z</time>
      </trkpt>
      <trkpt lat="38.149535" lon="-4.125373">
        <ele>484.6</ele>
        <time>2009-04-07T07:25:40Z</time>
      </trkpt>
      <trkpt lat="38.149640" lon="-4.125224">
        <ele>485.6</ele>
        <time>2009-04-07T07:25:53Z</time>
      </trkpt>
      <trkpt lat="38.149716" lon="-4.125060">
        <ele>486.8</ele>
        <time>2009-04-07T07:26:06Z</time>
      </trkpt>
      <trkpt lat="38.149842" lon="-4.124890">
        <ele>486.9</ele>
        <time>2009-04-07T07:26:17Z</time>
      </trkpt>
      <trkpt lat="38.149914" lon="-4.124788">
        <ele>487.0</ele>
        <time>2009-04-07T07:26:25Z</time>
      </trkpt>
      <trkpt lat="38.150068" lon="-4.124496">
        <ele>488.1</ele>
        <time>2009-04-07T07:26:43Z</time>
      </trkpt>
      <trkpt lat="38.150253" lon="-4.124157">
        <ele>487.4</ele>
        <time>2009-04-07T07:27:05Z</time>
      </trkpt>
      <trkpt lat="38.150542" lon="-4.123922">
        <ele>488.8</ele>
        <time>2009-04-07T07:27:23Z</time>
      </trkpt>
      <trkpt lat="38.150663" lon="-4.124198">
        <ele>486.3</ele>
        <time>2009-04-07T07:27:42Z</time>
      </trkpt>
      <trkpt lat="38.150818" lon="-4.124484">
        <ele>482.6</ele>
        <time>2009-04-07T07:28:02Z</time>
      </trkpt>
      <trkpt lat="38.151042" lon="-4.124571">
        <ele>479.6</ele>
        <time>2009-04-07T07:28:20Z</time>
      </trkpt>
      <trkpt lat="38.151086" lon="-4.124557">
        <ele>479.8</ele>
        <time>2009-04-07T07:28:24Z</time>
      </trkpt>
      <trkpt lat="38.151248" lon="-4.124500">
        <ele>480.5</ele>
        <time>2009-04-07T07:28:39Z</time>
      </trkpt>
      <trkpt lat="38.151494" lon="-4.124438">
        <ele>480.7</ele>
        <time>2009-04-07T07:28:55Z</time>
      </trkpt>
      <trkpt lat="38.151768" lon="-4.124226">
        <ele>484.0</ele>
        <time>2009-04-07T07:29:16Z</time>
      </trkpt>
      <trkpt lat="38.151943" lon="-4.123999">
        <ele>487.5</ele>
        <time>2009-04-07T07:29:34Z</time>
      </trkpt>
      <trkpt lat="38.152086" lon="-4.123688">
        <ele>491.6</ele>
        <time>2009-04-07T07:29:54Z</time>
      </trkpt>
      <trkpt lat="38.152223" lon="-4.123385">
        <ele>491.4</ele>
        <time>2009-04-07T07:30:13Z</time>
      </trkpt>
      <trkpt lat="38.152382" lon="-4.123243">
        <ele>490.4</ele>
        <time>2009-04-07T07:30:28Z</time>
      </trkpt>
      <trkpt lat="38.152576" lon="-4.123091">
        <ele>489.9</ele>
        <time>2009-04-07T07:30:43Z</time>
      </trkpt>
      <trkpt lat="38.152877" lon="-4.123043">
        <ele>487.2</ele>
        <time>2009-04-07T07:31:03Z</time>
      </trkpt>
      <trkpt lat="38.153142" lon="-4.122985">
        <ele>484.9</ele>
        <time>2009-04-07T07:31:21Z</time>
      </trkpt>
      <trkpt lat="38.153335" lon="-4.123031">
        <ele>481.7</ele>
        <time>2009-04-07T07:31:36Z</time>
      </trkpt>
      <trkpt lat="38.153579" lon="-4.122935">
        <ele>481.1</ele>
        <time>2009-04-07T07:31:54Z</time>
      </trkpt>
      <trkpt lat="38.153765" lon="-4.122653">
        <ele>485.8</ele>
        <time>2009-04-07T07:32:14Z</time>
      </trkpt>
      <trkpt lat="38.153867" lon="-4.122395">
        <ele>490.4</ele>
        <time>2009-04-07T07:32:31Z</time>
      </trkpt>
      <trkpt lat="38.153988" lon="-4.122173">
        <ele>493.5</ele>
        <time>2009-04-07T07:32:46Z</time>
      </trkpt>
      <trkpt lat="38.154120" lon="-4.121730">
        <ele>497.0</ele>
        <time>2009-04-07T07:33:11Z</time>
      </trkpt>
      <trkpt lat="38.154233" lon="-4.121358">
        <ele>498.2</ele>
        <time>2009-04-07T07:33:32Z</time>
      </trkpt>
      <trkpt lat="38.154263" lon="-4.121049">
        <ele>499.0</ele>
        <time>2009-04-07T07:33:52Z</time>
      </trkpt>
      <trkpt lat="38.154269" lon="-4.120725">
        <ele>496.0</ele>
        <time>2009-04-07T07:34:08Z</time>
      </trkpt>
      <trkpt lat="38.154300" lon="-4.120632">
        <ele>495.2</ele>
        <time>2009-04-07T07:34:19Z</time>
      </trkpt>
      <trkpt lat="38.154386" lon="-4.120320">
        <ele>493.7</ele>
        <time>2009-04-07T07:34:37Z</time>
      </trkpt>
      <trkpt lat="38.154394" lon="-4.120287">
        <ele>493.6</ele>
        <time>2009-04-07T07:34:39Z</time>
      </trkpt>
      <trkpt lat="38.154433" lon="-4.120104">
        <ele>491.5</ele>
        <time>2009-04-07T07:34:49Z</time>
      </trkpt>
      <trkpt lat="38.154509" lon="-4.119770">
        <ele>488.2</ele>
        <time>2009-04-07T07:35:07Z</time>
      </trkpt>
      <trkpt lat="38.154658" lon="-4.119520">
        <ele>488.4</ele>
        <time>2009-04-07T07:35:23Z</time>
      </trkpt>
      <trkpt lat="38.154772" lon="-4.119466">
        <ele>490.6</ele>
        <time>2009-04-07T07:35:34Z</time>
      </trkpt>
      <trkpt lat="38.155017" lon="-4.119415">
        <ele>496.0</ele>
        <time>2009-04-07T07:35:49Z</time>
      </trkpt>
      <trkpt lat="38.155309" lon="-4.119423">
        <ele>501.2</ele>
        <time>2009-04-07T07:36:09Z</time>
      </trkpt>
      <trkpt lat="38.155394" lon="-4.119369">
        <ele>501.0</ele>
        <time>2009-04-07T07:36:15Z</time>
      </trkpt>
      <trkpt lat="38.155423" lon="-4.119295">
        <ele>500.2</ele>
        <time>2009-04-07T07:36:19Z</time>
      </trkpt>
      <trkpt lat="38.155435" lon="-4.119047">
        <ele>496.6</ele>
        <time>2009-04-07T07:36:42Z</time>
      </trkpt>
      <trkpt lat="38.155442" lon="-4.118919">
        <ele>494.9</ele>
        <time>2009-04-07T07:39:31Z</time>
      </trkpt>
      <trkpt lat="38.155442" lon="-4.118919">
        <ele>494.9</ele>
        <time>2009-04-07T07:40:42Z</time>
      </trkpt>
      <trkpt lat="38.155491" lon="-4.118635">
        <ele>491.6</ele>
        <time>2009-04-07T07:41:02Z</time>
      </trkpt>
      <trkpt lat="38.155604" lon="-4.118510">
        <ele>491.6</ele>
        <time>2009-04-07T07:41:18Z</time>
      </trkpt>
      <trkpt lat="38.155820" lon="-4.118366">
        <ele>493.2</ele>
        <time>2009-04-07T07:41:37Z</time>
      </trkpt>
      <trkpt lat="38.155993" lon="-4.118268">
        <ele>494.9</ele>
        <time>2009-04-07T07:41:52Z</time>
      </trkpt>
      <trkpt lat="38.156171" lon="-4.118225">
        <ele>497.4</ele>
        <time>2009-04-07T07:42:04Z</time>
      </trkpt>
      <trkpt lat="38.156255" lon="-4.118177">
        <ele>498.1</ele>
        <time>2009-04-07T07:42:10Z</time>
      </trkpt>
      <trkpt lat="38.156343" lon="-4.117973">
        <ele>496.4</ele>
        <time>2009-04-07T07:42:24Z</time>
      </trkpt>
      <trkpt lat="38.156269" lon="-4.117731">
        <ele>491.6</ele>
        <time>2009-04-07T07:42:39Z</time>
      </trkpt>
      <trkpt lat="38.156292" lon="-4.117531">
        <ele>490.4</ele>
        <time>2009-04-07T07:42:54Z</time>
      </trkpt>
      <trkpt lat="38.156350" lon="-4.117446">
        <ele>490.6</ele>
        <time>2009-04-07T07:43:12Z</time>
      </trkpt>
      <trkpt lat="38.156355" lon="-4.117435">
        <ele>490.6</ele>
        <time>2009-04-07T07:43:29Z</time>
      </trkpt>
      <trkpt lat="38.156380" lon="-4.117362">
        <ele>490.4</ele>
        <time>2009-04-07T07:44:03Z</time>
      </trkpt>
      <trkpt lat="38.156356" lon="-4.117354">
        <ele>489.9</ele>
        <time>2009-04-07T07:44:19Z</time>
      </trkpt>
      <trkpt lat="38.156349" lon="-4.117362">
        <ele>489.9</ele>
        <time>2009-04-07T07:44:56Z</time>
      </trkpt>
      <trkpt lat="38.156358" lon="-4.117279">
        <ele>489.3</ele>
        <time>2009-04-07T07:45:26Z</time>
      </trkpt>
      <trkpt lat="38.156400" lon="-4.117119">
        <ele>488.7</ele>
        <time>2009-04-07T07:45:39Z</time>
      </trkpt>
      <trkpt lat="38.156397" lon="-4.116932">
        <ele>487.4</ele>
        <time>2009-04-07T07:45:59Z</time>
      </trkpt>
      <trkpt lat="38.156415" lon="-4.116718">
        <ele>488.1</ele>
        <time>2009-04-07T07:46:17Z</time>
      </trkpt>
      <trkpt lat="38.156411" lon="-4.116469">
        <ele>488.5</ele>
        <time>2009-04-07T07:46:32Z</time>
      </trkpt>
      <trkpt lat="38.156451" lon="-4.116323">
        <ele>489.4</ele>
        <time>2009-04-07T07:46:42Z</time>
      </trkpt>
      <trkpt lat="38.156526" lon="-4.116274">
        <ele>490.5</ele>
        <time>2009-04-07T07:46:50Z</time>
      </trkpt>
      <trkpt lat="38.156722" lon="-4.116224">
        <ele>493.2</ele>
        <time>2009-04-07T07:47:07Z</time>
      </trkpt>
      <trkpt lat="38.156772" lon="-4.116196">
        <ele>493.9</ele>
        <time>2009-04-07T07:47:12Z</time>
      </trkpt>
      <trkpt lat="38.156932" lon="-4.115977">
        <ele>495.2</ele>
        <time>2009-04-07T07:47:30Z</time>
      </trkpt>
      <trkpt lat="38.157001" lon="-4.115674">
        <ele>496.0</ele>
        <time>2009-04-07T07:47:48Z</time>
      </trkpt>
      <trkpt lat="38.156998" lon="-4.115612">
        <ele>496.3</ele>
        <time>2009-04-07T07:47:52Z</time>
      </trkpt>
      <trkpt lat="38.157007" lon="-4.115545">
        <ele>496.5</ele>
        <time>2009-04-07T07:47:56Z</time>
      </trkpt>
      <trkpt lat="38.157007" lon="-4.115491">
        <ele>496.7</ele>
        <time>2009-04-07T07:47:59Z</time>
      </trkpt>
      <trkpt lat="38.156998" lon="-4.115364">
        <ele>497.4</ele>
        <time>2009-04-07T07:48:06Z</time>
      </trkpt>
      <trkpt lat="38.157036" lon="-4.115140">
        <ele>498.7</ele>
        <time>2009-04-07T07:48:23Z</time>
      </trkpt>
      <trkpt lat="38.157054" lon="-4.115066">
        <ele>499.2</ele>
        <time>2009-04-07T07:48:28Z</time>
      </trkpt>
      <trkpt lat="38.157107" lon="-4.114775">
        <ele>501.3</ele>
        <time>2009-04-07T07:48:46Z</time>
      </trkpt>
      <trkpt lat="38.157135" lon="-4.114494">
        <ele>503.6</ele>
        <time>2009-04-07T07:49:04Z</time>
      </trkpt>
      <trkpt lat="38.157166" lon="-4.114342">
        <ele>504.7</ele>
        <time>2009-04-07T07:49:21Z</time>
      </trkpt>
      <trkpt lat="38.157188" lon="-4.114281">
        <ele>505.0</ele>
        <time>2009-04-07T07:49:26Z</time>
      </trkpt>
      <trkpt lat="38.157282" lon="-4.114108">
        <ele>505.1</ele>
        <time>2009-04-07T07:49:39Z</time>
      </trkpt>
      <trkpt lat="38.157389" lon="-4.113820">
        <ele>506.1</ele>
        <time>2009-04-07T07:49:58Z</time>
      </trkpt>
      <trkpt lat="38.157503" lon="-4.113586">
        <ele>505.8</ele>
        <time>2009-04-07T07:50:14Z</time>
      </trkpt>
      <trkpt lat="38.157615" lon="-4.113463">
        <ele>503.8</ele>
        <time>2009-04-07T07:50:26Z</time>
      </trkpt>
      <trkpt lat="38.157779" lon="-4.113264">
        <ele>502.3</ele>
        <time>2009-04-07T07:50:41Z</time>
      </trkpt>
      <trkpt lat="38.157955" lon="-4.113112">
        <ele>501.9</ele>
        <time>2009-04-07T07:50:57Z</time>
      </trkpt>
      <trkpt lat="38.158093" lon="-4.112997">
        <ele>501.8</ele>
        <time>2009-04-07T07:51:09Z</time>
      </trkpt>
      <trkpt lat="38.158302" lon="-4.112871">
        <ele>502.0</ele>
        <time>2009-04-07T07:51:25Z</time>
      </trkpt>
      <trkpt lat="38.158534" lon="-4.112789">
        <ele>502.2</ele>
        <time>2009-04-07T07:51:43Z</time>
      </trkpt>
      <trkpt lat="38.158732" lon="-4.112672">
        <ele>504.1</ele>
        <time>2009-04-07T07:52:00Z</time>
      </trkpt>
      <trkpt lat="38.158944" lon="-4.112566">
        <ele>506.1</ele>
        <time>2009-04-07T07:52:19Z</time>
      </trkpt>
      <trkpt lat="38.159188" lon="-4.112485">
        <ele>508.2</ele>
        <time>2009-04-07T07:52:38Z</time>
      </trkpt>
      <trkpt lat="38.159373" lon="-4.112488">
        <ele>509.4</ele>
        <time>2009-04-07T07:52:55Z</time>
      </trkpt>
      <trkpt lat="38.159573" lon="-4.112442">
        <ele>506.7</ele>
        <time>2009-04-07T07:53:10Z</time>
      </trkpt>
      <trkpt lat="38.159777" lon="-4.112339">
        <ele>504.2</ele>
        <time>2009-04-07T07:53:27Z</time>
      </trkpt>
      <trkpt lat="38.159979" lon="-4.112282">
        <ele>501.9</ele>
        <time>2009-04-07T07:53:41Z</time>
      </trkpt>
      <trkpt lat="38.160256" lon="-4.112236">
        <ele>499.6</ele>
        <time>2009-04-07T07:54:00Z</time>
      </trkpt>
      <trkpt lat="38.160456" lon="-4.112358">
        <ele>498.2</ele>
        <time>2009-04-07T07:54:15Z</time>
      </trkpt>
      <trkpt lat="38.160625" lon="-4.112479">
        <ele>496.2</ele>
        <time>2009-04-07T07:54:30Z</time>
      </trkpt>
      <trkpt lat="38.160825" lon="-4.112561">
        <ele>493.8</ele>
        <time>2009-04-07T07:54:44Z</time>
      </trkpt>
      <trkpt lat="38.160879" lon="-4.112550">
        <ele>493.7</ele>
        <time>2009-04-07T07:54:48Z</time>
      </trkpt>
      <trkpt lat="38.161090" lon="-4.112541">
        <ele>494.0</ele>
        <time>2009-04-07T07:55:05Z</time>
      </trkpt>
      <trkpt lat="38.161322" lon="-4.112592">
        <ele>497.0</ele>
        <time>2009-04-07T07:55:21Z</time>
      </trkpt>
      <trkpt lat="38.161346" lon="-4.112602">
        <ele>497.2</ele>
        <time>2009-04-07T07:55:23Z</time>
      </trkpt>
      <trkpt lat="38.161493" lon="-4.112661">
        <ele>499.1</ele>
        <time>2009-04-07T07:55:34Z</time>
      </trkpt>
      <trkpt lat="38.161584" lon="-4.112678">
        <ele>500.6</ele>
        <time>2009-04-07T07:55:40Z</time>
      </trkpt>
      <trkpt lat="38.161816" lon="-4.112741">
        <ele>504.5</ele>
        <time>2009-04-07T07:55:57Z</time>
      </trkpt>
      <trkpt lat="38.161983" lon="-4.112742">
        <ele>506.9</ele>
        <time>2009-04-07T07:56:09Z</time>
      </trkpt>
      <trkpt lat="38.162006" lon="-4.112745">
        <ele>507.2</ele>
        <time>2009-04-07T07:56:11Z</time>
      </trkpt>
      <trkpt lat="38.162176" lon="-4.112686">
        <ele>509.5</ele>
        <time>2009-04-07T07:56:25Z</time>
      </trkpt>
      <trkpt lat="38.162303" lon="-4.112598">
        <ele>511.1</ele>
        <time>2009-04-07T07:56:36Z</time>
      </trkpt>
      <trkpt lat="38.162428" lon="-4.112426">
        <ele>512.7</ele>
        <time>2009-04-07T07:56:47Z</time>
      </trkpt>
      <trkpt lat="38.162466" lon="-4.112323">
        <ele>513.1</ele>
        <time>2009-04-07T07:57:04Z</time>
      </trkpt>
      <trkpt lat="38.162425" lon="-4.112258">
        <ele>512.7</ele>
        <time>2009-04-07T07:57:39Z</time>
      </trkpt>
      <trkpt lat="38.162465" lon="-4.112333">
        <ele>513.1</ele>
        <time>2009-04-07T08:01:17Z</time>
      </trkpt>
      <trkpt lat="38.162424" lon="-4.112242">
        <ele>512.7</ele>
        <time>2009-04-07T08:01:43Z</time>
      </trkpt>
      <trkpt lat="38.162393" lon="-4.112116">
        <ele>512.5</ele>
        <time>2009-04-07T08:01:58Z</time>
      </trkpt>
      <trkpt lat="38.162448" lon="-4.111998">
        <ele>513.0</ele>
        <time>2009-04-07T08:02:09Z</time>
      </trkpt>
      <trkpt lat="38.162526" lon="-4.111948">
        <ele>513.6</ele>
        <time>2009-04-07T08:02:19Z</time>
      </trkpt>
      <trkpt lat="38.162663" lon="-4.111848">
        <ele>514.5</ele>
        <time>2009-04-07T08:02:34Z</time>
      </trkpt>
      <trkpt lat="38.162803" lon="-4.111730">
        <ele>515.4</ele>
        <time>2009-04-07T08:02:49Z</time>
      </trkpt>
      <trkpt lat="38.162926" lon="-4.111713">
        <ele>516.3</ele>
        <time>2009-04-07T08:03:02Z</time>
      </trkpt>
      <trkpt lat="38.163124" lon="-4.111621">
        <ele>518.2</ele>
        <time>2009-04-07T08:03:19Z</time>
      </trkpt>
      <trkpt lat="38.163242" lon="-4.111566">
        <ele>519.6</ele>
        <time>2009-04-07T08:03:33Z</time>
      </trkpt>
      <trkpt lat="38.163291" lon="-4.111537">
        <ele>520.2</ele>
        <time>2009-04-07T08:03:38Z</time>
      </trkpt>
      <trkpt lat="38.163342" lon="-4.111521">
        <ele>520.9</ele>
        <time>2009-04-07T08:03:43Z</time>
      </trkpt>
      <trkpt lat="38.163462" lon="-4.111412">
        <ele>523.0</ele>
        <time>2009-04-07T08:03:56Z</time>
      </trkpt>
      <trkpt lat="38.163576" lon="-4.111297">
        <ele>525.2</ele>
        <time>2009-04-07T08:04:11Z</time>
      </trkpt>
      <trkpt lat="38.163691" lon="-4.111189">
        <ele>527.7</ele>
        <time>2009-04-07T08:04:25Z</time>
      </trkpt>
      <trkpt lat="38.163838" lon="-4.111067">
        <ele>530.2</ele>
        <time>2009-04-07T08:04:44Z</time>
      </trkpt>
      <trkpt lat="38.163929" lon="-4.110989">
        <ele>531.6</ele>
        <time>2009-04-07T08:04:58Z</time>
      </trkpt>
      <trkpt lat="38.164034" lon="-4.110871">
        <ele>533.5</ele>
        <time>2009-04-07T08:05:12Z</time>
      </trkpt>
      <trkpt lat="38.164164" lon="-4.110756">
        <ele>536.4</ele>
        <time>2009-04-07T08:05:26Z</time>
      </trkpt>
      <trkpt lat="38.164253" lon="-4.110753">
        <ele>538.2</ele>
        <time>2009-04-07T08:05:42Z</time>
      </trkpt>
      <trkpt lat="38.164291" lon="-4.110755">
        <ele>539.0</ele>
        <time>2009-04-07T08:06:26Z</time>
      </trkpt>
      <trkpt lat="38.164311" lon="-4.110725">
        <ele>539.6</ele>
        <time>2009-04-07T08:07:10Z</time>
      </trkpt>
      <trkpt lat="38.164301" lon="-4.110750">
        <ele>539.2</ele>
        <time>2009-04-07T08:07:48Z</time>
      </trkpt>
      <trkpt lat="38.164312" lon="-4.110777">
        <ele>539.2</ele>
        <time>2009-04-07T08:09:22Z</time>
      </trkpt>
      <trkpt lat="38.164381" lon="-4.110746">
        <ele>540.5</ele>
        <time>2009-04-07T08:09:36Z</time>
      </trkpt>
      <trkpt lat="38.164433" lon="-4.110717">
        <ele>541.2</ele>
        <time>2009-04-07T08:09:49Z</time>
      </trkpt>
      <trkpt lat="38.164483" lon="-4.110688">
        <ele>541.9</ele>
        <time>2009-04-07T08:09:56Z</time>
      </trkpt>
      <trkpt lat="38.164508" lon="-4.110638">
        <ele>542.6</ele>
        <time>2009-04-07T08:10:00Z</time>
      </trkpt>
      <trkpt lat="38.164554" lon="-4.110561">
        <ele>543.8</ele>
        <time>2009-04-07T08:10:07Z</time>
      </trkpt>
      <trkpt lat="38.164702" lon="-4.110487">
        <ele>546.1</ele>
        <time>2009-04-07T08:10:22Z</time>
      </trkpt>
      <trkpt lat="38.164806" lon="-4.110505">
        <ele>547.0</ele>
        <time>2009-04-07T08:10:34Z</time>
      </trkpt>
      <trkpt lat="38.164827" lon="-4.110509">
        <ele>547.2</ele>
        <time>2009-04-07T08:10:36Z</time>
      </trkpt>
      <trkpt lat="38.164863" lon="-4.110520">
        <ele>547.4</ele>
        <time>2009-04-07T08:10:39Z</time>
      </trkpt>
      <trkpt lat="38.164943" lon="-4.110509">
        <ele>548.4</ele>
        <time>2009-04-07T08:10:46Z</time>
      </trkpt>
      <trkpt lat="38.165112" lon="-4.110529">
        <ele>549.9</ele>
        <time>2009-04-07T08:11:01Z</time>
      </trkpt>
      <trkpt lat="38.165150" lon="-4.110537">
        <ele>550.2</ele>
        <time>2009-04-07T08:11:04Z</time>
      </trkpt>
      <trkpt lat="38.165311" lon="-4.110412">
        <ele>553.3</ele>
        <time>2009-04-07T08:11:19Z</time>
      </trkpt>
      <trkpt lat="38.165462" lon="-4.110339">
        <ele>555.6</ele>
        <time>2009-04-07T08:11:32Z</time>
      </trkpt>
      <trkpt lat="38.165558" lon="-4.110294">
        <ele>557.1</ele>
        <time>2009-04-07T08:11:40Z</time>
      </trkpt>
      <trkpt lat="38.165728" lon="-4.110271">
        <ele>558.5</ele>
        <time>2009-04-07T08:11:54Z</time>
      </trkpt>
      <trkpt lat="38.165796" lon="-4.110271">
        <ele>559.1</ele>
        <time>2009-04-07T08:11:59Z</time>
      </trkpt>
      <trkpt lat="38.165821" lon="-4.110276">
        <ele>559.3</ele>
        <time>2009-04-07T08:12:01Z</time>
      </trkpt>
      <trkpt lat="38.166042" lon="-4.110221">
        <ele>560.8</ele>
        <time>2009-04-07T08:12:19Z</time>
      </trkpt>
      <trkpt lat="38.166134" lon="-4.110257">
        <ele>560.1</ele>
        <time>2009-04-07T08:12:28Z</time>
      </trkpt>
      <trkpt lat="38.166152" lon="-4.110248">
        <ele>560.0</ele>
        <time>2009-04-07T08:12:30Z</time>
      </trkpt>
      <trkpt lat="38.166254" lon="-4.110272">
        <ele>559.2</ele>
        <time>2009-04-07T08:12:46Z</time>
      </trkpt>
      <trkpt lat="38.166255" lon="-4.110291">
        <ele>559.0</ele>
        <time>2009-04-07T08:13:25Z</time>
      </trkpt>
      <trkpt lat="38.166222" lon="-4.110287">
        <ele>559.3</ele>
        <time>2009-04-07T08:14:25Z</time>
      </trkpt>
      <trkpt lat="38.166208" lon="-4.110301">
        <ele>559.3</ele>
        <time>2009-04-07T08:14:43Z</time>
      </trkpt>
      <trkpt lat="38.166218" lon="-4.110316">
        <ele>558.9</ele>
        <time>2009-04-07T08:15:07Z</time>
      </trkpt>
      <trkpt lat="38.166228" lon="-4.110311">
        <ele>558.9</ele>
        <time>2009-04-07T08:15:47Z</time>
      </trkpt>
      <trkpt lat="38.166295" lon="-4.110297">
        <ele>558.7</ele>
        <time>2009-04-07T08:16:07Z</time>
      </trkpt>
      <trkpt lat="38.166492" lon="-4.110232">
        <ele>557.7</ele>
        <time>2009-04-07T08:16:22Z</time>
      </trkpt>
      <trkpt lat="38.166695" lon="-4.110262">
        <ele>555.8</ele>
        <time>2009-04-07T08:16:38Z</time>
      </trkpt>
      <trkpt lat="38.166914" lon="-4.110200">
        <ele>555.5</ele>
        <time>2009-04-07T08:16:56Z</time>
      </trkpt>
      <trkpt lat="38.166925" lon="-4.110041">
        <ele>558.3</ele>
        <time>2009-04-07T08:17:01Z</time>
      </trkpt>
      <trkpt lat="38.167142" lon="-4.109906">
        <ele>559.8</ele>
        <time>2009-04-07T08:17:18Z</time>
      </trkpt>
      <trkpt lat="38.167391" lon="-4.109842">
        <ele>559.9</ele>
        <time>2009-04-07T08:17:35Z</time>
      </trkpt>
      <trkpt lat="38.167640" lon="-4.109792">
        <ele>559.7</ele>
        <time>2009-04-07T08:17:52Z</time>
      </trkpt>
      <trkpt lat="38.167897" lon="-4.109691">
        <ele>560.9</ele>
        <time>2009-04-07T08:18:10Z</time>
      </trkpt>
      <trkpt lat="38.168130" lon="-4.109448">
        <ele>563.0</ele>
        <time>2009-04-07T08:18:31Z</time>
      </trkpt>
      <trkpt lat="38.168333" lon="-4.109434">
        <ele>562.1</ele>
        <time>2009-04-07T08:18:46Z</time>
      </trkpt>
      <trkpt lat="38.168640" lon="-4.109196">
        <ele>564.0</ele>
        <time>2009-04-07T08:19:03Z</time>
      </trkpt>
      <trkpt lat="38.168803" lon="-4.108813">
        <ele>567.9</ele>
        <time>2009-04-07T08:19:21Z</time>
      </trkpt>
      <trkpt lat="38.168838" lon="-4.108489">
        <ele>570.4</ele>
        <time>2009-04-07T08:19:38Z</time>
      </trkpt>
      <trkpt lat="38.168838" lon="-4.108489">
        <ele>570.4</ele>
        <time>2009-04-07T08:19:58Z</time>
      </trkpt>
      <trkpt lat="38.168794" lon="-4.108123">
        <ele>572.8</ele>
        <time>2009-04-07T08:20:16Z</time>
      </trkpt>
      <trkpt lat="38.168824" lon="-4.107905">
        <ele>574.6</ele>
        <time>2009-04-07T08:20:32Z</time>
      </trkpt>
      <trkpt lat="38.169008" lon="-4.107919">
        <ele>575.5</ele>
        <time>2009-04-07T08:20:46Z</time>
      </trkpt>
      <trkpt lat="38.169090" lon="-4.107934">
        <ele>575.8</ele>
        <time>2009-04-07T08:20:53Z</time>
      </trkpt>
      <trkpt lat="38.169122" lon="-4.107954">
        <ele>575.8</ele>
        <time>2009-04-07T08:20:56Z</time>
      </trkpt>
      <trkpt lat="38.169190" lon="-4.107963">
        <ele>576.1</ele>
        <time>2009-04-07T08:21:02Z</time>
      </trkpt>
      <trkpt lat="38.169392" lon="-4.107978">
        <ele>577.7</ele>
        <time>2009-04-07T08:21:19Z</time>
      </trkpt>
      <trkpt lat="38.169472" lon="-4.107991">
        <ele>579.1</ele>
        <time>2009-04-07T08:21:32Z</time>
      </trkpt>
      <trkpt lat="38.169568" lon="-4.107983">
        <ele>580.9</ele>
        <time>2009-04-07T08:21:47Z</time>
      </trkpt>
      <trkpt lat="38.169679" lon="-4.108015">
        <ele>582.9</ele>
        <time>2009-04-07T08:22:00Z</time>
      </trkpt>
      <trkpt lat="38.169747" lon="-4.108055">
        <ele>584.0</ele>
        <time>2009-04-07T08:22:08Z</time>
      </trkpt>
      <trkpt lat="38.169870" lon="-4.108183">
        <ele>585.9</ele>
        <time>2009-04-07T08:22:24Z</time>
      </trkpt>
      <trkpt lat="38.169990" lon="-4.108316">
        <ele>587.8</ele>
        <time>2009-04-07T08:22:40Z</time>
      </trkpt>
      <trkpt lat="38.170035" lon="-4.108377">
        <ele>588.5</ele>
        <time>2009-04-07T08:22:46Z</time>
      </trkpt>
      <trkpt lat="38.170179" lon="-4.108504">
        <ele>591.2</ele>
        <time>2009-04-07T08:23:02Z</time>
      </trkpt>
      <trkpt lat="38.170316" lon="-4.108633">
        <ele>592.4</ele>
        <time>2009-04-07T08:23:18Z</time>
      </trkpt>
      <trkpt lat="38.170471" lon="-4.108752">
        <ele>593.2</ele>
        <time>2009-04-07T08:23:33Z</time>
      </trkpt>
      <trkpt lat="38.170703" lon="-4.108777">
        <ele>595.7</ele>
        <time>2009-04-07T08:23:51Z</time>
      </trkpt>
      <trkpt lat="38.170976" lon="-4.108823">
        <ele>598.6</ele>
        <time>2009-04-07T08:24:10Z</time>
      </trkpt>
      <trkpt lat="38.171309" lon="-4.108819">
        <ele>595.7</ele>
        <time>2009-04-07T08:24:33Z</time>
      </trkpt>
      <trkpt lat="38.171584" lon="-4.108793">
        <ele>592.7</ele>
        <time>2009-04-07T08:24:52Z</time>
      </trkpt>
      <trkpt lat="38.171762" lon="-4.108697">
        <ele>591.4</ele>
        <time>2009-04-07T08:25:09Z</time>
      </trkpt>
      <trkpt lat="38.171756" lon="-4.108716">
        <ele>591.4</ele>
        <time>2009-04-07T08:25:30Z</time>
      </trkpt>
      <trkpt lat="38.171766" lon="-4.108696">
        <ele>591.4</ele>
        <time>2009-04-07T08:25:51Z</time>
      </trkpt>
      <trkpt lat="38.171792" lon="-4.108680">
        <ele>591.2</ele>
        <time>2009-04-07T08:26:23Z</time>
      </trkpt>
      <trkpt lat="38.171824" lon="-4.108679">
        <ele>590.9</ele>
        <time>2009-04-07T08:27:01Z</time>
      </trkpt>
      <trkpt lat="38.171916" lon="-4.108414">
        <ele>591.4</ele>
        <time>2009-04-07T08:27:19Z</time>
      </trkpt>
      <trkpt lat="38.172037" lon="-4.108171">
        <ele>591.8</ele>
        <time>2009-04-07T08:27:37Z</time>
      </trkpt>
      <trkpt lat="38.172239" lon="-4.108026">
        <ele>591.9</ele>
        <time>2009-04-07T08:27:55Z</time>
      </trkpt>
      <trkpt lat="38.172412" lon="-4.107925">
        <ele>592.2</ele>
        <time>2009-04-07T08:28:09Z</time>
      </trkpt>
      <trkpt lat="38.172639" lon="-4.107868">
        <ele>592.3</ele>
        <time>2009-04-07T08:28:26Z</time>
      </trkpt>
      <trkpt lat="38.172868" lon="-4.107857">
        <ele>592.4</ele>
        <time>2009-04-07T08:28:42Z</time>
      </trkpt>
      <trkpt lat="38.173041" lon="-4.107931">
        <ele>591.9</ele>
        <time>2009-04-07T08:28:54Z</time>
      </trkpt>
      <trkpt lat="38.173209" lon="-4.107981">
        <ele>591.7</ele>
        <time>2009-04-07T08:29:09Z</time>
      </trkpt>
      <trkpt lat="38.173410" lon="-4.107945">
        <ele>592.2</ele>
        <time>2009-04-07T08:29:24Z</time>
      </trkpt>
      <trkpt lat="38.173626" lon="-4.107839">
        <ele>593.2</ele>
        <time>2009-04-07T08:29:41Z</time>
      </trkpt>
      <trkpt lat="38.173841" lon="-4.107821">
        <ele>594.1</ele>
        <time>2009-04-07T08:29:57Z</time>
      </trkpt>
      <trkpt lat="38.173882" lon="-4.107836">
        <ele>594.3</ele>
        <time>2009-04-07T08:30:18Z</time>
      </trkpt>
      <trkpt lat="38.173896" lon="-4.107847">
        <ele>594.3</ele>
        <time>2009-04-07T08:30:32Z</time>
      </trkpt>
      <trkpt lat="38.174009" lon="-4.108053">
        <ele>594.8</ele>
        <time>2009-04-07T08:30:47Z</time>
      </trkpt>
      <trkpt lat="38.174178" lon="-4.108108">
        <ele>595.9</ele>
        <time>2009-04-07T08:31:01Z</time>
      </trkpt>
      <trkpt lat="38.174232" lon="-4.107843">
        <ele>595.7</ele>
        <time>2009-04-07T08:31:17Z</time>
      </trkpt>
      <trkpt lat="38.174337" lon="-4.107548">
        <ele>597.5</ele>
        <time>2009-04-07T08:31:35Z</time>
      </trkpt>
      <trkpt lat="38.174493" lon="-4.107322">
        <ele>596.6</ele>
        <time>2009-04-07T08:31:51Z</time>
      </trkpt>
      <trkpt lat="38.174676" lon="-4.107078">
        <ele>594.9</ele>
        <time>2009-04-07T08:32:09Z</time>
      </trkpt>
      <trkpt lat="38.174850" lon="-4.106804">
        <ele>592.5</ele>
        <time>2009-04-07T08:32:28Z</time>
      </trkpt>
      <trkpt lat="38.175033" lon="-4.106494">
        <ele>589.7</ele>
        <time>2009-04-07T08:32:48Z</time>
      </trkpt>
      <trkpt lat="38.175196" lon="-4.106237">
        <ele>587.8</ele>
        <time>2009-04-07T08:33:06Z</time>
      </trkpt>
      <trkpt lat="38.175354" lon="-4.106071">
        <ele>586.6</ele>
        <time>2009-04-07T08:33:20Z</time>
      </trkpt>
      <trkpt lat="38.175424" lon="-4.105964">
        <ele>585.9</ele>
        <time>2009-04-07T08:33:27Z</time>
      </trkpt>
      <trkpt lat="38.175588" lon="-4.105688">
        <ele>585.0</ele>
        <time>2009-04-07T08:33:46Z</time>
      </trkpt>
      <trkpt lat="38.175639" lon="-4.105620">
        <ele>585.0</ele>
        <time>2009-04-07T08:33:51Z</time>
      </trkpt>
      <trkpt lat="38.175833" lon="-4.105397">
        <ele>585.3</ele>
        <time>2009-04-07T08:34:09Z</time>
      </trkpt>
      <trkpt lat="38.176051" lon="-4.105240">
        <ele>586.3</ele>
        <time>2009-04-07T08:34:28Z</time>
      </trkpt>
      <trkpt lat="38.176133" lon="-4.105259">
        <ele>586.7</ele>
        <time>2009-04-07T08:34:47Z</time>
      </trkpt>
      <trkpt lat="38.176348" lon="-4.105219">
        <ele>588.1</ele>
        <time>2009-04-07T08:35:20Z</time>
      </trkpt>
      <trkpt lat="38.176473" lon="-4.105207">
        <ele>588.8</ele>
        <time>2009-04-07T08:35:31Z</time>
      </trkpt>
      <trkpt lat="38.176684" lon="-4.105339">
        <ele>589.9</ele>
        <time>2009-04-07T08:35:49Z</time>
      </trkpt>
      <trkpt lat="38.176895" lon="-4.105453">
        <ele>590.8</ele>
        <time>2009-04-07T08:36:05Z</time>
      </trkpt>
      <trkpt lat="38.177060" lon="-4.105459">
        <ele>591.5</ele>
        <time>2009-04-07T08:36:17Z</time>
      </trkpt>
      <trkpt lat="38.177128" lon="-4.105451">
        <ele>591.8</ele>
        <time>2009-04-07T08:36:22Z</time>
      </trkpt>
      <trkpt lat="38.177282" lon="-4.105409">
        <ele>592.6</ele>
        <time>2009-04-07T08:36:32Z</time>
      </trkpt>
      <trkpt lat="38.177373" lon="-4.105352">
        <ele>593.2</ele>
        <time>2009-04-07T08:36:39Z</time>
      </trkpt>
      <trkpt lat="38.177449" lon="-4.105294">
        <ele>593.9</ele>
        <time>2009-04-07T08:36:56Z</time>
      </trkpt>
      <trkpt lat="38.177478" lon="-4.105301">
        <ele>594.0</ele>
        <time>2009-04-07T08:37:12Z</time>
      </trkpt>
      <trkpt lat="38.177489" lon="-4.105309">
        <ele>594.0</ele>
        <time>2009-04-07T08:37:38Z</time>
      </trkpt>
      <trkpt lat="38.177487" lon="-4.105322">
        <ele>593.9</ele>
        <time>2009-04-07T08:37:54Z</time>
      </trkpt>
      <trkpt lat="38.177452" lon="-4.105353">
        <ele>593.6</ele>
        <time>2009-04-07T08:38:14Z</time>
      </trkpt>
      <trkpt lat="38.177447" lon="-4.105345">
        <ele>593.6</ele>
        <time>2009-04-07T08:38:45Z</time>
      </trkpt>
      <trkpt lat="38.177454" lon="-4.105342">
        <ele>593.7</ele>
        <time>2009-04-07T08:39:15Z</time>
      </trkpt>
      <trkpt lat="38.177631" lon="-4.105157">
        <ele>594.6</ele>
        <time>2009-04-07T08:39:32Z</time>
      </trkpt>
      <trkpt lat="38.177847" lon="-4.105081">
        <ele>594.3</ele>
        <time>2009-04-07T08:39:49Z</time>
      </trkpt>
      <trkpt lat="38.178114" lon="-4.104977">
        <ele>593.7</ele>
        <time>2009-04-07T08:40:09Z</time>
      </trkpt>
      <trkpt lat="38.178354" lon="-4.104858">
        <ele>593.8</ele>
        <time>2009-04-07T08:40:27Z</time>
      </trkpt>
      <trkpt lat="38.178557" lon="-4.104772">
        <ele>594.2</ele>
        <time>2009-04-07T08:40:42Z</time>
      </trkpt>
      <trkpt lat="38.178779" lon="-4.104684">
        <ele>595.1</ele>
        <time>2009-04-07T08:41:01Z</time>
      </trkpt>
      <trkpt lat="38.178978" lon="-4.104483">
        <ele>596.9</ele>
        <time>2009-04-07T08:41:20Z</time>
      </trkpt>
      <trkpt lat="38.178994" lon="-4.104138">
        <ele>595.3</ele>
        <time>2009-04-07T08:41:40Z</time>
      </trkpt>
      <trkpt lat="38.178994" lon="-4.104056">
        <ele>594.8</ele>
        <time>2009-04-07T08:41:45Z</time>
      </trkpt>
      <trkpt lat="38.178998" lon="-4.103980">
        <ele>594.4</ele>
        <time>2009-04-07T08:41:50Z</time>
      </trkpt>
      <trkpt lat="38.179067" lon="-4.103600">
        <ele>592.1</ele>
        <time>2009-04-07T08:42:10Z</time>
      </trkpt>
      <trkpt lat="38.179009" lon="-4.103336">
        <ele>590.2</ele>
        <time>2009-04-07T08:42:24Z</time>
      </trkpt>
      <trkpt lat="38.179013" lon="-4.103036">
        <ele>588.0</ele>
        <time>2009-04-07T08:42:39Z</time>
      </trkpt>
      <trkpt lat="38.179064" lon="-4.102724">
        <ele>585.7</ele>
        <time>2009-04-07T08:42:56Z</time>
      </trkpt>
      <trkpt lat="38.179109" lon="-4.102429">
        <ele>584.4</ele>
        <time>2009-04-07T08:43:12Z</time>
      </trkpt>
      <trkpt lat="38.179244" lon="-4.102165">
        <ele>583.0</ele>
        <time>2009-04-07T08:43:30Z</time>
      </trkpt>
      <trkpt lat="38.179430" lon="-4.101997">
        <ele>580.8</ele>
        <time>2009-04-07T08:43:46Z</time>
      </trkpt>
      <trkpt lat="38.179375" lon="-4.101769">
        <ele>581.8</ele>
        <time>2009-04-07T08:44:01Z</time>
      </trkpt>
      <trkpt lat="38.179249" lon="-4.101527">
        <ele>582.5</ele>
        <time>2009-04-07T08:44:18Z</time>
      </trkpt>
      <trkpt lat="38.179222" lon="-4.101275">
        <ele>582.6</ele>
        <time>2009-04-07T08:44:33Z</time>
      </trkpt>
      <trkpt lat="38.179280" lon="-4.100964">
        <ele>583.0</ele>
        <time>2009-04-07T08:44:51Z</time>
      </trkpt>
      <trkpt lat="38.179310" lon="-4.100686">
        <ele>583.4</ele>
        <time>2009-04-07T08:45:07Z</time>
      </trkpt>
      <trkpt lat="38.179295" lon="-4.100444">
        <ele>583.6</ele>
        <time>2009-04-07T08:45:21Z</time>
      </trkpt>
      <trkpt lat="38.179303" lon="-4.100146">
        <ele>584.4</ele>
        <time>2009-04-07T08:45:38Z</time>
      </trkpt>
      <trkpt lat="38.179308" lon="-4.099818">
        <ele>585.6</ele>
        <time>2009-04-07T08:45:57Z</time>
      </trkpt>
      <trkpt lat="38.179355" lon="-4.099649">
        <ele>586.3</ele>
        <time>2009-04-07T08:46:13Z</time>
      </trkpt>
      <trkpt lat="38.179370" lon="-4.099653">
        <ele>586.1</ele>
        <time>2009-04-07T08:46:46Z</time>
      </trkpt>
      <trkpt lat="38.179352" lon="-4.099644">
        <ele>586.3</ele>
        <time>2009-04-07T08:47:28Z</time>
      </trkpt>
      <trkpt lat="38.179353" lon="-4.099646">
        <ele>586.3</ele>
        <time>2009-04-07T08:47:59Z</time>
      </trkpt>
      <trkpt lat="38.179431" lon="-4.099509">
        <ele>586.0</ele>
        <time>2009-04-07T08:48:23Z</time>
      </trkpt>
      <trkpt lat="38.179478" lon="-4.099372">
        <ele>585.6</ele>
        <time>2009-04-07T08:48:44Z</time>
      </trkpt>
      <trkpt lat="38.179628" lon="-4.099282">
        <ele>584.0</ele>
        <time>2009-04-07T08:49:04Z</time>
      </trkpt>
      <trkpt lat="38.179741" lon="-4.099222">
        <ele>582.9</ele>
        <time>2009-04-07T08:49:20Z</time>
      </trkpt>
      <trkpt lat="38.179778" lon="-4.099103">
        <ele>582.6</ele>
        <time>2009-04-07T08:49:39Z</time>
      </trkpt>
      <trkpt lat="38.179896" lon="-4.099037">
        <ele>581.6</ele>
        <time>2009-04-07T08:49:57Z</time>
      </trkpt>
      <trkpt lat="38.179957" lon="-4.098906">
        <ele>581.3</ele>
        <time>2009-04-07T08:50:16Z</time>
      </trkpt>
      <trkpt lat="38.180074" lon="-4.098834">
        <ele>580.4</ele>
        <time>2009-04-07T08:50:35Z</time>
      </trkpt>
      <trkpt lat="38.180088" lon="-4.098673">
        <ele>580.6</ele>
        <time>2009-04-07T08:50:52Z</time>
      </trkpt>
      <trkpt lat="38.180154" lon="-4.098547">
        <ele>580.1</ele>
        <time>2009-04-07T08:51:00Z</time>
      </trkpt>
      <trkpt lat="38.180234" lon="-4.098553">
        <ele>579.4</ele>
        <time>2009-04-07T08:51:00Z</time>
      </trkpt>
      <trkpt lat="38.180300" lon="-4.098404">
        <ele>578.4</ele>
        <time>2009-04-07T08:51:01Z</time>
      </trkpt>
      <trkpt lat="38.180347" lon="-4.098237">
        <ele>577.6</ele>
        <time>2009-04-07T08:51:01Z</time>
      </trkpt>
      <trkpt lat="38.180403" lon="-4.098046">
        <ele>576.6</ele>
        <time>2009-04-07T08:51:02Z</time>
      </trkpt>
      <trkpt lat="38.180502" lon="-4.097944">
        <ele>575.1</ele>
        <time>2009-04-07T08:51:02Z</time>
      </trkpt>
      <trkpt lat="38.180567" lon="-4.097843">
        <ele>574.1</ele>
        <time>2009-04-07T08:51:02Z</time>
      </trkpt>
      <trkpt lat="38.180600" lon="-4.097741">
        <ele>573.4</ele>
        <time>2009-04-07T08:51:02Z</time>
      </trkpt>
      <trkpt lat="38.180704" lon="-4.097616">
        <ele>571.7</ele>
        <time>2009-04-07T08:51:03Z</time>
      </trkpt>
      <trkpt lat="38.180807" lon="-4.097538">
        <ele>570.2</ele>
        <time>2009-04-07T08:51:03Z</time>
      </trkpt>
      <trkpt lat="38.180905" lon="-4.097436">
        <ele>568.6</ele>
        <time>2009-04-07T08:51:10Z</time>
      </trkpt>
      <trkpt lat="38.181070" lon="-4.097323">
        <ele>566.0</ele>
        <time>2009-04-07T08:51:28Z</time>
      </trkpt>
      <trkpt lat="38.181192" lon="-4.097233">
        <ele>563.7</ele>
        <time>2009-04-07T08:51:42Z</time>
      </trkpt>
      <trkpt lat="38.181433" lon="-4.097170">
        <ele>559.5</ele>
        <time>2009-04-07T08:52:00Z</time>
      </trkpt>
      <trkpt lat="38.181492" lon="-4.096977">
        <ele>558.1</ele>
        <time>2009-04-07T08:52:34Z</time>
      </trkpt>
      <trkpt lat="38.181686" lon="-4.096803">
        <ele>555.7</ele>
        <time>2009-04-07T08:56:52Z</time>
      </trkpt>
      <trkpt lat="38.181737" lon="-4.096593">
        <ele>555.9</ele>
        <time>2009-04-07T08:57:08Z</time>
      </trkpt>
      <trkpt lat="38.181868" lon="-4.096469">
        <ele>554.2</ele>
        <time>2009-04-07T08:57:24Z</time>
      </trkpt>
      <trkpt lat="38.181942" lon="-4.096339">
        <ele>553.9</ele>
        <time>2009-04-07T08:57:35Z</time>
      </trkpt>
      <trkpt lat="38.182079" lon="-4.096266">
        <ele>552.6</ele>
        <time>2009-04-07T08:57:49Z</time>
      </trkpt>
      <trkpt lat="38.182147" lon="-4.096201">
        <ele>552.1</ele>
        <time>2009-04-07T08:57:56Z</time>
      </trkpt>
      <trkpt lat="38.182290" lon="-4.096165">
        <ele>550.6</ele>
        <time>2009-04-07T08:58:09Z</time>
      </trkpt>
      <trkpt lat="38.182478" lon="-4.096049">
        <ele>549.3</ele>
        <time>2009-04-07T08:58:27Z</time>
      </trkpt>
      <trkpt lat="38.182575" lon="-4.095984">
        <ele>548.7</ele>
        <time>2009-04-07T08:58:37Z</time>
      </trkpt>
      <trkpt lat="38.182637" lon="-4.095868">
        <ele>548.9</ele>
        <time>2009-04-07T08:58:46Z</time>
      </trkpt>
      <trkpt lat="38.182751" lon="-4.095752">
        <ele>548.3</ele>
        <time>2009-04-07T08:58:59Z</time>
      </trkpt>
      <trkpt lat="38.182848" lon="-4.095657">
        <ele>547.7</ele>
        <time>2009-04-07T08:59:09Z</time>
      </trkpt>
      <trkpt lat="38.182956" lon="-4.095505">
        <ele>547.4</ele>
        <time>2009-04-07T08:59:23Z</time>
      </trkpt>
      <trkpt lat="38.183025" lon="-4.095404">
        <ele>547.3</ele>
        <time>2009-04-07T08:59:31Z</time>
      </trkpt>
      <trkpt lat="38.183053" lon="-4.095324">
        <ele>547.5</ele>
        <time>2009-04-07T08:59:37Z</time>
      </trkpt>
      <trkpt lat="38.183236" lon="-4.095317">
        <ele>544.9</ele>
        <time>2009-04-07T08:59:51Z</time>
      </trkpt>
      <trkpt lat="38.183469" lon="-4.095331">
        <ele>541.5</ele>
        <time>2009-04-07T09:00:09Z</time>
      </trkpt>
      <trkpt lat="38.183606" lon="-4.095280">
        <ele>540.7</ele>
        <time>2009-04-07T09:00:19Z</time>
      </trkpt>
      <trkpt lat="38.183714" lon="-4.095266">
        <ele>540.2</ele>
        <time>2009-04-07T09:00:27Z</time>
      </trkpt>
      <trkpt lat="38.183834" lon="-4.095273">
        <ele>539.6</ele>
        <time>2009-04-07T09:00:35Z</time>
      </trkpt>
      <trkpt lat="38.183914" lon="-4.095208">
        <ele>539.6</ele>
        <time>2009-04-07T09:00:42Z</time>
      </trkpt>
      <trkpt lat="38.184033" lon="-4.095208">
        <ele>539.0</ele>
        <time>2009-04-07T09:00:49Z</time>
      </trkpt>
      <trkpt lat="38.184301" lon="-4.095215">
        <ele>537.6</ele>
        <time>2009-04-07T09:01:06Z</time>
      </trkpt>
      <trkpt lat="38.184472" lon="-4.095186">
        <ele>537.2</ele>
        <time>2009-04-07T09:01:16Z</time>
      </trkpt>
      <trkpt lat="38.184626" lon="-4.095157">
        <ele>537.0</ele>
        <time>2009-04-07T09:01:25Z</time>
      </trkpt>
      <trkpt lat="38.184683" lon="-4.095041">
        <ele>537.3</ele>
        <time>2009-04-07T09:01:31Z</time>
      </trkpt>
      <trkpt lat="38.184649" lon="-4.094816">
        <ele>538.4</ele>
        <time>2009-04-07T09:01:40Z</time>
      </trkpt>
      <trkpt lat="38.184694" lon="-4.094693">
        <ele>538.8</ele>
        <time>2009-04-07T09:01:46Z</time>
      </trkpt>
      <trkpt lat="38.184689" lon="-4.094584">
        <ele>539.3</ele>
        <time>2009-04-07T09:01:51Z</time>
      </trkpt>
      <trkpt lat="38.184654" lon="-4.094490">
        <ele>539.8</ele>
        <time>2009-04-07T09:01:55Z</time>
      </trkpt>
      <trkpt lat="38.184774" lon="-4.094570">
        <ele>539.0</ele>
        <time>2009-04-07T09:02:02Z</time>
      </trkpt>
      <trkpt lat="38.184871" lon="-4.094555">
        <ele>538.8</ele>
        <time>2009-04-07T09:02:07Z</time>
      </trkpt>
      <trkpt lat="38.184928" lon="-4.094468">
        <ele>538.9</ele>
        <time>2009-04-07T09:02:11Z</time>
      </trkpt>
      <trkpt lat="38.184974" lon="-4.094396">
        <ele>538.9</ele>
        <time>2009-04-07T09:02:15Z</time>
      </trkpt>
      <trkpt lat="38.185019" lon="-4.094258">
        <ele>538.9</ele>
        <time>2009-04-07T09:02:20Z</time>
      </trkpt>
      <trkpt lat="38.184859" lon="-4.094251">
        <ele>539.4</ele>
        <time>2009-04-07T09:02:27Z</time>
      </trkpt>
      <trkpt lat="38.184768" lon="-4.094149">
        <ele>539.7</ele>
        <time>2009-04-07T09:02:33Z</time>
      </trkpt>
      <trkpt lat="38.184734" lon="-4.094048">
        <ele>539.8</ele>
        <time>2009-04-07T09:02:37Z</time>
      </trkpt>
      <trkpt lat="38.184734" lon="-4.093968">
        <ele>539.8</ele>
        <time>2009-04-07T09:02:40Z</time>
      </trkpt>
      <trkpt lat="38.184643" lon="-4.093932">
        <ele>540.0</ele>
        <time>2009-04-07T09:02:44Z</time>
      </trkpt>
      <trkpt lat="38.184569" lon="-4.093780">
        <ele>540.0</ele>
        <time>2009-04-07T09:02:50Z</time>
      </trkpt>
      <trkpt lat="38.184501" lon="-4.093685">
        <ele>540.0</ele>
        <time>2009-04-07T09:02:54Z</time>
      </trkpt>
      <trkpt lat="38.184438" lon="-4.093569">
        <ele>540.1</ele>
        <time>2009-04-07T09:02:59Z</time>
      </trkpt>
      <trkpt lat="38.184381" lon="-4.093359">
        <ele>540.6</ele>
        <time>2009-04-07T09:03:07Z</time>
      </trkpt>
      <trkpt lat="38.184358" lon="-4.093192">
        <ele>541.0</ele>
        <time>2009-04-07T09:03:12Z</time>
      </trkpt>
      <trkpt lat="38.184347" lon="-4.092917">
        <ele>541.8</ele>
        <time>2009-04-07T09:03:21Z</time>
      </trkpt>
      <trkpt lat="38.184324" lon="-4.092634">
        <ele>542.7</ele>
        <time>2009-04-07T09:03:29Z</time>
      </trkpt>
      <trkpt lat="38.184335" lon="-4.092467">
        <ele>543.0</ele>
        <time>2009-04-07T09:03:34Z</time>
      </trkpt>
      <trkpt lat="38.184341" lon="-4.092214">
        <ele>543.5</ele>
        <time>2009-04-07T09:03:42Z</time>
      </trkpt>
      <trkpt lat="38.184364" lon="-4.092003">
        <ele>543.9</ele>
        <time>2009-04-07T09:03:47Z</time>
      </trkpt>
      <trkpt lat="38.184307" lon="-4.091830">
        <ele>544.8</ele>
        <time>2009-04-07T09:03:52Z</time>
      </trkpt>
      <trkpt lat="38.184187" lon="-4.091663">
        <ele>546.3</ele>
        <time>2009-04-07T09:03:58Z</time>
      </trkpt>
      <trkpt lat="38.184136" lon="-4.091605">
        <ele>546.9</ele>
        <time>2009-04-07T09:04:00Z</time>
      </trkpt>
      <trkpt lat="38.184193" lon="-4.091430">
        <ele>546.6</ele>
        <time>2009-04-07T09:04:05Z</time>
      </trkpt>
      <trkpt lat="38.184199" lon="-4.091198">
        <ele>547.0</ele>
        <time>2009-04-07T09:04:10Z</time>
      </trkpt>
      <trkpt lat="38.184199" lon="-4.091003">
        <ele>547.7</ele>
        <time>2009-04-07T09:04:14Z</time>
      </trkpt>
      <trkpt lat="38.184193" lon="-4.090865">
        <ele>548.3</ele>
        <time>2009-04-07T09:05:23Z</time>
      </trkpt>
      <trkpt lat="38.184199" lon="-4.090684">
        <ele>549.1</ele>
        <time>2009-04-07T09:09:13Z</time>
      </trkpt>
      <trkpt lat="38.184199" lon="-4.090510">
        <ele>549.8</ele>
        <time>2009-04-07T09:09:21Z</time>
      </trkpt>
      <trkpt lat="38.184164" lon="-4.090387">
        <ele>550.5</ele>
        <time>2009-04-07T09:09:25Z</time>
      </trkpt>
      <trkpt lat="38.184125" lon="-4.090155">
        <ele>552.8</ele>
        <time>2009-04-07T09:09:47Z</time>
      </trkpt>
      <trkpt lat="38.184250" lon="-4.089915">
        <ele>554.8</ele>
        <time>2009-04-07T09:10:00Z</time>
      </trkpt>
      <trkpt lat="38.184368" lon="-4.089780">
        <ele>555.5</ele>
        <time>2009-04-07T09:10:19Z</time>
      </trkpt>
      <trkpt lat="38.184475" lon="-4.089568">
        <ele>557.3</ele>
        <time>2009-04-07T09:10:36Z</time>
      </trkpt>
      <trkpt lat="38.184489" lon="-4.089532">
        <ele>557.5</ele>
        <time>2009-04-07T09:10:39Z</time>
      </trkpt>
      <trkpt lat="38.184518" lon="-4.089277">
        <ele>560.4</ele>
        <time>2009-04-07T09:10:55Z</time>
      </trkpt>
      <trkpt lat="38.184658" lon="-4.089076">
        <ele>561.6</ele>
        <time>2009-04-07T09:11:10Z</time>
      </trkpt>
      <trkpt lat="38.184837" lon="-4.088850">
        <ele>561.9</ele>
        <time>2009-04-07T09:11:28Z</time>
      </trkpt>
      <trkpt lat="38.184888" lon="-4.088632">
        <ele>563.3</ele>
        <time>2009-04-07T09:11:44Z</time>
      </trkpt>
      <trkpt lat="38.185133" lon="-4.088494">
        <ele>561.1</ele>
        <time>2009-04-07T09:11:54Z</time>
      </trkpt>
      <trkpt lat="38.185270" lon="-4.088357">
        <ele>561.5</ele>
        <time>2009-04-07T09:12:05Z</time>
      </trkpt>
      <trkpt lat="38.185399" lon="-4.088225">
        <ele>562.6</ele>
        <time>2009-04-07T09:12:23Z</time>
      </trkpt>
      <trkpt lat="38.185481" lon="-4.088088">
        <ele>563.8</ele>
        <time>2009-04-07T09:12:34Z</time>
      </trkpt>
      <trkpt lat="38.185589" lon="-4.087907">
        <ele>565.5</ele>
        <time>2009-04-07T09:12:51Z</time>
      </trkpt>
      <trkpt lat="38.185674" lon="-4.087735">
        <ele>566.9</ele>
        <time>2009-04-07T09:13:06Z</time>
      </trkpt>
      <trkpt lat="38.185733" lon="-4.087620">
        <ele>567.6</ele>
        <time>2009-04-07T09:13:12Z</time>
      </trkpt>
      <trkpt lat="38.185769" lon="-4.087527">
        <ele>568.2</ele>
        <time>2009-04-07T09:13:17Z</time>
      </trkpt>
      <trkpt lat="38.185801" lon="-4.087423">
        <ele>568.9</ele>
        <time>2009-04-07T09:13:25Z</time>
      </trkpt>
      <trkpt lat="38.185833" lon="-4.087273">
        <ele>570.0</ele>
        <time>2009-04-07T09:13:38Z</time>
      </trkpt>
      <trkpt lat="38.185856" lon="-4.087076">
        <ele>571.4</ele>
        <time>2009-04-07T09:13:50Z</time>
      </trkpt>
      <trkpt lat="38.185938" lon="-4.086873">
        <ele>572.9</ele>
        <time>2009-04-07T09:14:08Z</time>
      </trkpt>
      <trkpt lat="38.185979" lon="-4.086642">
        <ele>575.1</ele>
        <time>2009-04-07T09:14:27Z</time>
      </trkpt>
      <trkpt lat="38.186029" lon="-4.086427">
        <ele>577.2</ele>
        <time>2009-04-07T09:14:46Z</time>
      </trkpt>
      <trkpt lat="38.186029" lon="-4.086265">
        <ele>578.7</ele>
        <time>2009-04-07T09:15:05Z</time>
      </trkpt>
      <trkpt lat="38.186024" lon="-4.086115">
        <ele>580.1</ele>
        <time>2009-04-07T09:15:43Z</time>
      </trkpt>
      <trkpt lat="38.186020" lon="-4.085982">
        <ele>580.9</ele>
        <time>2009-04-07T09:16:04Z</time>
      </trkpt>
      <trkpt lat="38.186001" lon="-4.085895">
        <ele>581.4</ele>
        <time>2009-04-07T09:16:23Z</time>
      </trkpt>
      <trkpt lat="38.186010" lon="-4.085779">
        <ele>582.1</ele>
        <time>2009-04-07T09:17:48Z</time>
      </trkpt>
      <trkpt lat="38.186006" lon="-4.085600">
        <ele>583.2</ele>
        <time>2009-04-07T09:18:04Z</time>
      </trkpt>
      <trkpt lat="38.186020" lon="-4.085473">
        <ele>583.9</ele>
        <time>2009-04-07T09:18:27Z</time>
      </trkpt>
      <trkpt lat="38.186020" lon="-4.085374">
        <ele>584.5</ele>
        <time>2009-04-07T09:18:41Z</time>
      </trkpt>
      <trkpt lat="38.185960" lon="-4.085201">
        <ele>585.8</ele>
        <time>2009-04-07T09:18:59Z</time>
      </trkpt>
      <trkpt lat="38.185951" lon="-4.084981">
        <ele>586.8</ele>
        <time>2009-04-07T09:19:24Z</time>
      </trkpt>
      <trkpt lat="38.185888" lon="-4.084743">
        <ele>588.7</ele>
        <time>2009-04-07T09:19:40Z</time>
      </trkpt>
      <trkpt lat="38.185865" lon="-4.084599">
        <ele>589.8</ele>
        <time>2009-04-07T09:20:22Z</time>
      </trkpt>
      <trkpt lat="38.185869" lon="-4.084350">
        <ele>590.9</ele>
        <time>2009-04-07T09:20:46Z</time>
      </trkpt>
      <trkpt lat="38.185865" lon="-4.084072">
        <ele>592.1</ele>
        <time>2009-04-07T09:21:14Z</time>
      </trkpt>
      <trkpt lat="38.185879" lon="-4.083817">
        <ele>592.8</ele>
        <time>2009-04-07T09:21:35Z</time>
      </trkpt>
      <trkpt lat="38.185897" lon="-4.083667">
        <ele>593.1</ele>
        <time>2009-04-07T09:21:53Z</time>
      </trkpt>
      <trkpt lat="38.185892" lon="-4.083546">
        <ele>593.6</ele>
        <time>2009-04-07T09:22:15Z</time>
      </trkpt>
      <trkpt lat="38.186029" lon="-4.083470">
        <ele>591.5</ele>
        <time>2009-04-07T09:22:25Z</time>
      </trkpt>
      <trkpt lat="38.186024" lon="-4.083297">
        <ele>592.1</ele>
        <time>2009-04-07T09:22:25Z</time>
      </trkpt>
      <trkpt lat="38.186033" lon="-4.083088">
        <ele>592.8</ele>
        <time>2009-04-07T09:22:26Z</time>
      </trkpt>
      <trkpt lat="38.186088" lon="-4.082915">
        <ele>592.8</ele>
        <time>2009-04-07T09:22:26Z</time>
      </trkpt>
      <trkpt lat="38.186106" lon="-4.082747">
        <ele>593.2</ele>
        <time>2009-04-07T09:22:26Z</time>
      </trkpt>
      <trkpt lat="38.186097" lon="-4.082515">
        <ele>594.7</ele>
        <time>2009-04-07T09:22:27Z</time>
      </trkpt>
      <trkpt lat="38.186101" lon="-4.082365">
        <ele>595.4</ele>
        <time>2009-04-07T09:22:27Z</time>
      </trkpt>
      <trkpt lat="38.186106" lon="-4.082197">
        <ele>596.3</ele>
        <time>2009-04-07T09:22:36Z</time>
      </trkpt>
      <trkpt lat="38.186092" lon="-4.081971">
        <ele>597.8</ele>
        <time>2009-04-07T09:22:59Z</time>
      </trkpt>
      <trkpt lat="38.186161" lon="-4.081856">
        <ele>597.0</ele>
        <time>2009-04-07T09:23:21Z</time>
      </trkpt>
      <trkpt lat="38.186202" lon="-4.081665">
        <ele>596.7</ele>
        <time>2009-04-07T09:23:41Z</time>
      </trkpt>
      <trkpt lat="38.186293" lon="-4.081439">
        <ele>595.8</ele>
        <time>2009-04-07T09:24:03Z</time>
      </trkpt>
      <trkpt lat="38.186452" lon="-4.081323">
        <ele>593.8</ele>
        <time>2009-04-07T09:24:12Z</time>
      </trkpt>
      <trkpt lat="38.186556" lon="-4.081259">
        <ele>592.6</ele>
        <time>2009-04-07T09:24:12Z</time>
      </trkpt>
      <trkpt lat="38.186647" lon="-4.081138">
        <ele>591.7</ele>
        <time>2009-04-07T09:24:13Z</time>
      </trkpt>
      <trkpt lat="38.186720" lon="-4.081028">
        <ele>590.8</ele>
        <time>2009-04-07T09:24:22Z</time>
      </trkpt>
      <trkpt lat="38.186825" lon="-4.080929">
        <ele>589.6</ele>
        <time>2009-04-07T09:24:37Z</time>
      </trkpt>
      <trkpt lat="38.186743" lon="-4.080704">
        <ele>590.7</ele>
        <time>2009-04-07T09:24:59Z</time>
      </trkpt>
      <trkpt lat="38.186720" lon="-4.080524">
        <ele>591.0</ele>
        <time>2009-04-07T09:25:25Z</time>
      </trkpt>
      <trkpt lat="38.186706" lon="-4.080403">
        <ele>591.2</ele>
        <time>2009-04-07T09:25:56Z</time>
      </trkpt>
      <trkpt lat="38.186646" lon="-4.080275">
        <ele>591.7</ele>
        <time>2009-04-07T09:26:49Z</time>
      </trkpt>
      <trkpt lat="38.186661" lon="-4.080281">
        <ele>591.6</ele>
        <time>2009-04-07T09:26:56Z</time>
      </trkpt>
      <trkpt lat="38.186615" lon="-4.080212">
        <ele>591.8</ele>
        <time>2009-04-07T09:27:43Z</time>
      </trkpt>
      <trkpt lat="38.186561" lon="-4.080125">
        <ele>592.0</ele>
        <time>2009-04-07T09:28:02Z</time>
      </trkpt>
      <trkpt lat="38.186543" lon="-4.079963">
        <ele>591.7</ele>
        <time>2009-04-07T09:28:14Z</time>
      </trkpt>
      <trkpt lat="38.186506" lon="-4.079807">
        <ele>591.4</ele>
        <time>2009-04-07T09:28:31Z</time>
      </trkpt>
      <trkpt lat="38.186383" lon="-4.079749">
        <ele>591.7</ele>
        <time>2009-04-07T09:28:46Z</time>
      </trkpt>
      <trkpt lat="38.186334" lon="-4.079645">
        <ele>591.4</ele>
        <time>2009-04-07T09:29:10Z</time>
      </trkpt>
      <trkpt lat="38.186302" lon="-4.079529">
        <ele>591.0</ele>
        <time>2009-04-07T09:29:26Z</time>
      </trkpt>
      <trkpt lat="38.186279" lon="-4.079431">
        <ele>590.5</ele>
        <time>2009-04-07T09:29:50Z</time>
      </trkpt>
      <trkpt lat="38.186229" lon="-4.079350">
        <ele>590.0</ele>
        <time>2009-04-07T09:31:32Z</time>
      </trkpt>
      <trkpt lat="38.186165" lon="-4.079228">
        <ele>589.2</ele>
        <time>2009-04-07T09:34:06Z</time>
      </trkpt>
      <trkpt lat="38.186183" lon="-4.079107">
        <ele>588.4</ele>
        <time>2009-04-07T09:34:21Z</time>
      </trkpt>
      <trkpt lat="38.186111" lon="-4.078863">
        <ele>586.4</ele>
        <time>2009-04-07T09:34:38Z</time>
      </trkpt>
      <trkpt lat="38.186042" lon="-4.078643">
        <ele>584.3</ele>
        <time>2009-04-07T09:34:51Z</time>
      </trkpt>
      <trkpt lat="38.185988" lon="-4.078476">
        <ele>582.5</ele>
        <time>2009-04-07T09:34:59Z</time>
      </trkpt>
      <trkpt lat="38.185970" lon="-4.078302">
        <ele>580.6</ele>
        <time>2009-04-07T09:35:13Z</time>
      </trkpt>
      <trkpt lat="38.185897" lon="-4.078203">
        <ele>580.1</ele>
        <time>2009-04-07T09:35:29Z</time>
      </trkpt>
      <trkpt lat="38.185887" lon="-4.077945">
        <ele>577.2</ele>
        <time>2009-04-07T09:35:44Z</time>
      </trkpt>
      <trkpt lat="38.185866" lon="-4.077785">
        <ele>575.5</ele>
        <time>2009-04-07T09:35:53Z</time>
      </trkpt>
      <trkpt lat="38.185852" lon="-4.077747">
        <ele>575.2</ele>
        <time>2009-04-07T09:35:56Z</time>
      </trkpt>
      <trkpt lat="38.185827" lon="-4.077713">
        <ele>575.1</ele>
        <time>2009-04-07T09:35:59Z</time>
      </trkpt>
      <trkpt lat="38.185795" lon="-4.077647">
        <ele>574.6</ele>
        <time>2009-04-07T09:36:03Z</time>
      </trkpt>
      <trkpt lat="38.185758" lon="-4.077518">
        <ele>573.5</ele>
        <time>2009-04-07T09:36:10Z</time>
      </trkpt>
      <trkpt lat="38.185723" lon="-4.077252">
        <ele>570.7</ele>
        <time>2009-04-07T09:36:27Z</time>
      </trkpt>
      <trkpt lat="38.185727" lon="-4.077092">
        <ele>568.7</ele>
        <time>2009-04-07T09:37:02Z</time>
      </trkpt>
      <trkpt lat="38.185668" lon="-4.076835">
        <ele>566.8</ele>
        <time>2009-04-07T09:37:19Z</time>
      </trkpt>
      <trkpt lat="38.185585" lon="-4.076544">
        <ele>565.1</ele>
        <time>2009-04-07T09:37:38Z</time>
      </trkpt>
      <trkpt lat="38.185522" lon="-4.076179">
        <ele>562.2</ele>
        <time>2009-04-07T09:37:59Z</time>
      </trkpt>
      <trkpt lat="38.185381" lon="-4.075858">
        <ele>560.1</ele>
        <time>2009-04-07T09:38:19Z</time>
      </trkpt>
      <trkpt lat="38.185208" lon="-4.075573">
        <ele>557.1</ele>
        <time>2009-04-07T09:38:39Z</time>
      </trkpt>
      <trkpt lat="38.185049" lon="-4.075288">
        <ele>555.8</ele>
        <time>2009-04-07T09:38:59Z</time>
      </trkpt>
      <trkpt lat="38.184941" lon="-4.074997">
        <ele>555.4</ele>
        <time>2009-04-07T09:39:18Z</time>
      </trkpt>
      <trkpt lat="38.184857" lon="-4.074802">
        <ele>554.9</ele>
        <time>2009-04-07T09:39:31Z</time>
      </trkpt>
      <trkpt lat="38.184791" lon="-4.074497">
        <ele>553.2</ele>
        <time>2009-04-07T09:39:49Z</time>
      </trkpt>
      <trkpt lat="38.184737" lon="-4.074260">
        <ele>551.8</ele>
        <time>2009-04-07T09:40:03Z</time>
      </trkpt>
      <trkpt lat="38.184693" lon="-4.074148">
        <ele>551.1</ele>
        <time>2009-04-07T09:40:10Z</time>
      </trkpt>
      <trkpt lat="38.184601" lon="-4.073894">
        <ele>549.1</ele>
        <time>2009-04-07T09:40:27Z</time>
      </trkpt>
      <trkpt lat="38.184537" lon="-4.073526">
        <ele>546.3</ele>
        <time>2009-04-07T09:40:48Z</time>
      </trkpt>
      <trkpt lat="38.184550" lon="-4.073198">
        <ele>545.0</ele>
        <time>2009-04-07T09:41:07Z</time>
      </trkpt>
      <trkpt lat="38.184627" lon="-4.072976">
        <ele>544.6</ele>
        <time>2009-04-07T09:41:24Z</time>
      </trkpt>
      <trkpt lat="38.184630" lon="-4.072964">
        <ele>544.6</ele>
        <time>2009-04-07T09:41:56Z</time>
      </trkpt>
      <trkpt lat="38.184630" lon="-4.072972">
        <ele>544.6</ele>
        <time>2009-04-07T09:43:20Z</time>
      </trkpt>
      <trkpt lat="38.184654" lon="-4.072911">
        <ele>544.6</ele>
        <time>2009-04-07T09:43:45Z</time>
      </trkpt>
      <trkpt lat="38.184698" lon="-4.072917">
        <ele>544.9</ele>
        <time>2009-04-07T09:44:31Z</time>
      </trkpt>
      <trkpt lat="38.184703" lon="-4.072875">
        <ele>544.8</ele>
        <time>2009-04-07T09:44:51Z</time>
      </trkpt>
      <trkpt lat="38.184701" lon="-4.072675">
        <ele>543.9</ele>
        <time>2009-04-07T09:45:05Z</time>
      </trkpt>
      <trkpt lat="38.184810" lon="-4.072454">
        <ele>543.7</ele>
        <time>2009-04-07T09:45:19Z</time>
      </trkpt>
      <trkpt lat="38.184828" lon="-4.072222">
        <ele>542.7</ele>
        <time>2009-04-07T09:45:31Z</time>
      </trkpt>
      <trkpt lat="38.184712" lon="-4.072032">
        <ele>540.9</ele>
        <time>2009-04-07T09:45:42Z</time>
      </trkpt>
      <trkpt lat="38.184709" lon="-4.071665">
        <ele>540.2</ele>
        <time>2009-04-07T09:46:01Z</time>
      </trkpt>
      <trkpt lat="38.184633" lon="-4.071416">
        <ele>539.1</ele>
        <time>2009-04-07T09:46:15Z</time>
      </trkpt>
      <trkpt lat="38.184574" lon="-4.071141">
        <ele>538.1</ele>
        <time>2009-04-07T09:46:30Z</time>
      </trkpt>
      <trkpt lat="38.184449" lon="-4.070873">
        <ele>537.3</ele>
        <time>2009-04-07T09:46:45Z</time>
      </trkpt>
      <trkpt lat="38.184266" lon="-4.070626">
        <ele>536.3</ele>
        <time>2009-04-07T09:47:02Z</time>
      </trkpt>
      <trkpt lat="38.184045" lon="-4.070425">
        <ele>535.5</ele>
        <time>2009-04-07T09:47:19Z</time>
      </trkpt>
      <trkpt lat="38.183973" lon="-4.070359">
        <ele>535.2</ele>
        <time>2009-04-07T09:47:25Z</time>
      </trkpt>
      <trkpt lat="38.183814" lon="-4.070189">
        <ele>534.5</ele>
        <time>2009-04-07T09:47:38Z</time>
      </trkpt>
      <trkpt lat="38.183541" lon="-4.069914">
        <ele>533.1</ele>
        <time>2009-04-07T09:48:01Z</time>
      </trkpt>
      <trkpt lat="38.183319" lon="-4.069682">
        <ele>532.8</ele>
        <time>2009-04-07T09:48:20Z</time>
      </trkpt>
      <trkpt lat="38.183166" lon="-4.069402">
        <ele>532.6</ele>
        <time>2009-04-07T09:48:37Z</time>
      </trkpt>
      <trkpt lat="38.183133" lon="-4.069314">
        <ele>532.6</ele>
        <time>2009-04-07T09:48:42Z</time>
      </trkpt>
      <trkpt lat="38.183128" lon="-4.069061">
        <ele>532.8</ele>
        <time>2009-04-07T09:48:55Z</time>
      </trkpt>
      <trkpt lat="38.183116" lon="-4.069027">
        <ele>532.8</ele>
        <time>2009-04-07T09:48:57Z</time>
      </trkpt>
      <trkpt lat="38.183094" lon="-4.068966">
        <ele>532.8</ele>
        <time>2009-04-07T09:49:01Z</time>
      </trkpt>
      <trkpt lat="38.183033" lon="-4.068649">
        <ele>532.7</ele>
        <time>2009-04-07T09:49:18Z</time>
      </trkpt>
      <trkpt lat="38.183013" lon="-4.068473">
        <ele>532.8</ele>
        <time>2009-04-07T09:49:27Z</time>
      </trkpt>
      <trkpt lat="38.182879" lon="-4.068194">
        <ele>532.7</ele>
        <time>2009-04-07T09:49:43Z</time>
      </trkpt>
      <trkpt lat="38.182755" lon="-4.067974">
        <ele>532.8</ele>
        <time>2009-04-07T09:49:56Z</time>
      </trkpt>
      <trkpt lat="38.182570" lon="-4.067733">
        <ele>532.4</ele>
        <time>2009-04-07T09:50:12Z</time>
      </trkpt>
      <trkpt lat="38.182415" lon="-4.067465">
        <ele>531.6</ele>
        <time>2009-04-07T09:50:29Z</time>
      </trkpt>
      <trkpt lat="38.182306" lon="-4.067301">
        <ele>531.1</ele>
        <time>2009-04-07T09:50:40Z</time>
      </trkpt>
      <trkpt lat="38.182282" lon="-4.067279">
        <ele>531.0</ele>
        <time>2009-04-07T09:50:42Z</time>
      </trkpt>
      <trkpt lat="38.182244" lon="-4.067186">
        <ele>530.9</ele>
        <time>2009-04-07T09:50:47Z</time>
      </trkpt>
      <trkpt lat="38.182086" lon="-4.066864">
        <ele>530.0</ele>
        <time>2009-04-07T09:51:05Z</time>
      </trkpt>
      <trkpt lat="38.181890" lon="-4.066635">
        <ele>527.5</ele>
        <time>2009-04-07T09:51:20Z</time>
      </trkpt>
      <trkpt lat="38.181874" lon="-4.066626">
        <ele>527.3</ele>
        <time>2009-04-07T09:51:21Z</time>
      </trkpt>
      <trkpt lat="38.181845" lon="-4.066621">
        <ele>527.0</ele>
        <time>2009-04-07T09:51:23Z</time>
      </trkpt>
      <trkpt lat="38.181712" lon="-4.066419">
        <ele>522.7</ele>
        <time>2009-04-07T09:51:37Z</time>
      </trkpt>
      <trkpt lat="38.181560" lon="-4.066213">
        <ele>518.1</ele>
        <time>2009-04-07T09:51:51Z</time>
      </trkpt>
      <trkpt lat="38.181542" lon="-4.066192">
        <ele>517.6</ele>
        <time>2009-04-07T09:51:53Z</time>
      </trkpt>
      <trkpt lat="38.181496" lon="-4.066154">
        <ele>516.4</ele>
        <time>2009-04-07T09:51:57Z</time>
      </trkpt>
      <trkpt lat="38.181442" lon="-4.066111">
        <ele>515.0</ele>
        <time>2009-04-07T09:52:02Z</time>
      </trkpt>
      <trkpt lat="38.181322" lon="-4.065999">
        <ele>511.8</ele>
        <time>2009-04-07T09:52:15Z</time>
      </trkpt>
      <trkpt lat="38.181208" lon="-4.065896">
        <ele>509.1</ele>
        <time>2009-04-07T09:52:24Z</time>
      </trkpt>
      <trkpt lat="38.181185" lon="-4.065771">
        <ele>507.9</ele>
        <time>2009-04-07T09:52:33Z</time>
      </trkpt>
      <trkpt lat="38.181165" lon="-4.065702">
        <ele>507.1</ele>
        <time>2009-04-07T09:52:38Z</time>
      </trkpt>
      <trkpt lat="38.181203" lon="-4.065618">
        <ele>507.1</ele>
        <time>2009-04-07T09:52:45Z</time>
      </trkpt>
      <trkpt lat="38.181258" lon="-4.065467">
        <ele>506.8</ele>
        <time>2009-04-07T09:52:56Z</time>
      </trkpt>
      <trkpt lat="38.181262" lon="-4.065449">
        <ele>506.7</ele>
        <time>2009-04-07T09:52:57Z</time>
      </trkpt>
      <trkpt lat="38.181221" lon="-4.065349">
        <ele>505.6</ele>
        <time>2009-04-07T09:53:04Z</time>
      </trkpt>
      <trkpt lat="38.181190" lon="-4.065272">
        <ele>504.6</ele>
        <time>2009-04-07T09:53:09Z</time>
      </trkpt>
      <trkpt lat="38.181170" lon="-4.065194">
        <ele>503.3</ele>
        <time>2009-04-07T09:53:15Z</time>
      </trkpt>
      <trkpt lat="38.181140" lon="-4.065124">
        <ele>502.1</ele>
        <time>2009-04-07T09:53:19Z</time>
      </trkpt>
      <trkpt lat="38.181099" lon="-4.064972">
        <ele>499.7</ele>
        <time>2009-04-07T09:53:27Z</time>
      </trkpt>
      <trkpt lat="38.180996" lon="-4.064693">
        <ele>494.8</ele>
        <time>2009-04-07T09:53:42Z</time>
      </trkpt>
      <trkpt lat="38.180908" lon="-4.064462">
        <ele>491.1</ele>
        <time>2009-04-07T09:53:54Z</time>
      </trkpt>
      <trkpt lat="38.180881" lon="-4.064234">
        <ele>488.9</ele>
        <time>2009-04-07T09:54:05Z</time>
      </trkpt>
      <trkpt lat="38.180865" lon="-4.064087">
        <ele>487.5</ele>
        <time>2009-04-07T09:54:18Z</time>
      </trkpt>
      <trkpt lat="38.180730" lon="-4.063974">
        <ele>485.9</ele>
        <time>2009-04-07T09:54:38Z</time>
      </trkpt>
      <trkpt lat="38.180740" lon="-4.064007">
        <ele>486.2</ele>
        <time>2009-04-07T09:54:56Z</time>
      </trkpt>
      <trkpt lat="38.180747" lon="-4.063989">
        <ele>486.1</ele>
        <time>2009-04-07T09:55:16Z</time>
      </trkpt>
      <trkpt lat="38.180721" lon="-4.063885">
        <ele>485.2</ele>
        <time>2009-04-07T09:55:31Z</time>
      </trkpt>
      <trkpt lat="38.180696" lon="-4.063800">
        <ele>484.5</ele>
        <time>2009-04-07T09:56:02Z</time>
      </trkpt>
      <trkpt lat="38.180697" lon="-4.063807">
        <ele>484.5</ele>
        <time>2009-04-07T09:56:03Z</time>
      </trkpt>
      <trkpt lat="38.180686" lon="-4.063788">
        <ele>484.4</ele>
        <time>2009-04-07T09:56:20Z</time>
      </trkpt>
      <trkpt lat="38.180672" lon="-4.063818">
        <ele>484.5</ele>
        <time>2009-04-07T09:56:39Z</time>
      </trkpt>
      <trkpt lat="38.180664" lon="-4.063808">
        <ele>484.4</ele>
        <time>2009-04-07T09:57:54Z</time>
      </trkpt>
      <trkpt lat="38.180686" lon="-4.063831">
        <ele>484.7</ele>
        <time>2009-04-07T09:59:03Z</time>
      </trkpt>
      <trkpt lat="38.180723" lon="-4.063687">
        <ele>483.7</ele>
        <time>2009-04-07T09:59:17Z</time>
      </trkpt>
      <trkpt lat="38.180725" lon="-4.063630">
        <ele>483.3</ele>
        <time>2009-04-07T09:59:27Z</time>
      </trkpt>
      <trkpt lat="38.180838" lon="-4.063446">
        <ele>483.3</ele>
        <time>2009-04-07T10:00:05Z</time>
      </trkpt>
      <trkpt lat="38.181012" lon="-4.063271">
        <ele>482.7</ele>
        <time>2009-04-07T10:00:09Z</time>
      </trkpt>
      <trkpt lat="38.181113" lon="-4.063103">
        <ele>483.4</ele>
        <time>2009-04-07T10:00:22Z</time>
      </trkpt>
      <trkpt lat="38.181290" lon="-4.062995">
        <ele>485.4</ele>
        <time>2009-04-07T10:00:37Z</time>
      </trkpt>
      <trkpt lat="38.181429" lon="-4.062838">
        <ele>486.2</ele>
        <time>2009-04-07T10:00:49Z</time>
      </trkpt>
      <trkpt lat="38.181568" lon="-4.062700">
        <ele>487.2</ele>
        <time>2009-04-07T10:00:58Z</time>
      </trkpt>
      <trkpt lat="38.181630" lon="-4.062514">
        <ele>486.9</ele>
        <time>2009-04-07T10:01:02Z</time>
      </trkpt>
      <trkpt lat="38.181739" lon="-4.062327">
        <ele>486.5</ele>
        <time>2009-04-07T10:01:05Z</time>
      </trkpt>
      <trkpt lat="38.181823" lon="-4.062189">
        <ele>485.8</ele>
        <time>2009-04-07T10:01:09Z</time>
      </trkpt>
      <trkpt lat="38.181879" lon="-4.062102">
        <ele>485.5</ele>
        <time>2009-04-07T00:45:27Z</time>
      </trkpt>
      <trkpt lat="38.181958" lon="-4.062058">
        <ele>486.1</ele>
        <time>2009-03-23T12:38:02Z</time>
      </trkpt>
      <trkpt lat="38.182003" lon="-4.061932">
        <ele>486.2</ele>
        <time>2007-09-26T01:56:05Z</time>
      </trkpt>
      <trkpt lat="38.182121" lon="-4.061863">
        <ele>488.2</ele>
        <time>2037-07-17T23:15:03Z</time>
      </trkpt>
      <trkpt lat="38.182219" lon="-4.061719">
        <ele>490.5</ele>
        <time>2037-07-17T23:15:03Z</time>
      </trkpt>
      <trkpt lat="38.182333" lon="-4.061587">
        <ele>492.7</ele>
        <time>2037-07-17T23:15:03Z</time>
      </trkpt>
      <trkpt lat="38.182387" lon="-4.061474">
        <ele>494.0</ele>
        <time>2037-07-17T23:15:03Z</time>
      </trkpt>
      <trkpt lat="38.182397" lon="-4.061223">
        <ele>495.7</ele>
        <time>2037-07-17T23:15:03Z</time>
      </trkpt>
      <trkpt lat="38.182417" lon="-4.061042">
        <ele>497.1</ele>
        <time>2037-07-17T23:15:03Z</time>
      </trkpt>
      <trkpt lat="38.182407" lon="-4.060866">
        <ele>498.3</ele>
        <time>2037-07-17T23:15:03Z</time>
      </trkpt>
      <trkpt lat="38.182471" lon="-4.060734">
        <ele>499.8</ele>
        <time>2037-07-17T23:15:03Z</time>
      </trkpt>
      <trkpt lat="38.182491" lon="-4.060552">
        <ele>501.2</ele>
        <time>2037-07-17T23:15:03Z</time>
      </trkpt>
      <trkpt lat="38.182491" lon="-4.060270">
        <ele>503.3</ele>
        <time>2037-07-17T23:15:03Z</time>
      </trkpt>
      <trkpt lat="38.182461" lon="-4.059994">
        <ele>506.4</ele>
        <time>2037-07-17T23:15:03Z</time>
      </trkpt>
      <trkpt lat="38.182436" lon="-4.059749">
        <ele>509.3</ele>
        <time>2037-07-17T23:15:03Z</time>
      </trkpt>
      <trkpt lat="38.182348" lon="-4.059623">
        <ele>511.5</ele>
        <time>2037-07-17T23:15:03Z</time>
      </trkpt>
      <trkpt lat="38.182284" lon="-4.059467">
        <ele>514.3</ele>
        <time>2037-07-17T23:15:03Z</time>
      </trkpt>
      <trkpt lat="38.182209" lon="-4.059310">
        <ele>517.1</ele>
        <time>2037-07-17T23:15:03Z</time>
      </trkpt>
      <trkpt lat="38.182135" lon="-4.059209">
        <ele>519.2</ele>
        <time>2037-07-17T23:15:03Z</time>
      </trkpt>
      <trkpt lat="38.182037" lon="-4.059090">
        <ele>521.8</ele>
        <time>2037-07-17T23:15:03Z</time>
      </trkpt>
      <trkpt lat="38.181953" lon="-4.058945">
        <ele>524.7</ele>
        <time>2037-07-17T23:15:03Z</time>
      </trkpt>
      <trkpt lat="38.181869" lon="-4.058801">
        <ele>527.5</ele>
        <time>2037-07-17T23:15:03Z</time>
      </trkpt>
      <trkpt lat="38.181795" lon="-4.058600">
        <ele>531.0</ele>
        <time>2037-07-17T23:15:03Z</time>
      </trkpt>
      <trkpt lat="38.181726" lon="-4.058475">
        <ele>533.5</ele>
        <time>2037-07-17T23:15:03Z</time>
      </trkpt>
      <trkpt lat="38.181642" lon="-4.058337">
        <ele>536.3</ele>
        <time>2037-07-17T23:15:03Z</time>
      </trkpt>
      <trkpt lat="38.181529" lon="-4.058199">
        <ele>539.3</ele>
        <time>2037-07-17T23:15:03Z</time>
      </trkpt>
      <trkpt lat="38.181445" lon="-4.058080">
        <ele>541.7</ele>
        <time>2037-07-17T23:15:03Z</time>
      </trkpt>
      <trkpt lat="38.181401" lon="-4.057960">
        <ele>543.6</ele>
        <time>2037-07-17T23:15:03Z</time>
      </trkpt>
      <trkpt lat="38.181307" lon="-4.057841">
        <ele>546.0</ele>
        <time>2037-07-17T23:15:03Z</time>
      </trkpt>
      <trkpt lat="38.181189" lon="-4.057684">
        <ele>548.6</ele>
        <time>2037-07-17T23:15:03Z</time>
      </trkpt>
      <trkpt lat="38.181031" lon="-4.057509">
        <ele>551.3</ele>
        <time>2037-07-17T23:15:03Z</time>
      </trkpt>
      <trkpt lat="38.180912" lon="-4.057346">
        <ele>553.4</ele>
        <time>2037-07-17T23:15:03Z</time>
      </trkpt>
      <trkpt lat="38.180779" lon="-4.057170">
        <ele>555.8</ele>
        <time>2037-07-17T23:15:03Z</time>
      </trkpt>
      <trkpt lat="38.180700" lon="-4.057051">
        <ele>557.5</ele>
        <time>2037-07-17T23:15:03Z</time>
      </trkpt>
      <trkpt lat="38.180636" lon="-4.056956">
        <ele>558.8</ele>
        <time>2037-07-17T23:15:03Z</time>
      </trkpt>
      <trkpt lat="38.180508" lon="-4.056925">
        <ele>560.1</ele>
        <time>2037-07-17T23:15:03Z</time>
      </trkpt>
      <trkpt lat="38.180429" lon="-4.056800">
        <ele>561.9</ele>
        <time>2037-07-17T23:15:03Z</time>
      </trkpt>
      <trkpt lat="38.180365" lon="-4.056743">
        <ele>562.9</ele>
        <time>2037-07-17T23:15:03Z</time>
      </trkpt>
      <trkpt lat="38.180227" lon="-4.056743">
        <ele>563.8</ele>
        <time>2037-07-17T23:15:03Z</time>
      </trkpt>
      <trkpt lat="38.180133" lon="-4.056724">
        <ele>564.0</ele>
        <time>2037-07-17T23:15:03Z</time>
      </trkpt>
      <trkpt lat="38.180079" lon="-4.056762">
        <ele>563.4</ele>
        <time>2037-07-17T23:15:03Z</time>
      </trkpt>
      <trkpt lat="38.180015" lon="-4.056624">
        <ele>564.4</ele>
        <time>2037-07-17T23:15:03Z</time>
      </trkpt>
      <trkpt lat="38.179970" lon="-4.056480">
        <ele>565.6</ele>
        <time>2037-07-17T23:15:03Z</time>
      </trkpt>
      <trkpt lat="38.179891" lon="-4.056335">
        <ele>566.6</ele>
        <time>2037-07-17T23:15:03Z</time>
      </trkpt>
      <trkpt lat="38.179886" lon="-4.056266">
        <ele>567.2</ele>
        <time>2037-07-17T23:15:03Z</time>
      </trkpt>
      <trkpt lat="38.179813" lon="-4.056147">
        <ele>568.0</ele>
        <time>2037-07-17T23:15:03Z</time>
      </trkpt>
      <trkpt lat="38.179704" lon="-4.055896">
        <ele>568.5</ele>
        <time>2037-07-17T23:15:03Z</time>
      </trkpt>
      <trkpt lat="38.179640" lon="-4.055720">
        <ele>568.7</ele>
        <time>2048-02-18T01:14:45Z</time>
      </trkpt>
      <trkpt lat="38.179581" lon="-4.055676">
        <ele>568.5</ele>
        <time>2048-02-18T01:14:45Z</time>
      </trkpt>
      <trkpt lat="38.179359" lon="-4.055645">
        <ele>567.2</ele>
        <time>2048-02-18T01:14:45Z</time>
      </trkpt>
      <trkpt lat="38.179255" lon="-4.055639">
        <ele>566.1</ele>
        <time>1985-04-13T12:02:46Z</time>
      </trkpt>
      <trkpt lat="38.178984" lon="-4.055601">
        <ele>563.4</ele>
        <time>2009-04-07T10:15:40Z</time>
      </trkpt>
      <trkpt lat="38.178772" lon="-4.055476">
        <ele>561.7</ele>
        <time>2009-04-07T10:15:46Z</time>
      </trkpt>
      <trkpt lat="38.178471" lon="-4.055394">
        <ele>559.6</ele>
        <time>2009-04-07T10:15:53Z</time>
      </trkpt>
      <trkpt lat="38.178170" lon="-4.055256">
        <ele>560.6</ele>
        <time>2009-04-07T10:16:10Z</time>
      </trkpt>
      <trkpt lat="38.177973" lon="-4.055162">
        <ele>561.1</ele>
        <time>2009-04-07T10:16:31Z</time>
      </trkpt>
      <trkpt lat="38.177800" lon="-4.054955">
        <ele>561.6</ele>
        <time>2009-04-06T14:15:53Z</time>
      </trkpt>
      <trkpt lat="38.177704" lon="-4.054915">
        <ele>561.5</ele>
        <time>2008-12-13T04:29:57Z</time>
      </trkpt>
      <trkpt lat="38.177646" lon="-4.054800">
        <ele>561.5</ele>
        <time>2037-07-17T23:15:03Z</time>
      </trkpt>
      <trkpt lat="38.177613" lon="-4.054713">
        <ele>561.6</ele>
        <time>1979-03-10T15:49:07Z</time>
      </trkpt>
      <trkpt lat="38.177539" lon="-4.054637">
        <ele>561.6</ele>
        <time>2041-03-02T20:30:09Z</time>
      </trkpt>
      <trkpt lat="38.177473" lon="-4.054542">
        <ele>561.6</ele>
        <time>2009-04-07T10:20:46Z</time>
      </trkpt>
      <trkpt lat="38.177416" lon="-4.054422">
        <ele>561.7</ele>
        <time>2009-04-07T10:20:53Z</time>
      </trkpt>
      <trkpt lat="38.177414" lon="-4.054384">
        <ele>561.7</ele>
        <time>2009-04-07T10:20:56Z</time>
      </trkpt>
      <trkpt lat="38.177224" lon="-4.054297">
        <ele>561.6</ele>
        <time>2009-04-07T10:21:06Z</time>
      </trkpt>
      <trkpt lat="38.177069" lon="-4.054363">
        <ele>561.3</ele>
        <time>2009-04-07T05:43:20Z</time>
      </trkpt>
      <trkpt lat="38.176928" lon="-4.054392">
        <ele>561.2</ele>
        <time>2009-03-11T09:32:05Z</time>
      </trkpt>
      <trkpt lat="38.176872" lon="-4.054368">
        <ele>561.1</ele>
        <time>2009-04-07T10:21:28Z</time>
      </trkpt>
      <trkpt lat="38.176820" lon="-4.054138">
        <ele>561.4</ele>
        <time>2009-04-07T10:21:47Z</time>
      </trkpt>
      <trkpt lat="38.176824" lon="-4.053901">
        <ele>561.7</ele>
        <time>2009-04-07T10:22:06Z</time>
      </trkpt>
      <trkpt lat="38.176786" lon="-4.053772">
        <ele>561.9</ele>
        <time>2009-04-07T10:22:25Z</time>
      </trkpt>
      <trkpt lat="38.176762" lon="-4.053558">
        <ele>562.3</ele>
        <time>2009-04-07T10:22:50Z</time>
      </trkpt>
      <trkpt lat="38.176734" lon="-4.053233">
        <ele>563.1</ele>
        <time>2009-04-07T10:23:12Z</time>
      </trkpt>
      <trkpt lat="38.176780" lon="-4.052767">
        <ele>564.1</ele>
        <time>2009-04-07T10:23:36Z</time>
      </trkpt>
      <trkpt lat="38.176809" lon="-4.052307">
        <ele>564.1</ele>
        <time>2009-04-07T10:23:55Z</time>
      </trkpt>
      <trkpt lat="38.176795" lon="-4.051843">
        <ele>563.3</ele>
        <time>2009-04-07T10:24:12Z</time>
      </trkpt>
      <trkpt lat="38.177055" lon="-4.051632">
        <ele>564.3</ele>
        <time>2009-04-07T10:24:40Z</time>
      </trkpt>
      <trkpt lat="38.177251" lon="-4.051343">
        <ele>564.9</ele>
        <time>2009-04-07T10:25:05Z</time>
      </trkpt>
      <trkpt lat="38.177354" lon="-4.050789">
        <ele>564.0</ele>
        <time>2009-04-07T10:25:23Z</time>
      </trkpt>
      <trkpt lat="38.177422" lon="-4.050354">
        <ele>563.7</ele>
        <time>2009-04-07T10:25:39Z</time>
      </trkpt>
      <trkpt lat="38.177379" lon="-4.050354">
        <ele>563.1</ele>
        <time>2009-04-07T10:26:22Z</time>
      </trkpt>
      <trkpt lat="38.177372" lon="-4.050385">
        <ele>563.1</ele>
        <time>2009-04-07T10:26:43Z</time>
      </trkpt>
      <trkpt lat="38.177374" lon="-4.050517">
        <ele>563.5</ele>
        <time>2009-04-07T10:27:00Z</time>
      </trkpt>
      <trkpt lat="38.177388" lon="-4.050499">
        <ele>563.6</ele>
        <time>2009-04-07T10:27:22Z</time>
      </trkpt>
      <trkpt lat="38.177388" lon="-4.050392">
        <ele>563.3</ele>
        <time>2009-04-07T10:27:39Z</time>
      </trkpt>
      <trkpt lat="38.177412" lon="-4.050196">
        <ele>563.5</ele>
        <time>2009-04-07T10:27:51Z</time>
      </trkpt>
      <trkpt lat="38.177473" lon="-4.049882">
        <ele>564.6</ele>
        <time>2009-04-07T10:28:12Z</time>
      </trkpt>
      <trkpt lat="38.177497" lon="-4.049657">
        <ele>565.0</ele>
        <time>2009-04-07T10:28:28Z</time>
      </trkpt>
      <trkpt lat="38.177450" lon="-4.049327">
        <ele>565.7</ele>
        <time>2009-04-07T10:28:34Z</time>
      </trkpt>
      <trkpt lat="38.177438" lon="-4.049193">
        <ele>566.6</ele>
        <time>2009-04-07T10:28:38Z</time>
      </trkpt>
      <trkpt lat="38.177443" lon="-4.049174">
        <ele>566.7</ele>
        <time>2009-04-07T10:28:42Z</time>
      </trkpt>
      <trkpt lat="38.177469" lon="-4.049112">
        <ele>567.2</ele>
        <time>2009-04-07T10:28:48Z</time>
      </trkpt>
      <trkpt lat="38.177477" lon="-4.049050">
        <ele>567.6</ele>
        <time>2009-04-07T10:28:52Z</time>
      </trkpt>
      <trkpt lat="38.177519" lon="-4.048954">
        <ele>568.2</ele>
        <time>2009-04-07T10:29:10Z</time>
      </trkpt>
      <trkpt lat="38.177549" lon="-4.048890">
        <ele>568.6</ele>
        <time>2009-04-07T10:29:30Z</time>
      </trkpt>
      <trkpt lat="38.177739" lon="-4.048695">
        <ele>570.3</ele>
        <time>2009-04-07T10:29:47Z</time>
      </trkpt>
      <trkpt lat="38.177992" lon="-4.048521">
        <ele>573.4</ele>
        <time>2009-04-07T10:30:08Z</time>
      </trkpt>
      <trkpt lat="38.178196" lon="-4.048332">
        <ele>575.2</ele>
        <time>2009-04-07T10:30:24Z</time>
      </trkpt>
      <trkpt lat="38.178352" lon="-4.047995">
        <ele>575.4</ele>
        <time>2009-04-07T10:30:35Z</time>
      </trkpt>
      <trkpt lat="38.178445" lon="-4.047729">
        <ele>575.5</ele>
        <time>2009-04-07T10:30:44Z</time>
      </trkpt>
      <trkpt lat="38.178502" lon="-4.047544">
        <ele>577.1</ele>
        <time>2009-04-07T10:31:05Z</time>
      </trkpt>
      <trkpt lat="38.178554" lon="-4.047397">
        <ele>578.9</ele>
        <time>2009-04-07T10:31:27Z</time>
      </trkpt>
      <trkpt lat="38.178669" lon="-4.047039">
        <ele>582.7</ele>
        <time>2009-04-07T10:31:43Z</time>
      </trkpt>
      <trkpt lat="38.178785" lon="-4.046682">
        <ele>587.0</ele>
        <time>2009-04-07T10:32:02Z</time>
      </trkpt>
      <trkpt lat="38.178861" lon="-4.046415">
        <ele>589.8</ele>
        <time>2009-04-07T10:32:12Z</time>
      </trkpt>
      <trkpt lat="38.178958" lon="-4.046103">
        <ele>592.0</ele>
        <time>2009-04-07T10:32:30Z</time>
      </trkpt>
      <trkpt lat="38.179000" lon="-4.045933">
        <ele>592.9</ele>
        <time>2009-04-07T10:32:34Z</time>
      </trkpt>
      <trkpt lat="38.179089" lon="-4.045628">
        <ele>593.6</ele>
        <time>2009-04-07T10:32:40Z</time>
      </trkpt>
      <trkpt lat="38.179113" lon="-4.045560">
        <ele>593.6</ele>
        <time>2009-04-07T10:32:57Z</time>
      </trkpt>
      <trkpt lat="38.179150" lon="-4.045467">
        <ele>593.4</ele>
        <time>2009-04-07T10:33:20Z</time>
      </trkpt>
      <trkpt lat="38.179243" lon="-4.045193">
        <ele>593.3</ele>
        <time>2009-04-07T10:33:42Z</time>
      </trkpt>
      <trkpt lat="38.179407" lon="-4.044822">
        <ele>595.6</ele>
        <time>2009-04-07T10:33:49Z</time>
      </trkpt>
      <trkpt lat="38.179554" lon="-4.044477">
        <ele>598.4</ele>
        <time>2009-04-07T10:33:56Z</time>
      </trkpt>
      <trkpt lat="38.179580" lon="-4.044358">
        <ele>598.9</ele>
        <time>2009-04-07T10:34:04Z</time>
      </trkpt>
      <trkpt lat="38.179598" lon="-4.044239">
        <ele>599.4</ele>
        <time>2009-04-07T10:34:09Z</time>
      </trkpt>
      <trkpt lat="38.179625" lon="-4.044091">
        <ele>600.0</ele>
        <time>2009-04-07T10:34:15Z</time>
      </trkpt>
      <trkpt lat="38.179629" lon="-4.044001">
        <ele>600.4</ele>
        <time>2009-04-07T10:34:34Z</time>
      </trkpt>
      <trkpt lat="38.179644" lon="-4.043906">
        <ele>600.8</ele>
        <time>2009-04-07T10:34:51Z</time>
      </trkpt>
      <trkpt lat="38.179617" lon="-4.043612">
        <ele>602.4</ele>
        <time>2009-04-07T10:35:06Z</time>
      </trkpt>
      <trkpt lat="38.179622" lon="-4.043513">
        <ele>602.3</ele>
        <time>2009-04-07T10:35:55Z</time>
      </trkpt>
      <trkpt lat="38.179603" lon="-4.043510">
        <ele>602.4</ele>
        <time>2009-04-07T10:36:22Z</time>
      </trkpt>
      <trkpt lat="38.179605" lon="-4.043520">
        <ele>602.4</ele>
        <time>2009-04-07T10:36:51Z</time>
      </trkpt>
      <trkpt lat="38.179603" lon="-4.043536">
        <ele>602.5</ele>
        <time>2009-04-07T10:37:23Z</time>
      </trkpt>
      <trkpt lat="38.179581" lon="-4.043624">
        <ele>602.8</ele>
        <time>2009-04-07T10:37:43Z</time>
      </trkpt>
      <trkpt lat="38.179579" lon="-4.043553">
        <ele>602.7</ele>
        <time>2009-04-07T10:38:03Z</time>
      </trkpt>
      <trkpt lat="38.179655" lon="-4.043380">
        <ele>601.9</ele>
        <time>2009-04-07T10:38:19Z</time>
      </trkpt>
      <trkpt lat="38.179887" lon="-4.043185">
        <ele>600.3</ele>
        <time>2009-04-07T10:38:35Z</time>
      </trkpt>
      <trkpt lat="38.180051" lon="-4.043007">
        <ele>599.8</ele>
        <time>2009-04-07T10:38:52Z</time>
      </trkpt>
      <trkpt lat="38.180161" lon="-4.042766">
        <ele>600.2</ele>
        <time>2009-04-07T10:39:07Z</time>
      </trkpt>
      <trkpt lat="38.180273" lon="-4.042491">
        <ele>601.9</ele>
        <time>2009-04-07T10:39:13Z</time>
      </trkpt>
      <trkpt lat="38.180332" lon="-4.042238">
        <ele>603.5</ele>
        <time>2009-04-07T10:39:22Z</time>
      </trkpt>
      <trkpt lat="38.180373" lon="-4.042140">
        <ele>604.2</ele>
        <time>2009-04-07T10:39:36Z</time>
      </trkpt>
      <trkpt lat="38.180465" lon="-4.042035">
        <ele>605.3</ele>
        <time>2009-04-07T10:39:52Z</time>
      </trkpt>
      <trkpt lat="38.180601" lon="-4.042006">
        <ele>606.2</ele>
        <time>2009-04-07T10:40:53Z</time>
      </trkpt>
      <trkpt lat="38.180636" lon="-4.042035">
        <ele>606.3</ele>
        <time>2009-04-07T10:41:14Z</time>
      </trkpt>
      <trkpt lat="38.180630" lon="-4.042011">
        <ele>606.4</ele>
        <time>2009-04-07T10:41:33Z</time>
      </trkpt>
      <trkpt lat="38.180627" lon="-4.042013">
        <ele>606.4</ele>
        <time>2009-04-07T10:43:15Z</time>
      </trkpt>
      <trkpt lat="38.180637" lon="-4.042033">
        <ele>606.3</ele>
        <time>2009-04-07T10:43:21Z</time>
      </trkpt>
      <trkpt lat="38.180696" lon="-4.041997">
        <ele>606.9</ele>
        <time>2009-04-07T10:43:23Z</time>
      </trkpt>
      <trkpt lat="38.180745" lon="-4.041970">
        <ele>607.3</ele>
        <time>2009-04-07T10:43:29Z</time>
      </trkpt>
      <trkpt lat="38.180765" lon="-4.041962">
        <ele>607.5</ele>
        <time>2009-04-07T10:43:54Z</time>
      </trkpt>
      <trkpt lat="38.180822" lon="-4.041916">
        <ele>608.2</ele>
        <time>2009-04-07T10:44:19Z</time>
      </trkpt>
      <trkpt lat="38.181031" lon="-4.041615">
        <ele>611.1</ele>
        <time>2009-04-07T10:44:36Z</time>
      </trkpt>
      <trkpt lat="38.181167" lon="-4.041217">
        <ele>614.0</ele>
        <time>2009-04-07T10:44:53Z</time>
      </trkpt>
      <trkpt lat="38.181253" lon="-4.040948">
        <ele>616.0</ele>
        <time>2009-04-07T10:45:11Z</time>
      </trkpt>
      <trkpt lat="38.181364" lon="-4.040688">
        <ele>617.7</ele>
        <time>2009-04-07T10:45:26Z</time>
      </trkpt>
      <trkpt lat="38.181468" lon="-4.040440">
        <ele>619.2</ele>
        <time>2009-04-07T10:46:51Z</time>
      </trkpt>
      <trkpt lat="38.181536" lon="-4.040316">
        <ele>619.9</ele>
        <time>2009-04-07T10:46:55Z</time>
      </trkpt>
      <trkpt lat="38.181511" lon="-4.040271">
        <ele>620.0</ele>
      </trkpt>
      <trkpt lat="38.181514" lon="-4.040274">
        <ele>620.0</ele>
      </trkpt>
      <trkpt lat="38.181612" lon="-4.040202">
        <ele>622.6</ele>
        <time>2009-04-08T06:25:16Z</time>
      </trkpt>
      <trkpt lat="38.181619" lon="-4.040209">
        <ele>621.1</ele>
        <time>2009-04-08T06:25:42Z</time>
      </trkpt>
      <trkpt lat="38.181612" lon="-4.040214">
        <ele>623.6</ele>
        <time>2009-04-08T06:26:19Z</time>
      </trkpt>
      <trkpt lat="38.181630" lon="-4.040226">
        <ele>624.5</ele>
        <time>2009-04-08T06:27:20Z</time>
      </trkpt>
      <trkpt lat="38.181624" lon="-4.040220">
        <ele>627.9</ele>
        <time>2009-04-08T06:27:52Z</time>
      </trkpt>
      <trkpt lat="38.181625" lon="-4.040241">
        <ele>625.5</ele>
        <time>2009-04-08T06:28:07Z</time>
      </trkpt>
      <trkpt lat="38.181603" lon="-4.040268">
        <ele>625.0</ele>
        <time>2009-04-08T06:28:45Z</time>
      </trkpt>
      <trkpt lat="38.181610" lon="-4.040255">
        <ele>625.0</ele>
        <time>2009-04-08T06:29:18Z</time>
      </trkpt>
      <trkpt lat="38.181605" lon="-4.040258">
        <ele>625.5</ele>
        <time>2009-04-08T06:29:21Z</time>
      </trkpt>
      <trkpt lat="38.181523" lon="-4.040077">
        <ele>626.0</ele>
        <time>2009-04-08T06:29:31Z</time>
      </trkpt>
      <trkpt lat="38.180980" lon="-4.039497">
        <ele>625.0</ele>
        <time>2009-04-08T06:29:42Z</time>
      </trkpt>
      <trkpt lat="38.180278" lon="-4.038794">
        <ele>627.9</ele>
        <time>2009-04-08T06:29:53Z</time>
      </trkpt>
      <trkpt lat="38.180171" lon="-4.038709">
        <ele>628.8</ele>
        <time>2009-04-08T06:29:55Z</time>
      </trkpt>
      <trkpt lat="38.180057" lon="-4.038639">
        <ele>628.8</ele>
        <time>2009-04-08T06:29:57Z</time>
      </trkpt>
      <trkpt lat="38.179858" lon="-4.038580">
        <ele>630.8</ele>
        <time>2009-04-08T06:30:06Z</time>
      </trkpt>
      <trkpt lat="38.179857" lon="-4.038576">
        <ele>630.8</ele>
        <time>2009-04-08T06:30:21Z</time>
      </trkpt>
      <trkpt lat="38.179875" lon="-4.038565">
        <ele>636.0</ele>
        <time>2009-04-08T06:31:34Z</time>
      </trkpt>
      <trkpt lat="38.179871" lon="-4.038578">
        <ele>633.6</ele>
        <time>2009-04-08T06:32:32Z</time>
      </trkpt>
      <trkpt lat="38.179885" lon="-4.038592">
        <ele>633.2</ele>
        <time>2009-04-08T06:33:34Z</time>
      </trkpt>
      <trkpt lat="38.179870" lon="-4.038583">
        <ele>633.2</ele>
        <time>2009-04-08T06:33:44Z</time>
      </trkpt>
      <trkpt lat="38.179873" lon="-4.038381">
        <ele>632.7</ele>
        <time>2009-04-08T06:33:53Z</time>
      </trkpt>
      <trkpt lat="38.180121" lon="-4.038007">
        <ele>629.8</ele>
        <time>2009-04-08T06:34:07Z</time>
      </trkpt>
      <trkpt lat="38.180433" lon="-4.037610">
        <ele>623.1</ele>
        <time>2009-04-08T06:34:22Z</time>
      </trkpt>
      <trkpt lat="38.180646" lon="-4.037410">
        <ele>618.7</ele>
        <time>2009-04-08T06:34:38Z</time>
      </trkpt>
      <trkpt lat="38.180766" lon="-4.037261">
        <ele>617.8</ele>
        <time>2009-04-08T06:35:10Z</time>
      </trkpt>
      <trkpt lat="38.180924" lon="-4.037067">
        <ele>617.3</ele>
        <time>2009-04-08T06:35:56Z</time>
      </trkpt>
      <trkpt lat="38.181369" lon="-4.036819">
        <ele>610.1</ele>
        <time>2009-04-08T06:36:07Z</time>
      </trkpt>
      <trkpt lat="38.181708" lon="-4.036504">
        <ele>604.3</ele>
        <time>2009-04-08T06:36:16Z</time>
      </trkpt>
      <trkpt lat="38.182180" lon="-4.035950">
        <ele>598.6</ele>
        <time>2009-04-08T06:36:31Z</time>
      </trkpt>
      <trkpt lat="38.182183" lon="-4.035933">
        <ele>597.6</ele>
        <time>2009-04-08T06:36:39Z</time>
      </trkpt>
      <trkpt lat="38.182194" lon="-4.035928">
        <ele>597.1</ele>
        <time>2009-04-08T06:36:50Z</time>
      </trkpt>
      <trkpt lat="38.182208" lon="-4.035928">
        <ele>596.6</ele>
        <time>2009-04-08T06:36:59Z</time>
      </trkpt>
      <trkpt lat="38.182276" lon="-4.035832">
        <ele>595.7</ele>
        <time>2009-04-08T06:37:21Z</time>
      </trkpt>
      <trkpt lat="38.182274" lon="-4.035835">
        <ele>596.6</ele>
        <time>2009-04-08T06:38:27Z</time>
      </trkpt>
      <trkpt lat="38.182269" lon="-4.035821">
        <ele>597.1</ele>
        <time>2009-04-08T06:39:30Z</time>
      </trkpt>
      <trkpt lat="38.182289" lon="-4.035824">
        <ele>598.1</ele>
        <time>2009-04-08T06:39:52Z</time>
      </trkpt>
      <trkpt lat="38.182279" lon="-4.035792">
        <ele>598.6</ele>
        <time>2009-04-08T06:40:21Z</time>
      </trkpt>
      <trkpt lat="38.182367" lon="-4.035614">
        <ele>596.2</ele>
        <time>2009-04-08T06:40:43Z</time>
      </trkpt>
      <trkpt lat="38.182602" lon="-4.035149">
        <ele>597.1</ele>
        <time>2009-04-08T06:40:53Z</time>
      </trkpt>
      <trkpt lat="38.182992" lon="-4.034621">
        <ele>601.4</ele>
        <time>2009-04-08T06:41:02Z</time>
      </trkpt>
      <trkpt lat="38.183137" lon="-4.034310">
        <ele>602.9</ele>
        <time>2009-04-08T06:41:11Z</time>
      </trkpt>
      <trkpt lat="38.183164" lon="-4.034277">
        <ele>601.0</ele>
        <time>2009-04-08T06:41:21Z</time>
      </trkpt>
      <trkpt lat="38.183174" lon="-4.034232">
        <ele>601.4</ele>
        <time>2009-04-08T06:41:35Z</time>
      </trkpt>
      <trkpt lat="38.183174" lon="-4.034221">
        <ele>601.9</ele>
        <time>2009-04-08T06:42:06Z</time>
      </trkpt>
      <trkpt lat="38.183163" lon="-4.034220">
        <ele>603.4</ele>
        <time>2009-04-08T06:42:42Z</time>
      </trkpt>
      <trkpt lat="38.183178" lon="-4.034241">
        <ele>602.9</ele>
        <time>2009-04-08T06:42:53Z</time>
      </trkpt>
      <trkpt lat="38.183357" lon="-4.033971">
        <ele>603.8</ele>
        <time>2009-04-08T06:43:06Z</time>
      </trkpt>
      <trkpt lat="38.183571" lon="-4.033586">
        <ele>607.2</ele>
        <time>2009-04-08T06:43:17Z</time>
      </trkpt>
      <trkpt lat="38.183565" lon="-4.033562">
        <ele>608.7</ele>
        <time>2009-04-08T06:43:43Z</time>
      </trkpt>
      <trkpt lat="38.183567" lon="-4.033556">
        <ele>608.2</ele>
        <time>2009-04-08T06:43:53Z</time>
      </trkpt>
      <trkpt lat="38.183567" lon="-4.033556">
        <ele>608.2</ele>
        <time>2009-04-08T06:44:22Z</time>
      </trkpt>
      <trkpt lat="38.183551" lon="-4.033547">
        <ele>606.2</ele>
        <time>2009-04-08T06:44:51Z</time>
      </trkpt>
      <trkpt lat="38.183558" lon="-4.033588">
        <ele>605.3</ele>
        <time>2009-04-08T06:45:18Z</time>
      </trkpt>
      <trkpt lat="38.183565" lon="-4.033589">
        <ele>607.2</ele>
        <time>2009-04-08T06:46:59Z</time>
      </trkpt>
      <trkpt lat="38.183647" lon="-4.033256">
        <ele>604.3</ele>
        <time>2009-04-08T06:47:18Z</time>
      </trkpt>
      <trkpt lat="38.183860" lon="-4.032239">
        <ele>595.2</ele>
        <time>2009-04-08T06:47:32Z</time>
      </trkpt>
      <trkpt lat="38.183857" lon="-4.032166">
        <ele>595.7</ele>
        <time>2009-04-08T06:47:33Z</time>
      </trkpt>
      <trkpt lat="38.183728" lon="-4.031803">
        <ele>594.7</ele>
        <time>2009-04-08T06:47:39Z</time>
      </trkpt>
      <trkpt lat="38.183590" lon="-4.031363">
        <ele>594.2</ele>
        <time>2009-04-08T06:47:48Z</time>
      </trkpt>
      <trkpt lat="38.183622" lon="-4.031245">
        <ele>593.3</ele>
        <time>2009-04-08T06:48:00Z</time>
      </trkpt>
      <trkpt lat="38.183661" lon="-4.031147">
        <ele>593.3</ele>
        <time>2009-04-08T06:48:02Z</time>
      </trkpt>
      <trkpt lat="38.183786" lon="-4.030339">
        <ele>596.2</ele>
        <time>2009-04-08T06:48:12Z</time>
      </trkpt>
      <trkpt lat="38.183864" lon="-4.029859">
        <ele>597.6</ele>
        <time>2009-04-08T06:48:18Z</time>
      </trkpt>
      <trkpt lat="38.184120" lon="-4.029493">
        <ele>596.6</ele>
        <time>2009-04-08T06:48:25Z</time>
      </trkpt>
      <trkpt lat="38.184336" lon="-4.029353">
        <ele>593.8</ele>
        <time>2009-04-08T06:48:36Z</time>
      </trkpt>
      <trkpt lat="38.184341" lon="-4.029337">
        <ele>596.2</ele>
        <time>2009-04-08T06:51:03Z</time>
      </trkpt>
      <trkpt lat="38.184341" lon="-4.029337">
        <ele>596.2</ele>
        <time>2009-04-08T06:56:21Z</time>
      </trkpt>
      <trkpt lat="38.184346" lon="-4.029351">
        <ele>594.7</ele>
        <time>2009-04-08T06:57:09Z</time>
      </trkpt>
      <trkpt lat="38.184322" lon="-4.029338">
        <ele>595.2</ele>
        <time>2009-04-08T06:57:41Z</time>
      </trkpt>
      <trkpt lat="38.184326" lon="-4.029298">
        <ele>595.2</ele>
        <time>2009-04-08T06:57:47Z</time>
      </trkpt>
      <trkpt lat="38.184391" lon="-4.029044">
        <ele>594.2</ele>
        <time>2009-04-08T06:58:08Z</time>
      </trkpt>
      <trkpt lat="38.184433" lon="-4.028801">
        <ele>592.8</ele>
        <time>2009-04-08T06:58:25Z</time>
      </trkpt>
      <trkpt lat="38.184429" lon="-4.028519">
        <ele>590.9</ele>
        <time>2009-04-08T06:58:44Z</time>
      </trkpt>
      <trkpt lat="38.184484" lon="-4.028305">
        <ele>587.0</ele>
        <time>2009-04-08T06:59:01Z</time>
      </trkpt>
      <trkpt lat="38.184505" lon="-4.028245">
        <ele>585.6</ele>
        <time>2009-04-08T06:59:07Z</time>
      </trkpt>
      <trkpt lat="38.184548" lon="-4.028165">
        <ele>584.1</ele>
        <time>2009-04-08T06:59:13Z</time>
      </trkpt>
      <trkpt lat="38.184687" lon="-4.027927">
        <ele>580.8</ele>
        <time>2009-04-08T06:59:32Z</time>
      </trkpt>
      <trkpt lat="38.184755" lon="-4.027786">
        <ele>580.8</ele>
        <time>2009-04-08T06:59:42Z</time>
      </trkpt>
      <trkpt lat="38.184791" lon="-4.027736">
        <ele>581.3</ele>
        <time>2009-04-08T06:59:57Z</time>
      </trkpt>
      <trkpt lat="38.184800" lon="-4.027736">
        <ele>581.3</ele>
        <time>2009-04-08T07:00:06Z</time>
      </trkpt>
      <trkpt lat="38.185010" lon="-4.027722">
        <ele>579.3</ele>
        <time>2009-04-08T07:00:26Z</time>
      </trkpt>
      <trkpt lat="38.185135" lon="-4.027639">
        <ele>579.3</ele>
        <time>2009-04-08T07:00:40Z</time>
      </trkpt>
      <trkpt lat="38.185212" lon="-4.027551">
        <ele>578.4</ele>
        <time>2009-04-08T07:00:56Z</time>
      </trkpt>
      <trkpt lat="38.185215" lon="-4.027543">
        <ele>578.4</ele>
        <time>2009-04-08T07:00:58Z</time>
      </trkpt>
      <trkpt lat="38.185244" lon="-4.027495">
        <ele>577.4</ele>
        <time>2009-04-08T07:01:02Z</time>
      </trkpt>
      <trkpt lat="38.185278" lon="-4.027426">
        <ele>576.4</ele>
        <time>2009-04-08T07:01:08Z</time>
      </trkpt>
      <trkpt lat="38.185282" lon="-4.027390">
        <ele>575.5</ele>
        <time>2009-04-08T07:01:11Z</time>
      </trkpt>
      <trkpt lat="38.185337" lon="-4.027148">
        <ele>570.7</ele>
        <time>2009-04-08T07:01:29Z</time>
      </trkpt>
      <trkpt lat="38.185443" lon="-4.026907">
        <ele>568.3</ele>
        <time>2009-04-08T07:01:46Z</time>
      </trkpt>
      <trkpt lat="38.185562" lon="-4.026650">
        <ele>565.9</ele>
        <time>2009-04-08T07:02:05Z</time>
      </trkpt>
      <trkpt lat="38.185654" lon="-4.026591">
        <ele>564.4</ele>
        <time>2009-04-08T07:02:13Z</time>
      </trkpt>
      <trkpt lat="38.185832" lon="-4.026559">
        <ele>560.6</ele>
        <time>2009-04-08T07:02:29Z</time>
      </trkpt>
      <trkpt lat="38.185918" lon="-4.026343">
        <ele>560.1</ele>
        <time>2009-04-08T07:02:45Z</time>
      </trkpt>
      <trkpt lat="38.185907" lon="-4.026186">
        <ele>560.1</ele>
        <time>2009-04-08T07:02:59Z</time>
      </trkpt>
      <trkpt lat="38.185904" lon="-4.026196">
        <ele>560.6</ele>
        <time>2009-04-08T07:03:26Z</time>
      </trkpt>
      <trkpt lat="38.185903" lon="-4.026198">
        <ele>560.6</ele>
        <time>2009-04-08T07:04:06Z</time>
      </trkpt>
      <trkpt lat="38.185890" lon="-4.026179">
        <ele>559.1</ele>
        <time>2009-04-08T07:04:43Z</time>
      </trkpt>
      <trkpt lat="38.185907" lon="-4.026104">
        <ele>558.7</ele>
        <time>2009-04-08T07:04:49Z</time>
      </trkpt>
      <trkpt lat="38.185922" lon="-4.025784">
        <ele>554.3</ele>
        <time>2009-04-08T07:05:09Z</time>
      </trkpt>
      <trkpt lat="38.185911" lon="-4.025577">
        <ele>549.5</ele>
        <time>2009-04-08T07:05:24Z</time>
      </trkpt>
      <trkpt lat="38.185837" lon="-4.025282">
        <ele>551.0</ele>
        <time>2009-04-08T07:05:44Z</time>
      </trkpt>
      <trkpt lat="38.185768" lon="-4.025022">
        <ele>549.5</ele>
        <time>2009-04-08T07:06:02Z</time>
      </trkpt>
      <trkpt lat="38.185768" lon="-4.025022">
        <ele>553.4</ele>
        <time>2009-04-08T07:09:28Z</time>
      </trkpt>
      <trkpt lat="38.185809" lon="-4.024886">
        <ele>550.5</ele>
        <time>2009-04-08T07:09:43Z</time>
      </trkpt>
      <trkpt lat="38.185887" lon="-4.024797">
        <ele>551.0</ele>
        <time>2009-04-08T07:10:03Z</time>
      </trkpt>
      <trkpt lat="38.185986" lon="-4.024799">
        <ele>549.1</ele>
        <time>2009-04-08T07:10:13Z</time>
      </trkpt>
      <trkpt lat="38.186137" lon="-4.024801">
        <ele>546.2</ele>
        <time>2009-04-08T07:10:20Z</time>
      </trkpt>
      <trkpt lat="38.186248" lon="-4.024733">
        <ele>540.4</ele>
        <time>2009-04-08T07:10:38Z</time>
      </trkpt>
      <trkpt lat="38.186269" lon="-4.024657">
        <ele>540.4</ele>
        <time>2009-04-08T07:12:05Z</time>
      </trkpt>
      <trkpt lat="38.186269" lon="-4.024657">
        <ele>539.0</ele>
        <time>2009-04-08T07:12:59Z</time>
      </trkpt>
      <trkpt lat="38.186340" lon="-4.024677">
        <ele>539.4</ele>
        <time>2009-04-08T07:15:10Z</time>
      </trkpt>
      <trkpt lat="38.186331" lon="-4.024575">
        <ele>540.4</ele>
        <time>2009-04-08T07:15:32Z</time>
      </trkpt>
      <trkpt lat="38.186411" lon="-4.024659">
        <ele>542.3</ele>
        <time>2009-04-08T07:15:50Z</time>
      </trkpt>
      <trkpt lat="38.186418" lon="-4.024668">
        <ele>543.3</ele>
        <time>2009-04-08T07:16:25Z</time>
      </trkpt>
      <trkpt lat="38.186413" lon="-4.024662">
        <ele>541.8</ele>
        <time>2009-04-08T07:16:58Z</time>
      </trkpt>
      <trkpt lat="38.186410" lon="-4.024675">
        <ele>541.8</ele>
        <time>2009-04-08T07:17:22Z</time>
      </trkpt>
      <trkpt lat="38.186410" lon="-4.024666">
        <ele>545.7</ele>
        <time>2009-04-08T07:17:55Z</time>
      </trkpt>
      <trkpt lat="38.186446" lon="-4.024515">
        <ele>541.8</ele>
        <time>2009-04-08T07:18:56Z</time>
      </trkpt>
      <trkpt lat="38.186533" lon="-4.024399">
        <ele>541.4</ele>
        <time>2009-04-08T07:19:01Z</time>
      </trkpt>
      <trkpt lat="38.186532" lon="-4.024268">
        <ele>539.9</ele>
        <time>2009-04-08T07:19:18Z</time>
      </trkpt>
      <trkpt lat="38.186371" lon="-4.024042">
        <ele>537.0</ele>
        <time>2009-04-08T07:19:39Z</time>
      </trkpt>
      <trkpt lat="38.186352" lon="-4.023998">
        <ele>535.6</ele>
        <time>2009-04-08T07:19:43Z</time>
      </trkpt>
      <trkpt lat="38.186260" lon="-4.023740">
        <ele>533.7</ele>
        <time>2009-04-08T07:20:00Z</time>
      </trkpt>
      <trkpt lat="38.186205" lon="-4.023611">
        <ele>535.1</ele>
        <time>2009-04-08T07:20:17Z</time>
      </trkpt>
      <trkpt lat="38.186168" lon="-4.023528">
        <ele>535.1</ele>
        <time>2009-04-08T07:20:37Z</time>
      </trkpt>
      <trkpt lat="38.186164" lon="-4.023509">
        <ele>535.1</ele>
        <time>2009-04-08T07:20:39Z</time>
      </trkpt>
      <trkpt lat="38.185977" lon="-4.023364">
        <ele>532.7</ele>
        <time>2009-04-08T07:20:56Z</time>
      </trkpt>
      <trkpt lat="38.185845" lon="-4.023253">
        <ele>534.6</ele>
        <time>2009-04-08T07:21:09Z</time>
      </trkpt>
      <trkpt lat="38.185794" lon="-4.023203">
        <ele>535.1</ele>
        <time>2009-04-08T07:21:15Z</time>
      </trkpt>
      <trkpt lat="38.185657" lon="-4.022994">
        <ele>532.7</ele>
        <time>2009-04-08T07:21:34Z</time>
      </trkpt>
      <trkpt lat="38.185586" lon="-4.022783">
        <ele>531.3</ele>
        <time>2009-04-08T07:21:50Z</time>
      </trkpt>
      <trkpt lat="38.185587" lon="-4.022626">
        <ele>527.9</ele>
        <time>2009-04-08T07:22:02Z</time>
      </trkpt>
      <trkpt lat="38.185610" lon="-4.022601">
        <ele>526.9</ele>
        <time>2009-04-08T07:22:05Z</time>
      </trkpt>
      <trkpt lat="38.185630" lon="-4.022390">
        <ele>523.6</ele>
        <time>2009-04-08T07:22:20Z</time>
      </trkpt>
      <trkpt lat="38.185717" lon="-4.022185">
        <ele>522.1</ele>
        <time>2009-04-08T07:22:36Z</time>
      </trkpt>
      <trkpt lat="38.185663" lon="-4.021977">
        <ele>522.1</ele>
        <time>2009-04-08T07:22:52Z</time>
      </trkpt>
      <trkpt lat="38.185535" lon="-4.021705">
        <ele>521.7</ele>
        <time>2009-04-08T07:23:13Z</time>
      </trkpt>
      <trkpt lat="38.185571" lon="-4.021490">
        <ele>518.8</ele>
        <time>2009-04-08T07:23:29Z</time>
      </trkpt>
      <trkpt lat="38.185574" lon="-4.021202">
        <ele>521.2</ele>
        <time>2009-04-08T07:23:46Z</time>
      </trkpt>
      <trkpt lat="38.185529" lon="-4.020806">
        <ele>517.8</ele>
        <time>2009-04-08T07:24:08Z</time>
      </trkpt>
      <trkpt lat="38.185422" lon="-4.020698">
        <ele>513.5</ele>
        <time>2009-04-08T07:24:23Z</time>
      </trkpt>
      <trkpt lat="38.185376" lon="-4.020530">
        <ele>513.5</ele>
        <time>2009-04-08T07:24:32Z</time>
      </trkpt>
      <trkpt lat="38.185233" lon="-4.020345">
        <ele>516.8</ele>
        <time>2009-04-08T07:25:19Z</time>
      </trkpt>
      <trkpt lat="38.185128" lon="-4.020282">
        <ele>517.3</ele>
        <time>2009-04-08T07:25:46Z</time>
      </trkpt>
      <trkpt lat="38.185128" lon="-4.020282">
        <ele>517.3</ele>
        <time>2009-04-08T07:26:00Z</time>
      </trkpt>
      <trkpt lat="38.185118" lon="-4.020147">
        <ele>515.9</ele>
        <time>2009-04-08T07:26:14Z</time>
      </trkpt>
      <trkpt lat="38.185116" lon="-4.020132">
        <ele>515.9</ele>
        <time>2009-04-08T07:26:15Z</time>
      </trkpt>
      <trkpt lat="38.185121" lon="-4.020079">
        <ele>515.4</ele>
        <time>2009-04-08T07:26:19Z</time>
      </trkpt>
      <trkpt lat="38.185109" lon="-4.019890">
        <ele>514.0</ele>
        <time>2009-04-08T07:26:31Z</time>
      </trkpt>
      <trkpt lat="38.185023" lon="-4.019728">
        <ele>513.5</ele>
        <time>2009-04-08T07:26:48Z</time>
      </trkpt>
      <trkpt lat="38.185028" lon="-4.019721">
        <ele>515.4</ele>
        <time>2009-04-08T07:27:25Z</time>
      </trkpt>
      <trkpt lat="38.184995" lon="-4.019676">
        <ele>514.4</ele>
        <time>2009-04-08T07:27:54Z</time>
      </trkpt>
      <trkpt lat="38.184945" lon="-4.019610">
        <ele>513.5</ele>
        <time>2009-04-08T07:28:12Z</time>
      </trkpt>
      <trkpt lat="38.184953" lon="-4.019627">
        <ele>512.5</ele>
        <time>2009-04-08T07:29:09Z</time>
      </trkpt>
      <trkpt lat="38.184963" lon="-4.019648">
        <ele>510.6</ele>
        <time>2009-04-08T07:29:26Z</time>
      </trkpt>
      <trkpt lat="38.184959" lon="-4.019649">
        <ele>514.4</ele>
        <time>2009-04-08T07:32:17Z</time>
      </trkpt>
      <trkpt lat="38.184900" lon="-4.019594">
        <ele>513.0</ele>
        <time>2009-04-08T07:32:44Z</time>
      </trkpt>
      <trkpt lat="38.184805" lon="-4.019578">
        <ele>511.6</ele>
        <time>2009-04-08T07:33:01Z</time>
      </trkpt>
      <trkpt lat="38.184708" lon="-4.019576">
        <ele>509.6</ele>
        <time>2009-04-08T07:33:12Z</time>
      </trkpt>
      <trkpt lat="38.184669" lon="-4.019544">
        <ele>508.7</ele>
        <time>2009-04-08T07:33:16Z</time>
      </trkpt>
      <trkpt lat="38.184596" lon="-4.019408">
        <ele>504.8</ele>
        <time>2009-04-08T07:33:31Z</time>
      </trkpt>
      <trkpt lat="38.184547" lon="-4.019268">
        <ele>501.9</ele>
        <time>2009-04-08T07:33:45Z</time>
      </trkpt>
      <trkpt lat="38.184536" lon="-4.019204">
        <ele>501.5</ele>
        <time>2009-04-08T07:34:01Z</time>
      </trkpt>
      <trkpt lat="38.184430" lon="-4.019185">
        <ele>497.1</ele>
        <time>2009-04-08T07:34:18Z</time>
      </trkpt>
      <trkpt lat="38.184422" lon="-4.019185">
        <ele>496.7</ele>
        <time>2009-04-08T07:34:29Z</time>
      </trkpt>
      <trkpt lat="38.184334" lon="-4.019252">
        <ele>493.8</ele>
        <time>2009-04-08T07:34:40Z</time>
      </trkpt>
      <trkpt lat="38.184257" lon="-4.019206">
        <ele>490.9</ele>
        <time>2009-04-08T07:34:49Z</time>
      </trkpt>
      <trkpt lat="38.184235" lon="-4.019080">
        <ele>487.0</ele>
        <time>2009-04-08T07:35:03Z</time>
      </trkpt>
      <trkpt lat="38.184220" lon="-4.019053">
        <ele>486.1</ele>
        <time>2009-04-08T07:35:06Z</time>
      </trkpt>
      <trkpt lat="38.184235" lon="-4.018994">
        <ele>484.6</ele>
        <time>2009-04-08T07:35:12Z</time>
      </trkpt>
      <trkpt lat="38.184202" lon="-4.018855">
        <ele>481.3</ele>
        <time>2009-04-08T07:35:23Z</time>
      </trkpt>
      <trkpt lat="38.184139" lon="-4.018776">
        <ele>478.4</ele>
        <time>2009-04-08T07:35:39Z</time>
      </trkpt>
      <trkpt lat="38.184052" lon="-4.018657">
        <ele>477.0</ele>
        <time>2009-04-08T07:36:03Z</time>
      </trkpt>
      <trkpt lat="38.184038" lon="-4.018645">
        <ele>476.5</ele>
        <time>2009-04-08T07:36:05Z</time>
      </trkpt>
      <trkpt lat="38.183984" lon="-4.018631">
        <ele>475.0</ele>
        <time>2009-04-08T07:36:25Z</time>
      </trkpt>
      <trkpt lat="38.183981" lon="-4.018582">
        <ele>474.5</ele>
        <time>2009-04-08T07:36:41Z</time>
      </trkpt>
      <trkpt lat="38.183807" lon="-4.018531">
        <ele>474.5</ele>
        <time>2009-04-08T07:36:56Z</time>
      </trkpt>
      <trkpt lat="38.183683" lon="-4.018549">
        <ele>476.0</ele>
        <time>2009-04-08T07:37:09Z</time>
      </trkpt>
      <trkpt lat="38.183674" lon="-4.018539">
        <ele>475.5</ele>
        <time>2009-04-08T07:37:23Z</time>
      </trkpt>
      <trkpt lat="38.183671" lon="-4.018534">
        <ele>476.5</ele>
        <time>2009-04-08T07:37:49Z</time>
      </trkpt>
      <trkpt lat="38.183670" lon="-4.018536">
        <ele>477.4</ele>
        <time>2009-04-08T07:38:44Z</time>
      </trkpt>
      <trkpt lat="38.183546" lon="-4.018512">
        <ele>478.9</ele>
        <time>2009-04-08T07:38:58Z</time>
      </trkpt>
      <trkpt lat="38.183348" lon="-4.018477">
        <ele>479.4</ele>
        <time>2009-04-08T07:39:16Z</time>
      </trkpt>
      <trkpt lat="38.183325" lon="-4.018444">
        <ele>478.9</ele>
        <time>2009-04-08T07:39:21Z</time>
      </trkpt>
      <trkpt lat="38.183303" lon="-4.018353">
        <ele>478.4</ele>
        <time>2009-04-08T07:39:28Z</time>
      </trkpt>
      <trkpt lat="38.183316" lon="-4.018151">
        <ele>477.4</ele>
        <time>2009-04-08T07:39:44Z</time>
      </trkpt>
      <trkpt lat="38.183419" lon="-4.017881">
        <ele>477.0</ele>
        <time>2009-04-08T07:40:02Z</time>
      </trkpt>
      <trkpt lat="38.183513" lon="-4.017703">
        <ele>477.4</ele>
        <time>2009-04-08T07:40:21Z</time>
      </trkpt>
      <trkpt lat="38.183530" lon="-4.017668">
        <ele>480.3</ele>
        <time>2009-04-08T07:40:48Z</time>
      </trkpt>
      <trkpt lat="38.183522" lon="-4.017679">
        <ele>476.0</ele>
        <time>2009-04-08T07:41:22Z</time>
      </trkpt>
      <trkpt lat="38.183535" lon="-4.017698">
        <ele>474.1</ele>
        <time>2009-04-08T07:42:12Z</time>
      </trkpt>
      <trkpt lat="38.183550" lon="-4.017710">
        <ele>473.1</ele>
        <time>2009-04-08T07:42:45Z</time>
      </trkpt>
      <trkpt lat="38.183551" lon="-4.017700">
        <ele>474.5</ele>
        <time>2009-04-08T07:43:01Z</time>
      </trkpt>
      <trkpt lat="38.183520" lon="-4.017688">
        <ele>475.0</ele>
        <time>2009-04-08T07:43:39Z</time>
      </trkpt>
      <trkpt lat="38.183518" lon="-4.017690">
        <ele>477.0</ele>
        <time>2009-04-08T07:44:20Z</time>
      </trkpt>
      <trkpt lat="38.183469" lon="-4.017605">
        <ele>474.1</ele>
        <time>2009-04-08T07:44:33Z</time>
      </trkpt>
      <trkpt lat="38.183439" lon="-4.017600">
        <ele>474.5</ele>
        <time>2009-04-08T07:44:52Z</time>
      </trkpt>
      <trkpt lat="38.183432" lon="-4.017612">
        <ele>477.0</ele>
        <time>2009-04-08T07:45:19Z</time>
      </trkpt>
      <trkpt lat="38.183414" lon="-4.017621">
        <ele>476.0</ele>
        <time>2009-04-08T07:45:23Z</time>
      </trkpt>
      <trkpt lat="38.183221" lon="-4.017718">
        <ele>473.6</ele>
        <time>2009-04-08T07:45:42Z</time>
      </trkpt>
      <trkpt lat="38.183101" lon="-4.017736">
        <ele>475.0</ele>
        <time>2009-04-08T07:45:54Z</time>
      </trkpt>
      <trkpt lat="38.183076" lon="-4.017512">
        <ele>475.0</ele>
        <time>2009-04-08T07:46:10Z</time>
      </trkpt>
      <trkpt lat="38.183134" lon="-4.017195">
        <ele>474.1</ele>
        <time>2009-04-08T07:46:31Z</time>
      </trkpt>
      <trkpt lat="38.183154" lon="-4.016995">
        <ele>471.7</ele>
        <time>2009-04-08T07:46:48Z</time>
      </trkpt>
      <trkpt lat="38.183168" lon="-4.016899">
        <ele>469.3</ele>
        <time>2009-04-08T07:47:04Z</time>
      </trkpt>
      <trkpt lat="38.183182" lon="-4.016872">
        <ele>475.5</ele>
        <time>2009-04-08T07:47:30Z</time>
      </trkpt>
      <trkpt lat="38.183201" lon="-4.016877">
        <ele>477.9</ele>
        <time>2009-04-08T07:47:58Z</time>
      </trkpt>
      <trkpt lat="38.183191" lon="-4.016883">
        <ele>474.1</ele>
        <time>2009-04-08T07:48:47Z</time>
      </trkpt>
      <trkpt lat="38.183181" lon="-4.016882">
        <ele>477.0</ele>
        <time>2009-04-08T07:49:16Z</time>
      </trkpt>
      <trkpt lat="38.183168" lon="-4.016945">
        <ele>471.2</ele>
        <time>2009-04-08T07:50:22Z</time>
      </trkpt>
      <trkpt lat="38.183180" lon="-4.016905">
        <ele>467.8</ele>
        <time>2009-04-08T07:50:54Z</time>
      </trkpt>
      <trkpt lat="38.183227" lon="-4.016844">
        <ele>479.4</ele>
        <time>2009-04-08T07:51:39Z</time>
      </trkpt>
      <trkpt lat="38.183215" lon="-4.016894">
        <ele>469.3</ele>
        <time>2009-04-08T07:52:32Z</time>
      </trkpt>
      <trkpt lat="38.183184" lon="-4.016843">
        <ele>467.3</ele>
        <time>2009-04-08T07:53:08Z</time>
      </trkpt>
      <trkpt lat="38.183174" lon="-4.016790">
        <ele>466.9</ele>
        <time>2009-04-08T07:53:12Z</time>
      </trkpt>
      <trkpt lat="38.183160" lon="-4.016767">
        <ele>466.9</ele>
        <time>2009-04-08T07:53:14Z</time>
      </trkpt>
      <trkpt lat="38.183088" lon="-4.016640">
        <ele>464.9</ele>
        <time>2009-04-08T07:53:28Z</time>
      </trkpt>
      <trkpt lat="38.183085" lon="-4.016600">
        <ele>466.4</ele>
        <time>2009-04-08T07:53:39Z</time>
      </trkpt>
      <trkpt lat="38.182958" lon="-4.016460">
        <ele>466.9</ele>
        <time>2009-04-08T07:53:59Z</time>
      </trkpt>
      <trkpt lat="38.182950" lon="-4.016454">
        <ele>466.9</ele>
        <time>2009-04-08T07:54:31Z</time>
      </trkpt>
      <trkpt lat="38.182956" lon="-4.016469">
        <ele>465.9</ele>
        <time>2009-04-08T07:54:51Z</time>
      </trkpt>
      <trkpt lat="38.182944" lon="-4.016466">
        <ele>464.5</ele>
        <time>2009-04-08T07:56:48Z</time>
      </trkpt>
      <trkpt lat="38.182975" lon="-4.016493">
        <ele>464.5</ele>
        <time>2009-04-08T07:57:53Z</time>
      </trkpt>
      <trkpt lat="38.182998" lon="-4.016477">
        <ele>469.7</ele>
        <time>2009-04-08T07:58:22Z</time>
      </trkpt>
      <trkpt lat="38.182993" lon="-4.016497">
        <ele>466.9</ele>
        <time>2009-04-08T07:59:03Z</time>
      </trkpt>
      <trkpt lat="38.182986" lon="-4.016481">
        <ele>468.8</ele>
        <time>2009-04-08T07:59:33Z</time>
      </trkpt>
      <trkpt lat="38.183006" lon="-4.016430">
        <ele>468.8</ele>
        <time>2009-04-08T07:59:37Z</time>
      </trkpt>
      <trkpt lat="38.183112" lon="-4.016145">
        <ele>468.3</ele>
        <time>2009-04-08T07:59:57Z</time>
      </trkpt>
      <trkpt lat="38.183126" lon="-4.015923">
        <ele>471.7</ele>
        <time>2009-04-08T08:00:12Z</time>
      </trkpt>
      <trkpt lat="38.183063" lon="-4.015815">
        <ele>474.1</ele>
        <time>2009-04-08T08:00:29Z</time>
      </trkpt>
      <trkpt lat="38.183064" lon="-4.015811">
        <ele>474.5</ele>
        <time>2009-04-08T08:01:19Z</time>
      </trkpt>
      <trkpt lat="38.183062" lon="-4.015808">
        <ele>474.5</ele>
        <time>2009-04-08T08:01:46Z</time>
      </trkpt>
      <trkpt lat="38.183069" lon="-4.015809">
        <ele>475.0</ele>
        <time>2009-04-08T08:02:33Z</time>
      </trkpt>
      <trkpt lat="38.183077" lon="-4.015818">
        <ele>475.5</ele>
        <time>2009-04-08T08:03:13Z</time>
      </trkpt>
      <trkpt lat="38.183270" lon="-4.015910">
        <ele>472.1</ele>
        <time>2009-04-08T08:03:35Z</time>
      </trkpt>
      <trkpt lat="38.183310" lon="-4.016005">
        <ele>472.1</ele>
        <time>2009-04-08T08:03:50Z</time>
      </trkpt>
      <trkpt lat="38.183333" lon="-4.016044">
        <ele>470.7</ele>
        <time>2009-04-08T08:04:18Z</time>
      </trkpt>
      <trkpt lat="38.183342" lon="-4.015994">
        <ele>471.2</ele>
        <time>2009-04-08T08:04:42Z</time>
      </trkpt>
      <trkpt lat="38.183328" lon="-4.015986">
        <ele>468.8</ele>
        <time>2009-04-08T08:05:49Z</time>
      </trkpt>
      <trkpt lat="38.183324" lon="-4.015969">
        <ele>474.1</ele>
        <time>2009-04-08T08:06:14Z</time>
      </trkpt>
      <trkpt lat="38.183321" lon="-4.015968">
        <ele>475.5</ele>
        <time>2009-04-08T08:06:37Z</time>
      </trkpt>
      <trkpt lat="38.183305" lon="-4.015977">
        <ele>476.5</ele>
        <time>2009-04-08T08:07:21Z</time>
      </trkpt>
      <trkpt lat="38.183321" lon="-4.015994">
        <ele>477.4</ele>
        <time>2009-04-08T08:08:29Z</time>
      </trkpt>
      <trkpt lat="38.183375" lon="-4.015965">
        <ele>475.5</ele>
        <time>2009-04-08T08:08:34Z</time>
      </trkpt>
      <trkpt lat="38.183383" lon="-4.015890">
        <ele>473.1</ele>
        <time>2009-04-08T08:08:42Z</time>
      </trkpt>
      <trkpt lat="38.183367" lon="-4.015823">
        <ele>472.1</ele>
        <time>2009-04-08T08:08:47Z</time>
      </trkpt>
      <trkpt lat="38.183273" lon="-4.015549">
        <ele>469.3</ele>
        <time>2009-04-08T08:09:06Z</time>
      </trkpt>
      <trkpt lat="38.183113" lon="-4.015269">
        <ele>465.9</ele>
        <time>2009-04-08T08:09:27Z</time>
      </trkpt>
      <trkpt lat="38.182984" lon="-4.015120">
        <ele>464.9</ele>
        <time>2009-04-08T08:09:43Z</time>
      </trkpt>
      <trkpt lat="38.182937" lon="-4.015059">
        <ele>465.9</ele>
        <time>2009-04-08T08:09:58Z</time>
      </trkpt>
      <trkpt lat="38.182907" lon="-4.015012">
        <ele>464.9</ele>
        <time>2009-04-08T08:10:14Z</time>
      </trkpt>
      <trkpt lat="38.182898" lon="-4.014995">
        <ele>465.9</ele>
        <time>2009-04-08T08:10:37Z</time>
      </trkpt>
      <trkpt lat="38.182882" lon="-4.014951">
        <ele>467.3</ele>
        <time>2009-04-08T08:10:56Z</time>
      </trkpt>
      <trkpt lat="38.182875" lon="-4.014946">
        <ele>467.3</ele>
        <time>2009-04-08T08:11:42Z</time>
      </trkpt>
      <trkpt lat="38.182862" lon="-4.014942">
        <ele>467.8</ele>
        <time>2009-04-08T08:12:38Z</time>
      </trkpt>
      <trkpt lat="38.182845" lon="-4.014919">
        <ele>468.3</ele>
        <time>2009-04-08T08:12:42Z</time>
      </trkpt>
      <trkpt lat="38.182824" lon="-4.014850">
        <ele>468.3</ele>
        <time>2009-04-08T08:12:47Z</time>
      </trkpt>
      <trkpt lat="38.182617" lon="-4.014771">
        <ele>470.2</ele>
        <time>2009-04-08T08:13:06Z</time>
      </trkpt>
      <trkpt lat="38.182353" lon="-4.014847">
        <ele>470.7</ele>
        <time>2009-04-08T08:13:29Z</time>
      </trkpt>
      <trkpt lat="38.182328" lon="-4.014846">
        <ele>472.6</ele>
        <time>2009-04-08T08:13:44Z</time>
      </trkpt>
      <trkpt lat="38.182250" lon="-4.014861">
        <ele>474.1</ele>
        <time>2009-04-08T08:14:04Z</time>
      </trkpt>
      <trkpt lat="38.182246" lon="-4.014840">
        <ele>470.2</ele>
        <time>2009-04-08T08:14:24Z</time>
      </trkpt>
      <trkpt lat="38.182229" lon="-4.014798">
        <ele>473.1</ele>
        <time>2009-04-08T08:15:06Z</time>
      </trkpt>
      <trkpt lat="38.182098" lon="-4.014830">
        <ele>474.1</ele>
        <time>2009-04-08T08:15:22Z</time>
      </trkpt>
      <trkpt lat="38.182062" lon="-4.014846">
        <ele>474.5</ele>
        <time>2009-04-08T08:15:26Z</time>
      </trkpt>
      <trkpt lat="38.181972" lon="-4.014901">
        <ele>473.6</ele>
        <time>2009-04-08T08:15:35Z</time>
      </trkpt>
      <trkpt lat="38.181869" lon="-4.014906">
        <ele>475.5</ele>
        <time>2009-04-08T08:15:51Z</time>
      </trkpt>
      <trkpt lat="38.181815" lon="-4.014855">
        <ele>478.9</ele>
        <time>2009-04-08T08:16:26Z</time>
      </trkpt>
      <trkpt lat="38.181803" lon="-4.014839">
        <ele>477.9</ele>
        <time>2009-04-08T08:16:28Z</time>
      </trkpt>
      <trkpt lat="38.181674" lon="-4.014680">
        <ele>474.5</ele>
        <time>2009-04-08T08:16:45Z</time>
      </trkpt>
      <trkpt lat="38.181556" lon="-4.014553">
        <ele>473.1</ele>
        <time>2009-04-08T08:16:58Z</time>
      </trkpt>
      <trkpt lat="38.181449" lon="-4.014409">
        <ele>474.5</ele>
        <time>2009-04-08T08:17:11Z</time>
      </trkpt>
      <trkpt lat="38.181422" lon="-4.014391">
        <ele>474.5</ele>
        <time>2009-04-08T08:17:14Z</time>
      </trkpt>
      <trkpt lat="38.181387" lon="-4.014382">
        <ele>474.5</ele>
        <time>2009-04-08T08:17:17Z</time>
      </trkpt>
      <trkpt lat="38.181246" lon="-4.014269">
        <ele>480.3</ele>
        <time>2009-04-08T08:17:31Z</time>
      </trkpt>
      <trkpt lat="38.181136" lon="-4.014236">
        <ele>477.9</ele>
        <time>2009-04-08T08:17:45Z</time>
      </trkpt>
      <trkpt lat="38.181125" lon="-4.014233">
        <ele>478.4</ele>
        <time>2009-04-08T08:17:46Z</time>
      </trkpt>
      <trkpt lat="38.180961" lon="-4.014254">
        <ele>476.0</ele>
        <time>2009-04-08T08:18:02Z</time>
      </trkpt>
      <trkpt lat="38.180800" lon="-4.014312">
        <ele>475.5</ele>
        <time>2009-04-08T08:18:18Z</time>
      </trkpt>
      <trkpt lat="38.180715" lon="-4.014359">
        <ele>477.0</ele>
        <time>2009-04-08T08:18:26Z</time>
      </trkpt>
      <trkpt lat="38.180590" lon="-4.014397">
        <ele>480.3</ele>
        <time>2009-04-08T08:18:39Z</time>
      </trkpt>
      <trkpt lat="38.180495" lon="-4.014394">
        <ele>480.8</ele>
        <time>2009-04-08T08:18:48Z</time>
      </trkpt>
      <trkpt lat="38.180318" lon="-4.014336">
        <ele>482.2</ele>
        <time>2009-04-08T08:19:03Z</time>
      </trkpt>
      <trkpt lat="38.180114" lon="-4.014318">
        <ele>484.2</ele>
        <time>2009-04-08T08:19:19Z</time>
      </trkpt>
      <trkpt lat="38.179917" lon="-4.014402">
        <ele>484.6</ele>
        <time>2009-04-08T08:19:38Z</time>
      </trkpt>
      <trkpt lat="38.179744" lon="-4.014503">
        <ele>481.8</ele>
        <time>2009-04-08T08:19:55Z</time>
      </trkpt>
      <trkpt lat="38.179628" lon="-4.014524">
        <ele>480.8</ele>
        <time>2009-04-08T08:20:04Z</time>
      </trkpt>
      <trkpt lat="38.179483" lon="-4.014512">
        <ele>476.5</ele>
        <time>2009-04-08T08:20:18Z</time>
      </trkpt>
      <trkpt lat="38.179471" lon="-4.014514">
        <ele>476.0</ele>
        <time>2009-04-08T08:20:19Z</time>
      </trkpt>
      <trkpt lat="38.179373" lon="-4.014496">
        <ele>474.1</ele>
        <time>2009-04-08T08:20:29Z</time>
      </trkpt>
      <trkpt lat="38.179237" lon="-4.014502">
        <ele>472.1</ele>
        <time>2009-04-08T08:20:43Z</time>
      </trkpt>
      <trkpt lat="38.179048" lon="-4.014511">
        <ele>471.7</ele>
        <time>2009-04-08T08:20:59Z</time>
      </trkpt>
      <trkpt lat="38.178893" lon="-4.014505">
        <ele>472.6</ele>
        <time>2009-04-08T08:21:14Z</time>
      </trkpt>
      <trkpt lat="38.178800" lon="-4.014553">
        <ele>477.4</ele>
        <time>2009-04-08T08:21:32Z</time>
      </trkpt>
      <trkpt lat="38.178718" lon="-4.014521">
        <ele>477.4</ele>
        <time>2009-04-08T08:21:51Z</time>
      </trkpt>
      <trkpt lat="38.178653" lon="-4.014526">
        <ele>477.4</ele>
        <time>2009-04-08T08:21:57Z</time>
      </trkpt>
      <trkpt lat="38.178489" lon="-4.014420">
        <ele>476.5</ele>
        <time>2009-04-08T08:22:13Z</time>
      </trkpt>
      <trkpt lat="38.178393" lon="-4.014161">
        <ele>475.0</ele>
        <time>2009-04-08T08:22:32Z</time>
      </trkpt>
      <trkpt lat="38.178381" lon="-4.014129">
        <ele>475.5</ele>
        <time>2009-04-08T08:22:34Z</time>
      </trkpt>
      <trkpt lat="38.178285" lon="-4.013925">
        <ele>474.1</ele>
        <time>2009-04-08T08:22:51Z</time>
      </trkpt>
      <trkpt lat="38.178247" lon="-4.013683">
        <ele>473.6</ele>
        <time>2009-04-08T08:23:09Z</time>
      </trkpt>
      <trkpt lat="38.178194" lon="-4.013436">
        <ele>475.5</ele>
        <time>2009-04-08T08:23:26Z</time>
      </trkpt>
      <trkpt lat="38.178170" lon="-4.013338">
        <ele>476.0</ele>
        <time>2009-04-08T08:23:35Z</time>
      </trkpt>
      <trkpt lat="38.178058" lon="-4.013149">
        <ele>475.5</ele>
        <time>2009-04-08T08:23:52Z</time>
      </trkpt>
      <trkpt lat="38.177972" lon="-4.013079">
        <ele>475.5</ele>
        <time>2009-04-08T08:24:01Z</time>
      </trkpt>
      <trkpt lat="38.177950" lon="-4.013078">
        <ele>474.5</ele>
        <time>2009-04-08T08:24:03Z</time>
      </trkpt>
      <trkpt lat="38.177833" lon="-4.013034">
        <ele>474.1</ele>
        <time>2009-04-08T08:24:14Z</time>
      </trkpt>
      <trkpt lat="38.177593" lon="-4.012982">
        <ele>474.5</ele>
        <time>2009-04-08T08:24:35Z</time>
      </trkpt>
      <trkpt lat="38.177469" lon="-4.012915">
        <ele>475.0</ele>
        <time>2009-04-08T08:24:48Z</time>
      </trkpt>
      <trkpt lat="38.177313" lon="-4.012860">
        <ele>474.5</ele>
        <time>2009-04-08T08:25:02Z</time>
      </trkpt>
      <trkpt lat="38.177173" lon="-4.012803">
        <ele>472.1</ele>
        <time>2009-04-08T08:25:14Z</time>
      </trkpt>
      <trkpt lat="38.177051" lon="-4.012740">
        <ele>471.2</ele>
        <time>2009-04-08T08:25:26Z</time>
      </trkpt>
      <trkpt lat="38.176915" lon="-4.012685">
        <ele>469.3</ele>
        <time>2009-04-08T08:25:39Z</time>
      </trkpt>
      <trkpt lat="38.176730" lon="-4.012608">
        <ele>466.4</ele>
        <time>2009-04-08T08:25:55Z</time>
      </trkpt>
      <trkpt lat="38.176578" lon="-4.012480">
        <ele>467.8</ele>
        <time>2009-04-08T08:26:10Z</time>
      </trkpt>
      <trkpt lat="38.176569" lon="-4.012470">
        <ele>467.3</ele>
        <time>2009-04-08T08:26:11Z</time>
      </trkpt>
      <trkpt lat="38.176564" lon="-4.012309">
        <ele>467.3</ele>
        <time>2009-04-08T08:26:24Z</time>
      </trkpt>
      <trkpt lat="38.176629" lon="-4.012095">
        <ele>467.8</ele>
        <time>2009-04-08T08:26:42Z</time>
      </trkpt>
      <trkpt lat="38.176622" lon="-4.012033">
        <ele>470.2</ele>
        <time>2009-04-08T08:27:03Z</time>
      </trkpt>
      <trkpt lat="38.176647" lon="-4.011974">
        <ele>468.8</ele>
        <time>2009-04-08T08:27:29Z</time>
      </trkpt>
      <trkpt lat="38.176647" lon="-4.011939">
        <ele>468.8</ele>
        <time>2009-04-08T08:27:48Z</time>
      </trkpt>
      <trkpt lat="38.176639" lon="-4.011932">
        <ele>468.8</ele>
        <time>2009-04-08T08:28:15Z</time>
      </trkpt>
      <trkpt lat="38.176616" lon="-4.011925">
        <ele>472.6</ele>
        <time>2009-04-08T08:29:33Z</time>
      </trkpt>
      <trkpt lat="38.176627" lon="-4.011934">
        <ele>472.1</ele>
        <time>2009-04-08T08:29:58Z</time>
      </trkpt>
      <trkpt lat="38.176630" lon="-4.011960">
        <ele>466.9</ele>
        <time>2009-04-08T08:30:22Z</time>
      </trkpt>
      <trkpt lat="38.176639" lon="-4.011946">
        <ele>468.3</ele>
        <time>2009-04-08T08:31:49Z</time>
      </trkpt>
      <trkpt lat="38.176650" lon="-4.011907">
        <ele>469.7</ele>
        <time>2009-04-08T08:34:23Z</time>
      </trkpt>
      <trkpt lat="38.176635" lon="-4.011935">
        <ele>467.8</ele>
        <time>2009-04-08T08:34:55Z</time>
      </trkpt>
      <trkpt lat="38.176632" lon="-4.011925">
        <ele>468.8</ele>
        <time>2009-04-08T08:36:09Z</time>
      </trkpt>
      <trkpt lat="38.176671" lon="-4.012007">
        <ele>464.5</ele>
        <time>2009-04-08T09:19:16Z</time>
      </trkpt>
      <trkpt lat="38.176640" lon="-4.012013">
        <ele>462.1</ele>
        <time>2009-04-08T09:19:36Z</time>
      </trkpt>
      <trkpt lat="38.176627" lon="-4.012002">
        <ele>464.5</ele>
        <time>2009-04-08T09:19:56Z</time>
      </trkpt>
      <trkpt lat="38.176623" lon="-4.011965">
        <ele>462.5</ele>
        <time>2009-04-08T09:20:12Z</time>
      </trkpt>
      <trkpt lat="38.176635" lon="-4.011902">
        <ele>463.5</ele>
        <time>2009-04-08T09:20:26Z</time>
      </trkpt>
      <trkpt lat="38.176666" lon="-4.011808">
        <ele>463.5</ele>
        <time>2009-04-08T09:20:43Z</time>
      </trkpt>
      <trkpt lat="38.176729" lon="-4.011569">
        <ele>463.0</ele>
        <time>2009-04-08T09:20:59Z</time>
      </trkpt>
      <trkpt lat="38.176810" lon="-4.011249">
        <ele>462.5</ele>
        <time>2009-04-08T09:21:17Z</time>
      </trkpt>
      <trkpt lat="38.176870" lon="-4.011033">
        <ele>459.6</ele>
        <time>2009-04-08T09:21:31Z</time>
      </trkpt>
      <trkpt lat="38.176967" lon="-4.010754">
        <ele>457.2</ele>
        <time>2009-04-08T09:21:50Z</time>
      </trkpt>
      <trkpt lat="38.177043" lon="-4.010478">
        <ele>456.3</ele>
        <time>2009-04-08T09:22:07Z</time>
      </trkpt>
      <trkpt lat="38.177061" lon="-4.010377">
        <ele>455.8</ele>
        <time>2009-04-08T09:22:13Z</time>
      </trkpt>
      <trkpt lat="38.177103" lon="-4.010284">
        <ele>455.3</ele>
        <time>2009-04-08T09:22:18Z</time>
      </trkpt>
      <trkpt lat="38.177122" lon="-4.009979">
        <ele>451.0</ele>
        <time>2009-04-08T09:22:37Z</time>
      </trkpt>
      <trkpt lat="38.177145" lon="-4.009723">
        <ele>449.6</ele>
        <time>2009-04-08T09:22:52Z</time>
      </trkpt>
      <trkpt lat="38.177151" lon="-4.009469">
        <ele>449.1</ele>
        <time>2009-04-08T09:23:06Z</time>
      </trkpt>
      <trkpt lat="38.177167" lon="-4.009157">
        <ele>445.2</ele>
        <time>2009-04-08T09:23:24Z</time>
      </trkpt>
      <trkpt lat="38.177172" lon="-4.009077">
        <ele>443.3</ele>
        <time>2009-04-08T09:23:29Z</time>
      </trkpt>
      <trkpt lat="38.177188" lon="-4.008960">
        <ele>440.9</ele>
        <time>2009-04-08T09:23:36Z</time>
      </trkpt>
      <trkpt lat="38.177205" lon="-4.008867">
        <ele>439.0</ele>
        <time>2009-04-08T09:23:42Z</time>
      </trkpt>
      <trkpt lat="38.177251" lon="-4.008573">
        <ele>432.7</ele>
        <time>2009-04-08T09:24:02Z</time>
      </trkpt>
      <trkpt lat="38.177271" lon="-4.008285">
        <ele>429.8</ele>
        <time>2009-04-08T09:24:19Z</time>
      </trkpt>
      <trkpt lat="38.177331" lon="-4.008018">
        <ele>431.3</ele>
        <time>2009-04-08T09:24:36Z</time>
      </trkpt>
      <trkpt lat="38.177335" lon="-4.007911">
        <ele>432.2</ele>
        <time>2009-04-08T09:24:57Z</time>
      </trkpt>
      <trkpt lat="38.177373" lon="-4.007895">
        <ele>431.8</ele>
        <time>2009-04-08T09:25:22Z</time>
      </trkpt>
      <trkpt lat="38.177391" lon="-4.007851">
        <ele>433.2</ele>
        <time>2009-04-08T09:25:39Z</time>
      </trkpt>
      <trkpt lat="38.177387" lon="-4.007819">
        <ele>436.6</ele>
        <time>2009-04-08T09:26:08Z</time>
      </trkpt>
      <trkpt lat="38.177381" lon="-4.007787">
        <ele>439.5</ele>
        <time>2009-04-08T09:27:17Z</time>
      </trkpt>
      <trkpt lat="38.177401" lon="-4.007818">
        <ele>433.7</ele>
        <time>2009-04-08T09:27:32Z</time>
      </trkpt>
      <trkpt lat="38.177428" lon="-4.007828">
        <ele>427.9</ele>
        <time>2009-04-08T09:28:00Z</time>
      </trkpt>
      <trkpt lat="38.177350" lon="-4.007689">
        <ele>431.8</ele>
        <time>2009-04-08T09:28:30Z</time>
      </trkpt>
      <trkpt lat="38.177220" lon="-4.007698">
        <ele>430.3</ele>
        <time>2009-04-08T09:28:40Z</time>
      </trkpt>
      <trkpt lat="38.177161" lon="-4.007614">
        <ele>429.8</ele>
        <time>2009-04-08T09:28:45Z</time>
      </trkpt>
      <trkpt lat="38.176973" lon="-4.007421">
        <ele>431.8</ele>
        <time>2009-04-08T09:29:02Z</time>
      </trkpt>
      <trkpt lat="38.176771" lon="-4.007224">
        <ele>428.4</ele>
        <time>2009-04-08T09:29:20Z</time>
      </trkpt>
      <trkpt lat="38.176610" lon="-4.007125">
        <ele>427.0</ele>
        <time>2009-04-08T09:29:34Z</time>
      </trkpt>
      <trkpt lat="38.176411" lon="-4.007078">
        <ele>418.3</ele>
        <time>2009-04-08T09:29:52Z</time>
      </trkpt>
      <trkpt lat="38.176391" lon="-4.007069">
        <ele>417.3</ele>
        <time>2009-04-08T09:29:54Z</time>
      </trkpt>
      <trkpt lat="38.176373" lon="-4.007047">
        <ele>417.3</ele>
        <time>2009-04-08T09:29:56Z</time>
      </trkpt>
      <trkpt lat="38.176327" lon="-4.007025">
        <ele>416.9</ele>
        <time>2009-04-08T09:30:00Z</time>
      </trkpt>
      <trkpt lat="38.176254" lon="-4.006966">
        <ele>416.9</ele>
        <time>2009-04-08T09:30:05Z</time>
      </trkpt>
      <trkpt lat="38.176196" lon="-4.006910">
        <ele>417.8</ele>
        <time>2009-04-08T09:30:10Z</time>
      </trkpt>
      <trkpt lat="38.175996" lon="-4.006745">
        <ele>418.3</ele>
        <time>2009-04-08T09:30:28Z</time>
      </trkpt>
      <trkpt lat="38.175817" lon="-4.006611">
        <ele>417.8</ele>
        <time>2009-04-08T09:30:43Z</time>
      </trkpt>
      <trkpt lat="38.175606" lon="-4.006426">
        <ele>417.8</ele>
        <time>2009-04-08T09:31:00Z</time>
      </trkpt>
      <trkpt lat="38.175350" lon="-4.006509">
        <ele>416.9</ele>
        <time>2009-04-08T09:31:18Z</time>
      </trkpt>
      <trkpt lat="38.175080" lon="-4.006538">
        <ele>415.4</ele>
        <time>2009-04-08T09:31:38Z</time>
      </trkpt>
      <trkpt lat="38.174847" lon="-4.006563">
        <ele>416.4</ele>
        <time>2009-04-08T09:31:58Z</time>
      </trkpt>
      <trkpt lat="38.174656" lon="-4.006398">
        <ele>417.3</ele>
        <time>2009-04-08T09:32:16Z</time>
      </trkpt>
      <trkpt lat="38.174616" lon="-4.006243">
        <ele>416.9</ele>
        <time>2009-04-08T09:32:30Z</time>
      </trkpt>
      <trkpt lat="38.174623" lon="-4.006211">
        <ele>417.3</ele>
        <time>2009-04-08T09:32:40Z</time>
      </trkpt>
      <trkpt lat="38.174622" lon="-4.006128">
        <ele>415.9</ele>
        <time>2009-04-08T09:32:47Z</time>
      </trkpt>
      <trkpt lat="38.174511" lon="-4.005873">
        <ele>416.4</ele>
        <time>2009-04-08T09:33:06Z</time>
      </trkpt>
      <trkpt lat="38.174479" lon="-4.005815">
        <ele>418.8</ele>
        <time>2009-04-08T09:33:09Z</time>
      </trkpt>
      <trkpt lat="38.174357" lon="-4.005647">
        <ele>420.2</ele>
        <time>2009-04-08T09:33:24Z</time>
      </trkpt>
      <trkpt lat="38.174291" lon="-4.005568">
        <ele>423.6</ele>
        <time>2009-04-08T09:33:30Z</time>
      </trkpt>
      <trkpt lat="38.174223" lon="-4.005508">
        <ele>424.1</ele>
        <time>2009-04-08T09:33:50Z</time>
      </trkpt>
      <trkpt lat="38.174185" lon="-4.005451">
        <ele>431.8</ele>
        <time>2009-04-08T09:34:24Z</time>
      </trkpt>
      <trkpt lat="38.174185" lon="-4.005459">
        <ele>431.3</ele>
        <time>2009-04-08T09:34:25Z</time>
      </trkpt>
      <trkpt lat="38.174198" lon="-4.005509">
        <ele>427.9</ele>
        <time>2009-04-08T09:34:43Z</time>
      </trkpt>
      <trkpt lat="38.174221" lon="-4.005546">
        <ele>419.3</ele>
        <time>2009-04-08T09:35:39Z</time>
      </trkpt>
      <trkpt lat="38.174232" lon="-4.005549">
        <ele>414.0</ele>
        <time>2009-04-08T09:36:05Z</time>
      </trkpt>
      <trkpt lat="38.174214" lon="-4.005546">
        <ele>413.5</ele>
        <time>2009-04-08T09:36:10Z</time>
      </trkpt>
      <trkpt lat="38.174159" lon="-4.005502">
        <ele>414.0</ele>
        <time>2009-04-08T09:36:16Z</time>
      </trkpt>
      <trkpt lat="38.174069" lon="-4.005297">
        <ele>415.4</ele>
        <time>2009-04-08T09:36:33Z</time>
      </trkpt>
      <trkpt lat="38.173951" lon="-4.005084">
        <ele>411.6</ele>
        <time>2009-04-08T09:36:54Z</time>
      </trkpt>
      <trkpt lat="38.173838" lon="-4.004890">
        <ele>406.8</ele>
        <time>2009-04-08T09:37:13Z</time>
      </trkpt>
      <trkpt lat="38.173818" lon="-4.004869">
        <ele>406.8</ele>
        <time>2009-04-08T09:37:37Z</time>
      </trkpt>
      <trkpt lat="38.173792" lon="-4.004871">
        <ele>403.9</ele>
        <time>2009-04-08T09:38:02Z</time>
      </trkpt>
      <trkpt lat="38.173716" lon="-4.004885">
        <ele>402.4</ele>
        <time>2009-04-08T09:38:08Z</time>
      </trkpt>
      <trkpt lat="38.173460" lon="-4.004797">
        <ele>407.3</ele>
        <time>2009-04-08T09:38:28Z</time>
      </trkpt>
      <trkpt lat="38.173359" lon="-4.004735">
        <ele>404.4</ele>
        <time>2009-04-08T09:38:44Z</time>
      </trkpt>
      <trkpt lat="38.173332" lon="-4.004759">
        <ele>403.9</ele>
        <time>2009-04-08T09:39:40Z</time>
      </trkpt>
      <trkpt lat="38.173365" lon="-4.004723">
        <ele>402.0</ele>
        <time>2009-04-08T09:40:16Z</time>
      </trkpt>
      <trkpt lat="38.173373" lon="-4.004736">
        <ele>402.0</ele>
        <time>2009-04-08T09:41:04Z</time>
      </trkpt>
      <trkpt lat="38.173388" lon="-4.004712">
        <ele>405.3</ele>
        <time>2009-04-08T09:41:31Z</time>
      </trkpt>
      <trkpt lat="38.173421" lon="-4.004690">
        <ele>404.4</ele>
        <time>2009-04-08T09:41:50Z</time>
      </trkpt>
      <trkpt lat="38.173398" lon="-4.004709">
        <ele>405.3</ele>
        <time>2009-04-08T09:42:10Z</time>
      </trkpt>
      <trkpt lat="38.173355" lon="-4.004706">
        <ele>405.3</ele>
        <time>2009-04-08T09:42:14Z</time>
      </trkpt>
      <trkpt lat="38.173322" lon="-4.004659">
        <ele>406.3</ele>
        <time>2009-04-08T09:42:18Z</time>
      </trkpt>
      <trkpt lat="38.173263" lon="-4.004529">
        <ele>406.3</ele>
        <time>2009-04-08T09:42:27Z</time>
      </trkpt>
      <trkpt lat="38.173150" lon="-4.004324">
        <ele>405.8</ele>
        <time>2009-04-08T09:42:44Z</time>
      </trkpt>
      <trkpt lat="38.173069" lon="-4.004062">
        <ele>405.8</ele>
        <time>2009-04-08T09:43:02Z</time>
      </trkpt>
      <trkpt lat="38.172890" lon="-4.003858">
        <ele>402.9</ele>
        <time>2009-04-08T09:43:21Z</time>
      </trkpt>
      <trkpt lat="38.172643" lon="-4.003813">
        <ele>400.0</ele>
        <time>2009-04-08T09:43:40Z</time>
      </trkpt>
      <trkpt lat="38.172446" lon="-4.003631">
        <ele>398.6</ele>
        <time>2009-04-08T09:43:59Z</time>
      </trkpt>
      <trkpt lat="38.172312" lon="-4.003306">
        <ele>401.5</ele>
        <time>2009-04-08T09:44:20Z</time>
      </trkpt>
      <trkpt lat="38.172289" lon="-4.003220">
        <ele>401.0</ele>
        <time>2009-04-08T09:44:36Z</time>
      </trkpt>
      <trkpt lat="38.172303" lon="-4.003200">
        <ele>400.5</ele>
        <time>2009-04-08T09:45:19Z</time>
      </trkpt>
      <trkpt lat="38.172320" lon="-4.003218">
        <ele>398.1</ele>
        <time>2009-04-08T09:46:04Z</time>
      </trkpt>
      <trkpt lat="38.172278" lon="-4.003233">
        <ele>389.5</ele>
        <time>2009-04-08T09:47:06Z</time>
      </trkpt>
      <trkpt lat="38.172294" lon="-4.003174">
        <ele>382.3</ele>
        <time>2009-04-08T09:47:33Z</time>
      </trkpt>
      <trkpt lat="38.172268" lon="-4.003172">
        <ele>382.3</ele>
        <time>2009-04-08T09:47:45Z</time>
      </trkpt>
      <trkpt lat="38.172249" lon="-4.003096">
        <ele>380.8</ele>
        <time>2009-04-08T09:48:00Z</time>
      </trkpt>
      <trkpt lat="38.172277" lon="-4.003135">
        <ele>378.4</ele>
        <time>2009-04-08T09:48:21Z</time>
      </trkpt>
      <trkpt lat="38.172283" lon="-4.003164">
        <ele>380.8</ele>
        <time>2009-04-08T09:48:46Z</time>
      </trkpt>
      <trkpt lat="38.172310" lon="-4.003152">
        <ele>370.7</ele>
        <time>2009-04-08T09:49:10Z</time>
      </trkpt>
      <trkpt lat="38.172373" lon="-4.003222">
        <ele>352.0</ele>
        <time>2009-04-08T09:49:38Z</time>
      </trkpt>
      <trkpt lat="38.172294" lon="-4.003187">
        <ele>365.4</ele>
        <time>2009-04-08T09:50:02Z</time>
      </trkpt>
      <trkpt lat="38.172196" lon="-4.003080">
        <ele>375.5</ele>
        <time>2009-04-08T09:50:27Z</time>
      </trkpt>
      <trkpt lat="38.172112" lon="-4.003071">
        <ele>377.9</ele>
        <time>2009-04-08T09:50:35Z</time>
      </trkpt>
      <trkpt lat="38.171940" lon="-4.002943">
        <ele>382.3</ele>
        <time>2009-04-08T09:50:54Z</time>
      </trkpt>
      <trkpt lat="38.171822" lon="-4.002812">
        <ele>382.3</ele>
        <time>2009-04-08T09:51:10Z</time>
      </trkpt>
      <trkpt lat="38.171796" lon="-4.002864">
        <ele>385.1</ele>
        <time>2009-04-08T09:51:20Z</time>
      </trkpt>
      <trkpt lat="38.171730" lon="-4.002866">
        <ele>383.2</ele>
        <time>2009-04-08T09:51:26Z</time>
      </trkpt>
      <trkpt lat="38.171667" lon="-4.002804">
        <ele>386.1</ele>
        <time>2009-04-08T09:51:34Z</time>
      </trkpt>
      <trkpt lat="38.171555" lon="-4.002718">
        <ele>390.0</ele>
        <time>2009-04-08T09:51:48Z</time>
      </trkpt>
      <trkpt lat="38.171448" lon="-4.002666">
        <ele>393.8</ele>
        <time>2009-04-08T09:52:01Z</time>
      </trkpt>
      <trkpt lat="38.171442" lon="-4.002658">
        <ele>393.8</ele>
        <time>2009-04-08T09:52:02Z</time>
      </trkpt>
      <trkpt lat="38.171323" lon="-4.002384">
        <ele>389.0</ele>
        <time>2009-04-08T09:52:22Z</time>
      </trkpt>
      <trkpt lat="38.171211" lon="-4.002227">
        <ele>388.0</ele>
        <time>2009-04-08T09:52:38Z</time>
      </trkpt>
      <trkpt lat="38.171155" lon="-4.002009">
        <ele>389.0</ele>
        <time>2009-04-08T09:52:53Z</time>
      </trkpt>
      <trkpt lat="38.171083" lon="-4.001790">
        <ele>386.1</ele>
        <time>2009-04-08T09:53:11Z</time>
      </trkpt>
      <trkpt lat="38.171077" lon="-4.001778">
        <ele>385.1</ele>
        <time>2009-04-08T09:53:12Z</time>
      </trkpt>
      <trkpt lat="38.171017" lon="-4.001654">
        <ele>377.0</ele>
        <time>2009-04-08T09:53:29Z</time>
      </trkpt>
      <trkpt lat="38.170974" lon="-4.001544">
        <ele>372.6</ele>
        <time>2009-04-08T09:53:38Z</time>
      </trkpt>
      <trkpt lat="38.170952" lon="-4.001467">
        <ele>369.8</ele>
        <time>2009-04-08T09:53:43Z</time>
      </trkpt>
      <trkpt lat="38.170781" lon="-4.001333">
        <ele>363.5</ele>
        <time>2009-04-08T09:53:58Z</time>
      </trkpt>
      <trkpt lat="38.170691" lon="-4.001258">
        <ele>361.1</ele>
        <time>2009-04-08T09:54:06Z</time>
      </trkpt>
      <trkpt lat="38.170618" lon="-4.001163">
        <ele>359.2</ele>
        <time>2009-04-08T09:54:15Z</time>
      </trkpt>
      <trkpt lat="38.170609" lon="-4.001137">
        <ele>358.7</ele>
        <time>2009-04-08T09:54:17Z</time>
      </trkpt>
      <trkpt lat="38.170486" lon="-4.000850">
        <ele>353.9</ele>
        <time>2009-04-08T09:54:38Z</time>
      </trkpt>
      <trkpt lat="38.170374" lon="-4.000627">
        <ele>350.1</ele>
        <time>2009-04-08T09:54:55Z</time>
      </trkpt>
      <trkpt lat="38.170247" lon="-4.000451">
        <ele>354.4</ele>
        <time>2009-04-08T09:55:12Z</time>
      </trkpt>
      <trkpt lat="38.170200" lon="-4.000200">
        <ele>353.4</ele>
        <time>2009-04-08T09:55:31Z</time>
      </trkpt>
      <trkpt lat="38.170183" lon="-4.000144">
        <ele>350.1</ele>
        <time>2009-04-08T09:56:14Z</time>
      </trkpt>
      <trkpt lat="38.170158" lon="-4.000106">
        <ele>351.5</ele>
        <time>2009-04-08T09:56:20Z</time>
      </trkpt>
      <trkpt lat="38.170174" lon="-4.000043">
        <ele>350.5</ele>
        <time>2009-04-08T09:56:26Z</time>
      </trkpt>
      <trkpt lat="38.170160" lon="-3.999961">
        <ele>349.6</ele>
        <time>2009-04-08T09:56:32Z</time>
      </trkpt>
      <trkpt lat="38.170042" lon="-3.999804">
        <ele>344.3</ele>
        <time>2009-04-08T09:56:51Z</time>
      </trkpt>
      <trkpt lat="38.170016" lon="-3.999772">
        <ele>340.4</ele>
        <time>2009-04-08T09:57:05Z</time>
      </trkpt>
      <trkpt lat="38.169918" lon="-3.999738">
        <ele>340.0</ele>
        <time>2009-04-08T09:57:14Z</time>
      </trkpt>
      <trkpt lat="38.169801" lon="-3.999659">
        <ele>340.9</ele>
        <time>2009-04-08T09:57:28Z</time>
      </trkpt>
      <trkpt lat="38.169726" lon="-3.999450">
        <ele>341.4</ele>
        <time>2009-04-08T09:57:46Z</time>
      </trkpt>
      <trkpt lat="38.169648" lon="-3.999232">
        <ele>339.0</ele>
        <time>2009-04-08T09:58:06Z</time>
      </trkpt>
      <trkpt lat="38.169606" lon="-3.999142">
        <ele>337.1</ele>
        <time>2009-04-08T09:58:24Z</time>
      </trkpt>
      <trkpt lat="38.169538" lon="-3.998998">
        <ele>329.9</ele>
        <time>2009-04-08T10:01:00Z</time>
      </trkpt>
      <trkpt lat="38.169498" lon="-3.998931">
        <ele>327.0</ele>
        <time>2009-04-08T10:01:16Z</time>
      </trkpt>
      <trkpt lat="38.169417" lon="-3.998821">
        <ele>324.6</ele>
        <time>2009-04-08T10:01:32Z</time>
      </trkpt>
      <trkpt lat="38.169371" lon="-3.998796">
        <ele>325.1</ele>
        <time>2009-04-08T10:01:38Z</time>
      </trkpt>
      <trkpt lat="38.169303" lon="-3.998760">
        <ele>324.6</ele>
        <time>2009-04-08T10:01:44Z</time>
      </trkpt>
      <trkpt lat="38.169072" lon="-3.998637">
        <ele>318.3</ele>
        <time>2009-04-08T10:02:02Z</time>
      </trkpt>
      <trkpt lat="38.168847" lon="-3.998460">
        <ele>315.9</ele>
        <time>2009-04-08T10:02:23Z</time>
      </trkpt>
      <trkpt lat="38.168679" lon="-3.998440">
        <ele>323.6</ele>
        <time>2009-04-08T10:02:40Z</time>
      </trkpt>
      <trkpt lat="38.168583" lon="-3.998458">
        <ele>329.9</ele>
        <time>2009-04-08T10:02:54Z</time>
      </trkpt>
      <trkpt lat="38.168463" lon="-3.998554">
        <ele>331.8</ele>
        <time>2009-04-08T10:03:09Z</time>
      </trkpt>
      <trkpt lat="38.168342" lon="-3.998597">
        <ele>325.1</ele>
        <time>2009-04-08T10:03:21Z</time>
      </trkpt>
      <trkpt lat="38.168164" lon="-3.998772">
        <ele>325.5</ele>
        <time>2009-04-08T10:03:40Z</time>
      </trkpt>
      <trkpt lat="38.168142" lon="-3.998743">
        <ele>322.7</ele>
        <time>2009-04-08T10:03:58Z</time>
      </trkpt>
      <trkpt lat="38.168144" lon="-3.998761">
        <ele>325.1</ele>
        <time>2009-04-08T10:04:31Z</time>
      </trkpt>
      <trkpt lat="38.168116" lon="-3.998778">
        <ele>336.6</ele>
        <time>2009-04-08T10:04:57Z</time>
      </trkpt>
      <trkpt lat="38.167925" lon="-3.998693">
        <ele>338.5</ele>
        <time>2009-04-08T10:05:15Z</time>
      </trkpt>
      <trkpt lat="38.167733" lon="-3.998601">
        <ele>339.0</ele>
        <time>2009-04-08T10:05:34Z</time>
      </trkpt>
      <trkpt lat="38.167587" lon="-3.998411">
        <ele>338.0</ele>
        <time>2009-04-08T10:05:53Z</time>
      </trkpt>
      <trkpt lat="38.167396" lon="-3.998344">
        <ele>335.6</ele>
        <time>2009-04-08T10:06:13Z</time>
      </trkpt>
      <trkpt lat="38.167343" lon="-3.998309">
        <ele>335.2</ele>
        <time>2009-04-08T10:06:28Z</time>
      </trkpt>
      <trkpt lat="38.167268" lon="-3.998297">
        <ele>334.7</ele>
        <time>2009-04-08T10:06:49Z</time>
      </trkpt>
      <trkpt lat="38.167155" lon="-3.998333">
        <ele>333.7</ele>
        <time>2009-04-08T10:07:06Z</time>
      </trkpt>
      <trkpt lat="38.167076" lon="-3.998343">
        <ele>331.3</ele>
        <time>2009-04-08T10:07:19Z</time>
      </trkpt>
      <trkpt lat="38.166999" lon="-3.998315">
        <ele>329.4</ele>
        <time>2009-04-08T10:07:33Z</time>
      </trkpt>
      <trkpt lat="38.166945" lon="-3.998340">
        <ele>319.3</ele>
        <time>2009-04-08T10:07:53Z</time>
      </trkpt>
      <trkpt lat="38.166769" lon="-3.998305">
        <ele>294.8</ele>
        <time>2009-04-08T10:08:08Z</time>
      </trkpt>
      <trkpt lat="38.166671" lon="-3.998256">
        <ele>281.8</ele>
        <time>2009-04-08T10:08:23Z</time>
      </trkpt>
      <trkpt lat="38.166605" lon="-3.998226">
        <ele>275.1</ele>
        <time>2009-04-08T10:08:36Z</time>
      </trkpt>
      <trkpt lat="38.166521" lon="-3.998159">
        <ele>267.9</ele>
        <time>2009-04-08T10:08:53Z</time>
      </trkpt>
      <trkpt lat="38.166375" lon="-3.998126">
        <ele>257.8</ele>
        <time>2009-04-08T10:09:09Z</time>
      </trkpt>
      <trkpt lat="38.166219" lon="-3.998131">
        <ele>250.6</ele>
        <time>2009-04-08T10:09:25Z</time>
      </trkpt>
      <trkpt lat="38.166166" lon="-3.998121">
        <ele>246.7</ele>
        <time>2009-04-08T10:09:32Z</time>
      </trkpt>
      <trkpt lat="38.166054" lon="-3.998259">
        <ele>236.1</ele>
        <time>2009-04-08T10:09:51Z</time>
      </trkpt>
      <trkpt lat="38.165983" lon="-3.998311">
        <ele>231.3</ele>
        <time>2009-04-08T10:10:08Z</time>
      </trkpt>
      <trkpt lat="38.165961" lon="-3.998384">
        <ele>232.3</ele>
        <time>2009-04-08T10:10:29Z</time>
      </trkpt>
      <trkpt lat="38.165930" lon="-3.998347">
        <ele>229.4</ele>
        <time>2009-04-08T10:10:38Z</time>
      </trkpt>
      <trkpt lat="38.165851" lon="-3.998267">
        <ele>223.2</ele>
        <time>2009-04-08T10:10:52Z</time>
      </trkpt>
      <trkpt lat="38.165757" lon="-3.998084">
        <ele>218.8</ele>
        <time>2009-04-08T10:11:15Z</time>
      </trkpt>
      <trkpt lat="38.165743" lon="-3.998133">
        <ele>229.4</ele>
        <time>2009-04-08T10:12:34Z</time>
      </trkpt>
      <trkpt lat="38.165679" lon="-3.997867">
        <ele>236.1</ele>
        <time>2009-04-08T10:13:06Z</time>
      </trkpt>
      <trkpt lat="38.165727" lon="-3.997748">
        <ele>260.2</ele>
        <time>2009-04-08T10:13:22Z</time>
      </trkpt>
      <trkpt lat="38.165672" lon="-3.997712">
        <ele>247.7</ele>
        <time>2009-04-08T10:13:38Z</time>
      </trkpt>
      <trkpt lat="38.165697" lon="-3.997728">
        <ele>245.3</ele>
        <time>2009-04-08T10:24:12Z</time>
      </trkpt>
      <trkpt lat="38.165750" lon="-3.997697">
        <ele>252.0</ele>
        <time>2009-04-08T10:24:39Z</time>
      </trkpt>
      <trkpt lat="38.165742" lon="-3.997770">
        <ele>250.1</ele>
        <time>2009-04-08T10:25:23Z</time>
      </trkpt>
      <trkpt lat="38.165743" lon="-3.997750">
        <ele>244.8</ele>
        <time>2009-04-08T10:26:09Z</time>
      </trkpt>
      <trkpt lat="38.165681" lon="-3.997660">
        <ele>238.5</ele>
        <time>2009-04-08T10:26:52Z</time>
      </trkpt>
      <trkpt lat="38.165706" lon="-3.997688">
        <ele>236.1</ele>
        <time>2009-04-08T10:27:08Z</time>
      </trkpt>
      <trkpt lat="38.165726" lon="-3.997744">
        <ele>250.6</ele>
        <time>2009-04-08T10:28:08Z</time>
      </trkpt>
      <trkpt lat="38.165780" lon="-3.997727">
        <ele>254.9</ele>
        <time>2009-04-08T10:29:15Z</time>
      </trkpt>
      <trkpt lat="38.165712" lon="-3.997655">
        <ele>260.7</ele>
        <time>2009-04-08T10:29:53Z</time>
      </trkpt>
      <trkpt lat="38.165668" lon="-3.997570">
        <ele>255.4</ele>
        <time>2009-04-08T10:30:07Z</time>
      </trkpt>
      <trkpt lat="38.165633" lon="-3.997445">
        <ele>252.5</ele>
        <time>2009-04-08T10:30:22Z</time>
      </trkpt>
      <trkpt lat="38.165622" lon="-3.997381">
        <ele>258.3</ele>
        <time>2009-04-08T10:30:38Z</time>
      </trkpt>
      <trkpt lat="38.165440" lon="-3.997396">
        <ele>254.9</ele>
        <time>2009-04-08T10:30:56Z</time>
      </trkpt>
      <trkpt lat="38.165258" lon="-3.997400">
        <ele>253.0</ele>
        <time>2009-04-08T10:31:13Z</time>
      </trkpt>
      <trkpt lat="38.165070" lon="-3.997329">
        <ele>251.5</ele>
        <time>2009-04-08T10:31:30Z</time>
      </trkpt>
      <trkpt lat="38.164909" lon="-3.997216">
        <ele>251.5</ele>
        <time>2009-04-08T10:31:47Z</time>
      </trkpt>
      <trkpt lat="38.164737" lon="-3.997094">
        <ele>251.0</ele>
        <time>2009-04-08T10:32:04Z</time>
      </trkpt>
      <trkpt lat="38.164517" lon="-3.996946">
        <ele>248.2</ele>
        <time>2009-04-08T10:32:24Z</time>
      </trkpt>
      <trkpt lat="38.164428" lon="-3.996897">
        <ele>247.7</ele>
        <time>2009-04-08T10:32:32Z</time>
      </trkpt>
      <trkpt lat="38.164384" lon="-3.996886">
        <ele>247.7</ele>
        <time>2009-04-08T10:32:36Z</time>
      </trkpt>
      <trkpt lat="38.164069" lon="-3.996721">
        <ele>245.8</ele>
        <time>2009-04-08T10:32:59Z</time>
      </trkpt>
      <trkpt lat="38.163855" lon="-3.996623">
        <ele>244.8</ele>
        <time>2009-04-08T10:33:17Z</time>
      </trkpt>
      <trkpt lat="38.163645" lon="-3.996634">
        <ele>245.8</ele>
        <time>2009-04-08T10:33:35Z</time>
      </trkpt>
      <trkpt lat="38.163462" lon="-3.996595">
        <ele>246.7</ele>
        <time>2009-04-08T10:33:52Z</time>
      </trkpt>
      <trkpt lat="38.163450" lon="-3.996585">
        <ele>253.0</ele>
        <time>2009-04-08T10:34:15Z</time>
      </trkpt>
      <trkpt lat="38.163457" lon="-3.996589">
        <ele>251.5</ele>
        <time>2009-04-08T10:34:43Z</time>
      </trkpt>
      <trkpt lat="38.163494" lon="-3.996580">
        <ele>249.1</ele>
        <time>2009-04-08T10:35:42Z</time>
      </trkpt>
      <trkpt lat="38.163466" lon="-3.996556">
        <ele>248.2</ele>
        <time>2009-04-08T10:35:47Z</time>
      </trkpt>
      <trkpt lat="38.163445" lon="-3.996464">
        <ele>249.1</ele>
        <time>2009-04-08T10:36:02Z</time>
      </trkpt>
      <trkpt lat="38.163433" lon="-3.996462">
        <ele>254.4</ele>
        <time>2009-04-08T10:36:39Z</time>
      </trkpt>
      <trkpt lat="38.163419" lon="-3.996477">
        <ele>263.1</ele>
        <time>2009-04-08T10:38:18Z</time>
      </trkpt>
      <trkpt lat="38.163433" lon="-3.996488">
        <ele>262.6</ele>
        <time>2009-04-08T10:39:20Z</time>
      </trkpt>
      <trkpt lat="38.163417" lon="-3.996502">
        <ele>258.7</ele>
        <time>2009-04-08T10:39:43Z</time>
      </trkpt>
      <trkpt lat="38.163458" lon="-3.996475">
        <ele>258.3</ele>
        <time>2009-04-08T10:39:54Z</time>
      </trkpt>
      <trkpt lat="38.163448" lon="-3.996472">
        <ele>261.1</ele>
        <time>2009-04-08T10:44:06Z</time>
      </trkpt>
      <trkpt lat="38.163427" lon="-3.996494">
        <ele>260.7</ele>
        <time>2009-04-08T10:44:12Z</time>
      </trkpt>
      <trkpt lat="38.163342" lon="-3.996627">
        <ele>260.2</ele>
        <time>2009-04-08T10:44:28Z</time>
      </trkpt>
      <trkpt lat="38.163272" lon="-3.996749">
        <ele>260.7</ele>
        <time>2009-04-08T10:44:47Z</time>
      </trkpt>
      <trkpt lat="38.163170" lon="-3.996946">
        <ele>261.6</ele>
        <time>2009-04-08T10:45:02Z</time>
      </trkpt>
      <trkpt lat="38.162989" lon="-3.997267">
        <ele>260.2</ele>
        <time>2009-04-08T10:45:26Z</time>
      </trkpt>
      <trkpt lat="38.162384" lon="-3.997664">
        <ele>259.2</ele>
        <time>2009-04-08T10:46:13Z</time>
      </trkpt>
      <trkpt lat="38.162053" lon="-3.997891">
        <ele>257.8</ele>
        <time>2009-04-08T10:46:35Z</time>
      </trkpt>
      <trkpt lat="38.161666" lon="-3.998141">
        <ele>244.8</ele>
        <time>2009-04-08T10:47:30Z</time>
      </trkpt>
      <trkpt lat="38.161169" lon="-3.998459">
        <ele>255.4</ele>
        <time>2009-04-08T10:48:17Z</time>
      </trkpt>
      <trkpt lat="38.160967" lon="-3.998526">
        <ele>255.8</ele>
        <time>2009-04-08T10:48:41Z</time>
      </trkpt>
      <trkpt lat="38.160967" lon="-3.998526">
        <ele>257.8</ele>
        <time>2009-04-08T10:49:23Z</time>
      </trkpt>
      <trkpt lat="38.160471" lon="-3.998705">
        <ele>245.8</ele>
        <time>2009-04-08T10:50:41Z</time>
      </trkpt>
      <trkpt lat="38.160243" lon="-3.998868">
        <ele>246.7</ele>
        <time>2009-04-08T10:51:03Z</time>
      </trkpt>
      <trkpt lat="38.159964" lon="-3.998888">
        <ele>236.1</ele>
        <time>2009-04-08T10:51:23Z</time>
      </trkpt>
      <trkpt lat="38.159719" lon="-3.999003">
        <ele>241.4</ele>
        <time>2009-04-08T10:51:44Z</time>
      </trkpt>
      <trkpt lat="38.159584" lon="-3.999093">
        <ele>246.2</ele>
        <time>2009-04-08T10:51:59Z</time>
      </trkpt>
      <trkpt lat="38.159348" lon="-3.999312">
        <ele>250.1</ele>
        <time>2009-04-08T10:52:21Z</time>
      </trkpt>
      <trkpt lat="38.159116" lon="-3.999580">
        <ele>250.6</ele>
        <time>2009-04-08T10:52:44Z</time>
      </trkpt>
      <trkpt lat="38.158890" lon="-3.999842">
        <ele>251.0</ele>
        <time>2009-04-08T10:53:08Z</time>
      </trkpt>
      <trkpt lat="38.158739" lon="-4.000112">
        <ele>251.5</ele>
        <time>2009-04-08T10:53:29Z</time>
      </trkpt>
      <trkpt lat="38.158461" lon="-4.000370">
        <ele>256.8</ele>
        <time>2009-04-08T10:53:52Z</time>
      </trkpt>
      <trkpt lat="38.158294" lon="-4.000600">
        <ele>262.1</ele>
        <time>2009-04-08T10:54:12Z</time>
      </trkpt>
      <trkpt lat="38.158109" lon="-4.000853">
        <ele>265.0</ele>
        <time>2009-04-08T10:54:35Z</time>
      </trkpt>
      <trkpt lat="38.157922" lon="-4.001337">
        <ele>265.9</ele>
        <time>2009-04-08T10:55:01Z</time>
      </trkpt>
      <trkpt lat="38.157773" lon="-4.001636">
        <ele>253.4</ele>
        <time>2009-04-08T10:55:28Z</time>
      </trkpt>
      <trkpt lat="38.157675" lon="-4.001963">
        <ele>240.0</ele>
        <time>2009-04-08T10:55:51Z</time>
      </trkpt>
      <trkpt lat="38.157596" lon="-4.002043">
        <ele>249.1</ele>
        <time>2009-04-08T10:56:13Z</time>
      </trkpt>
      <trkpt lat="38.157591" lon="-4.002034">
        <ele>251.0</ele>
        <time>2009-04-08T10:56:39Z</time>
      </trkpt>
      <trkpt lat="38.157526" lon="-4.002097">
        <ele>253.9</ele>
        <time>2009-04-08T10:57:19Z</time>
      </trkpt>
      <trkpt lat="38.157370" lon="-4.002350">
        <ele>253.0</ele>
        <time>2009-04-08T10:57:37Z</time>
      </trkpt>
      <trkpt lat="38.157239" lon="-4.002660">
        <ele>253.0</ele>
        <time>2009-04-08T10:57:58Z</time>
      </trkpt>
      <trkpt lat="38.157062" lon="-4.003089">
        <ele>251.0</ele>
        <time>2009-04-08T10:58:26Z</time>
      </trkpt>
      <trkpt lat="38.156993" lon="-4.003335">
        <ele>249.6</ele>
        <time>2009-04-08T10:58:41Z</time>
      </trkpt>
      <trkpt lat="38.156967" lon="-4.003398">
        <ele>249.1</ele>
        <time>2009-04-08T10:58:45Z</time>
      </trkpt>
      <trkpt lat="38.156866" lon="-4.003792">
        <ele>247.7</ele>
        <time>2009-04-08T10:59:08Z</time>
      </trkpt>
      <trkpt lat="38.156782" lon="-4.004153">
        <ele>246.7</ele>
        <time>2009-04-08T10:59:29Z</time>
      </trkpt>
      <trkpt lat="38.156633" lon="-4.004553">
        <ele>242.9</ele>
        <time>2009-04-08T10:59:53Z</time>
      </trkpt>
      <trkpt lat="38.156468" lon="-4.004918">
        <ele>240.0</ele>
        <time>2009-04-08T11:00:16Z</time>
      </trkpt>
      <trkpt lat="38.156315" lon="-4.005240">
        <ele>241.4</ele>
        <time>2009-04-08T11:00:37Z</time>
      </trkpt>
      <trkpt lat="38.156200" lon="-4.005544">
        <ele>240.9</ele>
        <time>2009-04-08T11:00:56Z</time>
      </trkpt>
      <trkpt lat="38.156094" lon="-4.005881">
        <ele>240.0</ele>
        <time>2009-04-08T11:01:17Z</time>
      </trkpt>
      <trkpt lat="38.156018" lon="-4.006235">
        <ele>243.8</ele>
        <time>2009-04-08T11:01:38Z</time>
      </trkpt>
      <trkpt lat="38.155942" lon="-4.006640">
        <ele>245.8</ele>
        <time>2009-04-08T11:02:01Z</time>
      </trkpt>
      <trkpt lat="38.155884" lon="-4.007049">
        <ele>247.2</ele>
        <time>2009-04-08T11:02:24Z</time>
      </trkpt>
      <trkpt lat="38.155842" lon="-4.007462">
        <ele>249.1</ele>
        <time>2009-04-08T11:02:47Z</time>
      </trkpt>
      <trkpt lat="38.155801" lon="-4.007820">
        <ele>247.2</ele>
        <time>2009-04-08T11:03:07Z</time>
      </trkpt>
      <trkpt lat="38.155749" lon="-4.008281">
        <ele>249.6</ele>
        <time>2009-04-08T11:03:32Z</time>
      </trkpt>
      <trkpt lat="38.155718" lon="-4.008728">
        <ele>250.6</ele>
        <time>2009-04-08T11:03:58Z</time>
      </trkpt>
      <trkpt lat="38.155683" lon="-4.009087">
        <ele>251.5</ele>
        <time>2009-04-08T11:04:19Z</time>
      </trkpt>
      <trkpt lat="38.155631" lon="-4.009514">
        <ele>252.5</ele>
        <time>2009-04-08T11:04:43Z</time>
      </trkpt>
      <trkpt lat="38.155565" lon="-4.009941">
        <ele>253.9</ele>
        <time>2009-04-08T11:05:07Z</time>
      </trkpt>
      <trkpt lat="38.155497" lon="-4.010340">
        <ele>253.9</ele>
        <time>2009-04-08T11:05:30Z</time>
      </trkpt>
      <trkpt lat="38.155399" lon="-4.010709">
        <ele>253.9</ele>
        <time>2009-04-08T11:05:51Z</time>
      </trkpt>
      <trkpt lat="38.155279" lon="-4.011103">
        <ele>253.4</ele>
        <time>2009-04-08T11:06:14Z</time>
      </trkpt>
      <trkpt lat="38.155207" lon="-4.011343">
        <ele>253.9</ele>
        <time>2009-04-08T11:06:27Z</time>
      </trkpt>
      <trkpt lat="38.155049" lon="-4.011776">
        <ele>252.5</ele>
        <time>2009-04-08T11:06:54Z</time>
      </trkpt>
      <trkpt lat="38.154897" lon="-4.012120">
        <ele>252.5</ele>
        <time>2009-04-08T11:07:17Z</time>
      </trkpt>
      <trkpt lat="38.154719" lon="-4.012435">
        <ele>251.5</ele>
        <time>2009-04-08T11:07:40Z</time>
      </trkpt>
      <trkpt lat="38.154639" lon="-4.012562">
        <ele>251.0</ele>
        <time>2009-04-08T11:07:56Z</time>
      </trkpt>
      <trkpt lat="38.154621" lon="-4.012588">
        <ele>251.5</ele>
        <time>2009-04-08T11:08:04Z</time>
      </trkpt>
      <trkpt lat="38.154537" lon="-4.012686">
        <ele>252.0</ele>
        <time>2009-04-08T11:08:20Z</time>
      </trkpt>
      <trkpt lat="38.154447" lon="-4.012856">
        <ele>251.5</ele>
        <time>2009-04-08T11:09:12Z</time>
      </trkpt>
      <trkpt lat="38.154278" lon="-4.013047">
        <ele>250.6</ele>
        <time>2009-04-08T11:09:28Z</time>
      </trkpt>
      <trkpt lat="38.154057" lon="-4.013339">
        <ele>248.6</ele>
        <time>2009-04-08T11:09:51Z</time>
      </trkpt>
      <trkpt lat="38.153850" lon="-4.013619">
        <ele>247.2</ele>
        <time>2009-04-08T11:10:13Z</time>
      </trkpt>
      <trkpt lat="38.153718" lon="-4.013777">
        <ele>248.6</ele>
        <time>2009-04-08T11:10:26Z</time>
      </trkpt>
      <trkpt lat="38.153637" lon="-4.013886">
        <ele>248.2</ele>
        <time>2009-04-08T11:10:35Z</time>
      </trkpt>
      <trkpt lat="38.153509" lon="-4.014061">
        <ele>244.3</ele>
        <time>2009-04-08T11:10:49Z</time>
      </trkpt>
      <trkpt lat="38.153463" lon="-4.014122">
        <ele>243.4</ele>
        <time>2009-04-08T11:10:54Z</time>
      </trkpt>
      <trkpt lat="38.153430" lon="-4.014170">
        <ele>243.4</ele>
        <time>2009-04-08T11:10:58Z</time>
      </trkpt>
      <trkpt lat="38.153205" lon="-4.014383">
        <ele>244.8</ele>
        <time>2009-04-08T11:11:17Z</time>
      </trkpt>
      <trkpt lat="38.152968" lon="-4.014638">
        <ele>243.8</ele>
        <time>2009-04-08T11:11:39Z</time>
      </trkpt>
      <trkpt lat="38.152780" lon="-4.014786">
        <ele>244.3</ele>
        <time>2009-04-08T11:11:59Z</time>
      </trkpt>
      <trkpt lat="38.152754" lon="-4.014761">
        <ele>243.4</ele>
        <time>2009-04-08T11:12:15Z</time>
      </trkpt>
      <trkpt lat="38.152579" lon="-4.014989">
        <ele>243.8</ele>
        <time>2009-04-08T11:12:33Z</time>
      </trkpt>
      <trkpt lat="38.152369" lon="-4.015192">
        <ele>246.7</ele>
        <time>2009-04-08T11:12:52Z</time>
      </trkpt>
      <trkpt lat="38.152150" lon="-4.015409">
        <ele>248.2</ele>
        <time>2009-04-08T11:13:12Z</time>
      </trkpt>
      <trkpt lat="38.151964" lon="-4.015573">
        <ele>249.1</ele>
        <time>2009-04-08T11:13:30Z</time>
      </trkpt>
      <trkpt lat="38.151645" lon="-4.015813">
        <ele>252.5</ele>
        <time>2009-04-08T11:13:56Z</time>
      </trkpt>
      <trkpt lat="38.151464" lon="-4.016076">
        <ele>250.6</ele>
        <time>2009-04-08T11:14:17Z</time>
      </trkpt>
      <trkpt lat="38.151325" lon="-4.016298">
        <ele>250.6</ele>
        <time>2009-04-08T11:14:35Z</time>
      </trkpt>
      <trkpt lat="38.151217" lon="-4.016430">
        <ele>251.0</ele>
        <time>2009-04-08T11:14:50Z</time>
      </trkpt>
      <trkpt lat="38.151162" lon="-4.016449">
        <ele>254.9</ele>
        <time>2009-04-08T11:15:12Z</time>
      </trkpt>
      <trkpt lat="38.151114" lon="-4.016545">
        <ele>255.4</ele>
        <time>2009-04-08T11:15:29Z</time>
      </trkpt>
      <trkpt lat="38.151066" lon="-4.016449">
        <ele>268.8</ele>
        <time>2009-04-08T11:15:59Z</time>
      </trkpt>
      <trkpt lat="38.150980" lon="-4.016660">
        <ele>261.1</ele>
        <time>2009-04-08T11:16:14Z</time>
      </trkpt>
      <trkpt lat="38.150970" lon="-4.016673">
        <ele>261.1</ele>
        <time>2009-04-08T11:16:15Z</time>
      </trkpt>
      <trkpt lat="38.150911" lon="-4.016748">
        <ele>260.7</ele>
        <time>2009-04-08T11:16:35Z</time>
      </trkpt>
      <trkpt lat="38.150781" lon="-4.016831">
        <ele>260.2</ele>
        <time>2009-04-08T11:16:54Z</time>
      </trkpt>
      <trkpt lat="38.150739" lon="-4.016859">
        <ele>258.7</ele>
        <time>2009-04-08T11:17:09Z</time>
      </trkpt>
      <trkpt lat="38.150709" lon="-4.016870">
        <ele>258.7</ele>
        <time>2009-04-08T11:17:29Z</time>
      </trkpt>
      <trkpt lat="38.150699" lon="-4.016863">
        <ele>261.6</ele>
        <time>2009-04-08T11:17:55Z</time>
      </trkpt>
      <trkpt lat="38.150699" lon="-4.016885">
        <ele>261.1</ele>
        <time>2009-04-08T11:18:39Z</time>
      </trkpt>
      <trkpt lat="38.150695" lon="-4.016896">
        <ele>255.8</ele>
        <time>2009-04-08T11:19:43Z</time>
      </trkpt>
      <trkpt lat="38.150690" lon="-4.016902">
        <ele>254.9</ele>
        <time>2009-04-08T11:20:17Z</time>
      </trkpt>
      <trkpt lat="38.150701" lon="-4.016877">
        <ele>255.4</ele>
        <time>2009-04-08T11:20:58Z</time>
      </trkpt>
      <trkpt lat="38.150692" lon="-4.016889">
        <ele>255.8</ele>
        <time>2009-04-08T11:21:24Z</time>
      </trkpt>
      <trkpt lat="38.150644" lon="-4.016911">
        <ele>261.1</ele>
        <time>2009-04-08T11:22:11Z</time>
      </trkpt>
      <trkpt lat="38.150647" lon="-4.016931">
        <ele>258.3</ele>
        <time>2009-04-08T11:23:07Z</time>
      </trkpt>
      <trkpt lat="38.150623" lon="-4.016904">
        <ele>258.3</ele>
        <time>2009-04-08T11:23:43Z</time>
      </trkpt>
      <trkpt lat="38.150573" lon="-4.016860">
        <ele>257.8</ele>
        <time>2009-04-08T11:23:48Z</time>
      </trkpt>
      <trkpt lat="38.150411" lon="-4.016621">
        <ele>255.8</ele>
        <time>2009-04-08T11:24:07Z</time>
      </trkpt>
      <trkpt lat="38.150276" lon="-4.016333">
        <ele>254.9</ele>
        <time>2009-04-08T11:24:26Z</time>
      </trkpt>
      <trkpt lat="38.150144" lon="-4.016024">
        <ele>255.4</ele>
        <time>2009-04-08T11:24:46Z</time>
      </trkpt>
      <trkpt lat="38.149974" lon="-4.015630">
        <ele>250.6</ele>
        <time>2009-04-08T11:25:10Z</time>
      </trkpt>
      <trkpt lat="38.149812" lon="-4.015265">
        <ele>248.6</ele>
        <time>2009-04-08T11:25:33Z</time>
      </trkpt>
      <trkpt lat="38.149652" lon="-4.015021">
        <ele>245.8</ele>
        <time>2009-04-08T11:25:51Z</time>
      </trkpt>
      <trkpt lat="38.149406" lon="-4.014961">
        <ele>243.8</ele>
        <time>2009-04-08T11:26:10Z</time>
      </trkpt>
      <trkpt lat="38.149369" lon="-4.014966">
        <ele>242.4</ele>
        <time>2009-04-08T11:26:13Z</time>
      </trkpt>
      <trkpt lat="38.149298" lon="-4.014945">
        <ele>240.9</ele>
        <time>2009-04-08T11:26:24Z</time>
      </trkpt>
      <trkpt lat="38.149278" lon="-4.014943">
        <ele>240.9</ele>
        <time>2009-04-08T11:26:26Z</time>
      </trkpt>
      <trkpt lat="38.149120" lon="-4.014910">
        <ele>241.4</ele>
        <time>2009-04-08T11:26:43Z</time>
      </trkpt>
      <trkpt lat="38.149099" lon="-4.014891">
        <ele>243.4</ele>
        <time>2009-04-08T11:27:02Z</time>
      </trkpt>
      <trkpt lat="38.149068" lon="-4.014869">
        <ele>245.3</ele>
        <time>2009-04-08T11:27:20Z</time>
      </trkpt>
      <trkpt lat="38.149089" lon="-4.014860">
        <ele>247.7</ele>
        <time>2009-04-08T11:28:27Z</time>
      </trkpt>
      <trkpt lat="38.149016" lon="-4.014815">
        <ele>248.6</ele>
        <time>2009-04-08T11:28:54Z</time>
      </trkpt>
      <trkpt lat="38.148873" lon="-4.014653">
        <ele>249.6</ele>
        <time>2009-04-08T11:29:10Z</time>
      </trkpt>
      <trkpt lat="38.148674" lon="-4.014398">
        <ele>249.6</ele>
        <time>2009-04-08T11:29:32Z</time>
      </trkpt>
      <trkpt lat="38.148642" lon="-4.014126">
        <ele>249.6</ele>
        <time>2009-04-08T11:29:48Z</time>
      </trkpt>
      <trkpt lat="38.148614" lon="-4.013891">
        <ele>250.1</ele>
        <time>2009-04-08T11:30:03Z</time>
      </trkpt>
      <trkpt lat="38.148584" lon="-4.013589">
        <ele>250.6</ele>
        <time>2009-04-08T11:30:21Z</time>
      </trkpt>
      <trkpt lat="38.148542" lon="-4.013263">
        <ele>252.5</ele>
        <time>2009-04-08T11:30:41Z</time>
      </trkpt>
      <trkpt lat="38.148511" lon="-4.012903">
        <ele>254.9</ele>
        <time>2009-04-08T11:31:03Z</time>
      </trkpt>
      <trkpt lat="38.148467" lon="-4.012395">
        <ele>253.9</ele>
        <time>2009-04-08T11:31:32Z</time>
      </trkpt>
      <trkpt lat="38.148460" lon="-4.011891">
        <ele>256.3</ele>
        <time>2009-04-08T11:32:00Z</time>
      </trkpt>
      <trkpt lat="38.148393" lon="-4.011355">
        <ele>256.3</ele>
        <time>2009-04-08T11:32:31Z</time>
      </trkpt>
      <trkpt lat="38.148375" lon="-4.011271">
        <ele>257.8</ele>
        <time>2009-04-08T11:32:47Z</time>
      </trkpt>
      <trkpt lat="38.148322" lon="-4.011132">
        <ele>255.8</ele>
        <time>2009-04-08T11:33:04Z</time>
      </trkpt>
      <trkpt lat="38.148259" lon="-4.010944">
        <ele>259.2</ele>
        <time>2009-04-08T11:33:25Z</time>
      </trkpt>
      <trkpt lat="38.148219" lon="-4.010843">
        <ele>258.7</ele>
        <time>2009-04-08T11:34:32Z</time>
      </trkpt>
      <trkpt lat="38.148112" lon="-4.010540">
        <ele>256.8</ele>
        <time>2009-04-08T11:34:53Z</time>
      </trkpt>
      <trkpt lat="38.147984" lon="-4.010190">
        <ele>259.2</ele>
        <time>2009-04-08T11:35:14Z</time>
      </trkpt>
      <trkpt lat="38.147808" lon="-4.009837">
        <ele>261.6</ele>
        <time>2009-04-08T11:35:36Z</time>
      </trkpt>
      <trkpt lat="38.147614" lon="-4.009644">
        <ele>256.3</ele>
        <time>2009-04-08T11:35:56Z</time>
      </trkpt>
      <trkpt lat="38.147401" lon="-4.009452">
        <ele>253.4</ele>
        <time>2009-04-08T11:36:16Z</time>
      </trkpt>
      <trkpt lat="38.147183" lon="-4.009219">
        <ele>255.4</ele>
        <time>2009-04-08T11:36:36Z</time>
      </trkpt>
      <trkpt lat="38.146925" lon="-4.008969">
        <ele>254.4</ele>
        <time>2009-04-08T11:36:59Z</time>
      </trkpt>
      <trkpt lat="38.146726" lon="-4.008788">
        <ele>255.8</ele>
        <time>2009-04-08T11:37:16Z</time>
      </trkpt>
      <trkpt lat="38.146522" lon="-4.008625">
        <ele>254.9</ele>
        <time>2009-04-08T11:37:33Z</time>
      </trkpt>
      <trkpt lat="38.146273" lon="-4.008453">
        <ele>256.8</ele>
        <time>2009-04-08T11:37:53Z</time>
      </trkpt>
      <trkpt lat="38.146104" lon="-4.008340">
        <ele>253.9</ele>
        <time>2009-04-08T11:38:08Z</time>
      </trkpt>
      <trkpt lat="38.145886" lon="-4.008270">
        <ele>252.0</ele>
        <time>2009-04-08T11:38:25Z</time>
      </trkpt>
      <trkpt lat="38.145672" lon="-4.008204">
        <ele>254.4</ele>
        <time>2009-04-08T11:38:41Z</time>
      </trkpt>
      <trkpt lat="38.145454" lon="-4.008200">
        <ele>257.8</ele>
        <time>2009-04-08T11:38:57Z</time>
      </trkpt>
      <trkpt lat="38.145265" lon="-4.008175">
        <ele>258.3</ele>
        <time>2009-04-08T11:39:13Z</time>
      </trkpt>
      <trkpt lat="38.144993" lon="-4.008143">
        <ele>260.2</ele>
        <time>2009-04-08T11:39:33Z</time>
      </trkpt>
      <trkpt lat="38.144744" lon="-4.008055">
        <ele>259.7</ele>
        <time>2009-04-08T11:39:51Z</time>
      </trkpt>
      <trkpt lat="38.144518" lon="-4.007941">
        <ele>259.2</ele>
        <time>2009-04-08T11:40:09Z</time>
      </trkpt>
      <trkpt lat="38.144284" lon="-4.007839">
        <ele>259.7</ele>
        <time>2009-04-08T11:40:27Z</time>
      </trkpt>
      <trkpt lat="38.144043" lon="-4.007731">
        <ele>261.6</ele>
        <time>2009-04-08T11:40:47Z</time>
      </trkpt>
      <trkpt lat="38.143828" lon="-4.007683">
        <ele>261.1</ele>
        <time>2009-04-08T11:41:04Z</time>
      </trkpt>
      <trkpt lat="38.143803" lon="-4.007679">
        <ele>261.1</ele>
        <time>2009-04-08T11:41:06Z</time>
      </trkpt>
      <trkpt lat="38.143730" lon="-4.007684">
        <ele>261.6</ele>
        <time>2009-04-08T11:41:12Z</time>
      </trkpt>
      <trkpt lat="38.143521" lon="-4.007682">
        <ele>263.1</ele>
        <time>2009-04-08T11:41:28Z</time>
      </trkpt>
      <trkpt lat="38.143331" lon="-4.007650">
        <ele>264.5</ele>
        <time>2009-04-08T11:41:42Z</time>
      </trkpt>
      <trkpt lat="38.143123" lon="-4.007643">
        <ele>266.4</ele>
        <time>2009-04-08T11:41:58Z</time>
      </trkpt>
      <trkpt lat="38.142878" lon="-4.007605">
        <ele>267.9</ele>
        <time>2009-04-08T11:42:16Z</time>
      </trkpt>
      <trkpt lat="38.142554" lon="-4.007530">
        <ele>269.8</ele>
        <time>2009-04-08T11:42:41Z</time>
      </trkpt>
      <trkpt lat="38.142329" lon="-4.007463">
        <ele>269.8</ele>
        <time>2009-04-08T11:42:59Z</time>
      </trkpt>
      <trkpt lat="38.142107" lon="-4.007365">
        <ele>270.7</ele>
        <time>2009-04-08T11:43:17Z</time>
      </trkpt>
      <trkpt lat="38.141933" lon="-4.007325">
        <ele>271.7</ele>
        <time>2009-04-08T11:43:31Z</time>
      </trkpt>
      <trkpt lat="38.141712" lon="-4.007238">
        <ele>271.2</ele>
        <time>2009-04-08T11:43:49Z</time>
      </trkpt>
      <trkpt lat="38.141687" lon="-4.007222">
        <ele>271.7</ele>
        <time>2009-04-08T11:43:51Z</time>
      </trkpt>
      <trkpt lat="38.141371" lon="-4.007071">
        <ele>272.2</ele>
        <time>2009-04-08T11:44:15Z</time>
      </trkpt>
      <trkpt lat="38.141144" lon="-4.006961">
        <ele>273.2</ele>
        <time>2009-04-08T11:44:33Z</time>
      </trkpt>
      <trkpt lat="38.140947" lon="-4.006745">
        <ele>273.6</ele>
        <time>2009-04-08T11:44:52Z</time>
      </trkpt>
      <trkpt lat="38.140752" lon="-4.006464">
        <ele>276.0</ele>
        <time>2009-04-08T11:45:12Z</time>
      </trkpt>
      <trkpt lat="38.140512" lon="-4.006111">
        <ele>276.0</ele>
        <time>2009-04-08T11:45:39Z</time>
      </trkpt>
      <trkpt lat="38.140402" lon="-4.005989">
        <ele>275.6</ele>
        <time>2009-04-08T11:45:56Z</time>
      </trkpt>
      <trkpt lat="38.140386" lon="-4.005990">
        <ele>275.1</ele>
        <time>2009-04-08T11:46:06Z</time>
      </trkpt>
      <trkpt lat="38.140368" lon="-4.005964">
        <ele>275.1</ele>
        <time>2009-04-08T11:46:09Z</time>
      </trkpt>
      <trkpt lat="38.140206" lon="-4.005868">
        <ele>276.5</ele>
        <time>2009-04-08T11:46:33Z</time>
      </trkpt>
      <trkpt lat="38.140197" lon="-4.005857">
        <ele>279.9</ele>
        <time>2009-04-08T11:47:04Z</time>
      </trkpt>
      <trkpt lat="38.140192" lon="-4.005855">
        <ele>281.8</ele>
        <time>2009-04-08T11:47:23Z</time>
      </trkpt>
      <trkpt lat="38.140167" lon="-4.005827">
        <ele>285.2</ele>
        <time>2009-04-08T11:48:01Z</time>
      </trkpt>
      <trkpt lat="38.140099" lon="-4.005787">
        <ele>280.4</ele>
        <time>2009-04-08T11:48:54Z</time>
      </trkpt>
      <trkpt lat="38.139897" lon="-4.005690">
        <ele>279.4</ele>
        <time>2009-04-08T11:49:13Z</time>
      </trkpt>
      <trkpt lat="38.139724" lon="-4.005558">
        <ele>279.9</ele>
        <time>2009-04-08T11:49:30Z</time>
      </trkpt>
      <trkpt lat="38.139550" lon="-4.005416">
        <ele>282.8</ele>
        <time>2009-04-08T11:49:46Z</time>
      </trkpt>
      <trkpt lat="38.139351" lon="-4.005308">
        <ele>285.6</ele>
        <time>2009-04-08T11:50:02Z</time>
      </trkpt>
      <trkpt lat="38.139102" lon="-4.005209">
        <ele>285.6</ele>
        <time>2009-04-08T11:50:22Z</time>
      </trkpt>
      <trkpt lat="38.138874" lon="-4.005102">
        <ele>286.6</ele>
        <time>2009-04-08T11:50:41Z</time>
      </trkpt>
      <trkpt lat="38.138685" lon="-4.005021">
        <ele>287.1</ele>
        <time>2009-04-08T11:50:57Z</time>
      </trkpt>
      <trkpt lat="38.138491" lon="-4.004899">
        <ele>288.1</ele>
        <time>2009-04-08T11:51:15Z</time>
      </trkpt>
      <trkpt lat="38.138249" lon="-4.004706">
        <ele>291.4</ele>
        <time>2009-04-08T11:51:36Z</time>
      </trkpt>
      <trkpt lat="38.138031" lon="-4.004547">
        <ele>290.0</ele>
        <time>2009-04-08T11:51:56Z</time>
      </trkpt>
      <trkpt lat="38.137777" lon="-4.004362">
        <ele>290.9</ele>
        <time>2009-04-08T11:52:17Z</time>
      </trkpt>
      <trkpt lat="38.137700" lon="-4.004308">
        <ele>292.4</ele>
        <time>2009-04-08T11:52:34Z</time>
      </trkpt>
      <trkpt lat="38.137554" lon="-4.004200">
        <ele>295.3</ele>
        <time>2009-04-08T11:52:52Z</time>
      </trkpt>
      <trkpt lat="38.137446" lon="-4.004070">
        <ele>295.7</ele>
        <time>2009-04-08T11:53:05Z</time>
      </trkpt>
      <trkpt lat="38.137428" lon="-4.004027">
        <ele>296.7</ele>
        <time>2009-04-08T11:53:19Z</time>
      </trkpt>
      <trkpt lat="38.137428" lon="-4.004026">
        <ele>297.2</ele>
        <time>2009-04-08T11:54:09Z</time>
      </trkpt>
      <trkpt lat="38.137440" lon="-4.004031">
        <ele>297.2</ele>
        <time>2009-04-08T11:54:53Z</time>
      </trkpt>
      <trkpt lat="38.137434" lon="-4.004030">
        <ele>294.8</ele>
        <time>2009-04-08T11:55:17Z</time>
      </trkpt>
      <trkpt lat="38.137374" lon="-4.003998">
        <ele>293.8</ele>
        <time>2009-04-08T11:55:25Z</time>
      </trkpt>
      <trkpt lat="38.137252" lon="-4.003864">
        <ele>294.3</ele>
        <time>2009-04-08T11:55:42Z</time>
      </trkpt>
      <trkpt lat="38.137136" lon="-4.003746">
        <ele>294.3</ele>
        <time>2009-04-08T11:55:59Z</time>
      </trkpt>
      <trkpt lat="38.137123" lon="-4.003731">
        <ele>295.7</ele>
        <time>2009-04-08T11:56:11Z</time>
      </trkpt>
      <trkpt lat="38.137091" lon="-4.003703">
        <ele>299.6</ele>
        <time>2009-04-08T11:56:41Z</time>
      </trkpt>
      <trkpt lat="38.137008" lon="-4.003609">
        <ele>298.1</ele>
        <time>2009-04-08T11:56:54Z</time>
      </trkpt>
      <trkpt lat="38.136868" lon="-4.003454">
        <ele>297.2</ele>
        <time>2009-04-08T11:57:11Z</time>
      </trkpt>
      <trkpt lat="38.136698" lon="-4.003307">
        <ele>298.6</ele>
        <time>2009-04-08T11:57:29Z</time>
      </trkpt>
      <trkpt lat="38.136460" lon="-4.003268">
        <ele>298.6</ele>
        <time>2009-04-08T11:57:49Z</time>
      </trkpt>
      <trkpt lat="38.136228" lon="-4.003249">
        <ele>300.5</ele>
        <time>2009-04-08T11:58:07Z</time>
      </trkpt>
      <trkpt lat="38.136093" lon="-4.003216">
        <ele>300.5</ele>
        <time>2009-04-08T11:58:18Z</time>
      </trkpt>
      <trkpt lat="38.135912" lon="-4.003075">
        <ele>301.5</ele>
        <time>2009-04-08T11:58:35Z</time>
      </trkpt>
      <trkpt lat="38.135881" lon="-4.003049">
        <ele>301.5</ele>
        <time>2009-04-08T11:58:38Z</time>
      </trkpt>
      <trkpt lat="38.135859" lon="-4.003037">
        <ele>301.5</ele>
        <time>2009-04-08T11:58:40Z</time>
      </trkpt>
      <trkpt lat="38.135811" lon="-4.002995">
        <ele>303.0</ele>
        <time>2009-04-08T11:58:44Z</time>
      </trkpt>
      <trkpt lat="38.135612" lon="-4.002813">
        <ele>303.9</ele>
        <time>2009-04-08T11:59:02Z</time>
      </trkpt>
      <trkpt lat="38.135471" lon="-4.002662">
        <ele>305.8</ele>
        <time>2009-04-08T11:59:17Z</time>
      </trkpt>
      <trkpt lat="38.135424" lon="-4.002612">
        <ele>307.3</ele>
        <time>2009-04-08T11:59:22Z</time>
      </trkpt>
      <trkpt lat="38.135239" lon="-4.002553">
        <ele>309.2</ele>
        <time>2009-04-08T11:59:37Z</time>
      </trkpt>
      <trkpt lat="38.134994" lon="-4.002497">
        <ele>307.8</ele>
        <time>2009-04-08T11:59:58Z</time>
      </trkpt>
      <trkpt lat="38.134872" lon="-4.002368">
        <ele>304.9</ele>
        <time>2009-04-08T12:00:11Z</time>
      </trkpt>
      <trkpt lat="38.134801" lon="-4.002282">
        <ele>305.8</ele>
        <time>2009-04-08T12:00:19Z</time>
      </trkpt>
      <trkpt lat="38.134566" lon="-4.002101">
        <ele>308.7</ele>
        <time>2009-04-08T12:00:40Z</time>
      </trkpt>
      <trkpt lat="38.134241" lon="-4.001849">
        <ele>311.1</ele>
        <time>2009-04-08T12:01:08Z</time>
      </trkpt>
      <trkpt lat="38.134022" lon="-4.001561">
        <ele>314.5</ele>
        <time>2009-04-08T12:01:32Z</time>
      </trkpt>
      <trkpt lat="38.133929" lon="-4.001110">
        <ele>319.3</ele>
        <time>2009-04-08T12:01:59Z</time>
      </trkpt>
      <trkpt lat="38.133876" lon="-4.000689">
        <ele>322.7</ele>
        <time>2009-04-08T12:02:24Z</time>
      </trkpt>
      <trkpt lat="38.134043" lon="-4.000498">
        <ele>321.7</ele>
        <time>2009-04-08T12:02:43Z</time>
      </trkpt>
      <trkpt lat="38.134307" lon="-4.000427">
        <ele>322.2</ele>
        <time>2009-04-08T12:03:04Z</time>
      </trkpt>
      <trkpt lat="38.134538" lon="-4.000437">
        <ele>323.1</ele>
        <time>2009-04-08T12:03:24Z</time>
      </trkpt>
      <trkpt lat="38.134850" lon="-4.000519">
        <ele>321.7</ele>
        <time>2009-04-08T12:03:48Z</time>
      </trkpt>
      <trkpt lat="38.135015" lon="-4.000686">
        <ele>320.3</ele>
        <time>2009-04-08T12:04:06Z</time>
      </trkpt>
      <trkpt lat="38.135074" lon="-4.000791">
        <ele>319.8</ele>
        <time>2009-04-08T12:04:19Z</time>
      </trkpt>
      <trkpt lat="38.135117" lon="-4.000845">
        <ele>320.3</ele>
        <time>2009-04-08T12:04:26Z</time>
      </trkpt>
      <trkpt lat="38.135329" lon="-4.000897">
        <ele>322.2</ele>
        <time>2009-04-08T12:04:45Z</time>
      </trkpt>
      <trkpt lat="38.135506" lon="-4.000796">
        <ele>324.6</ele>
        <time>2009-04-08T12:05:01Z</time>
      </trkpt>
      <trkpt lat="38.135644" lon="-4.000567">
        <ele>325.5</ele>
        <time>2009-04-08T12:05:18Z</time>
      </trkpt>
      <trkpt lat="38.135742" lon="-4.000345">
        <ele>327.5</ele>
        <time>2009-04-08T12:05:35Z</time>
      </trkpt>
      <trkpt lat="38.135870" lon="-4.000115">
        <ele>329.9</ele>
        <time>2009-04-08T12:05:52Z</time>
      </trkpt>
      <trkpt lat="38.135962" lon="-3.999960">
        <ele>329.9</ele>
        <time>2009-04-08T12:06:04Z</time>
      </trkpt>
      <trkpt lat="38.136079" lon="-3.999687">
        <ele>331.3</ele>
        <time>2009-04-08T12:06:23Z</time>
      </trkpt>
      <trkpt lat="38.135947" lon="-3.999461">
        <ele>331.3</ele>
        <time>2009-04-08T12:06:41Z</time>
      </trkpt>
      <trkpt lat="38.135736" lon="-3.999397">
        <ele>330.8</ele>
        <time>2009-04-08T12:06:57Z</time>
      </trkpt>
      <trkpt lat="38.135512" lon="-3.999232">
        <ele>335.6</ele>
        <time>2009-04-08T12:07:16Z</time>
      </trkpt>
      <trkpt lat="38.135405" lon="-3.998992">
        <ele>338.0</ele>
        <time>2009-04-08T12:07:33Z</time>
      </trkpt>
      <trkpt lat="38.135314" lon="-3.998742">
        <ele>338.0</ele>
        <time>2009-04-08T12:07:50Z</time>
      </trkpt>
      <trkpt lat="38.135228" lon="-3.998506">
        <ele>339.0</ele>
        <time>2009-04-08T12:08:06Z</time>
      </trkpt>
      <trkpt lat="38.135102" lon="-3.998106">
        <ele>340.4</ele>
        <time>2009-04-08T12:08:32Z</time>
      </trkpt>
      <trkpt lat="38.135048" lon="-3.997668">
        <ele>343.8</ele>
        <time>2009-04-08T12:08:59Z</time>
      </trkpt>
      <trkpt lat="38.135030" lon="-3.997326">
        <ele>346.7</ele>
        <time>2009-04-08T12:09:20Z</time>
      </trkpt>
      <trkpt lat="38.135073" lon="-3.997112">
        <ele>348.1</ele>
        <time>2009-04-08T12:09:35Z</time>
      </trkpt>
      <trkpt lat="38.135121" lon="-3.996897">
        <ele>350.5</ele>
        <time>2009-04-08T12:09:49Z</time>
      </trkpt>
      <trkpt lat="38.135153" lon="-3.996522">
        <ele>353.4</ele>
        <time>2009-04-08T12:10:13Z</time>
      </trkpt>
      <trkpt lat="38.135153" lon="-3.996499">
        <ele>356.3</ele>
        <time>2009-04-08T12:10:30Z</time>
      </trkpt>
      <trkpt lat="38.135149" lon="-3.996509">
        <ele>353.9</ele>
        <time>2009-04-08T12:11:09Z</time>
      </trkpt>
      <trkpt lat="38.135156" lon="-3.996488">
        <ele>353.4</ele>
        <time>2009-04-08T12:11:28Z</time>
      </trkpt>
      <trkpt lat="38.135079" lon="-3.996176">
        <ele>351.0</ele>
        <time>2009-04-08T12:11:49Z</time>
      </trkpt>
      <trkpt lat="38.135121" lon="-3.995901">
        <ele>351.5</ele>
        <time>2009-04-08T12:12:08Z</time>
      </trkpt>
      <trkpt lat="38.135176" lon="-3.995620">
        <ele>351.5</ele>
        <time>2009-04-08T12:12:28Z</time>
      </trkpt>
      <trkpt lat="38.135141" lon="-3.995333">
        <ele>355.8</ele>
        <time>2009-04-08T12:12:47Z</time>
      </trkpt>
      <trkpt lat="38.135095" lon="-3.994966">
        <ele>360.6</ele>
        <time>2009-04-08T12:13:09Z</time>
      </trkpt>
      <trkpt lat="38.135161" lon="-3.994797">
        <ele>360.2</ele>
        <time>2009-04-08T12:13:26Z</time>
      </trkpt>
      <trkpt lat="38.135147" lon="-3.994826">
        <ele>359.7</ele>
        <time>2009-04-08T12:13:29Z</time>
      </trkpt>
      <trkpt lat="38.135159" lon="-3.994832">
        <ele>360.2</ele>
        <time>2009-04-08T12:13:50Z</time>
      </trkpt>
      <trkpt lat="38.135265" lon="-3.994657">
        <ele>358.2</ele>
        <time>2009-04-08T12:14:08Z</time>
      </trkpt>
      <trkpt lat="38.135533" lon="-3.994409">
        <ele>362.1</ele>
        <time>2009-04-08T12:14:32Z</time>
      </trkpt>
      <trkpt lat="38.135797" lon="-3.994335">
        <ele>363.5</ele>
        <time>2009-04-08T12:14:54Z</time>
      </trkpt>
      <trkpt lat="38.136015" lon="-3.994328">
        <ele>364.5</ele>
        <time>2009-04-08T12:15:12Z</time>
      </trkpt>
      <trkpt lat="38.136169" lon="-3.994059">
        <ele>365.9</ele>
        <time>2009-04-08T12:15:32Z</time>
      </trkpt>
      <trkpt lat="38.136188" lon="-3.993723">
        <ele>367.4</ele>
        <time>2009-04-08T12:15:52Z</time>
      </trkpt>
      <trkpt lat="38.136280" lon="-3.993306">
        <ele>369.8</ele>
        <time>2009-04-08T12:16:18Z</time>
      </trkpt>
      <trkpt lat="38.136348" lon="-3.993005">
        <ele>371.7</ele>
        <time>2009-04-08T12:16:38Z</time>
      </trkpt>
      <trkpt lat="38.136307" lon="-3.992680">
        <ele>372.2</ele>
        <time>2009-04-08T12:16:59Z</time>
      </trkpt>
      <trkpt lat="38.136164" lon="-3.992332">
        <ele>377.0</ele>
        <time>2009-04-08T12:17:23Z</time>
      </trkpt>
      <trkpt lat="38.136198" lon="-3.991958">
        <ele>377.5</ele>
        <time>2009-04-08T12:17:47Z</time>
      </trkpt>
      <trkpt lat="38.136370" lon="-3.991620">
        <ele>376.0</ele>
        <time>2009-04-08T12:18:12Z</time>
      </trkpt>
      <trkpt lat="38.136382" lon="-3.991506">
        <ele>374.6</ele>
        <time>2009-04-08T12:18:20Z</time>
      </trkpt>
      <trkpt lat="38.136361" lon="-3.991416">
        <ele>379.9</ele>
        <time>2009-04-08T12:18:41Z</time>
      </trkpt>
      <trkpt lat="38.136326" lon="-3.991369">
        <ele>379.9</ele>
        <time>2009-04-08T12:18:52Z</time>
      </trkpt>
      <trkpt lat="38.136095" lon="-3.991187">
        <ele>378.9</ele>
        <time>2009-04-08T12:19:14Z</time>
      </trkpt>
      <trkpt lat="38.135895" lon="-3.991019">
        <ele>379.9</ele>
        <time>2009-04-08T12:19:33Z</time>
      </trkpt>
      <trkpt lat="38.135886" lon="-3.991012">
        <ele>379.9</ele>
        <time>2009-04-08T12:19:34Z</time>
      </trkpt>
      <trkpt lat="38.135835" lon="-3.990964">
        <ele>379.4</ele>
        <time>2009-04-08T12:19:39Z</time>
      </trkpt>
      <trkpt lat="38.135743" lon="-3.990897">
        <ele>378.4</ele>
        <time>2009-04-08T12:19:49Z</time>
      </trkpt>
      <trkpt lat="38.135611" lon="-3.990847">
        <ele>380.8</ele>
        <time>2009-04-08T12:20:07Z</time>
      </trkpt>
      <trkpt lat="38.135410" lon="-3.990913">
        <ele>381.3</ele>
        <time>2009-04-08T12:20:23Z</time>
      </trkpt>
      <trkpt lat="38.135204" lon="-3.990985">
        <ele>383.2</ele>
        <time>2009-04-08T12:20:39Z</time>
      </trkpt>
      <trkpt lat="38.134961" lon="-3.990908">
        <ele>383.7</ele>
        <time>2009-04-08T12:20:57Z</time>
      </trkpt>
      <trkpt lat="38.134677" lon="-3.991086">
        <ele>386.1</ele>
        <time>2009-04-08T12:21:20Z</time>
      </trkpt>
      <trkpt lat="38.134589" lon="-3.991379">
        <ele>390.0</ele>
        <time>2009-04-08T12:21:39Z</time>
      </trkpt>
      <trkpt lat="38.134556" lon="-3.991695">
        <ele>392.8</ele>
        <time>2009-04-08T12:21:57Z</time>
      </trkpt>
      <trkpt lat="38.134474" lon="-3.991918">
        <ele>393.8</ele>
        <time>2009-04-08T12:22:12Z</time>
      </trkpt>
      <trkpt lat="38.134432" lon="-3.992143">
        <ele>395.7</ele>
        <time>2009-04-08T12:22:26Z</time>
      </trkpt>
      <trkpt lat="38.134280" lon="-3.992402">
        <ele>394.3</ele>
        <time>2009-04-08T12:22:46Z</time>
      </trkpt>
      <trkpt lat="38.134189" lon="-3.992663">
        <ele>394.8</ele>
        <time>2009-04-08T12:23:04Z</time>
      </trkpt>
      <trkpt lat="38.134055" lon="-3.992880">
        <ele>398.6</ele>
        <time>2009-04-08T12:23:24Z</time>
      </trkpt>
      <trkpt lat="38.134069" lon="-3.992879">
        <ele>399.6</ele>
        <time>2009-04-08T12:23:41Z</time>
      </trkpt>
      <trkpt lat="38.134081" lon="-3.992857">
        <ele>398.6</ele>
        <time>2009-04-08T12:23:53Z</time>
      </trkpt>
      <trkpt lat="38.134089" lon="-3.992878">
        <ele>395.2</ele>
        <time>2009-04-08T12:24:13Z</time>
      </trkpt>
      <trkpt lat="38.134078" lon="-3.992869">
        <ele>394.3</ele>
        <time>2009-04-08T12:24:39Z</time>
      </trkpt>
      <trkpt lat="38.134060" lon="-3.992861">
        <ele>395.2</ele>
        <time>2009-04-08T12:25:32Z</time>
      </trkpt>
      <trkpt lat="38.134079" lon="-3.992846">
        <ele>394.3</ele>
        <time>2009-04-08T12:25:50Z</time>
      </trkpt>
      <trkpt lat="38.134095" lon="-3.992851">
        <ele>392.8</ele>
        <time>2009-04-08T12:26:43Z</time>
      </trkpt>
      <trkpt lat="38.134051" lon="-3.992868">
        <ele>390.4</ele>
        <time>2009-04-08T12:28:29Z</time>
      </trkpt>
      <trkpt lat="38.133850" lon="-3.992738">
        <ele>393.3</ele>
        <time>2009-04-08T12:28:49Z</time>
      </trkpt>
      <trkpt lat="38.133632" lon="-3.992514">
        <ele>394.3</ele>
        <time>2009-04-08T12:29:13Z</time>
      </trkpt>
      <trkpt lat="38.133404" lon="-3.992305">
        <ele>395.2</ele>
        <time>2009-04-08T12:29:36Z</time>
      </trkpt>
      <trkpt lat="38.133218" lon="-3.992291">
        <ele>397.2</ele>
        <time>2009-04-08T12:29:51Z</time>
      </trkpt>
      <trkpt lat="38.133159" lon="-3.992339">
        <ele>397.2</ele>
        <time>2009-04-08T12:29:57Z</time>
      </trkpt>
      <trkpt lat="38.133008" lon="-3.992557">
        <ele>399.6</ele>
        <time>2009-04-08T12:30:17Z</time>
      </trkpt>
      <trkpt lat="38.132853" lon="-3.992663">
        <ele>402.9</ele>
        <time>2009-04-08T12:30:33Z</time>
      </trkpt>
      <trkpt lat="38.132830" lon="-3.992661">
        <ele>402.9</ele>
        <time>2009-04-08T12:30:35Z</time>
      </trkpt>
      <trkpt lat="38.132754" lon="-3.992650">
        <ele>402.0</ele>
        <time>2009-04-08T12:30:47Z</time>
      </trkpt>
      <trkpt lat="38.132630" lon="-3.992598">
        <ele>402.0</ele>
        <time>2009-04-08T12:31:00Z</time>
      </trkpt>
      <trkpt lat="38.132496" lon="-3.992322">
        <ele>403.9</ele>
        <time>2009-04-08T12:31:19Z</time>
      </trkpt>
      <trkpt lat="38.132457" lon="-3.992056">
        <ele>404.4</ele>
        <time>2009-04-08T12:31:35Z</time>
      </trkpt>
      <trkpt lat="38.132562" lon="-3.991706">
        <ele>407.7</ele>
        <time>2009-04-08T12:31:59Z</time>
      </trkpt>
      <trkpt lat="38.132782" lon="-3.991574">
        <ele>413.5</ele>
        <time>2009-04-08T12:32:19Z</time>
      </trkpt>
      <trkpt lat="38.133031" lon="-3.991495">
        <ele>413.0</ele>
        <time>2009-04-08T12:32:38Z</time>
      </trkpt>
      <trkpt lat="38.133158" lon="-3.991243">
        <ele>412.5</ele>
        <time>2009-04-08T12:32:57Z</time>
      </trkpt>
      <trkpt lat="38.133118" lon="-3.990840">
        <ele>417.8</ele>
        <time>2009-04-08T12:33:20Z</time>
      </trkpt>
      <trkpt lat="38.133183" lon="-3.990498">
        <ele>421.2</ele>
        <time>2009-04-08T12:33:41Z</time>
      </trkpt>
      <trkpt lat="38.133207" lon="-3.990135">
        <ele>423.1</ele>
        <time>2009-04-08T12:34:02Z</time>
      </trkpt>
      <trkpt lat="38.133260" lon="-3.989849">
        <ele>424.6</ele>
        <time>2009-04-08T12:34:19Z</time>
      </trkpt>
      <trkpt lat="38.133377" lon="-3.989558">
        <ele>426.5</ele>
        <time>2009-04-08T12:34:40Z</time>
      </trkpt>
      <trkpt lat="38.133394" lon="-3.989264">
        <ele>427.4</ele>
        <time>2009-04-08T12:35:00Z</time>
      </trkpt>
      <trkpt lat="38.133248" lon="-3.989075">
        <ele>428.9</ele>
        <time>2009-04-08T12:35:17Z</time>
      </trkpt>
      <trkpt lat="38.133007" lon="-3.989052">
        <ele>428.4</ele>
        <time>2009-04-08T12:35:37Z</time>
      </trkpt>
      <trkpt lat="38.132859" lon="-3.988822">
        <ele>430.8</ele>
        <time>2009-04-08T12:35:54Z</time>
      </trkpt>
      <trkpt lat="38.132874" lon="-3.988516">
        <ele>434.2</ele>
        <time>2009-04-08T12:36:12Z</time>
      </trkpt>
      <trkpt lat="38.132928" lon="-3.988264">
        <ele>435.1</ele>
        <time>2009-04-08T12:36:28Z</time>
      </trkpt>
      <trkpt lat="38.132949" lon="-3.988197">
        <ele>435.1</ele>
        <time>2009-04-08T12:36:32Z</time>
      </trkpt>
      <trkpt lat="38.133032" lon="-3.987941">
        <ele>438.5</ele>
        <time>2009-04-08T12:36:49Z</time>
      </trkpt>
      <trkpt lat="38.133111" lon="-3.987721">
        <ele>439.9</ele>
        <time>2009-04-08T12:37:05Z</time>
      </trkpt>
      <trkpt lat="38.133170" lon="-3.987612">
        <ele>439.9</ele>
        <time>2009-04-08T12:37:13Z</time>
      </trkpt>
      <trkpt lat="38.133279" lon="-3.987318">
        <ele>439.5</ele>
        <time>2009-04-08T12:37:33Z</time>
      </trkpt>
      <trkpt lat="38.133325" lon="-3.987089">
        <ele>435.1</ele>
        <time>2009-04-08T12:37:49Z</time>
      </trkpt>
      <trkpt lat="38.133264" lon="-3.986780">
        <ele>438.5</ele>
        <time>2009-04-08T12:38:07Z</time>
      </trkpt>
      <trkpt lat="38.133258" lon="-3.986722">
        <ele>439.5</ele>
        <time>2009-04-08T12:38:11Z</time>
      </trkpt>
      <trkpt lat="38.133226" lon="-3.986577">
        <ele>441.4</ele>
        <time>2009-04-08T12:38:21Z</time>
      </trkpt>
      <trkpt lat="38.133230" lon="-3.986481">
        <ele>442.8</ele>
        <time>2009-04-08T12:38:27Z</time>
      </trkpt>
      <trkpt lat="38.133366" lon="-3.986181">
        <ele>444.3</ele>
        <time>2009-04-08T12:38:47Z</time>
      </trkpt>
      <trkpt lat="38.133455" lon="-3.985977">
        <ele>442.8</ele>
        <time>2009-04-08T12:39:03Z</time>
      </trkpt>
      <trkpt lat="38.133372" lon="-3.985680">
        <ele>444.3</ele>
        <time>2009-04-08T12:39:21Z</time>
      </trkpt>
      <trkpt lat="38.133199" lon="-3.985471">
        <ele>446.2</ele>
        <time>2009-04-08T12:39:38Z</time>
      </trkpt>
      <trkpt lat="38.132998" lon="-3.985262">
        <ele>447.6</ele>
        <time>2009-04-08T12:39:58Z</time>
      </trkpt>
      <trkpt lat="38.132828" lon="-3.985094">
        <ele>452.0</ele>
        <time>2009-04-08T12:40:14Z</time>
      </trkpt>
      <trkpt lat="38.132629" lon="-3.984904">
        <ele>454.4</ele>
        <time>2009-04-08T12:40:35Z</time>
      </trkpt>
      <trkpt lat="38.132534" lon="-3.984809">
        <ele>457.2</ele>
        <time>2009-04-08T12:40:56Z</time>
      </trkpt>
      <trkpt lat="38.132343" lon="-3.984593">
        <ele>456.8</ele>
        <time>2009-04-08T12:41:17Z</time>
      </trkpt>
      <trkpt lat="38.132153" lon="-3.984519">
        <ele>458.2</ele>
        <time>2009-04-08T12:41:34Z</time>
      </trkpt>
      <trkpt lat="38.131992" lon="-3.984640">
        <ele>462.1</ele>
        <time>2009-04-08T12:41:49Z</time>
      </trkpt>
      <trkpt lat="38.131911" lon="-3.984884">
        <ele>465.4</ele>
        <time>2009-04-08T12:42:02Z</time>
      </trkpt>
      <trkpt lat="38.131849" lon="-3.985065">
        <ele>464.9</ele>
        <time>2009-04-08T12:42:15Z</time>
      </trkpt>
      <trkpt lat="38.131701" lon="-3.985302">
        <ele>462.1</ele>
        <time>2009-04-08T12:42:34Z</time>
      </trkpt>
      <trkpt lat="38.131520" lon="-3.985470">
        <ele>462.1</ele>
        <time>2009-04-08T12:42:52Z</time>
      </trkpt>
      <trkpt lat="38.131343" lon="-3.985521">
        <ele>464.0</ele>
        <time>2009-04-08T12:43:07Z</time>
      </trkpt>
      <trkpt lat="38.131307" lon="-3.985489">
        <ele>464.0</ele>
        <time>2009-04-08T12:43:11Z</time>
      </trkpt>
      <trkpt lat="38.131278" lon="-3.985262">
        <ele>465.9</ele>
        <time>2009-04-08T12:43:26Z</time>
      </trkpt>
      <trkpt lat="38.131260" lon="-3.984984">
        <ele>467.8</ele>
        <time>2009-04-08T12:43:44Z</time>
      </trkpt>
      <trkpt lat="38.131231" lon="-3.984678">
        <ele>469.3</ele>
        <time>2009-04-08T12:44:03Z</time>
      </trkpt>
      <trkpt lat="38.131169" lon="-3.984419">
        <ele>471.7</ele>
        <time>2009-04-08T12:44:19Z</time>
      </trkpt>
      <trkpt lat="38.131106" lon="-3.984157">
        <ele>472.1</ele>
        <time>2009-04-08T12:44:36Z</time>
      </trkpt>
      <trkpt lat="38.130993" lon="-3.983829">
        <ele>474.5</ele>
        <time>2009-04-08T12:44:59Z</time>
      </trkpt>
      <trkpt lat="38.130825" lon="-3.983625">
        <ele>476.0</ele>
        <time>2009-04-08T12:45:18Z</time>
      </trkpt>
      <trkpt lat="38.130579" lon="-3.983437">
        <ele>476.0</ele>
        <time>2009-04-08T12:45:40Z</time>
      </trkpt>
      <trkpt lat="38.130518" lon="-3.983313">
        <ele>478.4</ele>
        <time>2009-04-08T12:45:58Z</time>
      </trkpt>
      <trkpt lat="38.130434" lon="-3.983142">
        <ele>482.2</ele>
        <time>2009-04-08T12:46:15Z</time>
      </trkpt>
      <trkpt lat="38.130366" lon="-3.983048">
        <ele>485.1</ele>
        <time>2009-04-08T12:46:29Z</time>
      </trkpt>
      <trkpt lat="38.130284" lon="-3.982883">
        <ele>484.6</ele>
        <time>2009-04-08T12:46:41Z</time>
      </trkpt>
      <trkpt lat="38.130181" lon="-3.982613">
        <ele>488.5</ele>
        <time>2009-04-08T12:46:59Z</time>
      </trkpt>
      <trkpt lat="38.130153" lon="-3.982425">
        <ele>496.7</ele>
        <time>2009-04-08T12:47:18Z</time>
      </trkpt>
      <trkpt lat="38.130114" lon="-3.982297">
        <ele>493.8</ele>
        <time>2009-04-08T12:48:11Z</time>
      </trkpt>
      <trkpt lat="38.129967" lon="-3.982017">
        <ele>492.8</ele>
        <time>2009-04-08T12:48:31Z</time>
      </trkpt>
      <trkpt lat="38.129951" lon="-3.981994">
        <ele>490.9</ele>
        <time>2009-04-08T12:48:52Z</time>
      </trkpt>
      <trkpt lat="38.129922" lon="-3.981989">
        <ele>483.2</ele>
        <time>2009-04-08T12:49:26Z</time>
      </trkpt>
      <trkpt lat="38.129834" lon="-3.981861">
        <ele>485.1</ele>
        <time>2009-04-08T12:49:37Z</time>
      </trkpt>
      <trkpt lat="38.129802" lon="-3.981795">
        <ele>487.0</ele>
        <time>2009-04-08T12:49:41Z</time>
      </trkpt>
      <trkpt lat="38.129621" lon="-3.981446">
        <ele>490.9</ele>
        <time>2009-04-08T12:50:06Z</time>
      </trkpt>
      <trkpt lat="38.129604" lon="-3.981076">
        <ele>492.8</ele>
        <time>2009-04-08T12:50:29Z</time>
      </trkpt>
      <trkpt lat="38.129713" lon="-3.980791">
        <ele>494.3</ele>
        <time>2009-04-08T12:50:49Z</time>
      </trkpt>
      <trkpt lat="38.129693" lon="-3.980556">
        <ele>496.2</ele>
        <time>2009-04-08T12:51:04Z</time>
      </trkpt>
      <trkpt lat="38.129605" lon="-3.980161">
        <ele>498.6</ele>
        <time>2009-04-08T12:51:29Z</time>
      </trkpt>
      <trkpt lat="38.129505" lon="-3.979822">
        <ele>499.1</ele>
        <time>2009-04-08T12:51:51Z</time>
      </trkpt>
      <trkpt lat="38.129428" lon="-3.979546">
        <ele>501.0</ele>
        <time>2009-04-08T12:52:08Z</time>
      </trkpt>
      <trkpt lat="38.129345" lon="-3.979360">
        <ele>500.0</ele>
        <time>2009-04-08T12:52:22Z</time>
      </trkpt>
      <trkpt lat="38.129133" lon="-3.979118">
        <ele>500.0</ele>
        <time>2009-04-08T12:52:44Z</time>
      </trkpt>
      <trkpt lat="38.128963" lon="-3.978822">
        <ele>503.9</ele>
        <time>2009-04-08T12:53:07Z</time>
      </trkpt>
      <trkpt lat="38.128817" lon="-3.978551">
        <ele>507.2</ele>
        <time>2009-04-08T12:53:27Z</time>
      </trkpt>
      <trkpt lat="38.128718" lon="-3.978332">
        <ele>508.2</ele>
        <time>2009-04-08T12:53:44Z</time>
      </trkpt>
      <trkpt lat="38.128759" lon="-3.978196">
        <ele>509.6</ele>
        <time>2009-04-08T12:53:56Z</time>
      </trkpt>
      <trkpt lat="38.128963" lon="-3.978001">
        <ele>511.1</ele>
        <time>2009-04-08T12:54:15Z</time>
      </trkpt>
      <trkpt lat="38.129200" lon="-3.977770">
        <ele>509.6</ele>
        <time>2009-04-08T12:54:37Z</time>
      </trkpt>
      <trkpt lat="38.129462" lon="-3.977718">
        <ele>509.2</ele>
        <time>2009-04-08T12:54:56Z</time>
      </trkpt>
      <trkpt lat="38.129684" lon="-3.977700">
        <ele>510.1</ele>
        <time>2009-04-08T12:55:12Z</time>
      </trkpt>
      <trkpt lat="38.129860" lon="-3.977518">
        <ele>509.6</ele>
        <time>2009-04-08T12:55:29Z</time>
      </trkpt>
      <trkpt lat="38.130021" lon="-3.977221">
        <ele>512.5</ele>
        <time>2009-04-08T12:55:50Z</time>
      </trkpt>
      <trkpt lat="38.130171" lon="-3.976809">
        <ele>513.0</ele>
        <time>2009-04-08T12:56:17Z</time>
      </trkpt>
      <trkpt lat="38.130402" lon="-3.976596">
        <ele>515.9</ele>
        <time>2009-04-08T12:56:40Z</time>
      </trkpt>
      <trkpt lat="38.130565" lon="-3.976694">
        <ele>515.9</ele>
        <time>2009-04-08T12:56:54Z</time>
      </trkpt>
      <trkpt lat="38.130726" lon="-3.976873">
        <ele>515.4</ele>
        <time>2009-04-08T12:57:10Z</time>
      </trkpt>
      <trkpt lat="38.130947" lon="-3.977036">
        <ele>514.4</ele>
        <time>2009-04-08T12:57:29Z</time>
      </trkpt>
      <trkpt lat="38.131005" lon="-3.977089">
        <ele>516.8</ele>
        <time>2009-04-08T12:57:49Z</time>
      </trkpt>
      <trkpt lat="38.131011" lon="-3.977094">
        <ele>519.7</ele>
        <time>2009-04-08T12:58:42Z</time>
      </trkpt>
      <trkpt lat="38.131020" lon="-3.977096">
        <ele>525.0</ele>
        <time>2009-04-08T12:59:23Z</time>
      </trkpt>
      <trkpt lat="38.131000" lon="-3.977102">
        <ele>524.5</ele>
        <time>2009-04-08T13:00:22Z</time>
      </trkpt>
      <trkpt lat="38.130990" lon="-3.977133">
        <ele>516.4</ele>
        <time>2009-04-08T13:01:23Z</time>
      </trkpt>
      <trkpt lat="38.130979" lon="-3.977139">
        <ele>519.7</ele>
        <time>2009-04-08T13:02:00Z</time>
      </trkpt>
      <trkpt lat="38.130999" lon="-3.977141">
        <ele>523.1</ele>
        <time>2009-04-08T13:02:22Z</time>
      </trkpt>
      <trkpt lat="38.131035" lon="-3.977120">
        <ele>519.7</ele>
        <time>2009-04-08T13:02:43Z</time>
      </trkpt>
      <trkpt lat="38.131124" lon="-3.977156">
        <ele>517.3</ele>
        <time>2009-04-08T13:02:53Z</time>
      </trkpt>
      <trkpt lat="38.131309" lon="-3.977131">
        <ele>516.4</ele>
        <time>2009-04-08T13:03:07Z</time>
      </trkpt>
      <trkpt lat="38.131461" lon="-3.976873">
        <ele>517.3</ele>
        <time>2009-04-08T13:03:26Z</time>
      </trkpt>
      <trkpt lat="38.131592" lon="-3.976425">
        <ele>517.8</ele>
        <time>2009-04-08T13:03:55Z</time>
      </trkpt>
      <trkpt lat="38.131691" lon="-3.976010">
        <ele>519.7</ele>
        <time>2009-04-08T13:04:21Z</time>
      </trkpt>
      <trkpt lat="38.131797" lon="-3.975684">
        <ele>520.7</ele>
        <time>2009-04-08T13:04:43Z</time>
      </trkpt>
      <trkpt lat="38.131929" lon="-3.975299">
        <ele>522.6</ele>
        <time>2009-04-08T13:05:08Z</time>
      </trkpt>
      <trkpt lat="38.131983" lon="-3.974885">
        <ele>524.5</ele>
        <time>2009-04-08T13:05:34Z</time>
      </trkpt>
      <trkpt lat="38.131890" lon="-3.974569">
        <ele>524.5</ele>
        <time>2009-04-08T13:05:53Z</time>
      </trkpt>
      <trkpt lat="38.131844" lon="-3.974289">
        <ele>526.5</ele>
        <time>2009-04-08T13:06:09Z</time>
      </trkpt>
      <trkpt lat="38.131813" lon="-3.974037">
        <ele>527.9</ele>
        <time>2009-04-08T13:06:23Z</time>
      </trkpt>
      <trkpt lat="38.131801" lon="-3.973820">
        <ele>529.3</ele>
        <time>2009-04-08T13:06:37Z</time>
      </trkpt>
      <trkpt lat="38.131798" lon="-3.973785">
        <ele>528.9</ele>
        <time>2009-04-08T13:06:40Z</time>
      </trkpt>
      <trkpt lat="38.131754" lon="-3.973520">
        <ele>532.2</ele>
        <time>2009-04-08T13:06:56Z</time>
      </trkpt>
      <trkpt lat="38.131644" lon="-3.973235">
        <ele>526.0</ele>
        <time>2009-04-08T13:07:16Z</time>
      </trkpt>
      <trkpt lat="38.131588" lon="-3.972857">
        <ele>526.5</ele>
        <time>2009-04-08T13:07:38Z</time>
      </trkpt>
      <trkpt lat="38.131521" lon="-3.972536">
        <ele>523.1</ele>
        <time>2009-04-08T13:07:59Z</time>
      </trkpt>
      <trkpt lat="38.131400" lon="-3.972222">
        <ele>517.3</ele>
        <time>2009-04-08T13:08:19Z</time>
      </trkpt>
      <trkpt lat="38.131213" lon="-3.971762">
        <ele>516.4</ele>
        <time>2009-04-08T13:08:48Z</time>
      </trkpt>
      <trkpt lat="38.131052" lon="-3.971350">
        <ele>513.5</ele>
        <time>2009-04-08T13:09:14Z</time>
      </trkpt>
      <trkpt lat="38.130891" lon="-3.970924">
        <ele>515.4</ele>
        <time>2009-04-08T13:09:40Z</time>
      </trkpt>
      <trkpt lat="38.130756" lon="-3.970560">
        <ele>513.0</ele>
        <time>2009-04-08T13:10:03Z</time>
      </trkpt>
      <trkpt lat="38.130577" lon="-3.970103">
        <ele>511.6</ele>
        <time>2009-04-08T13:10:31Z</time>
      </trkpt>
      <trkpt lat="38.130440" lon="-3.969762">
        <ele>508.7</ele>
        <time>2009-04-08T13:10:53Z</time>
      </trkpt>
      <trkpt lat="38.130311" lon="-3.969447">
        <ele>505.3</ele>
        <time>2009-04-08T13:11:15Z</time>
      </trkpt>
      <trkpt lat="38.130089" lon="-3.969115">
        <ele>503.9</ele>
        <time>2009-04-08T13:11:42Z</time>
      </trkpt>
      <trkpt lat="38.129886" lon="-3.968883">
        <ele>510.6</ele>
        <time>2009-04-08T13:12:03Z</time>
      </trkpt>
      <trkpt lat="38.129786" lon="-3.968750">
        <ele>516.4</ele>
        <time>2009-04-08T13:12:21Z</time>
      </trkpt>
      <trkpt lat="38.129604" lon="-3.968567">
        <ele>517.8</ele>
        <time>2009-04-08T13:12:41Z</time>
      </trkpt>
      <trkpt lat="38.129394" lon="-3.968365">
        <ele>519.2</ele>
        <time>2009-04-08T13:13:02Z</time>
      </trkpt>
      <trkpt lat="38.129155" lon="-3.968144">
        <ele>518.3</ele>
        <time>2009-04-08T13:13:24Z</time>
      </trkpt>
      <trkpt lat="38.128955" lon="-3.967946">
        <ele>516.8</ele>
        <time>2009-04-08T13:13:44Z</time>
      </trkpt>
      <trkpt lat="38.128781" lon="-3.967618">
        <ele>516.4</ele>
        <time>2009-04-08T13:14:07Z</time>
      </trkpt>
      <trkpt lat="38.128689" lon="-3.967276">
        <ele>515.4</ele>
        <time>2009-04-08T13:14:28Z</time>
      </trkpt>
      <trkpt lat="38.128668" lon="-3.967113">
        <ele>511.1</ele>
        <time>2009-04-08T13:14:47Z</time>
      </trkpt>
      <trkpt lat="38.128623" lon="-3.967147">
        <ele>501.9</ele>
        <time>2009-04-08T13:15:39Z</time>
      </trkpt>
      <trkpt lat="38.128594" lon="-3.967155">
        <ele>502.4</ele>
        <time>2009-04-08T13:16:24Z</time>
      </trkpt>
      <trkpt lat="38.128616" lon="-3.967140">
        <ele>492.3</ele>
        <time>2009-04-08T13:17:03Z</time>
      </trkpt>
      <trkpt lat="38.128642" lon="-3.967149">
        <ele>497.6</ele>
        <time>2009-04-08T13:17:46Z</time>
      </trkpt>
      <trkpt lat="38.128649" lon="-3.967149">
        <ele>498.6</ele>
        <time>2009-04-08T13:17:50Z</time>
      </trkpt>
      <trkpt lat="38.128576" lon="-3.967011">
        <ele>507.5</ele>
        <time>2009-04-08T15:16:42Z</time>
      </trkpt>
      <trkpt lat="38.128636" lon="-3.967047">
        <ele>508.1</ele>
        <time>2009-04-08T15:17:30Z</time>
      </trkpt>
      <trkpt lat="38.128610" lon="-3.967023">
        <ele>507.8</ele>
        <time>2009-04-08T15:17:57Z</time>
      </trkpt>
      <trkpt lat="38.128611" lon="-3.967026">
        <ele>507.9</ele>
        <time>2009-04-08T15:18:20Z</time>
      </trkpt>
      <trkpt lat="38.128608" lon="-3.967037">
        <ele>507.8</ele>
        <time>2009-04-08T15:18:43Z</time>
      </trkpt>
      <trkpt lat="38.128608" lon="-3.967038">
        <ele>507.9</ele>
        <time>2009-04-08T15:19:15Z</time>
      </trkpt>
      <trkpt lat="38.128610" lon="-3.967031">
        <ele>507.9</ele>
        <time>2009-04-08T15:19:26Z</time>
      </trkpt>
      <trkpt lat="38.128649" lon="-3.967127">
        <ele>508.3</ele>
        <time>2009-04-08T15:19:31Z</time>
      </trkpt>
      <trkpt lat="38.129209" lon="-3.967553">
        <ele>514.1</ele>
        <time>2009-04-08T15:19:44Z</time>
      </trkpt>
      <trkpt lat="38.130094" lon="-3.968349">
        <ele>519.9</ele>
        <time>2009-04-08T15:19:58Z</time>
      </trkpt>
      <trkpt lat="38.130549" lon="-3.968608">
        <ele>520.1</ele>
        <time>2009-04-08T15:20:05Z</time>
      </trkpt>
      <trkpt lat="38.130810" lon="-3.968571">
        <ele>519.3</ele>
        <time>2009-04-08T15:20:09Z</time>
      </trkpt>
      <trkpt lat="38.131086" lon="-3.968470">
        <ele>518.4</ele>
        <time>2009-04-08T15:20:17Z</time>
      </trkpt>
      <trkpt lat="38.131077" lon="-3.968459">
        <ele>518.3</ele>
        <time>2009-04-08T15:20:40Z</time>
      </trkpt>
      <trkpt lat="38.131074" lon="-3.968462">
        <ele>518.4</ele>
        <time>2009-04-08T15:21:19Z</time>
      </trkpt>
      <trkpt lat="38.131075" lon="-3.968475">
        <ele>518.4</ele>
        <time>2009-04-08T15:21:53Z</time>
      </trkpt>
      <trkpt lat="38.131073" lon="-3.968471">
        <ele>518.4</ele>
        <time>2009-04-08T15:22:33Z</time>
      </trkpt>
      <trkpt lat="38.131064" lon="-3.968485">
        <ele>518.4</ele>
        <time>2009-04-08T15:22:49Z</time>
      </trkpt>
      <trkpt lat="38.131010" lon="-3.968528">
        <ele>518.7</ele>
        <time>2009-04-08T15:23:05Z</time>
      </trkpt>
      <trkpt lat="38.131023" lon="-3.968506">
        <ele>518.6</ele>
        <time>2009-04-08T15:23:33Z</time>
      </trkpt>
      <trkpt lat="38.131297" lon="-3.968208">
        <ele>517.3</ele>
        <time>2009-04-08T15:23:42Z</time>
      </trkpt>
      <trkpt lat="38.131391" lon="-3.968019">
        <ele>516.7</ele>
        <time>2009-04-08T15:23:45Z</time>
      </trkpt>
      <trkpt lat="38.131853" lon="-3.967202">
        <ele>516.7</ele>
        <time>2009-04-08T15:23:54Z</time>
      </trkpt>
      <trkpt lat="38.132227" lon="-3.966573">
        <ele>520.8</ele>
        <time>2009-04-08T15:24:01Z</time>
      </trkpt>
      <trkpt lat="38.132381" lon="-3.966397">
        <ele>522.5</ele>
        <time>2009-04-08T15:24:05Z</time>
      </trkpt>
      <trkpt lat="38.132951" lon="-3.965973">
        <ele>528.2</ele>
        <time>2009-04-08T15:24:14Z</time>
      </trkpt>
      <trkpt lat="38.133498" lon="-3.965548">
        <ele>531.7</ele>
        <time>2009-04-08T15:24:23Z</time>
      </trkpt>
      <trkpt lat="38.134188" lon="-3.964731">
        <ele>532.3</ele>
        <time>2009-04-08T15:24:35Z</time>
      </trkpt>
      <trkpt lat="38.134944" lon="-3.963794">
        <ele>534.9</ele>
        <time>2009-04-08T15:24:48Z</time>
      </trkpt>
      <trkpt lat="38.135140" lon="-3.963349">
        <ele>538.5</ele>
        <time>2009-04-08T15:24:53Z</time>
      </trkpt>
      <trkpt lat="38.135418" lon="-3.962873">
        <ele>544.4</ele>
        <time>2009-04-08T15:25:02Z</time>
      </trkpt>
      <trkpt lat="38.135390" lon="-3.962899">
        <ele>544.0</ele>
        <time>2009-04-08T15:25:20Z</time>
      </trkpt>
      <trkpt lat="38.135353" lon="-3.962905">
        <ele>543.6</ele>
        <time>2009-04-08T15:25:26Z</time>
      </trkpt>
      <trkpt lat="38.135301" lon="-3.962957">
        <ele>542.8</ele>
        <time>2009-04-08T15:25:42Z</time>
      </trkpt>
      <trkpt lat="38.135298" lon="-3.962952">
        <ele>542.8</ele>
        <time>2009-04-08T15:25:49Z</time>
      </trkpt>
      <trkpt lat="38.135363" lon="-3.962942">
        <ele>543.5</ele>
        <time>2009-04-08T15:26:02Z</time>
      </trkpt>
      <trkpt lat="38.135368" lon="-3.962936">
        <ele>543.6</ele>
        <time>2009-04-08T15:26:03Z</time>
      </trkpt>
      <trkpt lat="38.135346" lon="-3.962870">
        <ele>543.8</ele>
        <time>2009-04-08T15:26:18Z</time>
      </trkpt>
      <trkpt lat="38.135342" lon="-3.962899">
        <ele>543.6</ele>
        <time>2009-04-08T15:26:41Z</time>
      </trkpt>
      <trkpt lat="38.135349" lon="-3.962935">
        <ele>543.4</ele>
        <time>2009-04-08T15:27:19Z</time>
      </trkpt>
      <trkpt lat="38.135329" lon="-3.962951">
        <ele>543.1</ele>
        <time>2009-04-08T15:27:31Z</time>
      </trkpt>
      <trkpt lat="38.135340" lon="-3.962963">
        <ele>543.1</ele>
        <time>2009-04-08T15:27:38Z</time>
      </trkpt>
      <trkpt lat="38.135433" lon="-3.962869">
        <ele>544.6</ele>
        <time>2009-04-08T15:27:42Z</time>
      </trkpt>
      <trkpt lat="38.135849" lon="-3.962581">
        <ele>548.5</ele>
        <time>2009-04-08T15:27:50Z</time>
      </trkpt>
      <trkpt lat="38.136598" lon="-3.962061">
        <ele>555.0</ele>
        <time>2009-04-08T15:28:03Z</time>
      </trkpt>
      <trkpt lat="38.137105" lon="-3.961297">
        <ele>559.4</ele>
        <time>2009-04-08T15:28:14Z</time>
      </trkpt>
      <trkpt lat="38.137132" lon="-3.961238">
        <ele>559.6</ele>
        <time>2009-04-08T15:28:23Z</time>
      </trkpt>
      <trkpt lat="38.137070" lon="-3.961280">
        <ele>559.1</ele>
        <time>2009-04-08T15:28:38Z</time>
      </trkpt>
      <trkpt lat="38.137047" lon="-3.961292">
        <ele>558.9</ele>
        <time>2009-04-08T15:29:41Z</time>
      </trkpt>
      <trkpt lat="38.137056" lon="-3.961291">
        <ele>559.0</ele>
        <time>2009-04-08T15:30:01Z</time>
      </trkpt>
      <trkpt lat="38.137126" lon="-3.961213">
        <ele>559.6</ele>
        <time>2009-04-08T15:30:19Z</time>
      </trkpt>
      <trkpt lat="38.137278" lon="-3.961000">
        <ele>561.8</ele>
        <time>2009-04-08T15:30:37Z</time>
      </trkpt>
      <trkpt lat="38.137498" lon="-3.960602">
        <ele>566.2</ele>
        <time>2009-04-08T15:31:02Z</time>
      </trkpt>
      <trkpt lat="38.137677" lon="-3.960269">
        <ele>570.0</ele>
        <time>2009-04-08T15:31:25Z</time>
      </trkpt>
      <trkpt lat="38.137691" lon="-3.960235">
        <ele>570.2</ele>
        <time>2009-04-08T15:31:36Z</time>
      </trkpt>
      <trkpt lat="38.137685" lon="-3.960244">
        <ele>570.1</ele>
        <time>2009-04-08T15:31:42Z</time>
      </trkpt>
      <trkpt lat="38.137980" lon="-3.960011">
        <ele>572.2</ele>
        <time>2009-04-08T15:31:51Z</time>
      </trkpt>
      <trkpt lat="38.138287" lon="-3.959837">
        <ele>573.9</ele>
        <time>2009-04-08T15:32:00Z</time>
      </trkpt>
      <trkpt lat="38.138370" lon="-3.959808">
        <ele>574.3</ele>
        <time>2009-04-08T15:32:13Z</time>
      </trkpt>
      <trkpt lat="38.138354" lon="-3.959826">
        <ele>574.2</ele>
        <time>2009-04-08T15:32:52Z</time>
      </trkpt>
      <trkpt lat="38.138352" lon="-3.959821">
        <ele>574.2</ele>
        <time>2009-04-08T15:33:07Z</time>
      </trkpt>
      <trkpt lat="38.138353" lon="-3.959841">
        <ele>574.2</ele>
        <time>2009-04-08T15:33:52Z</time>
      </trkpt>
      <trkpt lat="38.138341" lon="-3.959839">
        <ele>574.2</ele>
        <time>2009-04-08T15:34:27Z</time>
      </trkpt>
      <trkpt lat="38.138577" lon="-3.959732">
        <ele>575.0</ele>
        <time>2009-04-08T15:34:35Z</time>
      </trkpt>
      <trkpt lat="38.138646" lon="-3.959695">
        <ele>575.0</ele>
        <time>2009-04-08T15:34:36Z</time>
      </trkpt>
      <trkpt lat="38.138930" lon="-3.959404">
        <ele>575.1</ele>
        <time>2009-04-08T15:34:40Z</time>
      </trkpt>
      <trkpt lat="38.139313" lon="-3.958846">
        <ele>576.4</ele>
        <time>2009-04-08T15:34:47Z</time>
      </trkpt>
      <trkpt lat="38.139679" lon="-3.958483">
        <ele>580.3</ele>
        <time>2009-04-08T15:34:54Z</time>
      </trkpt>
      <trkpt lat="38.139707" lon="-3.958478">
        <ele>580.6</ele>
        <time>2009-04-08T15:35:02Z</time>
      </trkpt>
      <trkpt lat="38.139639" lon="-3.958479">
        <ele>580.0</ele>
        <time>2009-04-08T15:35:25Z</time>
      </trkpt>
      <trkpt lat="38.139614" lon="-3.958476">
        <ele>579.8</ele>
        <time>2009-04-08T15:36:05Z</time>
      </trkpt>
      <trkpt lat="38.139632" lon="-3.958451">
        <ele>580.0</ele>
        <time>2009-04-08T15:36:19Z</time>
      </trkpt>
      <trkpt lat="38.139815" lon="-3.958194">
        <ele>581.9</ele>
        <time>2009-04-08T15:36:26Z</time>
      </trkpt>
      <trkpt lat="38.140336" lon="-3.957444">
        <ele>584.7</ele>
        <time>2009-04-08T15:36:37Z</time>
      </trkpt>
      <trkpt lat="38.140794" lon="-3.957107">
        <ele>583.7</ele>
        <time>2009-04-08T15:36:42Z</time>
      </trkpt>
      <trkpt lat="38.141175" lon="-3.956643">
        <ele>583.8</ele>
        <time>2009-04-08T15:36:47Z</time>
      </trkpt>
      <trkpt lat="38.141306" lon="-3.956147">
        <ele>585.2</ele>
        <time>2009-04-08T15:36:51Z</time>
      </trkpt>
      <trkpt lat="38.141451" lon="-3.955678">
        <ele>585.8</ele>
        <time>2009-04-08T15:36:55Z</time>
      </trkpt>
      <trkpt lat="38.141945" lon="-3.955238">
        <ele>589.6</ele>
        <time>2009-04-08T15:37:02Z</time>
      </trkpt>
      <trkpt lat="38.142414" lon="-3.955131">
        <ele>592.0</ele>
        <time>2009-04-08T15:37:07Z</time>
      </trkpt>
      <trkpt lat="38.143127" lon="-3.954633">
        <ele>593.5</ele>
        <time>2009-04-08T15:37:17Z</time>
      </trkpt>
      <trkpt lat="38.143175" lon="-3.954576">
        <ele>593.6</ele>
        <time>2009-04-08T15:37:27Z</time>
      </trkpt>
      <trkpt lat="38.143171" lon="-3.954574">
        <ele>593.6</ele>
        <time>2009-04-08T15:37:52Z</time>
      </trkpt>
      <trkpt lat="38.143130" lon="-3.954527">
        <ele>593.8</ele>
        <time>2009-04-08T15:38:22Z</time>
      </trkpt>
      <trkpt lat="38.143129" lon="-3.954527">
        <ele>593.8</ele>
        <time>2009-04-08T15:38:31Z</time>
      </trkpt>
      <trkpt lat="38.143594" lon="-3.954569">
        <ele>593.8</ele>
        <time>2009-04-08T15:38:41Z</time>
      </trkpt>
      <trkpt lat="38.144367" lon="-3.954719">
        <ele>596.8</ele>
        <time>2009-04-08T15:38:49Z</time>
      </trkpt>
      <trkpt lat="38.144934" lon="-3.954890">
        <ele>599.0</ele>
        <time>2009-04-08T15:38:56Z</time>
      </trkpt>
      <trkpt lat="38.145470" lon="-3.954667">
        <ele>602.5</ele>
        <time>2009-04-08T15:39:04Z</time>
      </trkpt>
      <trkpt lat="38.145595" lon="-3.954518">
        <ele>603.7</ele>
        <time>2009-04-08T15:39:13Z</time>
      </trkpt>
      <trkpt lat="38.145561" lon="-3.954593">
        <ele>603.2</ele>
        <time>2009-04-08T15:39:29Z</time>
      </trkpt>
      <trkpt lat="38.145579" lon="-3.954595">
        <ele>603.2</ele>
        <time>2009-04-08T15:40:03Z</time>
      </trkpt>
      <trkpt lat="38.145573" lon="-3.954567">
        <ele>603.3</ele>
        <time>2009-04-08T15:40:42Z</time>
      </trkpt>
      <trkpt lat="38.145615" lon="-3.954324">
        <ele>604.1</ele>
        <time>2009-04-08T15:40:48Z</time>
      </trkpt>
      <trkpt lat="38.145648" lon="-3.953274">
        <ele>606.5</ele>
        <time>2009-04-08T15:41:00Z</time>
      </trkpt>
      <trkpt lat="38.145651" lon="-3.953087">
        <ele>607.6</ele>
        <time>2009-04-08T15:41:02Z</time>
      </trkpt>
      <trkpt lat="38.145512" lon="-3.952618">
        <ele>609.3</ele>
        <time>2009-04-08T15:41:07Z</time>
      </trkpt>
      <trkpt lat="38.145454" lon="-3.952267">
        <ele>610.6</ele>
        <time>2009-04-08T15:41:15Z</time>
      </trkpt>
      <trkpt lat="38.145479" lon="-3.952269">
        <ele>610.7</ele>
        <time>2009-04-08T15:41:42Z</time>
      </trkpt>
      <trkpt lat="38.145479" lon="-3.952203">
        <ele>611.0</ele>
        <time>2009-04-08T15:42:19Z</time>
      </trkpt>
      <trkpt lat="38.145505" lon="-3.952239">
        <ele>611.0</ele>
        <time>2009-04-08T15:42:43Z</time>
      </trkpt>
      <trkpt lat="38.145525" lon="-3.952016">
        <ele>612.2</ele>
        <time>2009-04-08T15:43:00Z</time>
      </trkpt>
      <trkpt lat="38.145554" lon="-3.951874">
        <ele>612.7</ele>
        <time>2009-04-08T15:43:02Z</time>
      </trkpt>
      <trkpt lat="38.145566" lon="-3.951465">
        <ele>613.1</ele>
        <time>2009-04-08T15:43:06Z</time>
      </trkpt>
      <trkpt lat="38.145771" lon="-3.951094">
        <ele>617.1</ele>
        <time>2009-04-08T15:43:12Z</time>
      </trkpt>
      <trkpt lat="38.146046" lon="-3.950647">
        <ele>620.6</ele>
        <time>2009-04-08T15:43:19Z</time>
      </trkpt>
      <trkpt lat="38.146048" lon="-3.950476">
        <ele>620.0</ele>
        <time>2009-04-08T15:43:21Z</time>
      </trkpt>
      <trkpt lat="38.146316" lon="-3.950027">
        <ele>621.5</ele>
        <time>2009-04-08T15:43:28Z</time>
      </trkpt>
      <trkpt lat="38.146479" lon="-3.949966">
        <ele>622.8</ele>
        <time>2009-04-08T15:43:30Z</time>
      </trkpt>
      <trkpt lat="38.146920" lon="-3.950231">
        <ele>629.0</ele>
        <time>2009-04-08T15:43:37Z</time>
      </trkpt>
      <trkpt lat="38.147318" lon="-3.950487">
        <ele>628.4</ele>
        <time>2009-04-08T15:43:42Z</time>
      </trkpt>
      <trkpt lat="38.147906" lon="-3.950595">
        <ele>626.1</ele>
        <time>2009-04-08T15:43:49Z</time>
      </trkpt>
      <trkpt lat="38.148163" lon="-3.950384">
        <ele>624.9</ele>
        <time>2009-04-08T15:43:54Z</time>
      </trkpt>
      <trkpt lat="38.148260" lon="-3.950277">
        <ele>624.6</ele>
        <time>2009-04-08T15:44:06Z</time>
      </trkpt>
      <trkpt lat="38.148276" lon="-3.950245">
        <ele>624.5</ele>
        <time>2009-04-08T15:44:07Z</time>
      </trkpt>
      <trkpt lat="38.148442" lon="-3.950058">
        <ele>624.0</ele>
        <time>2009-04-08T15:44:11Z</time>
      </trkpt>
      <trkpt lat="38.148804" lon="-3.949944">
        <ele>622.8</ele>
        <time>2009-04-08T15:44:17Z</time>
      </trkpt>
      <trkpt lat="38.149263" lon="-3.949545">
        <ele>623.4</ele>
        <time>2009-04-08T15:44:25Z</time>
      </trkpt>
      <trkpt lat="38.149359" lon="-3.949335">
        <ele>624.3</ele>
        <time>2009-04-08T15:44:35Z</time>
      </trkpt>
      <trkpt lat="38.149353" lon="-3.949295">
        <ele>624.4</ele>
        <time>2009-04-08T15:44:52Z</time>
      </trkpt>
      <trkpt lat="38.149337" lon="-3.949268">
        <ele>624.4</ele>
        <time>2009-04-08T15:45:04Z</time>
      </trkpt>
      <trkpt lat="38.149281" lon="-3.949193">
        <ele>624.5</ele>
        <time>2009-04-08T15:46:24Z</time>
      </trkpt>
      <trkpt lat="38.149304" lon="-3.949191">
        <ele>624.5</ele>
        <time>2009-04-08T15:46:53Z</time>
      </trkpt>
      <trkpt lat="38.149298" lon="-3.949178">
        <ele>624.5</ele>
        <time>2009-04-08T15:46:55Z</time>
      </trkpt>
      <trkpt lat="38.149286" lon="-3.948686">
        <ele>625.4</ele>
        <time>2009-04-08T15:47:03Z</time>
      </trkpt>
      <trkpt lat="38.149012" lon="-3.948045">
        <ele>624.0</ele>
        <time>2009-04-08T15:47:09Z</time>
      </trkpt>
      <trkpt lat="38.148628" lon="-3.947247">
        <ele>622.5</ele>
        <time>2009-04-08T15:47:16Z</time>
      </trkpt>
      <trkpt lat="38.148530" lon="-3.946874">
        <ele>623.9</ele>
        <time>2009-04-08T15:47:19Z</time>
      </trkpt>
      <trkpt lat="38.147985" lon="-3.945698">
        <ele>620.8</ele>
        <time>2009-04-08T15:47:29Z</time>
      </trkpt>
      <trkpt lat="38.148053" lon="-3.945479">
        <ele>623.8</ele>
        <time>2009-04-08T15:47:35Z</time>
      </trkpt>
      <trkpt lat="38.148061" lon="-3.945474">
        <ele>623.9</ele>
        <time>2009-04-08T15:47:50Z</time>
      </trkpt>
      <trkpt lat="38.148057" lon="-3.945466">
        <ele>623.9</ele>
        <time>2009-04-08T15:48:10Z</time>
      </trkpt>
      <trkpt lat="38.148092" lon="-3.945428">
        <ele>624.9</ele>
        <time>2009-04-08T15:49:00Z</time>
      </trkpt>
      <trkpt lat="38.148098" lon="-3.945433">
        <ele>625.0</ele>
        <time>2009-04-08T15:49:30Z</time>
      </trkpt>
      <trkpt lat="38.148143" lon="-3.945410">
        <ele>626.0</ele>
        <time>2009-04-08T15:49:33Z</time>
      </trkpt>
      <trkpt lat="38.148387" lon="-3.945339">
        <ele>631.2</ele>
        <time>2009-04-08T15:49:38Z</time>
      </trkpt>
      <trkpt lat="38.148519" lon="-3.945346">
        <ele>633.7</ele>
        <time>2009-04-08T15:49:40Z</time>
      </trkpt>
      <trkpt lat="38.149346" lon="-3.945047">
        <ele>633.5</ele>
        <time>2009-04-08T15:49:50Z</time>
      </trkpt>
      <trkpt lat="38.149754" lon="-3.944871">
        <ele>628.6</ele>
        <time>2009-04-08T15:49:54Z</time>
      </trkpt>
      <trkpt lat="38.150169" lon="-3.944872">
        <ele>624.7</ele>
        <time>2009-04-08T15:49:59Z</time>
      </trkpt>
      <trkpt lat="38.150387" lon="-3.944949">
        <ele>623.9</ele>
        <time>2009-04-08T15:50:03Z</time>
      </trkpt>
      <trkpt lat="38.150807" lon="-3.944845">
        <ele>622.7</ele>
        <time>2009-04-08T15:50:08Z</time>
      </trkpt>
      <trkpt lat="38.150959" lon="-3.944713">
        <ele>622.9</ele>
        <time>2009-04-08T15:50:10Z</time>
      </trkpt>
      <trkpt lat="38.151463" lon="-3.944771">
        <ele>623.0</ele>
        <time>2009-04-08T15:50:17Z</time>
      </trkpt>
      <trkpt lat="38.151623" lon="-3.944838">
        <ele>622.9</ele>
        <time>2009-04-08T15:50:21Z</time>
      </trkpt>
      <trkpt lat="38.152026" lon="-3.944960">
        <ele>622.9</ele>
        <time>2009-04-08T15:50:30Z</time>
      </trkpt>
      <trkpt lat="38.152195" lon="-3.945053">
        <ele>622.9</ele>
        <time>2009-04-08T15:50:33Z</time>
      </trkpt>
      <trkpt lat="38.152763" lon="-3.945049">
        <ele>624.3</ele>
        <time>2009-04-08T15:50:40Z</time>
      </trkpt>
      <trkpt lat="38.152917" lon="-3.944948">
        <ele>624.9</ele>
        <time>2009-04-08T15:50:48Z</time>
      </trkpt>
      <trkpt lat="38.152911" lon="-3.944965">
        <ele>624.9</ele>
        <time>2009-04-08T15:51:29Z</time>
      </trkpt>
      <trkpt lat="38.152899" lon="-3.944956">
        <ele>624.8</ele>
        <time>2009-04-08T15:52:06Z</time>
      </trkpt>
      <trkpt lat="38.152900" lon="-3.944971">
        <ele>624.8</ele>
        <time>2009-04-08T15:52:20Z</time>
      </trkpt>
      <trkpt lat="38.153268" lon="-3.944892">
        <ele>626.1</ele>
        <time>2009-04-08T15:52:28Z</time>
      </trkpt>
      <trkpt lat="38.153492" lon="-3.944902">
        <ele>627.0</ele>
        <time>2009-04-08T15:52:31Z</time>
      </trkpt>
      <trkpt lat="38.153726" lon="-3.944863">
        <ele>626.7</ele>
        <time>2009-04-08T15:52:35Z</time>
      </trkpt>
      <trkpt lat="38.153929" lon="-3.944719">
        <ele>625.8</ele>
        <time>2009-04-08T15:52:39Z</time>
      </trkpt>
      <trkpt lat="38.154761" lon="-3.944041">
        <ele>621.5</ele>
        <time>2009-04-08T15:52:51Z</time>
      </trkpt>
      <trkpt lat="38.155574" lon="-3.943298">
        <ele>623.2</ele>
        <time>2009-04-08T15:53:03Z</time>
      </trkpt>
      <trkpt lat="38.155983" lon="-3.942723">
        <ele>626.0</ele>
        <time>2009-04-08T15:53:13Z</time>
      </trkpt>
      <trkpt lat="38.156527" lon="-3.942157">
        <ele>623.9</ele>
        <time>2009-04-08T15:53:22Z</time>
      </trkpt>
      <trkpt lat="38.156723" lon="-3.941829">
        <ele>622.8</ele>
        <time>2009-04-08T15:53:26Z</time>
      </trkpt>
      <trkpt lat="38.157016" lon="-3.941565">
        <ele>620.4</ele>
        <time>2009-04-08T15:53:31Z</time>
      </trkpt>
      <trkpt lat="38.157342" lon="-3.941409">
        <ele>617.5</ele>
        <time>2009-04-08T15:53:37Z</time>
      </trkpt>
      <trkpt lat="38.157523" lon="-3.941178">
        <ele>616.3</ele>
        <time>2009-04-08T15:53:41Z</time>
      </trkpt>
      <trkpt lat="38.158228" lon="-3.940386">
        <ele>614.5</ele>
        <time>2009-04-08T15:53:54Z</time>
      </trkpt>
      <trkpt lat="38.158687" lon="-3.939860">
        <ele>616.2</ele>
        <time>2009-04-08T15:54:06Z</time>
      </trkpt>
      <trkpt lat="38.159137" lon="-3.939107">
        <ele>617.6</ele>
        <time>2009-04-08T15:54:17Z</time>
      </trkpt>
      <trkpt lat="38.159819" lon="-3.938045">
        <ele>609.4</ele>
        <time>2009-04-08T15:54:29Z</time>
      </trkpt>
      <trkpt lat="38.159862" lon="-3.937973">
        <ele>608.8</ele>
        <time>2009-04-08T15:54:30Z</time>
      </trkpt>
      <trkpt lat="38.159950" lon="-3.937635">
        <ele>606.6</ele>
        <time>2009-04-08T15:54:34Z</time>
      </trkpt>
      <trkpt lat="38.159973" lon="-3.937422">
        <ele>605.3</ele>
        <time>2009-04-08T15:54:36Z</time>
      </trkpt>
      <trkpt lat="38.160148" lon="-3.936959">
        <ele>601.3</ele>
        <time>2009-04-08T15:54:41Z</time>
      </trkpt>
      <trkpt lat="38.160311" lon="-3.936715">
        <ele>600.3</ele>
        <time>2009-04-08T15:54:44Z</time>
      </trkpt>
      <trkpt lat="38.160904" lon="-3.936196">
        <ele>598.3</ele>
        <time>2009-04-08T15:54:54Z</time>
      </trkpt>
      <trkpt lat="38.161063" lon="-3.935746">
        <ele>599.9</ele>
        <time>2009-04-08T15:55:00Z</time>
      </trkpt>
      <trkpt lat="38.161085" lon="-3.935565">
        <ele>600.8</ele>
        <time>2009-04-08T15:55:02Z</time>
      </trkpt>
      <trkpt lat="38.161189" lon="-3.935291">
        <ele>601.6</ele>
        <time>2009-04-08T15:55:06Z</time>
      </trkpt>
      <trkpt lat="38.161346" lon="-3.935048">
        <ele>601.0</ele>
        <time>2009-04-08T15:55:10Z</time>
      </trkpt>
      <trkpt lat="38.161404" lon="-3.934623">
        <ele>601.5</ele>
        <time>2009-04-08T15:55:15Z</time>
      </trkpt>
      <trkpt lat="38.161534" lon="-3.934310">
        <ele>601.3</ele>
        <time>2009-04-08T15:55:20Z</time>
      </trkpt>
      <trkpt lat="38.161692" lon="-3.934155">
        <ele>600.5</ele>
        <time>2009-04-08T15:55:29Z</time>
      </trkpt>
      <trkpt lat="38.161680" lon="-3.934166">
        <ele>600.5</ele>
        <time>2009-04-08T15:55:56Z</time>
      </trkpt>
      <trkpt lat="38.161679" lon="-3.934152">
        <ele>600.6</ele>
        <time>2009-04-08T15:56:22Z</time>
      </trkpt>
      <trkpt lat="38.161724" lon="-3.934163">
        <ele>600.0</ele>
        <time>2009-04-08T15:56:45Z</time>
      </trkpt>
      <trkpt lat="38.161905" lon="-3.934266">
        <ele>597.7</ele>
        <time>2009-04-08T15:56:50Z</time>
      </trkpt>
      <trkpt lat="38.162297" lon="-3.934397">
        <ele>597.1</ele>
        <time>2009-04-08T15:56:56Z</time>
      </trkpt>
      <trkpt lat="38.162893" lon="-3.934552">
        <ele>598.9</ele>
        <time>2009-04-08T15:57:04Z</time>
      </trkpt>
      <trkpt lat="38.163409" lon="-3.935035">
        <ele>601.7</ele>
        <time>2009-04-08T15:57:12Z</time>
      </trkpt>
      <trkpt lat="38.163995" lon="-3.935127">
        <ele>605.6</ele>
        <time>2009-04-08T15:57:20Z</time>
      </trkpt>
      <trkpt lat="38.164088" lon="-3.935187">
        <ele>605.5</ele>
        <time>2009-04-08T15:57:21Z</time>
      </trkpt>
      <trkpt lat="38.164381" lon="-3.935336">
        <ele>605.9</ele>
        <time>2009-04-08T15:57:25Z</time>
      </trkpt>
      <trkpt lat="38.164848" lon="-3.935236">
        <ele>610.8</ele>
        <time>2009-04-08T15:57:30Z</time>
      </trkpt>
      <trkpt lat="38.165033" lon="-3.935167">
        <ele>613.3</ele>
        <time>2009-04-08T15:57:32Z</time>
      </trkpt>
      <trkpt lat="38.165383" lon="-3.935518">
        <ele>615.0</ele>
        <time>2009-04-08T15:57:38Z</time>
      </trkpt>
      <trkpt lat="38.165582" lon="-3.935800">
        <ele>615.8</ele>
        <time>2009-04-08T15:57:41Z</time>
      </trkpt>
      <trkpt lat="38.165926" lon="-3.936202">
        <ele>616.1</ele>
        <time>2009-04-08T15:57:46Z</time>
      </trkpt>
      <trkpt lat="38.166205" lon="-3.936329">
        <ele>618.1</ele>
        <time>2009-04-08T15:57:50Z</time>
      </trkpt>
      <trkpt lat="38.166389" lon="-3.936321">
        <ele>620.5</ele>
        <time>2009-04-08T15:57:52Z</time>
      </trkpt>
      <trkpt lat="38.166943" lon="-3.936723">
        <ele>622.1</ele>
        <time>2009-04-08T15:57:58Z</time>
      </trkpt>
      <trkpt lat="38.167825" lon="-3.937029">
        <ele>626.4</ele>
        <time>2009-04-08T15:58:07Z</time>
      </trkpt>
      <trkpt lat="38.167974" lon="-3.937029">
        <ele>626.7</ele>
        <time>2009-04-08T15:58:10Z</time>
      </trkpt>
      <trkpt lat="38.168331" lon="-3.936804">
        <ele>631.2</ele>
        <time>2009-04-08T15:58:16Z</time>
      </trkpt>
      <trkpt lat="38.168443" lon="-3.936651">
        <ele>634.3</ele>
        <time>2009-04-08T15:58:18Z</time>
      </trkpt>
      <trkpt lat="38.168737" lon="-3.936566">
        <ele>636.9</ele>
        <time>2009-04-08T15:58:22Z</time>
      </trkpt>
      <trkpt lat="38.168895" lon="-3.936650">
        <ele>635.9</ele>
        <time>2009-04-08T15:58:24Z</time>
      </trkpt>
      <trkpt lat="38.169321" lon="-3.936670">
        <ele>637.1</ele>
        <time>2009-04-08T15:58:29Z</time>
      </trkpt>
      <trkpt lat="38.170226" lon="-3.936506">
        <ele>646.3</ele>
        <time>2009-04-08T15:58:39Z</time>
      </trkpt>
      <trkpt lat="38.170492" lon="-3.936553">
        <ele>646.9</ele>
        <time>2009-04-08T15:58:42Z</time>
      </trkpt>
      <trkpt lat="38.170777" lon="-3.936486">
        <ele>649.6</ele>
        <time>2009-04-08T15:58:46Z</time>
      </trkpt>
      <trkpt lat="38.171460" lon="-3.935845">
        <ele>663.8</ele>
        <time>2009-04-08T15:58:59Z</time>
      </trkpt>
      <trkpt lat="38.171477" lon="-3.935812">
        <ele>664.2</ele>
        <time>2009-04-08T15:59:00Z</time>
      </trkpt>
      <trkpt lat="38.171556" lon="-3.935509">
        <ele>666.8</ele>
        <time>2009-04-08T15:59:05Z</time>
      </trkpt>
      <trkpt lat="38.171439" lon="-3.934711">
        <ele>671.4</ele>
        <time>2009-04-08T15:59:14Z</time>
      </trkpt>
      <trkpt lat="38.171359" lon="-3.934526">
        <ele>673.9</ele>
        <time>2009-04-08T15:59:17Z</time>
      </trkpt>
      <trkpt lat="38.171313" lon="-3.934364">
        <ele>674.7</ele>
        <time>2009-04-08T15:59:26Z</time>
      </trkpt>
      <trkpt lat="38.171303" lon="-3.934370">
        <ele>675.0</ele>
        <time>2009-04-08T16:00:11Z</time>
      </trkpt>
      <trkpt lat="38.171300" lon="-3.934099">
        <ele>673.3</ele>
        <time>2009-04-08T16:00:34Z</time>
      </trkpt>
      <trkpt lat="38.171146" lon="-3.933394">
        <ele>672.5</ele>
        <time>2009-04-08T16:00:46Z</time>
      </trkpt>
      <trkpt lat="38.171131" lon="-3.933337">
        <ele>672.3</ele>
        <time>2009-04-08T16:00:47Z</time>
      </trkpt>
      <trkpt lat="38.171045" lon="-3.933171">
        <ele>672.8</ele>
        <time>2009-04-08T16:00:50Z</time>
      </trkpt>
      <trkpt lat="38.170452" lon="-3.932458">
        <ele>674.7</ele>
        <time>2009-04-08T16:01:03Z</time>
      </trkpt>
      <trkpt lat="38.170290" lon="-3.932241">
        <ele>674.4</ele>
        <time>2009-04-08T16:01:07Z</time>
      </trkpt>
      <trkpt lat="38.170443" lon="-3.931859">
        <ele>665.7</ele>
        <time>2009-04-08T16:01:11Z</time>
      </trkpt>
      <trkpt lat="38.170406" lon="-3.931545">
        <ele>661.8</ele>
        <time>2009-04-08T16:01:19Z</time>
      </trkpt>
      <trkpt lat="38.169964" lon="-3.931490">
        <ele>671.1</ele>
        <time>2009-04-08T16:01:26Z</time>
      </trkpt>
      <trkpt lat="38.169686" lon="-3.930804">
        <ele>668.3</ele>
        <time>2009-04-08T16:01:33Z</time>
      </trkpt>
      <trkpt lat="38.169854" lon="-3.930226">
        <ele>654.3</ele>
        <time>2009-04-08T16:01:40Z</time>
      </trkpt>
      <trkpt lat="38.169685" lon="-3.929750">
        <ele>652.7</ele>
        <time>2009-04-08T16:01:47Z</time>
      </trkpt>
      <trkpt lat="38.169508" lon="-3.929557">
        <ele>654.1</ele>
        <time>2009-04-08T16:01:51Z</time>
      </trkpt>
      <trkpt lat="38.169398" lon="-3.929352">
        <ele>653.7</ele>
        <time>2009-04-08T16:01:54Z</time>
      </trkpt>
      <trkpt lat="38.169286" lon="-3.928805">
        <ele>648.7</ele>
        <time>2009-04-08T16:02:00Z</time>
      </trkpt>
      <trkpt lat="38.169085" lon="-3.928396">
        <ele>646.4</ele>
        <time>2009-04-08T16:02:05Z</time>
      </trkpt>
      <trkpt lat="38.168867" lon="-3.927902">
        <ele>642.4</ele>
        <time>2009-04-08T16:02:13Z</time>
      </trkpt>
      <trkpt lat="38.169134" lon="-3.927708">
        <ele>636.3</ele>
        <time>2009-04-08T16:02:20Z</time>
      </trkpt>
      <trkpt lat="38.169214" lon="-3.927743">
        <ele>635.1</ele>
        <time>2009-04-08T16:02:21Z</time>
      </trkpt>
      <trkpt lat="38.169898" lon="-3.928223">
        <ele>631.6</ele>
        <time>2009-04-08T16:02:30Z</time>
      </trkpt>
      <trkpt lat="38.170962" lon="-3.928751">
        <ele>622.1</ele>
        <time>2009-04-08T16:02:43Z</time>
      </trkpt>
      <trkpt lat="38.171726" lon="-3.929154">
        <ele>619.8</ele>
        <time>2009-04-08T16:02:54Z</time>
      </trkpt>
      <trkpt lat="38.171904" lon="-3.929262">
        <ele>618.2</ele>
        <time>2009-04-08T16:02:57Z</time>
      </trkpt>
      <trkpt lat="38.172336" lon="-3.929636">
        <ele>613.8</ele>
        <time>2009-04-08T16:03:05Z</time>
      </trkpt>
      <trkpt lat="38.172574" lon="-3.929744">
        <ele>610.8</ele>
        <time>2009-04-08T16:03:09Z</time>
      </trkpt>
      <trkpt lat="38.173243" lon="-3.930086">
        <ele>608.0</ele>
        <time>2009-04-08T16:03:21Z</time>
      </trkpt>
      <trkpt lat="38.173570" lon="-3.930344">
        <ele>605.0</ele>
        <time>2009-04-08T16:03:26Z</time>
      </trkpt>
      <trkpt lat="38.173822" lon="-3.930355">
        <ele>604.1</ele>
        <time>2009-04-08T16:03:31Z</time>
      </trkpt>
      <trkpt lat="38.174166" lon="-3.930190">
        <ele>604.1</ele>
        <time>2009-04-08T16:03:43Z</time>
      </trkpt>
      <trkpt lat="38.174469" lon="-3.930037">
        <ele>604.6</ele>
        <time>2009-04-08T16:03:50Z</time>
      </trkpt>
      <trkpt lat="38.174977" lon="-3.929835">
        <ele>601.6</ele>
        <time>2009-04-08T16:03:58Z</time>
      </trkpt>
      <trkpt lat="38.175176" lon="-3.929644">
        <ele>600.8</ele>
        <time>2009-04-08T16:04:02Z</time>
      </trkpt>
      <trkpt lat="38.175760" lon="-3.928966">
        <ele>601.8</ele>
        <time>2009-04-08T16:04:13Z</time>
      </trkpt>
      <trkpt lat="38.175835" lon="-3.928873">
        <ele>601.7</ele>
        <time>2009-04-08T16:04:15Z</time>
      </trkpt>
      <trkpt lat="38.176035" lon="-3.928355">
        <ele>604.4</ele>
        <time>2009-04-08T16:04:25Z</time>
      </trkpt>
      <trkpt lat="38.176042" lon="-3.928309">
        <ele>604.9</ele>
        <time>2009-04-08T16:04:35Z</time>
      </trkpt>
      <trkpt lat="38.176040" lon="-3.928303">
        <ele>605.0</ele>
        <time>2009-04-08T16:04:47Z</time>
      </trkpt>
      <trkpt lat="38.176047" lon="-3.928315">
        <ele>604.7</ele>
        <time>2009-04-08T16:05:19Z</time>
      </trkpt>
      <trkpt lat="38.176051" lon="-3.928315">
        <ele>604.7</ele>
        <time>2009-04-08T16:05:48Z</time>
      </trkpt>
      <trkpt lat="38.176044" lon="-3.928332">
        <ele>604.5</ele>
        <time>2009-04-08T16:05:59Z</time>
      </trkpt>
      <trkpt lat="38.175998" lon="-3.928311">
        <ele>605.6</ele>
        <time>2009-04-08T16:08:05Z</time>
      </trkpt>
      <trkpt lat="38.176011" lon="-3.928290">
        <ele>605.6</ele>
        <time>2009-04-08T16:11:38Z</time>
      </trkpt>
      <trkpt lat="38.175998" lon="-3.928309">
        <ele>605.6</ele>
        <time>2009-04-08T16:16:54Z</time>
      </trkpt>
      <trkpt lat="38.175998" lon="-3.928298">
        <ele>605.8</ele>
        <time>2009-04-08T16:17:43Z</time>
      </trkpt>
      <trkpt lat="38.176003" lon="-3.928295">
        <ele>605.7</ele>
        <time>2009-04-08T16:17:45Z</time>
      </trkpt>
      <trkpt lat="38.176089" lon="-3.928191">
        <ele>605.8</ele>
        <time>2009-04-08T16:17:50Z</time>
      </trkpt>
      <trkpt lat="38.176215" lon="-3.927915">
        <ele>607.4</ele>
        <time>2009-04-08T16:17:55Z</time>
      </trkpt>
      <trkpt lat="38.176230" lon="-3.927494">
        <ele>609.2</ele>
        <time>2009-04-08T16:18:00Z</time>
      </trkpt>
      <trkpt lat="38.176244" lon="-3.927319">
        <ele>609.2</ele>
        <time>2009-04-08T16:18:02Z</time>
      </trkpt>
      <trkpt lat="38.176023" lon="-3.926604">
        <ele>611.0</ele>
        <time>2009-04-08T16:18:09Z</time>
      </trkpt>
      <trkpt lat="38.176160" lon="-3.926026">
        <ele>605.8</ele>
        <time>2009-04-08T16:18:17Z</time>
      </trkpt>
      <trkpt lat="38.176294" lon="-3.925876">
        <ele>604.9</ele>
        <time>2009-04-08T16:18:20Z</time>
      </trkpt>
      <trkpt lat="38.176588" lon="-3.925803">
        <ele>603.2</ele>
        <time>2009-04-08T16:18:26Z</time>
      </trkpt>
      <trkpt lat="38.176709" lon="-3.925815">
        <ele>602.4</ele>
        <time>2009-04-08T16:18:28Z</time>
      </trkpt>
      <trkpt lat="38.177020" lon="-3.925724">
        <ele>602.1</ele>
        <time>2009-04-08T16:18:33Z</time>
      </trkpt>
      <trkpt lat="38.177323" lon="-3.925452">
        <ele>604.1</ele>
        <time>2009-04-08T16:18:42Z</time>
      </trkpt>
      <trkpt lat="38.177651" lon="-3.925602">
        <ele>603.7</ele>
        <time>2009-04-08T16:18:48Z</time>
      </trkpt>
      <trkpt lat="38.178076" lon="-3.925902">
        <ele>603.8</ele>
        <time>2009-04-08T16:18:56Z</time>
      </trkpt>
      <trkpt lat="38.178179" lon="-3.925647">
        <ele>606.0</ele>
        <time>2009-04-08T16:19:00Z</time>
      </trkpt>
      <trkpt lat="38.178194" lon="-3.925115">
        <ele>609.7</ele>
        <time>2009-04-08T16:19:06Z</time>
      </trkpt>
      <trkpt lat="38.178505" lon="-3.924883">
        <ele>612.4</ele>
        <time>2009-04-08T16:19:12Z</time>
      </trkpt>
      <trkpt lat="38.178647" lon="-3.924684">
        <ele>614.7</ele>
        <time>2009-04-08T16:19:15Z</time>
      </trkpt>
      <trkpt lat="38.178717" lon="-3.924529">
        <ele>616.2</ele>
        <time>2009-04-08T16:19:17Z</time>
      </trkpt>
      <trkpt lat="38.178964" lon="-3.924376">
        <ele>619.6</ele>
        <time>2009-04-08T16:19:22Z</time>
      </trkpt>
      <trkpt lat="38.179108" lon="-3.924396">
        <ele>620.5</ele>
        <time>2009-04-08T16:19:32Z</time>
      </trkpt>
      <trkpt lat="38.179153" lon="-3.924429">
        <ele>620.6</ele>
        <time>2009-04-08T16:19:57Z</time>
      </trkpt>
      <trkpt lat="38.179270" lon="-3.924498">
        <ele>621.1</ele>
        <time>2009-04-08T16:20:00Z</time>
      </trkpt>
      <trkpt lat="38.179438" lon="-3.924660">
        <ele>621.4</ele>
        <time>2009-04-08T16:20:04Z</time>
      </trkpt>
      <trkpt lat="38.179732" lon="-3.924540">
        <ele>623.3</ele>
        <time>2009-04-08T16:20:12Z</time>
      </trkpt>
      <trkpt lat="38.179809" lon="-3.924351">
        <ele>624.7</ele>
        <time>2009-04-08T16:20:15Z</time>
      </trkpt>
      <trkpt lat="38.179955" lon="-3.924180">
        <ele>625.9</ele>
        <time>2009-04-08T16:20:19Z</time>
      </trkpt>
      <trkpt lat="38.180347" lon="-3.923702">
        <ele>626.5</ele>
        <time>2009-04-08T16:20:30Z</time>
      </trkpt>
      <trkpt lat="38.180514" lon="-3.923409">
        <ele>625.5</ele>
        <time>2009-04-08T16:20:35Z</time>
      </trkpt>
      <trkpt lat="38.180591" lon="-3.923305">
        <ele>625.0</ele>
        <time>2009-04-08T16:20:37Z</time>
      </trkpt>
      <trkpt lat="38.180868" lon="-3.923013">
        <ele>623.5</ele>
        <time>2009-04-08T16:20:46Z</time>
      </trkpt>
      <trkpt lat="38.180899" lon="-3.922994">
        <ele>623.3</ele>
        <time>2009-04-08T16:20:58Z</time>
      </trkpt>
      <trkpt lat="38.181033" lon="-3.922920">
        <ele>622.6</ele>
        <time>2009-04-08T16:21:18Z</time>
      </trkpt>
      <trkpt lat="38.181162" lon="-3.922805">
        <ele>622.3</ele>
        <time>2009-04-08T16:21:39Z</time>
      </trkpt>
      <trkpt lat="38.181186" lon="-3.922789">
        <ele>622.2</ele>
        <time>2009-04-08T16:21:58Z</time>
      </trkpt>
      <trkpt lat="38.181203" lon="-3.922787">
        <ele>622.2</ele>
        <time>2009-04-08T16:22:15Z</time>
      </trkpt>
      <trkpt lat="38.181153" lon="-3.922788">
        <ele>622.4</ele>
        <time>2009-04-08T16:23:30Z</time>
      </trkpt>
      <trkpt lat="38.181155" lon="-3.922781">
        <ele>622.4</ele>
        <time>2009-04-08T16:23:58Z</time>
      </trkpt>
      <trkpt lat="38.181174" lon="-3.922773">
        <ele>622.4</ele>
        <time>2009-04-08T16:24:54Z</time>
      </trkpt>
      <trkpt lat="38.181191" lon="-3.922765">
        <ele>622.4</ele>
        <time>2009-04-08T16:25:45Z</time>
      </trkpt>
      <trkpt lat="38.181216" lon="-3.922773">
        <ele>622.2</ele>
        <time>2009-04-08T16:26:18Z</time>
      </trkpt>
      <trkpt lat="38.181201" lon="-3.922788">
        <ele>622.2</ele>
        <time>2009-04-08T16:27:20Z</time>
      </trkpt>
      <trkpt lat="38.181190" lon="-3.922787">
        <ele>622.2</ele>
        <time>2009-04-08T16:28:42Z</time>
      </trkpt>
      <trkpt lat="38.181196" lon="-3.922774">
        <ele>622.3</ele>
        <time>2009-04-08T16:28:44Z</time>
      </trkpt>
      <trkpt lat="38.181335" lon="-3.922393">
        <ele>624.9</ele>
        <time>2009-04-08T16:28:55Z</time>
      </trkpt>
      <trkpt lat="38.181368" lon="-3.922289">
        <ele>625.6</ele>
        <time>2009-04-08T16:28:57Z</time>
      </trkpt>
      <trkpt lat="38.181498" lon="-3.921590">
        <ele>628.1</ele>
        <time>2009-04-08T16:29:10Z</time>
      </trkpt>
      <trkpt lat="38.181578" lon="-3.921382">
        <ele>627.7</ele>
        <time>2009-04-08T16:29:24Z</time>
      </trkpt>
      <trkpt lat="38.181567" lon="-3.921390">
        <ele>627.8</ele>
        <time>2009-04-08T16:30:17Z</time>
      </trkpt>
      <trkpt lat="38.181559" lon="-3.921390">
        <ele>627.8</ele>
        <time>2009-04-08T16:30:48Z</time>
      </trkpt>
      <trkpt lat="38.181610" lon="-3.921351">
        <ele>627.4</ele>
        <time>2009-04-08T16:32:03Z</time>
      </trkpt>
      <trkpt lat="38.181631" lon="-3.921144">
        <ele>627.4</ele>
        <time>2009-04-08T16:32:15Z</time>
      </trkpt>
      <trkpt lat="38.181639" lon="-3.920779">
        <ele>627.6</ele>
        <time>2009-04-08T16:32:29Z</time>
      </trkpt>
      <trkpt lat="38.181697" lon="-3.920103">
        <ele>627.2</ele>
        <time>2009-04-08T16:32:45Z</time>
      </trkpt>
      <trkpt lat="38.181698" lon="-3.920037">
        <ele>627.1</ele>
        <time>2009-04-08T16:32:46Z</time>
      </trkpt>
      <trkpt lat="38.181584" lon="-3.919635">
        <ele>627.8</ele>
        <time>2009-04-08T16:32:57Z</time>
      </trkpt>
      <trkpt lat="38.181619" lon="-3.919199">
        <ele>627.7</ele>
        <time>2009-04-08T16:33:05Z</time>
      </trkpt>
      <trkpt lat="38.181648" lon="-3.918433">
        <ele>629.8</ele>
        <time>2009-04-08T16:33:14Z</time>
      </trkpt>
      <trkpt lat="38.181627" lon="-3.918040">
        <ele>632.1</ele>
        <time>2009-04-08T16:33:19Z</time>
      </trkpt>
      <trkpt lat="38.181537" lon="-3.917782">
        <ele>634.4</ele>
        <time>2009-04-08T16:33:23Z</time>
      </trkpt>
      <trkpt lat="38.181460" lon="-3.917497">
        <ele>634.8</ele>
        <time>2009-04-08T16:33:28Z</time>
      </trkpt>
      <trkpt lat="38.181394" lon="-3.917274">
        <ele>634.9</ele>
        <time>2009-04-08T16:33:31Z</time>
      </trkpt>
      <trkpt lat="38.181234" lon="-3.916947">
        <ele>635.4</ele>
        <time>2009-04-08T16:33:38Z</time>
      </trkpt>
      <trkpt lat="38.181051" lon="-3.916658">
        <ele>635.4</ele>
        <time>2009-04-08T16:33:43Z</time>
      </trkpt>
      <trkpt lat="38.180957" lon="-3.916487">
        <ele>635.2</ele>
        <time>2009-04-08T16:33:47Z</time>
      </trkpt>
      <trkpt lat="38.180903" lon="-3.915967">
        <ele>633.4</ele>
        <time>2009-04-08T16:33:58Z</time>
      </trkpt>
      <trkpt lat="38.180909" lon="-3.915430">
        <ele>632.6</ele>
        <time>2009-04-08T16:34:06Z</time>
      </trkpt>
      <trkpt lat="38.180847" lon="-3.915181">
        <ele>632.7</ele>
        <time>2009-04-08T16:34:11Z</time>
      </trkpt>
      <trkpt lat="38.180715" lon="-3.914988">
        <ele>633.3</ele>
        <time>2009-04-08T16:34:15Z</time>
      </trkpt>
      <trkpt lat="38.180559" lon="-3.914833">
        <ele>633.9</ele>
        <time>2009-04-08T16:34:19Z</time>
      </trkpt>
      <trkpt lat="38.180150" lon="-3.914475">
        <ele>635.6</ele>
        <time>2009-04-08T16:34:33Z</time>
      </trkpt>
      <trkpt lat="38.179598" lon="-3.913895">
        <ele>640.9</ele>
        <time>2009-04-08T16:34:45Z</time>
      </trkpt>
      <trkpt lat="38.179375" lon="-3.913615">
        <ele>641.8</ele>
        <time>2009-04-08T16:34:50Z</time>
      </trkpt>
      <trkpt lat="38.178799" lon="-3.913312">
        <ele>645.7</ele>
        <time>2009-04-08T16:35:02Z</time>
      </trkpt>
      <trkpt lat="38.178689" lon="-3.913284">
        <ele>646.4</ele>
        <time>2009-04-08T16:35:04Z</time>
      </trkpt>
      <trkpt lat="38.178523" lon="-3.913262">
        <ele>647.7</ele>
        <time>2009-04-08T16:35:07Z</time>
      </trkpt>
      <trkpt lat="38.178286" lon="-3.913110">
        <ele>646.5</ele>
        <time>2009-04-08T16:35:12Z</time>
      </trkpt>
      <trkpt lat="38.177794" lon="-3.912884">
        <ele>645.2</ele>
        <time>2009-04-08T16:35:23Z</time>
      </trkpt>
      <trkpt lat="38.177512" lon="-3.912702">
        <ele>645.1</ele>
        <time>2009-04-08T16:35:32Z</time>
      </trkpt>
      <trkpt lat="38.177182" lon="-3.912459">
        <ele>645.6</ele>
        <time>2009-04-08T16:35:43Z</time>
      </trkpt>
      <trkpt lat="38.176976" lon="-3.912257">
        <ele>646.2</ele>
        <time>2009-04-08T16:35:48Z</time>
      </trkpt>
      <trkpt lat="38.176601" lon="-3.912021">
        <ele>648.8</ele>
        <time>2009-04-08T16:35:59Z</time>
      </trkpt>
      <trkpt lat="38.176446" lon="-3.911919">
        <ele>649.9</ele>
        <time>2009-04-08T16:36:05Z</time>
      </trkpt>
      <trkpt lat="38.176351" lon="-3.911867">
        <ele>650.5</ele>
        <time>2009-04-08T16:36:07Z</time>
      </trkpt>
      <trkpt lat="38.176154" lon="-3.911694">
        <ele>651.5</ele>
        <time>2009-04-08T16:36:11Z</time>
      </trkpt>
      <trkpt lat="38.175580" lon="-3.911021">
        <ele>654.5</ele>
        <time>2009-04-08T16:36:25Z</time>
      </trkpt>
      <trkpt lat="38.174914" lon="-3.910380">
        <ele>657.2</ele>
        <time>2009-04-08T16:36:38Z</time>
      </trkpt>
      <trkpt lat="38.174871" lon="-3.910332">
        <ele>657.4</ele>
        <time>2009-04-08T16:36:39Z</time>
      </trkpt>
      <trkpt lat="38.174341" lon="-3.909960">
        <ele>661.5</ele>
        <time>2009-04-08T16:36:50Z</time>
      </trkpt>
      <trkpt lat="38.173861" lon="-3.909702">
        <ele>665.4</ele>
        <time>2009-04-08T16:37:02Z</time>
      </trkpt>
      <trkpt lat="38.173806" lon="-3.909712">
        <ele>665.8</ele>
        <time>2009-04-08T16:37:15Z</time>
      </trkpt>
      <trkpt lat="38.173837" lon="-3.909700">
        <ele>665.5</ele>
        <time>2009-04-08T16:37:38Z</time>
      </trkpt>
      <trkpt lat="38.173817" lon="-3.909678">
        <ele>665.6</ele>
        <time>2009-04-08T16:38:23Z</time>
      </trkpt>
      <trkpt lat="38.173826" lon="-3.909690">
        <ele>665.6</ele>
        <time>2009-04-08T16:38:42Z</time>
      </trkpt>
      <trkpt lat="38.173598" lon="-3.909661">
        <ele>667.2</ele>
        <time>2009-04-08T16:38:52Z</time>
      </trkpt>
      <trkpt lat="38.173380" lon="-3.909634">
        <ele>670.1</ele>
        <time>2009-04-08T16:38:56Z</time>
      </trkpt>
      <trkpt lat="38.172976" lon="-3.909531">
        <ele>676.5</ele>
        <time>2009-04-08T16:39:06Z</time>
      </trkpt>
      <trkpt lat="38.172500" lon="-3.909289">
        <ele>681.7</ele>
        <time>2009-04-08T16:39:18Z</time>
      </trkpt>
      <trkpt lat="38.172117" lon="-3.909048">
        <ele>684.3</ele>
        <time>2009-04-08T16:39:30Z</time>
      </trkpt>
      <trkpt lat="38.171883" lon="-3.908649">
        <ele>682.9</ele>
        <time>2009-04-08T16:39:42Z</time>
      </trkpt>
      <trkpt lat="38.171826" lon="-3.908611">
        <ele>683.2</ele>
        <time>2009-04-08T16:39:44Z</time>
      </trkpt>
      <trkpt lat="38.171626" lon="-3.908599">
        <ele>685.7</ele>
        <time>2009-04-08T16:39:48Z</time>
      </trkpt>
      <trkpt lat="38.171403" lon="-3.908629">
        <ele>689.0</ele>
        <time>2009-04-08T16:39:53Z</time>
      </trkpt>
      <trkpt lat="38.171164" lon="-3.908164">
        <ele>687.5</ele>
        <time>2009-04-08T16:40:01Z</time>
      </trkpt>
      <trkpt lat="38.171123" lon="-3.908099">
        <ele>687.5</ele>
        <time>2009-04-08T16:40:02Z</time>
      </trkpt>
      <trkpt lat="38.170915" lon="-3.907836">
        <ele>687.5</ele>
        <time>2009-04-08T16:40:07Z</time>
      </trkpt>
      <trkpt lat="38.170748" lon="-3.907756">
        <ele>688.3</ele>
        <time>2009-04-08T16:40:11Z</time>
      </trkpt>
      <trkpt lat="38.170612" lon="-3.907766">
        <ele>689.6</ele>
        <time>2009-04-08T16:40:14Z</time>
      </trkpt>
      <trkpt lat="38.170408" lon="-3.907754">
        <ele>691.3</ele>
        <time>2009-04-08T16:40:18Z</time>
      </trkpt>
      <trkpt lat="38.170190" lon="-3.907815">
        <ele>694.3</ele>
        <time>2009-04-08T16:40:22Z</time>
      </trkpt>
      <trkpt lat="38.170049" lon="-3.907917">
        <ele>697.0</ele>
        <time>2009-04-08T16:40:25Z</time>
      </trkpt>
      <trkpt lat="38.169974" lon="-3.907983">
        <ele>698.7</ele>
        <time>2009-04-08T16:40:27Z</time>
      </trkpt>
      <trkpt lat="38.169636" lon="-3.908251">
        <ele>706.8</ele>
        <time>2009-04-08T16:40:34Z</time>
      </trkpt>
      <trkpt lat="38.169337" lon="-3.908173">
        <ele>708.7</ele>
        <time>2009-04-08T16:40:42Z</time>
      </trkpt>
      <trkpt lat="38.169285" lon="-3.908135">
        <ele>709.1</ele>
        <time>2009-04-08T16:40:44Z</time>
      </trkpt>
      <trkpt lat="38.169174" lon="-3.907685">
        <ele>703.0</ele>
        <time>2009-04-08T16:40:53Z</time>
      </trkpt>
      <trkpt lat="38.168958" lon="-3.907515">
        <ele>705.6</ele>
        <time>2009-04-08T16:40:59Z</time>
      </trkpt>
      <trkpt lat="38.168862" lon="-3.907510">
        <ele>707.7</ele>
        <time>2009-04-08T16:41:01Z</time>
      </trkpt>
      <trkpt lat="38.168389" lon="-3.907308">
        <ele>714.0</ele>
        <time>2009-04-08T16:41:12Z</time>
      </trkpt>
      <trkpt lat="38.168353" lon="-3.907302">
        <ele>714.5</ele>
        <time>2009-04-08T16:41:13Z</time>
      </trkpt>
      <trkpt lat="38.168222" lon="-3.906963">
        <ele>709.8</ele>
        <time>2009-04-08T16:41:21Z</time>
      </trkpt>
      <trkpt lat="38.168328" lon="-3.906846">
        <ele>706.8</ele>
        <time>2009-04-08T16:41:24Z</time>
      </trkpt>
      <trkpt lat="38.168589" lon="-3.906652">
        <ele>700.4</ele>
        <time>2009-04-08T16:41:33Z</time>
      </trkpt>
      <trkpt lat="38.168741" lon="-3.906213">
        <ele>693.0</ele>
        <time>2009-04-08T16:41:43Z</time>
      </trkpt>
      <trkpt lat="38.168686" lon="-3.906121">
        <ele>693.0</ele>
        <time>2009-04-08T16:41:45Z</time>
      </trkpt>
      <trkpt lat="38.168516" lon="-3.905878">
        <ele>696.3</ele>
        <time>2009-04-08T16:41:50Z</time>
      </trkpt>
      <trkpt lat="38.168244" lon="-3.905713">
        <ele>699.2</ele>
        <time>2009-04-08T16:42:01Z</time>
      </trkpt>
      <trkpt lat="38.167856" lon="-3.905656">
        <ele>702.6</ele>
        <time>2009-04-08T16:42:12Z</time>
      </trkpt>
      <trkpt lat="38.167768" lon="-3.905681">
        <ele>703.5</ele>
        <time>2009-04-08T16:42:22Z</time>
      </trkpt>
      <trkpt lat="38.167647" lon="-3.905734">
        <ele>704.8</ele>
        <time>2009-04-08T16:43:14Z</time>
      </trkpt>
      <trkpt lat="38.167555" lon="-3.905721">
        <ele>704.8</ele>
        <time>2009-04-08T16:43:59Z</time>
      </trkpt>
      <trkpt lat="38.167227" lon="-3.905905">
        <ele>708.6</ele>
        <time>2009-04-08T16:44:12Z</time>
      </trkpt>
      <trkpt lat="38.166820" lon="-3.905976">
        <ele>712.3</ele>
        <time>2009-04-08T16:44:24Z</time>
      </trkpt>
      <trkpt lat="38.166071" lon="-3.905739">
        <ele>706.8</ele>
        <time>2009-04-08T16:44:40Z</time>
      </trkpt>
      <trkpt lat="38.165804" lon="-3.905443">
        <ele>695.6</ele>
        <time>2009-04-08T16:44:51Z</time>
      </trkpt>
      <trkpt lat="38.165687" lon="-3.905382">
        <ele>692.1</ele>
        <time>2009-04-08T16:45:03Z</time>
      </trkpt>
      <trkpt lat="38.165654" lon="-3.905369">
        <ele>691.3</ele>
        <time>2009-04-08T16:46:07Z</time>
      </trkpt>
      <trkpt lat="38.165536" lon="-3.905375">
        <ele>689.6</ele>
        <time>2009-04-08T16:46:17Z</time>
      </trkpt>
      <trkpt lat="38.165224" lon="-3.905518">
        <ele>688.1</ele>
        <time>2009-04-08T16:46:28Z</time>
      </trkpt>
      <trkpt lat="38.164716" lon="-3.905685">
        <ele>677.4</ele>
        <time>2009-04-08T16:46:41Z</time>
      </trkpt>
      <trkpt lat="38.164639" lon="-3.905725">
        <ele>675.9</ele>
        <time>2009-04-08T16:46:43Z</time>
      </trkpt>
      <trkpt lat="38.164508" lon="-3.905900">
        <ele>674.7</ele>
        <time>2009-04-08T16:46:47Z</time>
      </trkpt>
      <trkpt lat="38.164311" lon="-3.906266">
        <ele>673.6</ele>
        <time>2009-04-08T16:46:55Z</time>
      </trkpt>
      <trkpt lat="38.163823" lon="-3.906722">
        <ele>666.3</ele>
        <time>2009-04-08T16:47:10Z</time>
      </trkpt>
      <trkpt lat="38.163546" lon="-3.907445">
        <ele>667.4</ele>
        <time>2009-04-08T16:47:24Z</time>
      </trkpt>
      <trkpt lat="38.163532" lon="-3.907501">
        <ele>667.8</ele>
        <time>2009-04-08T16:47:25Z</time>
      </trkpt>
      <trkpt lat="38.163520" lon="-3.907608">
        <ele>668.8</ele>
        <time>2009-04-08T16:47:27Z</time>
      </trkpt>
      <trkpt lat="38.163194" lon="-3.907914">
        <ele>678.7</ele>
        <time>2009-04-08T16:47:37Z</time>
      </trkpt>
      <trkpt lat="38.162945" lon="-3.907611">
        <ele>678.0</ele>
        <time>2009-04-08T16:47:45Z</time>
      </trkpt>
      <trkpt lat="38.162940" lon="-3.907545">
        <ele>677.3</ele>
        <time>2009-04-08T16:47:46Z</time>
      </trkpt>
      <trkpt lat="38.162895" lon="-3.907065">
        <ele>672.7</ele>
        <time>2009-04-08T16:47:54Z</time>
      </trkpt>
      <trkpt lat="38.162814" lon="-3.906685">
        <ele>669.7</ele>
        <time>2009-04-08T16:48:02Z</time>
      </trkpt>
      <trkpt lat="38.162714" lon="-3.906132">
        <ele>664.7</ele>
        <time>2009-04-08T16:48:15Z</time>
      </trkpt>
      <trkpt lat="38.162644" lon="-3.905974">
        <ele>663.0</ele>
        <time>2009-04-08T16:48:18Z</time>
      </trkpt>
      <trkpt lat="38.162446" lon="-3.905687">
        <ele>659.5</ele>
        <time>2009-04-08T16:48:24Z</time>
      </trkpt>
      <trkpt lat="38.162299" lon="-3.905519">
        <ele>657.1</ele>
        <time>2009-04-08T16:48:28Z</time>
      </trkpt>
      <trkpt lat="38.162240" lon="-3.905425">
        <ele>655.6</ele>
        <time>2009-04-08T16:48:30Z</time>
      </trkpt>
      <trkpt lat="38.162141" lon="-3.905092">
        <ele>649.4</ele>
        <time>2009-04-08T16:48:36Z</time>
      </trkpt>
      <trkpt lat="38.162067" lon="-3.904965">
        <ele>647.0</ele>
        <time>2009-04-08T16:48:39Z</time>
      </trkpt>
      <trkpt lat="38.161689" lon="-3.904927">
        <ele>645.3</ele>
        <time>2009-04-08T16:48:50Z</time>
      </trkpt>
      <trkpt lat="38.161627" lon="-3.905081">
        <ele>648.0</ele>
        <time>2009-04-08T16:48:53Z</time>
      </trkpt>
      <trkpt lat="38.161442" lon="-3.905500">
        <ele>656.2</ele>
        <time>2009-04-08T16:49:03Z</time>
      </trkpt>
      <trkpt lat="38.161270" lon="-3.905467">
        <ele>654.4</ele>
        <time>2009-04-08T16:49:10Z</time>
      </trkpt>
      <trkpt lat="38.161062" lon="-3.905440">
        <ele>652.4</ele>
        <time>2009-04-08T16:49:21Z</time>
      </trkpt>
      <trkpt lat="38.161093" lon="-3.905408">
        <ele>651.7</ele>
        <time>2009-04-08T16:49:54Z</time>
      </trkpt>
      <trkpt lat="38.161121" lon="-3.905426">
        <ele>652.4</ele>
        <time>2009-04-08T16:50:20Z</time>
      </trkpt>
      <trkpt lat="38.161140" lon="-3.905407">
        <ele>652.0</ele>
        <time>2009-04-08T16:50:35Z</time>
      </trkpt>
      <trkpt lat="38.161148" lon="-3.905422">
        <ele>652.5</ele>
        <time>2009-04-08T16:51:15Z</time>
      </trkpt>
      <trkpt lat="38.161130" lon="-3.905399">
        <ele>651.7</ele>
        <time>2009-04-08T16:51:46Z</time>
      </trkpt>
      <trkpt lat="38.161126" lon="-3.905399">
        <ele>651.7</ele>
        <time>2009-04-08T16:52:22Z</time>
      </trkpt>
      <trkpt lat="38.160996" lon="-3.905299">
        <ele>648.4</ele>
        <time>2009-04-08T16:52:28Z</time>
      </trkpt>
      <trkpt lat="38.160619" lon="-3.905218">
        <ele>649.3</ele>
        <time>2009-04-08T16:52:38Z</time>
      </trkpt>
      <trkpt lat="38.160459" lon="-3.905085">
        <ele>647.6</ele>
        <time>2009-04-08T16:52:42Z</time>
      </trkpt>
      <trkpt lat="38.160378" lon="-3.904932">
        <ele>644.9</ele>
        <time>2009-04-08T16:52:45Z</time>
      </trkpt>
      <trkpt lat="38.160404" lon="-3.904476">
        <ele>634.9</ele>
        <time>2009-04-08T16:52:53Z</time>
      </trkpt>
      <trkpt lat="38.160154" lon="-3.904266">
        <ele>630.3</ele>
        <time>2009-04-08T16:53:00Z</time>
      </trkpt>
      <trkpt lat="38.160065" lon="-3.904336">
        <ele>630.5</ele>
        <time>2009-04-08T16:53:03Z</time>
      </trkpt>
      <trkpt lat="38.159756" lon="-3.904460">
        <ele>627.8</ele>
        <time>2009-04-08T16:53:13Z</time>
      </trkpt>
      <trkpt lat="38.159540" lon="-3.904581">
        <ele>625.7</ele>
        <time>2009-04-08T16:53:20Z</time>
      </trkpt>
      <trkpt lat="38.159343" lon="-3.904598">
        <ele>621.9</ele>
        <time>2009-04-08T16:53:25Z</time>
      </trkpt>
      <trkpt lat="38.159064" lon="-3.904761">
        <ele>616.7</ele>
        <time>2009-04-08T16:53:32Z</time>
      </trkpt>
      <trkpt lat="38.158910" lon="-3.904984">
        <ele>615.5</ele>
        <time>2009-04-08T16:53:37Z</time>
      </trkpt>
      <trkpt lat="38.158291" lon="-3.905489">
        <ele>602.2</ele>
        <time>2009-04-08T16:53:49Z</time>
      </trkpt>
      <trkpt lat="38.158010" lon="-3.905738">
        <ele>595.8</ele>
        <time>2009-04-08T16:53:54Z</time>
      </trkpt>
      <trkpt lat="38.157943" lon="-3.906212">
        <ele>596.5</ele>
        <time>2009-04-08T16:54:02Z</time>
      </trkpt>
      <trkpt lat="38.157789" lon="-3.906636">
        <ele>598.5</ele>
        <time>2009-04-08T16:54:10Z</time>
      </trkpt>
      <trkpt lat="38.157746" lon="-3.906665">
        <ele>598.1</ele>
        <time>2009-04-08T16:54:11Z</time>
      </trkpt>
      <trkpt lat="38.157662" lon="-3.906711">
        <ele>597.4</ele>
        <time>2009-04-08T16:54:13Z</time>
      </trkpt>
      <trkpt lat="38.157269" lon="-3.907096">
        <ele>598.1</ele>
        <time>2009-04-08T16:54:22Z</time>
      </trkpt>
      <trkpt lat="38.156808" lon="-3.907431">
        <ele>597.8</ele>
        <time>2009-04-08T16:54:33Z</time>
      </trkpt>
      <trkpt lat="38.156304" lon="-3.907801">
        <ele>600.6</ele>
        <time>2009-04-08T16:54:45Z</time>
      </trkpt>
      <trkpt lat="38.156240" lon="-3.907805">
        <ele>600.1</ele>
        <time>2009-04-08T16:54:47Z</time>
      </trkpt>
      <trkpt lat="38.156070" lon="-3.907429">
        <ele>592.3</ele>
        <time>2009-04-08T16:54:55Z</time>
      </trkpt>
      <trkpt lat="38.155872" lon="-3.907013">
        <ele>586.1</ele>
        <time>2009-04-08T16:55:05Z</time>
      </trkpt>
      <trkpt lat="38.155676" lon="-3.906924">
        <ele>586.1</ele>
        <time>2009-04-08T16:55:11Z</time>
      </trkpt>
      <trkpt lat="38.155582" lon="-3.906909">
        <ele>586.6</ele>
        <time>2009-04-08T16:55:15Z</time>
      </trkpt>
      <trkpt lat="38.155535" lon="-3.906533">
        <ele>582.2</ele>
        <time>2009-04-08T16:55:22Z</time>
      </trkpt>
      <trkpt lat="38.155601" lon="-3.906309">
        <ele>578.9</ele>
        <time>2009-04-08T16:55:28Z</time>
      </trkpt>
      <trkpt lat="38.155352" lon="-3.905998">
        <ele>577.3</ele>
        <time>2009-04-08T16:55:36Z</time>
      </trkpt>
      <trkpt lat="38.155225" lon="-3.905868">
        <ele>576.9</ele>
        <time>2009-04-08T16:55:39Z</time>
      </trkpt>
      <trkpt lat="38.155185" lon="-3.905345">
        <ele>571.6</ele>
        <time>2009-04-08T16:55:46Z</time>
      </trkpt>
      <trkpt lat="38.155287" lon="-3.905202">
        <ele>569.7</ele>
        <time>2009-04-08T16:55:48Z</time>
      </trkpt>
      <trkpt lat="38.155451" lon="-3.904789">
        <ele>565.7</ele>
        <time>2009-04-08T16:55:57Z</time>
      </trkpt>
      <trkpt lat="38.155517" lon="-3.904624">
        <ele>564.1</ele>
        <time>2009-04-08T16:56:01Z</time>
      </trkpt>
      <trkpt lat="38.155520" lon="-3.904301">
        <ele>561.6</ele>
        <time>2009-04-08T16:56:06Z</time>
      </trkpt>
      <trkpt lat="38.155485" lon="-3.904179">
        <ele>560.7</ele>
        <time>2009-04-08T16:56:08Z</time>
      </trkpt>
      <trkpt lat="38.155167" lon="-3.903810">
        <ele>558.1</ele>
        <time>2009-04-08T16:56:16Z</time>
      </trkpt>
      <trkpt lat="38.155009" lon="-3.903722">
        <ele>557.8</ele>
        <time>2009-04-08T16:56:19Z</time>
      </trkpt>
      <trkpt lat="38.154871" lon="-3.903520">
        <ele>556.1</ele>
        <time>2009-04-08T16:56:23Z</time>
      </trkpt>
      <trkpt lat="38.154811" lon="-3.903409">
        <ele>555.3</ele>
        <time>2009-04-08T16:56:31Z</time>
      </trkpt>
      <trkpt lat="38.154803" lon="-3.903358">
        <ele>554.8</ele>
        <time>2009-04-08T16:56:45Z</time>
      </trkpt>
      <trkpt lat="38.154700" lon="-3.903171">
        <ele>553.4</ele>
        <time>2009-04-08T16:56:55Z</time>
      </trkpt>
      <trkpt lat="38.154724" lon="-3.903163">
        <ele>553.2</ele>
        <time>2009-04-08T16:57:38Z</time>
      </trkpt>
      <trkpt lat="38.154743" lon="-3.903163">
        <ele>553.2</ele>
        <time>2009-04-08T16:57:55Z</time>
      </trkpt>
      <trkpt lat="38.154747" lon="-3.902956">
        <ele>551.2</ele>
        <time>2009-04-08T16:58:01Z</time>
      </trkpt>
      <trkpt lat="38.154804" lon="-3.902722">
        <ele>549.0</ele>
        <time>2009-04-08T16:58:05Z</time>
      </trkpt>
      <trkpt lat="38.154924" lon="-3.902309">
        <ele>546.0</ele>
        <time>2009-04-08T16:58:17Z</time>
      </trkpt>
      <trkpt lat="38.154905" lon="-3.902284">
        <ele>546.0</ele>
        <time>2009-04-08T16:58:41Z</time>
      </trkpt>
      <trkpt lat="38.154921" lon="-3.902271">
        <ele>545.8</ele>
        <time>2009-04-08T16:58:56Z</time>
      </trkpt>
      <trkpt lat="38.154880" lon="-3.902344">
        <ele>546.5</ele>
        <time>2009-04-08T16:59:10Z</time>
      </trkpt>
      <trkpt lat="38.154902" lon="-3.902379">
        <ele>546.6</ele>
        <time>2009-04-08T16:59:46Z</time>
      </trkpt>
      <trkpt lat="38.154911" lon="-3.902390">
        <ele>546.6</ele>
        <time>2009-04-08T17:00:03Z</time>
      </trkpt>
      <trkpt lat="38.155168" lon="-3.902279">
        <ele>544.4</ele>
        <time>2009-04-08T17:00:12Z</time>
      </trkpt>
      <trkpt lat="38.155351" lon="-3.902014">
        <ele>543.2</ele>
        <time>2009-04-08T17:00:19Z</time>
      </trkpt>
      <trkpt lat="38.155485" lon="-3.901496">
        <ele>541.8</ele>
        <time>2009-04-08T17:00:30Z</time>
      </trkpt>
      <trkpt lat="38.155559" lon="-3.901059">
        <ele>541.0</ele>
        <time>2009-04-08T17:00:39Z</time>
      </trkpt>
      <trkpt lat="38.155447" lon="-3.900702">
        <ele>539.1</ele>
        <time>2009-04-08T17:00:44Z</time>
      </trkpt>
      <trkpt lat="38.155351" lon="-3.900603">
        <ele>537.9</ele>
        <time>2009-04-08T17:00:46Z</time>
      </trkpt>
      <trkpt lat="38.155230" lon="-3.900371">
        <ele>535.8</ele>
        <time>2009-04-08T17:00:50Z</time>
      </trkpt>
      <trkpt lat="38.154932" lon="-3.899890">
        <ele>533.8</ele>
        <time>2009-04-08T17:01:00Z</time>
      </trkpt>
      <trkpt lat="38.154888" lon="-3.899760">
        <ele>532.8</ele>
        <time>2009-04-08T17:01:02Z</time>
      </trkpt>
      <trkpt lat="38.154807" lon="-3.899491">
        <ele>530.3</ele>
        <time>2009-04-08T17:01:06Z</time>
      </trkpt>
      <trkpt lat="38.154773" lon="-3.899180">
        <ele>529.1</ele>
        <time>2009-04-08T17:01:10Z</time>
      </trkpt>
      <trkpt lat="38.154810" lon="-3.898795">
        <ele>529.3</ele>
        <time>2009-04-08T17:01:17Z</time>
      </trkpt>
      <trkpt lat="38.155102" lon="-3.898476">
        <ele>535.2</ele>
        <time>2009-04-08T17:01:25Z</time>
      </trkpt>
      <trkpt lat="38.155134" lon="-3.898218">
        <ele>533.3</ele>
        <time>2009-04-08T17:01:31Z</time>
      </trkpt>
      <trkpt lat="38.155251" lon="-3.897880">
        <ele>532.9</ele>
        <time>2009-04-08T17:01:38Z</time>
      </trkpt>
      <trkpt lat="38.155579" lon="-3.897706">
        <ele>540.2</ele>
        <time>2009-04-08T17:01:47Z</time>
      </trkpt>
      <trkpt lat="38.155762" lon="-3.897481">
        <ele>540.8</ele>
        <time>2009-04-08T17:01:54Z</time>
      </trkpt>
      <trkpt lat="38.155928" lon="-3.897343">
        <ele>542.0</ele>
        <time>2009-04-08T17:01:58Z</time>
      </trkpt>
      <trkpt lat="38.156372" lon="-3.897207">
        <ele>546.9</ele>
        <time>2009-04-08T17:02:07Z</time>
      </trkpt>
      <trkpt lat="38.156641" lon="-3.896922">
        <ele>543.8</ele>
        <time>2009-04-08T17:02:15Z</time>
      </trkpt>
      <trkpt lat="38.156663" lon="-3.896862">
        <ele>542.6</ele>
        <time>2009-04-08T17:02:16Z</time>
      </trkpt>
      <trkpt lat="38.156727" lon="-3.896647">
        <ele>538.0</ele>
        <time>2009-04-08T17:02:19Z</time>
      </trkpt>
      <trkpt lat="38.156747" lon="-3.896396">
        <ele>531.7</ele>
        <time>2009-04-08T17:02:23Z</time>
      </trkpt>
      <trkpt lat="38.157047" lon="-3.896295">
        <ele>531.3</ele>
        <time>2009-04-08T17:02:31Z</time>
      </trkpt>
      <trkpt lat="38.157485" lon="-3.896400">
        <ele>535.6</ele>
        <time>2009-04-08T17:02:39Z</time>
      </trkpt>
      <trkpt lat="38.157759" lon="-3.896297">
        <ele>533.0</ele>
        <time>2009-04-08T17:02:44Z</time>
      </trkpt>
      <trkpt lat="38.158179" lon="-3.896343">
        <ele>527.7</ele>
        <time>2009-04-08T17:02:53Z</time>
      </trkpt>
      <trkpt lat="38.158603" lon="-3.896591">
        <ele>523.2</ele>
        <time>2009-04-08T17:03:01Z</time>
      </trkpt>
      <trkpt lat="38.158713" lon="-3.896956">
        <ele>524.0</ele>
        <time>2009-04-08T17:03:06Z</time>
      </trkpt>
      <trkpt lat="38.158743" lon="-3.897269">
        <ele>524.9</ele>
        <time>2009-04-08T17:03:10Z</time>
      </trkpt>
      <trkpt lat="38.158964" lon="-3.897777">
        <ele>522.8</ele>
        <time>2009-04-08T17:03:17Z</time>
      </trkpt>
      <trkpt lat="38.159274" lon="-3.897761">
        <ele>515.5</ele>
        <time>2009-04-08T17:03:24Z</time>
      </trkpt>
      <trkpt lat="38.159381" lon="-3.897577">
        <ele>511.5</ele>
        <time>2009-04-08T17:03:27Z</time>
      </trkpt>
      <trkpt lat="38.159779" lon="-3.896725">
        <ele>502.9</ele>
        <time>2009-04-08T17:03:38Z</time>
      </trkpt>
      <trkpt lat="38.159951" lon="-3.896530">
        <ele>501.5</ele>
        <time>2009-04-08T17:03:43Z</time>
      </trkpt>
      <trkpt lat="38.160290" lon="-3.896286">
        <ele>499.7</ele>
        <time>2009-04-08T17:03:51Z</time>
      </trkpt>
      <trkpt lat="38.160267" lon="-3.895827">
        <ele>495.1</ele>
        <time>2009-04-08T17:03:59Z</time>
      </trkpt>
      <trkpt lat="38.160165" lon="-3.895780">
        <ele>494.3</ele>
        <time>2009-04-08T17:04:01Z</time>
      </trkpt>
      <trkpt lat="38.160065" lon="-3.895755">
        <ele>494.0</ele>
        <time>2009-04-08T17:04:03Z</time>
      </trkpt>
      <trkpt lat="38.159810" lon="-3.895279">
        <ele>489.3</ele>
        <time>2009-04-08T17:04:12Z</time>
      </trkpt>
      <trkpt lat="38.159821" lon="-3.895208">
        <ele>488.7</ele>
        <time>2009-04-08T17:04:13Z</time>
      </trkpt>
      <trkpt lat="38.159837" lon="-3.895056">
        <ele>487.2</ele>
        <time>2009-04-08T17:04:15Z</time>
      </trkpt>
      <trkpt lat="38.159953" lon="-3.894773">
        <ele>484.3</ele>
        <time>2009-04-08T17:04:19Z</time>
      </trkpt>
      <trkpt lat="38.160064" lon="-3.894439">
        <ele>481.0</ele>
        <time>2009-04-08T17:04:24Z</time>
      </trkpt>
      <trkpt lat="38.159928" lon="-3.893700">
        <ele>475.6</ele>
        <time>2009-04-08T17:04:33Z</time>
      </trkpt>
      <trkpt lat="38.159819" lon="-3.893450">
        <ele>473.5</ele>
        <time>2009-04-08T17:04:38Z</time>
      </trkpt>
      <trkpt lat="38.159794" lon="-3.893331">
        <ele>472.7</ele>
        <time>2009-04-08T17:04:40Z</time>
      </trkpt>
      <trkpt lat="38.159773" lon="-3.893032">
        <ele>470.6</ele>
        <time>2009-04-08T17:04:44Z</time>
      </trkpt>
      <trkpt lat="38.159764" lon="-3.892636">
        <ele>467.9</ele>
        <time>2009-04-08T17:04:51Z</time>
      </trkpt>
      <trkpt lat="38.159786" lon="-3.892160">
        <ele>464.5</ele>
        <time>2009-04-08T17:05:04Z</time>
      </trkpt>
      <trkpt lat="38.159780" lon="-3.892155">
        <ele>464.5</ele>
        <time>2009-04-08T17:06:19Z</time>
      </trkpt>
      <trkpt lat="38.159788" lon="-3.891764">
        <ele>462.8</ele>
        <time>2009-04-08T17:06:27Z</time>
      </trkpt>
      <trkpt lat="38.159808" lon="-3.891148">
        <ele>461.9</ele>
        <time>2009-04-08T17:06:39Z</time>
      </trkpt>
      <trkpt lat="38.159803" lon="-3.890781">
        <ele>462.0</ele>
        <time>2009-04-08T17:06:47Z</time>
      </trkpt>
      <trkpt lat="38.159829" lon="-3.890371">
        <ele>462.4</ele>
        <time>2009-04-08T17:06:57Z</time>
      </trkpt>
      <trkpt lat="38.159952" lon="-3.889774">
        <ele>460.0</ele>
        <time>2009-04-08T17:07:07Z</time>
      </trkpt>
      <trkpt lat="38.160027" lon="-3.889450">
        <ele>458.6</ele>
        <time>2009-04-08T17:07:13Z</time>
      </trkpt>
      <trkpt lat="38.160225" lon="-3.889148">
        <ele>457.1</ele>
        <time>2009-04-08T17:07:20Z</time>
      </trkpt>
      <trkpt lat="38.160281" lon="-3.888967">
        <ele>455.8</ele>
        <time>2009-04-08T17:07:23Z</time>
      </trkpt>
      <trkpt lat="38.160296" lon="-3.888828">
        <ele>454.6</ele>
        <time>2009-04-08T17:07:25Z</time>
      </trkpt>
      <trkpt lat="38.160316" lon="-3.888070">
        <ele>446.7</ele>
        <time>2009-04-08T17:07:37Z</time>
      </trkpt>
      <trkpt lat="38.160462" lon="-3.887552">
        <ele>444.7</ele>
        <time>2009-04-08T17:07:47Z</time>
      </trkpt>
      <trkpt lat="38.160626" lon="-3.887223">
        <ele>444.8</ele>
        <time>2009-04-08T17:07:54Z</time>
      </trkpt>
      <trkpt lat="38.160845" lon="-3.886950">
        <ele>445.4</ele>
        <time>2009-04-08T17:07:59Z</time>
      </trkpt>
      <trkpt lat="38.160958" lon="-3.886676">
        <ele>442.3</ele>
        <time>2009-04-08T17:08:03Z</time>
      </trkpt>
      <trkpt lat="38.161107" lon="-3.886473">
        <ele>440.0</ele>
        <time>2009-04-08T17:08:07Z</time>
      </trkpt>
      <trkpt lat="38.161308" lon="-3.886344">
        <ele>439.4</ele>
        <time>2009-04-08T17:08:11Z</time>
      </trkpt>
      <trkpt lat="38.161373" lon="-3.886287">
        <ele>438.9</ele>
        <time>2009-04-08T17:08:13Z</time>
      </trkpt>
      <trkpt lat="38.161513" lon="-3.885967">
        <ele>436.2</ele>
        <time>2009-04-08T17:08:20Z</time>
      </trkpt>
      <trkpt lat="38.161534" lon="-3.885545">
        <ele>433.7</ele>
        <time>2009-04-08T17:08:28Z</time>
      </trkpt>
      <trkpt lat="38.161526" lon="-3.885488">
        <ele>433.3</ele>
        <time>2009-04-08T17:08:29Z</time>
      </trkpt>
      <trkpt lat="38.161473" lon="-3.885290">
        <ele>431.4</ele>
        <time>2009-04-08T17:08:32Z</time>
      </trkpt>
      <trkpt lat="38.161464" lon="-3.884592">
        <ele>429.6</ele>
        <time>2009-04-08T17:08:41Z</time>
      </trkpt>
      <trkpt lat="38.161806" lon="-3.884261">
        <ele>432.7</ele>
        <time>2009-04-08T17:08:48Z</time>
      </trkpt>
      <trkpt lat="38.161998" lon="-3.884242">
        <ele>434.8</ele>
        <time>2009-04-08T17:08:50Z</time>
      </trkpt>
      <trkpt lat="38.162287" lon="-3.884117">
        <ele>437.3</ele>
        <time>2009-04-08T17:08:54Z</time>
      </trkpt>
      <trkpt lat="38.162520" lon="-3.883672">
        <ele>436.9</ele>
        <time>2009-04-08T17:09:00Z</time>
      </trkpt>
      <trkpt lat="38.162737" lon="-3.882339">
        <ele>434.4</ele>
        <time>2009-04-08T17:09:12Z</time>
      </trkpt>
      <trkpt lat="38.162974" lon="-3.881014">
        <ele>430.9</ele>
        <time>2009-04-08T17:09:24Z</time>
      </trkpt>
      <trkpt lat="38.162881" lon="-3.880038">
        <ele>427.1</ele>
        <time>2009-04-08T17:09:32Z</time>
      </trkpt>
      <trkpt lat="38.162554" lon="-3.879187">
        <ele>424.0</ele>
        <time>2009-04-08T17:09:41Z</time>
      </trkpt>
      <trkpt lat="38.162607" lon="-3.878929">
        <ele>423.0</ele>
        <time>2009-04-08T17:09:49Z</time>
      </trkpt>
      <trkpt lat="38.162576" lon="-3.878994">
        <ele>423.3</ele>
        <time>2009-04-08T17:10:04Z</time>
      </trkpt>
      <trkpt lat="38.162557" lon="-3.879031">
        <ele>423.5</ele>
        <time>2009-04-08T17:10:39Z</time>
      </trkpt>
      <trkpt lat="38.162506" lon="-3.878985">
        <ele>423.6</ele>
        <time>2009-04-08T17:11:06Z</time>
      </trkpt>
      <trkpt lat="38.162556" lon="-3.878792">
        <ele>422.8</ele>
        <time>2009-04-08T17:11:18Z</time>
      </trkpt>
      <trkpt lat="38.162612" lon="-3.878341">
        <ele>420.8</ele>
        <time>2009-04-08T17:11:25Z</time>
      </trkpt>
      <trkpt lat="38.162626" lon="-3.878096">
        <ele>419.5</ele>
        <time>2009-04-08T17:11:28Z</time>
      </trkpt>
      <trkpt lat="38.162525" lon="-3.877734">
        <ele>417.9</ele>
        <time>2009-04-08T17:11:34Z</time>
      </trkpt>
      <trkpt lat="38.162564" lon="-3.877182">
        <ele>416.8</ele>
        <time>2009-04-08T17:11:41Z</time>
      </trkpt>
      <trkpt lat="38.163041" lon="-3.876318">
        <ele>417.7</ele>
        <time>2009-04-08T17:11:53Z</time>
      </trkpt>
      <trkpt lat="38.163651" lon="-3.875238">
        <ele>412.9</ele>
        <time>2009-04-08T17:12:07Z</time>
      </trkpt>
      <trkpt lat="38.163906" lon="-3.874802">
        <ele>411.9</ele>
        <time>2009-04-08T17:12:16Z</time>
      </trkpt>
      <trkpt lat="38.163981" lon="-3.874674">
        <ele>411.8</ele>
        <time>2009-04-08T17:12:18Z</time>
      </trkpt>
      <trkpt lat="38.164098" lon="-3.874360">
        <ele>411.7</ele>
        <time>2009-04-08T17:12:22Z</time>
      </trkpt>
      <trkpt lat="38.164381" lon="-3.873589">
        <ele>412.3</ele>
        <time>2009-04-08T17:12:33Z</time>
      </trkpt>
      <trkpt lat="38.164443" lon="-3.873363">
        <ele>412.7</ele>
        <time>2009-04-08T17:12:36Z</time>
      </trkpt>
      <trkpt lat="38.164504" lon="-3.873131">
        <ele>413.2</ele>
        <time>2009-04-08T17:12:40Z</time>
      </trkpt>
      <trkpt lat="38.164501" lon="-3.872906">
        <ele>412.9</ele>
        <time>2009-04-08T17:12:45Z</time>
      </trkpt>
      <trkpt lat="38.164680" lon="-3.872478">
        <ele>414.2</ele>
        <time>2009-04-08T17:12:53Z</time>
      </trkpt>
      <trkpt lat="38.164732" lon="-3.872227">
        <ele>414.2</ele>
        <time>2009-04-08T17:13:01Z</time>
      </trkpt>
      <trkpt lat="38.164687" lon="-3.871936">
        <ele>412.9</ele>
        <time>2009-04-08T17:13:34Z</time>
      </trkpt>
      <trkpt lat="38.164519" lon="-3.871058">
        <ele>406.3</ele>
        <time>2009-04-08T17:13:45Z</time>
      </trkpt>
      <trkpt lat="38.164308" lon="-3.870314">
        <ele>403.1</ele>
        <time>2009-04-08T17:13:56Z</time>
      </trkpt>
      <trkpt lat="38.164043" lon="-3.870018">
        <ele>402.8</ele>
        <time>2009-04-08T17:14:05Z</time>
      </trkpt>
      <trkpt lat="38.163763" lon="-3.869770">
        <ele>402.1</ele>
        <time>2009-04-08T17:14:15Z</time>
      </trkpt>
      <trkpt lat="38.163616" lon="-3.869640">
        <ele>401.6</ele>
        <time>2009-04-08T17:14:25Z</time>
      </trkpt>
      <trkpt lat="38.163614" lon="-3.869659">
        <ele>401.7</ele>
        <time>2009-04-08T17:14:48Z</time>
      </trkpt>
      <trkpt lat="38.163527" lon="-3.869504">
        <ele>401.1</ele>
        <time>2009-04-08T17:15:37Z</time>
      </trkpt>
      <trkpt lat="38.163439" lon="-3.869281">
        <ele>401.7</ele>
        <time>2009-04-08T17:15:40Z</time>
      </trkpt>
      <trkpt lat="38.163403" lon="-3.868941">
        <ele>401.5</ele>
        <time>2009-04-08T17:15:44Z</time>
      </trkpt>
      <trkpt lat="38.163571" lon="-3.868031">
        <ele>398.4</ele>
        <time>2009-04-08T17:15:56Z</time>
      </trkpt>
      <trkpt lat="38.163985" lon="-3.867123">
        <ele>397.8</ele>
        <time>2009-04-08T17:16:10Z</time>
      </trkpt>
      <trkpt lat="38.164384" lon="-3.866722">
        <ele>396.5</ele>
        <time>2009-04-08T17:16:20Z</time>
      </trkpt>
      <trkpt lat="38.164607" lon="-3.866664">
        <ele>393.3</ele>
        <time>2009-04-08T17:16:24Z</time>
      </trkpt>
      <trkpt lat="38.164768" lon="-3.866673">
        <ele>391.8</ele>
        <time>2009-04-08T17:16:27Z</time>
      </trkpt>
      <trkpt lat="38.165004" lon="-3.866781">
        <ele>390.6</ele>
        <time>2009-04-08T17:16:31Z</time>
      </trkpt>
      <trkpt lat="38.165294" lon="-3.866972">
        <ele>389.5</ele>
        <time>2009-04-08T17:16:35Z</time>
      </trkpt>
      <trkpt lat="38.165740" lon="-3.866834">
        <ele>385.8</ele>
        <time>2009-04-08T17:16:42Z</time>
      </trkpt>
      <trkpt lat="38.165857" lon="-3.866611">
        <ele>383.4</ele>
        <time>2009-04-08T17:16:45Z</time>
      </trkpt>
      <trkpt lat="38.166163" lon="-3.865946">
        <ele>378.0</ele>
        <time>2009-04-08T17:16:56Z</time>
      </trkpt>
      <trkpt lat="38.166325" lon="-3.865554">
        <ele>375.3</ele>
        <time>2009-04-08T17:17:13Z</time>
      </trkpt>
      <trkpt lat="38.166482" lon="-3.865259">
        <ele>372.7</ele>
        <time>2009-04-08T17:17:27Z</time>
      </trkpt>
      <trkpt lat="38.166762" lon="-3.864724">
        <ele>370.6</ele>
        <time>2009-04-08T17:17:35Z</time>
      </trkpt>
      <trkpt lat="38.166845" lon="-3.864564">
        <ele>370.2</ele>
        <time>2009-04-08T17:17:39Z</time>
      </trkpt>
      <trkpt lat="38.166959" lon="-3.864273">
        <ele>370.3</ele>
        <time>2009-04-08T17:17:46Z</time>
      </trkpt>
      <trkpt lat="38.167311" lon="-3.863661">
        <ele>370.1</ele>
        <time>2009-04-08T17:17:55Z</time>
      </trkpt>
      <trkpt lat="38.167449" lon="-3.863198">
        <ele>369.3</ele>
        <time>2009-04-08T17:18:01Z</time>
      </trkpt>
      <trkpt lat="38.167447" lon="-3.863058">
        <ele>369.0</ele>
        <time>2009-04-08T17:18:03Z</time>
      </trkpt>
      <trkpt lat="38.167485" lon="-3.862807">
        <ele>368.5</ele>
        <time>2009-04-08T17:18:07Z</time>
      </trkpt>
      <trkpt lat="38.167560" lon="-3.862640">
        <ele>368.0</ele>
        <time>2009-04-08T17:18:15Z</time>
      </trkpt>
      <trkpt lat="38.167588" lon="-3.862657">
        <ele>368.0</ele>
        <time>2009-04-08T17:18:38Z</time>
      </trkpt>
      <trkpt lat="38.167604" lon="-3.862643">
        <ele>367.9</ele>
        <time>2009-04-08T17:19:17Z</time>
      </trkpt>
      <trkpt lat="38.167765" lon="-3.862403">
        <ele>367.0</ele>
        <time>2009-04-08T17:19:27Z</time>
      </trkpt>
      <trkpt lat="38.167988" lon="-3.862006">
        <ele>365.8</ele>
        <time>2009-04-08T17:19:38Z</time>
      </trkpt>
      <trkpt lat="38.168190" lon="-3.861716">
        <ele>365.1</ele>
        <time>2009-04-08T17:19:45Z</time>
      </trkpt>
      <trkpt lat="38.168299" lon="-3.861516">
        <ele>364.7</ele>
        <time>2009-04-08T17:19:49Z</time>
      </trkpt>
      <trkpt lat="38.168471" lon="-3.861065">
        <ele>363.9</ele>
        <time>2009-04-08T17:19:56Z</time>
      </trkpt>
      <trkpt lat="38.168952" lon="-3.860216">
        <ele>362.3</ele>
        <time>2009-04-08T17:20:07Z</time>
      </trkpt>
      <trkpt lat="38.169215" lon="-3.859727">
        <ele>361.0</ele>
        <time>2009-04-08T17:20:18Z</time>
      </trkpt>
      <trkpt lat="38.169215" lon="-3.859599">
        <ele>360.6</ele>
        <time>2009-04-08T17:20:24Z</time>
      </trkpt>
      <trkpt lat="38.169084" lon="-3.859166">
        <ele>360.1</ele>
        <time>2009-04-08T17:20:31Z</time>
      </trkpt>
      <trkpt lat="38.169141" lon="-3.858809">
        <ele>359.5</ele>
        <time>2009-04-08T17:20:36Z</time>
      </trkpt>
      <trkpt lat="38.169455" lon="-3.858181">
        <ele>357.4</ele>
        <time>2009-04-08T17:20:47Z</time>
      </trkpt>
      <trkpt lat="38.169669" lon="-3.857669">
        <ele>356.3</ele>
        <time>2009-04-08T17:20:57Z</time>
      </trkpt>
      <trkpt lat="38.169711" lon="-3.857135">
        <ele>355.0</ele>
        <time>2009-04-08T17:21:04Z</time>
      </trkpt>
      <trkpt lat="38.169567" lon="-3.856481">
        <ele>353.0</ele>
        <time>2009-04-08T17:21:12Z</time>
      </trkpt>
      <trkpt lat="38.169630" lon="-3.856151">
        <ele>351.8</ele>
        <time>2009-04-08T17:21:17Z</time>
      </trkpt>
      <trkpt lat="38.169716" lon="-3.855906">
        <ele>351.1</ele>
        <time>2009-04-08T17:21:21Z</time>
      </trkpt>
      <trkpt lat="38.169559" lon="-3.855429">
        <ele>349.9</ele>
        <time>2009-04-08T17:21:28Z</time>
      </trkpt>
      <trkpt lat="38.169340" lon="-3.855160">
        <ele>349.3</ele>
        <time>2009-04-08T17:21:32Z</time>
      </trkpt>
      <trkpt lat="38.169328" lon="-3.854489">
        <ele>350.8</ele>
        <time>2009-04-08T17:21:41Z</time>
      </trkpt>
      <trkpt lat="38.169382" lon="-3.854416">
        <ele>351.4</ele>
        <time>2009-04-08T17:21:42Z</time>
      </trkpt>
      <trkpt lat="38.169978" lon="-3.853624">
        <ele>360.2</ele>
        <time>2009-04-08T17:21:51Z</time>
      </trkpt>
      <trkpt lat="38.170219" lon="-3.853402">
        <ele>362.4</ele>
        <time>2009-04-08T17:21:54Z</time>
      </trkpt>
      <trkpt lat="38.170539" lon="-3.852913">
        <ele>365.1</ele>
        <time>2009-04-08T17:21:59Z</time>
      </trkpt>
      <trkpt lat="38.170885" lon="-3.851978">
        <ele>371.1</ele>
        <time>2009-04-08T17:22:07Z</time>
      </trkpt>
      <trkpt lat="38.171301" lon="-3.851538">
        <ele>374.3</ele>
        <time>2009-04-08T17:22:13Z</time>
      </trkpt>
      <trkpt lat="38.171695" lon="-3.851166">
        <ele>377.1</ele>
        <time>2009-04-08T17:22:18Z</time>
      </trkpt>
      <trkpt lat="38.172064" lon="-3.850535">
        <ele>380.6</ele>
        <time>2009-04-08T17:22:25Z</time>
      </trkpt>
      <trkpt lat="38.172054" lon="-3.849880">
        <ele>380.5</ele>
        <time>2009-04-08T17:22:32Z</time>
      </trkpt>
      <trkpt lat="38.171998" lon="-3.849807">
        <ele>380.2</ele>
        <time>2009-04-08T17:22:33Z</time>
      </trkpt>
      <trkpt lat="38.171360" lon="-3.848654">
        <ele>376.6</ele>
        <time>2009-04-08T17:22:46Z</time>
      </trkpt>
      <trkpt lat="38.171321" lon="-3.848559">
        <ele>376.2</ele>
        <time>2009-04-08T17:22:47Z</time>
      </trkpt>
      <trkpt lat="38.171204" lon="-3.847967">
        <ele>372.3</ele>
        <time>2009-04-08T17:22:53Z</time>
      </trkpt>
      <trkpt lat="38.171128" lon="-3.847566">
        <ele>369.9</ele>
        <time>2009-04-08T17:23:03Z</time>
      </trkpt>
      <trkpt lat="38.171085" lon="-3.847250">
        <ele>368.1</ele>
        <time>2009-04-08T17:23:12Z</time>
      </trkpt>
      <trkpt lat="38.171137" lon="-3.847247">
        <ele>368.3</ele>
        <time>2009-04-08T17:23:41Z</time>
      </trkpt>
      <trkpt lat="38.171133" lon="-3.847264">
        <ele>368.4</ele>
        <time>2009-04-08T17:24:25Z</time>
      </trkpt>
      <trkpt lat="38.171148" lon="-3.847025">
        <ele>367.3</ele>
        <time>2009-04-08T17:26:15Z</time>
      </trkpt>
      <trkpt lat="38.171209" lon="-3.846151">
        <ele>364.7</ele>
        <time>2009-04-08T17:26:25Z</time>
      </trkpt>
      <trkpt lat="38.171365" lon="-3.845319">
        <ele>363.8</ele>
        <time>2009-04-08T17:26:33Z</time>
      </trkpt>
      <trkpt lat="38.171291" lon="-3.844777">
        <ele>361.3</ele>
        <time>2009-04-08T17:26:42Z</time>
      </trkpt>
      <trkpt lat="38.171169" lon="-3.844334">
        <ele>360.0</ele>
        <time>2009-04-08T17:26:51Z</time>
      </trkpt>
      <trkpt lat="38.170817" lon="-3.843866">
        <ele>361.0</ele>
        <time>2009-04-08T17:27:00Z</time>
      </trkpt>
      <trkpt lat="38.170771" lon="-3.843794">
        <ele>361.3</ele>
        <time>2009-04-08T17:27:01Z</time>
      </trkpt>
      <trkpt lat="38.170674" lon="-3.843527">
        <ele>362.4</ele>
        <time>2009-04-08T17:27:05Z</time>
      </trkpt>
      <trkpt lat="38.170534" lon="-3.843139">
        <ele>364.4</ele>
        <time>2009-04-08T17:27:11Z</time>
      </trkpt>
      <trkpt lat="38.170300" lon="-3.842097">
        <ele>368.6</ele>
        <time>2009-04-08T17:27:23Z</time>
      </trkpt>
      <trkpt lat="38.170175" lon="-3.841512">
        <ele>371.1</ele>
        <time>2009-04-08T17:27:29Z</time>
      </trkpt>
      <trkpt lat="38.170039" lon="-3.841256">
        <ele>372.3</ele>
        <time>2009-04-08T17:27:32Z</time>
      </trkpt>
      <trkpt lat="38.169950" lon="-3.841162">
        <ele>372.6</ele>
        <time>2009-04-08T17:27:35Z</time>
      </trkpt>
      <trkpt lat="38.169823" lon="-3.840875">
        <ele>373.3</ele>
        <time>2009-04-08T17:27:41Z</time>
      </trkpt>
      <trkpt lat="38.169647" lon="-3.840205">
        <ele>375.0</ele>
        <time>2009-04-08T17:27:50Z</time>
      </trkpt>
      <trkpt lat="38.169685" lon="-3.839589">
        <ele>377.3</ele>
        <time>2009-04-08T17:27:59Z</time>
      </trkpt>
      <trkpt lat="38.169744" lon="-3.839116">
        <ele>378.6</ele>
        <time>2009-04-08T17:28:07Z</time>
      </trkpt>
      <trkpt lat="38.169829" lon="-3.838682">
        <ele>379.5</ele>
        <time>2009-04-08T17:28:16Z</time>
      </trkpt>
      <trkpt lat="38.169839" lon="-3.838598">
        <ele>379.6</ele>
        <time>2009-04-08T17:28:17Z</time>
      </trkpt>
      <trkpt lat="38.169974" lon="-3.837679">
        <ele>380.9</ele>
        <time>2009-04-08T17:28:27Z</time>
      </trkpt>
      <trkpt lat="38.169981" lon="-3.837352">
        <ele>381.4</ele>
        <time>2009-04-08T17:28:35Z</time>
      </trkpt>
      <trkpt lat="38.169974" lon="-3.836915">
        <ele>382.0</ele>
        <time>2009-04-08T17:28:44Z</time>
      </trkpt>
      <trkpt lat="38.169964" lon="-3.836823">
        <ele>382.0</ele>
        <time>2009-04-08T17:28:46Z</time>
      </trkpt>
      <trkpt lat="38.169939" lon="-3.836002">
        <ele>382.6</ele>
        <time>2009-04-08T17:28:56Z</time>
      </trkpt>
      <trkpt lat="38.170034" lon="-3.835039">
        <ele>385.2</ele>
        <time>2009-04-08T17:29:05Z</time>
      </trkpt>
      <trkpt lat="38.170120" lon="-3.833789">
        <ele>388.5</ele>
        <time>2009-04-08T17:29:15Z</time>
      </trkpt>
      <trkpt lat="38.170131" lon="-3.833553">
        <ele>388.9</ele>
        <time>2009-04-08T17:29:18Z</time>
      </trkpt>
      <trkpt lat="38.170169" lon="-3.833228">
        <ele>389.4</ele>
        <time>2009-04-08T17:29:22Z</time>
      </trkpt>
      <trkpt lat="38.170304" lon="-3.832699">
        <ele>390.5</ele>
        <time>2009-04-08T17:29:31Z</time>
      </trkpt>
      <trkpt lat="38.170629" lon="-3.831789">
        <ele>394.1</ele>
        <time>2009-04-08T17:29:40Z</time>
      </trkpt>
      <trkpt lat="38.171084" lon="-3.830594">
        <ele>400.1</ele>
        <time>2009-04-08T17:29:51Z</time>
      </trkpt>
      <trkpt lat="38.171349" lon="-3.829910">
        <ele>402.5</ele>
        <time>2009-04-08T17:29:57Z</time>
      </trkpt>
      <trkpt lat="38.171412" lon="-3.829590">
        <ele>403.2</ele>
        <time>2009-04-08T17:30:04Z</time>
      </trkpt>
      <trkpt lat="38.171424" lon="-3.829614">
        <ele>403.2</ele>
        <time>2009-04-08T17:30:43Z</time>
      </trkpt>
      <trkpt lat="38.171431" lon="-3.829443">
        <ele>403.5</ele>
        <time>2009-04-08T17:31:28Z</time>
      </trkpt>
      <trkpt lat="38.171409" lon="-3.828847">
        <ele>404.2</ele>
        <time>2009-04-08T17:31:37Z</time>
      </trkpt>
      <trkpt lat="38.171410" lon="-3.828506">
        <ele>404.4</ele>
        <time>2009-04-08T17:31:46Z</time>
      </trkpt>
      <trkpt lat="38.171405" lon="-3.828021">
        <ele>404.1</ele>
        <time>2009-04-08T17:31:58Z</time>
      </trkpt>
      <trkpt lat="38.171109" lon="-3.827337">
        <ele>404.0</ele>
        <time>2009-04-08T17:32:10Z</time>
      </trkpt>
      <trkpt lat="38.170881" lon="-3.826804">
        <ele>404.0</ele>
        <time>2009-04-08T17:32:16Z</time>
      </trkpt>
      <trkpt lat="38.170708" lon="-3.826210">
        <ele>404.5</ele>
        <time>2009-04-08T17:32:22Z</time>
      </trkpt>
      <trkpt lat="38.170615" lon="-3.825530">
        <ele>403.5</ele>
        <time>2009-04-08T17:32:33Z</time>
      </trkpt>
      <trkpt lat="38.170477" lon="-3.824845">
        <ele>402.7</ele>
        <time>2009-04-08T17:32:43Z</time>
      </trkpt>
      <trkpt lat="38.170351" lon="-3.824508">
        <ele>402.1</ele>
        <time>2009-04-08T17:32:48Z</time>
      </trkpt>
      <trkpt lat="38.170305" lon="-3.824394">
        <ele>401.9</ele>
        <time>2009-04-08T17:32:50Z</time>
      </trkpt>
      <trkpt lat="38.170247" lon="-3.824268">
        <ele>401.5</ele>
        <time>2009-04-08T17:32:52Z</time>
      </trkpt>
      <trkpt lat="38.170098" lon="-3.823351">
        <ele>399.5</ele>
        <time>2009-04-08T17:33:03Z</time>
      </trkpt>
      <trkpt lat="38.170125" lon="-3.822728">
        <ele>401.5</ele>
        <time>2009-04-08T17:33:13Z</time>
      </trkpt>
      <trkpt lat="38.170129" lon="-3.822510">
        <ele>402.6</ele>
        <time>2009-04-08T17:33:16Z</time>
      </trkpt>
      <trkpt lat="38.170039" lon="-3.821975">
        <ele>402.1</ele>
        <time>2009-04-08T17:33:26Z</time>
      </trkpt>
      <trkpt lat="38.170035" lon="-3.822000">
        <ele>401.8</ele>
        <time>2009-04-08T17:34:07Z</time>
      </trkpt>
      <trkpt lat="38.170046" lon="-3.821987">
        <ele>402.2</ele>
        <time>2009-04-08T17:34:46Z</time>
      </trkpt>
      <trkpt lat="38.170042" lon="-3.821999">
        <ele>402.1</ele>
        <time>2009-04-08T17:35:07Z</time>
      </trkpt>
      <trkpt lat="38.170084" lon="-3.821799">
        <ele>403.9</ele>
        <time>2009-04-08T17:35:26Z</time>
      </trkpt>
      <trkpt lat="38.170144" lon="-3.821490">
        <ele>406.6</ele>
        <time>2009-04-08T17:35:36Z</time>
      </trkpt>
      <trkpt lat="38.170300" lon="-3.820887">
        <ele>409.2</ele>
        <time>2009-04-08T17:35:47Z</time>
      </trkpt>
      <trkpt lat="38.170402" lon="-3.820427">
        <ele>408.6</ele>
        <time>2009-04-08T17:35:54Z</time>
      </trkpt>
      <trkpt lat="38.170716" lon="-3.820002">
        <ele>412.0</ele>
        <time>2009-04-08T17:36:04Z</time>
      </trkpt>
      <trkpt lat="38.170928" lon="-3.819480">
        <ele>412.5</ele>
        <time>2009-04-08T17:36:12Z</time>
      </trkpt>
      <trkpt lat="38.170947" lon="-3.819274">
        <ele>410.0</ele>
        <time>2009-04-08T17:36:15Z</time>
      </trkpt>
      <trkpt lat="38.170880" lon="-3.819009">
        <ele>403.9</ele>
        <time>2009-04-08T17:36:19Z</time>
      </trkpt>
      <trkpt lat="38.170832" lon="-3.818668">
        <ele>397.0</ele>
        <time>2009-04-08T17:36:23Z</time>
      </trkpt>
      <trkpt lat="38.171019" lon="-3.817684">
        <ele>398.4</ele>
        <time>2009-04-08T17:36:33Z</time>
      </trkpt>
      <trkpt lat="38.171052" lon="-3.816590">
        <ele>390.7</ele>
        <time>2009-04-08T17:36:44Z</time>
      </trkpt>
      <trkpt lat="38.170937" lon="-3.816151">
        <ele>385.2</ele>
        <time>2009-04-08T17:36:49Z</time>
      </trkpt>
      <trkpt lat="38.170556" lon="-3.815383">
        <ele>378.7</ele>
        <time>2009-04-08T17:37:00Z</time>
      </trkpt>
      <trkpt lat="38.170377" lon="-3.815175">
        <ele>377.4</ele>
        <time>2009-04-08T17:37:05Z</time>
      </trkpt>
      <trkpt lat="38.170211" lon="-3.815049">
        <ele>376.9</ele>
        <time>2009-04-08T17:37:12Z</time>
      </trkpt>
      <trkpt lat="38.170107" lon="-3.814503">
        <ele>379.9</ele>
        <time>2009-04-08T17:37:20Z</time>
      </trkpt>
      <trkpt lat="38.170103" lon="-3.814325">
        <ele>380.9</ele>
        <time>2009-04-08T17:37:22Z</time>
      </trkpt>
      <trkpt lat="38.170030" lon="-3.814019">
        <ele>382.0</ele>
        <time>2009-04-08T17:37:27Z</time>
      </trkpt>
      <trkpt lat="38.169991" lon="-3.813893">
        <ele>382.4</ele>
        <time>2009-04-08T17:37:29Z</time>
      </trkpt>
      <trkpt lat="38.170075" lon="-3.813417">
        <ele>386.2</ele>
        <time>2009-04-08T17:37:36Z</time>
      </trkpt>
      <trkpt lat="38.170215" lon="-3.813070">
        <ele>389.1</ele>
        <time>2009-04-08T17:37:41Z</time>
      </trkpt>
      <trkpt lat="38.170288" lon="-3.812718">
        <ele>390.7</ele>
        <time>2009-04-08T17:37:45Z</time>
      </trkpt>
      <trkpt lat="38.170432" lon="-3.812305">
        <ele>393.5</ele>
        <time>2009-04-08T17:37:50Z</time>
      </trkpt>
      <trkpt lat="38.170541" lon="-3.811405">
        <ele>402.6</ele>
        <time>2009-04-08T17:37:59Z</time>
      </trkpt>
      <trkpt lat="38.170235" lon="-3.810826">
        <ele>410.6</ele>
        <time>2009-04-08T17:38:07Z</time>
      </trkpt>
      <trkpt lat="38.170094" lon="-3.810802">
        <ele>411.3</ele>
        <time>2009-04-08T17:38:09Z</time>
      </trkpt>
      <trkpt lat="38.169802" lon="-3.810808">
        <ele>411.4</ele>
        <time>2009-04-08T17:38:13Z</time>
      </trkpt>
      <trkpt lat="38.169561" lon="-3.810933">
        <ele>412.4</ele>
        <time>2009-04-08T17:38:18Z</time>
      </trkpt>
      <trkpt lat="38.169266" lon="-3.811159">
        <ele>412.6</ele>
        <time>2009-04-08T17:38:29Z</time>
      </trkpt>
      <trkpt lat="38.168967" lon="-3.811235">
        <ele>408.8</ele>
        <time>2009-04-08T17:38:38Z</time>
      </trkpt>
      <trkpt lat="38.168705" lon="-3.810752">
        <ele>408.5</ele>
        <time>2009-04-08T17:38:47Z</time>
      </trkpt>
      <trkpt lat="38.168689" lon="-3.810709">
        <ele>408.5</ele>
        <time>2009-04-08T17:38:48Z</time>
      </trkpt>
      <trkpt lat="38.168664" lon="-3.810301">
        <ele>409.5</ele>
        <time>2009-04-08T17:38:54Z</time>
      </trkpt>
      <trkpt lat="38.168576" lon="-3.810050">
        <ele>408.4</ele>
        <time>2009-04-08T17:39:02Z</time>
      </trkpt>
      <trkpt lat="38.168331" lon="-3.809800">
        <ele>407.5</ele>
        <time>2009-04-08T17:39:08Z</time>
      </trkpt>
      <trkpt lat="38.167767" lon="-3.808998">
        <ele>404.2</ele>
        <time>2009-04-08T17:39:22Z</time>
      </trkpt>
      <trkpt lat="38.167675" lon="-3.808887">
        <ele>404.2</ele>
        <time>2009-04-08T17:39:24Z</time>
      </trkpt>
      <trkpt lat="38.167539" lon="-3.808605">
        <ele>402.0</ele>
        <time>2009-04-08T17:39:28Z</time>
      </trkpt>
      <trkpt lat="38.167489" lon="-3.808171">
        <ele>399.0</ele>
        <time>2009-04-08T17:39:33Z</time>
      </trkpt>
      <trkpt lat="38.167546" lon="-3.807117">
        <ele>392.5</ele>
        <time>2009-04-08T17:39:45Z</time>
      </trkpt>
      <trkpt lat="38.167563" lon="-3.806866">
        <ele>390.0</ele>
        <time>2009-04-08T17:39:48Z</time>
      </trkpt>
      <trkpt lat="38.167270" lon="-3.806712">
        <ele>389.6</ele>
        <time>2009-04-08T17:39:55Z</time>
      </trkpt>
      <trkpt lat="38.167032" lon="-3.806831">
        <ele>394.2</ele>
        <time>2009-04-08T17:39:59Z</time>
      </trkpt>
      <trkpt lat="38.166730" lon="-3.806828">
        <ele>395.2</ele>
        <time>2009-04-08T17:40:04Z</time>
      </trkpt>
      <trkpt lat="38.166606" lon="-3.806769">
        <ele>393.2</ele>
        <time>2009-04-08T17:40:06Z</time>
      </trkpt>
      <trkpt lat="38.166403" lon="-3.806786">
        <ele>393.0</ele>
        <time>2009-04-08T17:40:11Z</time>
      </trkpt>
      <trkpt lat="38.166264" lon="-3.806905">
        <ele>395.6</ele>
        <time>2009-04-08T17:40:16Z</time>
      </trkpt>
      <trkpt lat="38.165758" lon="-3.806757">
        <ele>393.5</ele>
        <time>2009-04-08T17:40:24Z</time>
      </trkpt>
      <trkpt lat="38.164894" lon="-3.806145">
        <ele>393.1</ele>
        <time>2009-04-08T17:40:37Z</time>
      </trkpt>
      <trkpt lat="38.164730" lon="-3.806041">
        <ele>391.2</ele>
        <time>2009-04-08T17:40:39Z</time>
      </trkpt>
      <trkpt lat="38.164493" lon="-3.805939">
        <ele>389.4</ele>
        <time>2009-04-08T17:40:42Z</time>
      </trkpt>
      <trkpt lat="38.164200" lon="-3.805903">
        <ele>389.5</ele>
        <time>2009-04-08T17:40:46Z</time>
      </trkpt>
      <trkpt lat="38.163366" lon="-3.805783">
        <ele>382.4</ele>
        <time>2009-04-08T17:40:56Z</time>
      </trkpt>
      <trkpt lat="38.163078" lon="-3.805831">
        <ele>379.3</ele>
        <time>2009-04-08T17:41:00Z</time>
      </trkpt>
      <trkpt lat="38.162640" lon="-3.806052">
        <ele>379.5</ele>
        <time>2009-04-08T17:41:08Z</time>
      </trkpt>
      <trkpt lat="38.162604" lon="-3.806049">
        <ele>378.6</ele>
        <time>2009-04-08T17:41:19Z</time>
      </trkpt>
      <trkpt lat="38.162595" lon="-3.806059">
        <ele>378.7</ele>
        <time>2009-04-08T17:41:47Z</time>
      </trkpt>
      <trkpt lat="38.162563" lon="-3.806054">
        <ele>377.9</ele>
        <time>2009-04-08T17:42:54Z</time>
      </trkpt>
      <trkpt lat="38.161949" lon="-3.806058">
        <ele>364.5</ele>
        <time>2009-04-08T17:43:03Z</time>
      </trkpt>
      <trkpt lat="38.161875" lon="-3.806058">
        <ele>362.9</ele>
        <time>2009-04-08T17:43:04Z</time>
      </trkpt>
      <trkpt lat="38.161337" lon="-3.806398">
        <ele>344.1</ele>
        <time>2009-04-08T17:43:14Z</time>
      </trkpt>
      <trkpt lat="38.161161" lon="-3.806520">
        <ele>336.4</ele>
        <time>2009-04-08T17:43:24Z</time>
      </trkpt>
      <trkpt lat="38.161174" lon="-3.806499">
        <ele>336.9</ele>
        <time>2009-04-08T17:43:49Z</time>
      </trkpt>
      <trkpt lat="38.161174" lon="-3.806498">
        <ele>336.9</ele>
        <time>2009-04-08T17:44:58Z</time>
      </trkpt>
      <trkpt lat="38.161160" lon="-3.806516">
        <ele>336.3</ele>
        <time>2009-04-08T17:45:44Z</time>
      </trkpt>
      <trkpt lat="38.160923" lon="-3.806079">
        <ele>326.5</ele>
        <time>2009-04-08T17:45:53Z</time>
      </trkpt>
      <trkpt lat="38.160499" lon="-3.805280">
        <ele>308.3</ele>
        <time>2009-04-08T17:46:04Z</time>
      </trkpt>
      <trkpt lat="38.160342" lon="-3.804976">
        <ele>313.9</ele>
        <time>2009-04-08T17:46:13Z</time>
      </trkpt>
      <trkpt lat="38.160161" lon="-3.804615">
        <ele>324.6</ele>
        <time>2009-04-08T17:46:18Z</time>
      </trkpt>
      <trkpt lat="38.159925" lon="-3.804589">
        <ele>334.2</ele>
        <time>2009-04-08T17:46:24Z</time>
      </trkpt>
      <trkpt lat="38.159840" lon="-3.804678">
        <ele>334.2</ele>
        <time>2009-04-08T17:46:26Z</time>
      </trkpt>
      <trkpt lat="38.159688" lon="-3.804781">
        <ele>336.1</ele>
        <time>2009-04-08T17:46:35Z</time>
      </trkpt>
      <trkpt lat="38.159621" lon="-3.804835">
        <ele>336.7</ele>
        <time>2009-04-08T17:46:49Z</time>
      </trkpt>
      <trkpt lat="38.159591" lon="-3.804863">
        <ele>336.8</ele>
        <time>2009-04-08T17:47:04Z</time>
      </trkpt>
      <trkpt lat="38.159599" lon="-3.804856">
        <ele>336.8</ele>
        <time>2009-04-08T17:47:22Z</time>
      </trkpt>
      <trkpt lat="38.159616" lon="-3.804828">
        <ele>337.1</ele>
        <time>2009-04-08T17:48:00Z</time>
      </trkpt>
      <trkpt lat="38.159582" lon="-3.804816">
        <ele>338.8</ele>
        <time>2009-04-08T17:49:34Z</time>
      </trkpt>
      <trkpt lat="38.159575" lon="-3.804805">
        <ele>339.4</ele>
        <time>2009-04-08T17:50:04Z</time>
      </trkpt>
      <trkpt lat="38.159369" lon="-3.804959">
        <ele>341.3</ele>
        <time>2009-04-08T17:50:13Z</time>
      </trkpt>
      <trkpt lat="38.159195" lon="-3.805362">
        <ele>338.3</ele>
        <time>2009-04-08T17:50:20Z</time>
      </trkpt>
      <trkpt lat="38.158853" lon="-3.805638">
        <ele>353.4</ele>
        <time>2009-04-08T17:50:26Z</time>
      </trkpt>
      <trkpt lat="38.158691" lon="-3.805991">
        <ele>355.9</ele>
        <time>2009-04-08T17:50:31Z</time>
      </trkpt>
      <trkpt lat="38.158164" lon="-3.807136">
        <ele>355.2</ele>
        <time>2009-04-08T17:50:43Z</time>
      </trkpt>
      <trkpt lat="38.158038" lon="-3.807548">
        <ele>348.5</ele>
        <time>2009-04-08T17:50:47Z</time>
      </trkpt>
      <trkpt lat="38.157753" lon="-3.807761">
        <ele>346.9</ele>
        <time>2009-04-08T17:50:53Z</time>
      </trkpt>
      <trkpt lat="38.157670" lon="-3.807599">
        <ele>350.5</ele>
        <time>2009-04-08T17:50:55Z</time>
      </trkpt>
      <trkpt lat="38.157168" lon="-3.806561">
        <ele>356.1</ele>
        <time>2009-04-08T17:51:05Z</time>
      </trkpt>
      <trkpt lat="38.156372" lon="-3.805618">
        <ele>360.3</ele>
        <time>2009-04-08T17:51:15Z</time>
      </trkpt>
      <trkpt lat="38.156061" lon="-3.805226">
        <ele>363.0</ele>
        <time>2009-04-08T17:51:19Z</time>
      </trkpt>
      <trkpt lat="38.155794" lon="-3.805019">
        <ele>361.0</ele>
        <time>2009-04-08T17:51:22Z</time>
      </trkpt>
      <trkpt lat="38.155513" lon="-3.804735">
        <ele>360.5</ele>
        <time>2009-04-08T17:51:26Z</time>
      </trkpt>
      <trkpt lat="38.155358" lon="-3.804465">
        <ele>363.2</ele>
        <time>2009-04-08T17:51:29Z</time>
      </trkpt>
      <trkpt lat="38.155403" lon="-3.804019">
        <ele>375.9</ele>
        <time>2009-04-08T17:51:35Z</time>
      </trkpt>
      <trkpt lat="38.155797" lon="-3.803712">
        <ele>393.0</ele>
        <time>2009-04-08T17:51:41Z</time>
      </trkpt>
      <trkpt lat="38.155835" lon="-3.803617">
        <ele>395.7</ele>
        <time>2009-04-08T17:51:42Z</time>
      </trkpt>
      <trkpt lat="38.156092" lon="-3.803181">
        <ele>400.9</ele>
        <time>2009-04-08T17:51:47Z</time>
      </trkpt>
      <trkpt lat="38.156265" lon="-3.802774">
        <ele>404.2</ele>
        <time>2009-04-08T17:51:52Z</time>
      </trkpt>
      <trkpt lat="38.156500" lon="-3.802351">
        <ele>408.3</ele>
        <time>2009-04-08T17:51:57Z</time>
      </trkpt>
      <trkpt lat="38.156775" lon="-3.802159">
        <ele>412.6</ele>
        <time>2009-04-08T17:52:01Z</time>
      </trkpt>
      <trkpt lat="38.157036" lon="-3.802091">
        <ele>415.5</ele>
        <time>2009-04-08T17:52:04Z</time>
      </trkpt>
      <trkpt lat="38.157375" lon="-3.802069">
        <ele>419.0</ele>
        <time>2009-04-08T17:52:08Z</time>
      </trkpt>
      <trkpt lat="38.157743" lon="-3.801940">
        <ele>421.4</ele>
        <time>2009-04-08T17:52:15Z</time>
      </trkpt>
      <trkpt lat="38.157828" lon="-3.801805">
        <ele>420.1</ele>
        <time>2009-04-08T17:52:27Z</time>
      </trkpt>
      <trkpt lat="38.157842" lon="-3.801790">
        <ele>420.0</ele>
        <time>2009-04-08T17:52:40Z</time>
      </trkpt>
      <trkpt lat="38.157831" lon="-3.801783">
        <ele>420.0</ele>
        <time>2009-04-08T17:53:18Z</time>
      </trkpt>
      <trkpt lat="38.157870" lon="-3.801760">
        <ele>419.7</ele>
        <time>2009-04-08T17:53:51Z</time>
      </trkpt>
      <trkpt lat="38.158258" lon="-3.801568">
        <ele>418.0</ele>
        <time>2009-04-08T17:53:59Z</time>
      </trkpt>
      <trkpt lat="38.158432" lon="-3.801463">
        <ele>418.2</ele>
        <time>2009-04-08T17:54:02Z</time>
      </trkpt>
      <trkpt lat="38.158556" lon="-3.800970">
        <ele>420.8</ele>
        <time>2009-04-08T17:54:09Z</time>
      </trkpt>
      <trkpt lat="38.158533" lon="-3.800872">
        <ele>420.9</ele>
        <time>2009-04-08T17:54:10Z</time>
      </trkpt>
      <trkpt lat="38.158155" lon="-3.799764">
        <ele>414.6</ele>
        <time>2009-04-08T17:54:20Z</time>
      </trkpt>
      <trkpt lat="38.157873" lon="-3.799374">
        <ele>412.0</ele>
        <time>2009-04-08T17:54:24Z</time>
      </trkpt>
      <trkpt lat="38.157536" lon="-3.799094">
        <ele>411.1</ele>
        <time>2009-04-08T17:54:28Z</time>
      </trkpt>
      <trkpt lat="38.157282" lon="-3.798701">
        <ele>411.4</ele>
        <time>2009-04-08T17:54:32Z</time>
      </trkpt>
      <trkpt lat="38.156772" lon="-3.797370">
        <ele>420.4</ele>
        <time>2009-04-08T17:54:42Z</time>
      </trkpt>
      <trkpt lat="38.156476" lon="-3.796598">
        <ele>426.1</ele>
        <time>2009-04-08T17:54:50Z</time>
      </trkpt>
      <trkpt lat="38.156428" lon="-3.796443">
        <ele>426.5</ele>
        <time>2009-04-08T17:54:59Z</time>
      </trkpt>
      <trkpt lat="38.156426" lon="-3.796501">
        <ele>426.3</ele>
        <time>2009-04-08T17:55:50Z</time>
      </trkpt>
      <trkpt lat="38.156483" lon="-3.796188">
        <ele>427.3</ele>
        <time>2009-04-08T17:56:01Z</time>
      </trkpt>
      <trkpt lat="38.156642" lon="-3.795113">
        <ele>428.1</ele>
        <time>2009-04-08T17:56:09Z</time>
      </trkpt>
      <trkpt lat="38.156767" lon="-3.794267">
        <ele>429.1</ele>
        <time>2009-04-08T17:56:15Z</time>
      </trkpt>
      <trkpt lat="38.156962" lon="-3.793831">
        <ele>429.0</ele>
        <time>2009-04-08T17:56:19Z</time>
      </trkpt>
      <trkpt lat="38.157101" lon="-3.793623">
        <ele>428.8</ele>
        <time>2009-04-08T17:56:21Z</time>
      </trkpt>
      <trkpt lat="38.157341" lon="-3.792964">
        <ele>431.9</ele>
        <time>2009-04-08T17:56:27Z</time>
      </trkpt>
      <trkpt lat="38.157344" lon="-3.792433">
        <ele>434.8</ele>
        <time>2009-04-08T17:56:32Z</time>
      </trkpt>
      <trkpt lat="38.157406" lon="-3.791991">
        <ele>436.2</ele>
        <time>2009-04-08T17:56:36Z</time>
      </trkpt>
      <trkpt lat="38.157423" lon="-3.791600">
        <ele>437.7</ele>
        <time>2009-04-08T17:56:40Z</time>
      </trkpt>
      <trkpt lat="38.157213" lon="-3.790209">
        <ele>438.7</ele>
        <time>2009-04-08T17:56:51Z</time>
      </trkpt>
      <trkpt lat="38.157177" lon="-3.789878">
        <ele>438.1</ele>
        <time>2009-04-08T17:56:54Z</time>
      </trkpt>
      <trkpt lat="38.157507" lon="-3.789411">
        <ele>433.0</ele>
        <time>2009-04-08T17:57:01Z</time>
      </trkpt>
      <trkpt lat="38.157916" lon="-3.789265">
        <ele>429.5</ele>
        <time>2009-04-08T17:57:05Z</time>
      </trkpt>
      <trkpt lat="38.158264" lon="-3.788884">
        <ele>432.1</ele>
        <time>2009-04-08T17:57:10Z</time>
      </trkpt>
      <trkpt lat="38.158619" lon="-3.788690">
        <ele>435.2</ele>
        <time>2009-04-08T17:57:14Z</time>
      </trkpt>
      <trkpt lat="38.159094" lon="-3.788521">
        <ele>436.3</ele>
        <time>2009-04-08T17:57:19Z</time>
      </trkpt>
      <trkpt lat="38.159852" lon="-3.788157">
        <ele>441.0</ele>
        <time>2009-04-08T17:57:28Z</time>
      </trkpt>
      <trkpt lat="38.160389" lon="-3.787929">
        <ele>444.7</ele>
        <time>2009-04-08T17:57:34Z</time>
      </trkpt>
      <trkpt lat="38.160656" lon="-3.787681">
        <ele>445.9</ele>
        <time>2009-04-08T17:57:38Z</time>
      </trkpt>
      <trkpt lat="38.160894" lon="-3.787277">
        <ele>445.3</ele>
        <time>2009-04-08T17:57:43Z</time>
      </trkpt>
      <trkpt lat="38.161164" lon="-3.787023">
        <ele>443.4</ele>
        <time>2009-04-08T17:57:47Z</time>
      </trkpt>
      <trkpt lat="38.162083" lon="-3.786690">
        <ele>436.3</ele>
        <time>2009-04-08T17:57:57Z</time>
      </trkpt>
      <trkpt lat="38.162451" lon="-3.786071">
        <ele>439.5</ele>
        <time>2009-04-08T17:58:04Z</time>
      </trkpt>
      <trkpt lat="38.162450" lon="-3.785953">
        <ele>439.0</ele>
        <time>2009-04-08T17:58:05Z</time>
      </trkpt>
      <trkpt lat="38.162429" lon="-3.785489">
        <ele>436.8</ele>
        <time>2009-04-08T17:58:09Z</time>
      </trkpt>
      <trkpt lat="38.162613" lon="-3.785006">
        <ele>435.6</ele>
        <time>2009-04-08T17:58:16Z</time>
      </trkpt>
      <trkpt lat="38.162666" lon="-3.784966">
        <ele>436.0</ele>
        <time>2009-04-08T17:58:26Z</time>
      </trkpt>
      <trkpt lat="38.162651" lon="-3.784994">
        <ele>436.0</ele>
        <time>2009-04-08T17:58:45Z</time>
      </trkpt>
      <trkpt lat="38.162661" lon="-3.784983">
        <ele>436.1</ele>
        <time>2009-04-08T17:59:32Z</time>
      </trkpt>
      <trkpt lat="38.162973" lon="-3.784718">
        <ele>436.8</ele>
        <time>2009-04-08T17:59:39Z</time>
      </trkpt>
      <trkpt lat="38.163033" lon="-3.784653">
        <ele>436.9</ele>
        <time>2009-04-08T17:59:40Z</time>
      </trkpt>
      <trkpt lat="38.163177" lon="-3.784172">
        <ele>433.4</ele>
        <time>2009-04-08T17:59:46Z</time>
      </trkpt>
      <trkpt lat="38.163175" lon="-3.783621">
        <ele>426.9</ele>
        <time>2009-04-08T17:59:52Z</time>
      </trkpt>
      <trkpt lat="38.163238" lon="-3.783430">
        <ele>426.0</ele>
        <time>2009-04-08T17:59:54Z</time>
      </trkpt>
      <trkpt lat="38.163053" lon="-3.782844">
        <ele>419.8</ele>
        <time>2009-04-08T18:00:01Z</time>
      </trkpt>
      <trkpt lat="38.162613" lon="-3.782798">
        <ele>414.7</ele>
        <time>2009-04-08T18:00:07Z</time>
      </trkpt>
      <trkpt lat="38.162569" lon="-3.782722">
        <ele>414.1</ele>
        <time>2009-04-08T18:00:08Z</time>
      </trkpt>
      <trkpt lat="38.161966" lon="-3.781473">
        <ele>404.6</ele>
        <time>2009-04-08T18:00:20Z</time>
      </trkpt>
      <trkpt lat="38.161876" lon="-3.781261">
        <ele>402.8</ele>
        <time>2009-04-08T18:00:22Z</time>
      </trkpt>
      <trkpt lat="38.161933" lon="-3.780490">
        <ele>400.9</ele>
        <time>2009-04-08T18:00:29Z</time>
      </trkpt>
      <trkpt lat="38.162089" lon="-3.779964">
        <ele>399.5</ele>
        <time>2009-04-08T18:00:37Z</time>
      </trkpt>
      <trkpt lat="38.162116" lon="-3.779874">
        <ele>399.2</ele>
        <time>2009-04-08T18:00:48Z</time>
      </trkpt>
      <trkpt lat="38.162109" lon="-3.779856">
        <ele>398.9</ele>
        <time>2009-04-08T18:01:03Z</time>
      </trkpt>
      <trkpt lat="38.162115" lon="-3.779588">
        <ele>396.5</ele>
        <time>2009-04-08T18:01:13Z</time>
      </trkpt>
      <trkpt lat="38.162198" lon="-3.778777">
        <ele>393.9</ele>
        <time>2009-04-08T18:01:20Z</time>
      </trkpt>
      <trkpt lat="38.162259" lon="-3.778274">
        <ele>392.4</ele>
        <time>2009-04-08T18:01:24Z</time>
      </trkpt>
      <trkpt lat="38.162446" lon="-3.777877">
        <ele>393.1</ele>
        <time>2009-04-08T18:01:28Z</time>
      </trkpt>
      <trkpt lat="38.162725" lon="-3.777515">
        <ele>393.0</ele>
        <time>2009-04-08T18:01:32Z</time>
      </trkpt>
      <trkpt lat="38.163140" lon="-3.777155">
        <ele>391.4</ele>
        <time>2009-04-08T18:01:37Z</time>
      </trkpt>
      <trkpt lat="38.163517" lon="-3.776751">
        <ele>388.8</ele>
        <time>2009-04-08T18:01:42Z</time>
      </trkpt>
      <trkpt lat="38.163676" lon="-3.775929">
        <ele>380.5</ele>
        <time>2009-04-08T18:01:49Z</time>
      </trkpt>
      <trkpt lat="38.163530" lon="-3.775552">
        <ele>375.9</ele>
        <time>2009-04-08T18:01:52Z</time>
      </trkpt>
      <trkpt lat="38.163272" lon="-3.775088">
        <ele>371.7</ele>
        <time>2009-04-08T18:01:56Z</time>
      </trkpt>
      <trkpt lat="38.163167" lon="-3.774920">
        <ele>370.8</ele>
        <time>2009-04-08T18:01:56Z</time>
      </trkpt>
      <trkpt lat="38.163221" lon="-3.774879">
        <ele>370.8</ele>
        <time>2009-04-08T18:01:56Z</time>
      </trkpt>
      <trkpt lat="38.163324" lon="-3.774811">
        <ele>370.8</ele>
        <time>2009-04-08T18:01:56Z</time>
      </trkpt>
      <trkpt lat="38.163409" lon="-3.774712">
        <ele>370.7</ele>
        <time>2009-04-08T18:01:56Z</time>
      </trkpt>
      <trkpt lat="38.163468" lon="-3.774607">
        <ele>370.4</ele>
        <time>2009-04-08T18:01:56Z</time>
      </trkpt>
      <trkpt lat="38.163528" lon="-3.774459">
        <ele>370.0</ele>
        <time>2009-04-08T18:01:56Z</time>
      </trkpt>
      <trkpt lat="38.163569" lon="-3.774291">
        <ele>369.3</ele>
        <time>2009-04-08T18:01:56Z</time>
      </trkpt>
      <trkpt lat="38.163575" lon="-3.774154">
        <ele>368.8</ele>
        <time>2009-04-08T18:01:56Z</time>
      </trkpt>
      <trkpt lat="38.163595" lon="-3.774049">
        <ele>368.3</ele>
        <time>2009-04-08T18:01:56Z</time>
      </trkpt>
      <trkpt lat="38.163714" lon="-3.773925">
        <ele>367.4</ele>
        <time>2009-04-08T18:01:56Z</time>
      </trkpt>
      <trkpt lat="38.163852" lon="-3.773803">
        <ele>366.3</ele>
        <time>2009-04-08T18:01:56Z</time>
      </trkpt>
      <trkpt lat="38.163921" lon="-3.773704">
        <ele>365.5</ele>
        <time>2009-04-08T18:01:56Z</time>
      </trkpt>
      <trkpt lat="38.164001" lon="-3.773599">
        <ele>364.6</ele>
        <time>2009-04-08T18:01:56Z</time>
      </trkpt>
      <trkpt lat="38.164115" lon="-3.773475">
        <ele>363.5</ele>
        <time>2009-04-08T18:01:56Z</time>
      </trkpt>
      <trkpt lat="38.164174" lon="-3.773364">
        <ele>362.8</ele>
        <time>2009-04-08T18:01:56Z</time>
      </trkpt>
      <trkpt lat="38.164234" lon="-3.773284">
        <ele>362.3</ele>
        <time>2009-04-08T18:01:56Z</time>
      </trkpt>
      <trkpt lat="38.164284" lon="-3.773172">
        <ele>361.6</ele>
        <time>2009-04-08T18:01:56Z</time>
      </trkpt>
      <trkpt lat="38.164309" lon="-3.773110">
        <ele>361.3</ele>
        <time>2009-04-08T18:01:56Z</time>
      </trkpt>
      <trkpt lat="38.164479" lon="-3.773286">
        <ele>361.2</ele>
        <time>2009-04-08T18:01:56Z</time>
      </trkpt>
      <trkpt lat="38.164646" lon="-3.773412">
        <ele>360.9</ele>
        <time>2009-04-08T18:01:56Z</time>
      </trkpt>
      <trkpt lat="38.164768" lon="-3.773519">
        <ele>360.7</ele>
        <time>2009-04-08T18:01:56Z</time>
      </trkpt>
      <trkpt lat="38.164870" lon="-3.773689">
        <ele>361.0</ele>
        <time>2009-04-08T18:01:56Z</time>
      </trkpt>
      <trkpt lat="38.165032" lon="-3.773771">
        <ele>360.8</ele>
        <time>2009-04-08T18:01:56Z</time>
      </trkpt>
      <trkpt lat="38.165247" lon="-3.773842">
        <ele>360.4</ele>
        <time>2009-04-08T18:01:56Z</time>
      </trkpt>
      <trkpt lat="38.165518" lon="-3.773851">
        <ele>359.8</ele>
        <time>2009-04-08T18:01:56Z</time>
      </trkpt>
      <trkpt lat="38.165704" lon="-3.773866">
        <ele>359.4</ele>
        <time>2009-04-08T18:01:56Z</time>
      </trkpt>
      <trkpt lat="38.165891" lon="-3.773868">
        <ele>358.9</ele>
        <time>2009-04-08T18:01:56Z</time>
      </trkpt>
      <trkpt lat="38.166053" lon="-3.773851">
        <ele>358.2</ele>
        <time>2009-04-08T18:01:56Z</time>
      </trkpt>
      <trkpt lat="38.166265" lon="-3.773828">
        <ele>356.6</ele>
        <time>2009-04-08T18:01:56Z</time>
      </trkpt>
      <trkpt lat="38.166397" lon="-3.773810">
        <ele>355.6</ele>
        <time>2009-04-08T18:01:56Z</time>
      </trkpt>
      <trkpt lat="38.166526" lon="-3.773725">
        <ele>354.4</ele>
        <time>2009-04-08T18:01:56Z</time>
      </trkpt>
      <trkpt lat="38.166620" lon="-3.773614">
        <ele>353.4</ele>
        <time>2009-04-08T18:01:56Z</time>
      </trkpt>
      <trkpt lat="38.166704" lon="-3.773571">
        <ele>352.9</ele>
        <time>2009-04-08T18:01:56Z</time>
      </trkpt>
      <trkpt lat="38.166793" lon="-3.773410">
        <ele>352.3</ele>
        <time>2009-04-08T18:01:56Z</time>
      </trkpt>
      <trkpt lat="38.166868" lon="-3.773293">
        <ele>352.1</ele>
        <time>2009-04-08T18:01:56Z</time>
      </trkpt>
      <trkpt lat="38.166951" lon="-3.773244">
        <ele>352.4</ele>
        <time>2009-04-08T18:01:56Z</time>
      </trkpt>
      <trkpt lat="38.167036" lon="-3.773157">
        <ele>352.9</ele>
        <time>2009-04-08T18:01:56Z</time>
      </trkpt>
      <trkpt lat="38.167090" lon="-3.773021">
        <ele>353.2</ele>
        <time>2009-04-08T18:01:56Z</time>
      </trkpt>
      <trkpt lat="38.167200" lon="-3.772898">
        <ele>354.0</ele>
        <time>2009-04-08T18:01:56Z</time>
      </trkpt>
      <trkpt lat="38.167279" lon="-3.772805">
        <ele>354.5</ele>
        <time>2009-04-08T18:01:56Z</time>
      </trkpt>
      <trkpt lat="38.167338" lon="-3.772713">
        <ele>355.0</ele>
        <time>2009-04-08T18:01:56Z</time>
      </trkpt>
      <trkpt lat="38.167413" lon="-3.772633">
        <ele>355.5</ele>
        <time>2009-04-08T18:01:56Z</time>
      </trkpt>
      <trkpt lat="38.167515" lon="-3.772758">
        <ele>356.0</ele>
        <time>2009-04-08T18:01:56Z</time>
      </trkpt>
      <trkpt lat="38.167587" lon="-3.772946">
        <ele>356.1</ele>
        <time>2009-04-08T18:01:56Z</time>
      </trkpt>
      <trkpt lat="38.167670" lon="-3.773034">
        <ele>356.3</ele>
        <time>2009-04-08T18:01:56Z</time>
      </trkpt>
      <trkpt lat="38.167782" lon="-3.773141">
        <ele>357.6</ele>
        <time>2009-04-08T18:01:56Z</time>
      </trkpt>
      <trkpt lat="38.167850" lon="-3.773328">
        <ele>358.3</ele>
        <time>2009-04-08T18:01:56Z</time>
      </trkpt>
      <trkpt lat="38.167972" lon="-3.773528">
        <ele>359.9</ele>
        <time>2009-04-08T18:01:56Z</time>
      </trkpt>
      <trkpt lat="38.168069" lon="-3.773617">
        <ele>361.4</ele>
        <time>2009-04-08T18:01:56Z</time>
      </trkpt>
      <trkpt lat="38.168177" lon="-3.773705">
        <ele>363.0</ele>
        <time>2009-04-08T18:01:56Z</time>
      </trkpt>
      <trkpt lat="38.168275" lon="-3.773706">
        <ele>364.6</ele>
        <time>2009-04-08T18:01:56Z</time>
      </trkpt>
      <trkpt lat="38.168378" lon="-3.773776">
        <ele>366.2</ele>
        <time>2009-04-08T18:01:56Z</time>
      </trkpt>
      <trkpt lat="38.168599" lon="-3.773778">
        <ele>370.7</ele>
        <time>2009-04-08T18:01:56Z</time>
      </trkpt>
      <trkpt lat="38.168761" lon="-3.773755">
        <ele>375.2</ele>
        <time>2009-04-08T18:01:56Z</time>
      </trkpt>
      <trkpt lat="38.168889" lon="-3.773769">
        <ele>378.7</ele>
        <time>2009-04-08T18:01:56Z</time>
      </trkpt>
      <trkpt lat="38.168987" lon="-3.773807">
        <ele>381.6</ele>
        <time>2009-04-08T18:01:56Z</time>
      </trkpt>
      <trkpt lat="38.169005" lon="-3.774074">
        <ele>383.5</ele>
        <time>2009-04-08T18:01:56Z</time>
      </trkpt>
      <trkpt lat="38.169008" lon="-3.774367">
        <ele>385.2</ele>
        <time>2009-04-08T18:01:56Z</time>
      </trkpt>
      <trkpt lat="38.169036" lon="-3.774542">
        <ele>386.8</ele>
        <time>2009-04-08T18:01:56Z</time>
      </trkpt>
      <trkpt lat="38.169035" lon="-3.774729">
        <ele>387.0</ele>
        <time>2009-04-08T18:01:56Z</time>
      </trkpt>
      <trkpt lat="38.169033" lon="-3.774984">
        <ele>387.2</ele>
        <time>2009-04-08T18:01:56Z</time>
      </trkpt>
      <trkpt lat="38.169056" lon="-3.775276">
        <ele>388.4</ele>
        <time>2009-04-08T18:01:56Z</time>
      </trkpt>
      <trkpt lat="38.168996" lon="-3.775456">
        <ele>383.0</ele>
        <time>2009-04-08T18:01:56Z</time>
      </trkpt>
      <trkpt lat="38.168999" lon="-3.775693">
        <ele>379.1</ele>
        <time>2009-04-08T18:01:56Z</time>
      </trkpt>
      <trkpt lat="38.169003" lon="-3.775849">
        <ele>376.5</ele>
        <time>2009-04-08T18:01:56Z</time>
      </trkpt>
      <trkpt lat="38.169051" lon="-3.775992">
        <ele>375.5</ele>
        <time>2009-04-08T18:01:56Z</time>
      </trkpt>
      <trkpt lat="38.169173" lon="-3.776162">
        <ele>375.9</ele>
        <time>2009-04-08T18:01:56Z</time>
      </trkpt>
      <trkpt lat="38.169309" lon="-3.776368">
        <ele>375.2</ele>
        <time>2009-04-08T18:01:56Z</time>
      </trkpt>
      <trkpt lat="38.169495" lon="-3.776508">
        <ele>376.0</ele>
        <time>2009-04-08T18:01:56Z</time>
      </trkpt>
      <trkpt lat="38.169681" lon="-3.776634">
        <ele>376.6</ele>
        <time>2009-04-08T18:01:56Z</time>
      </trkpt>
      <trkpt lat="38.169848" lon="-3.776629">
        <ele>380.0</ele>
        <time>2009-04-08T18:01:56Z</time>
      </trkpt>
      <trkpt lat="38.170059" lon="-3.776657">
        <ele>383.4</ele>
        <time>2009-04-08T18:01:56Z</time>
      </trkpt>
      <trkpt lat="38.170202" lon="-3.776596">
        <ele>387.6</ele>
        <time>2009-04-08T18:01:56Z</time>
      </trkpt>
      <trkpt lat="38.170370" lon="-3.776486">
        <ele>389.8</ele>
        <time>2009-04-08T18:01:56Z</time>
      </trkpt>
      <trkpt lat="38.170429" lon="-3.776374">
        <ele>392.5</ele>
        <time>2009-04-08T18:01:56Z</time>
      </trkpt>
      <trkpt lat="38.170632" lon="-3.776246">
        <ele>394.4</ele>
        <time>2009-04-08T18:01:56Z</time>
      </trkpt>
      <trkpt lat="38.170712" lon="-3.776084">
        <ele>397.9</ele>
        <time>2009-04-08T18:01:56Z</time>
      </trkpt>
      <trkpt lat="38.170820" lon="-3.775974">
        <ele>399.8</ele>
        <time>2009-04-08T18:01:56Z</time>
      </trkpt>
      <trkpt lat="38.170924" lon="-3.775875">
        <ele>401.4</ele>
        <time>2009-04-08T18:01:56Z</time>
      </trkpt>
      <trkpt lat="38.170984" lon="-3.775732">
        <ele>404.6</ele>
        <time>2009-04-08T18:01:56Z</time>
      </trkpt>
      <trkpt lat="38.171093" lon="-3.775671">
        <ele>405.3</ele>
        <time>2009-04-08T18:01:56Z</time>
      </trkpt>
      <trkpt lat="38.171132" lon="-3.775610">
        <ele>406.6</ele>
        <time>2009-04-08T18:01:56Z</time>
      </trkpt>
      <trkpt lat="38.171173" lon="-3.775348">
        <ele>412.7</ele>
        <time>2009-04-08T18:01:56Z</time>
      </trkpt>
      <trkpt lat="38.171262" lon="-3.775250">
        <ele>413.5</ele>
        <time>2009-04-08T18:01:56Z</time>
      </trkpt>
      <trkpt lat="38.171386" lon="-3.775195">
        <ele>412.7</ele>
        <time>2009-04-08T18:01:56Z</time>
      </trkpt>
      <trkpt lat="38.171465" lon="-3.775090">
        <ele>413.2</ele>
        <time>2009-04-08T18:01:56Z</time>
      </trkpt>
      <trkpt lat="38.171456" lon="-3.774991">
        <ele>414.6</ele>
        <time>2009-04-08T18:01:56Z</time>
      </trkpt>
      <trkpt lat="38.171382" lon="-3.774934">
        <ele>415.9</ele>
        <time>2009-04-08T18:01:56Z</time>
      </trkpt>
      <trkpt lat="38.171364" lon="-3.774797">
        <ele>417.7</ele>
        <time>2009-04-08T18:01:56Z</time>
      </trkpt>
      <trkpt lat="38.171280" lon="-3.774771">
        <ele>418.6</ele>
        <time>2009-04-08T18:01:56Z</time>
      </trkpt>
      <trkpt lat="38.171232" lon="-3.774683">
        <ele>419.8</ele>
        <time>2009-04-08T18:01:56Z</time>
      </trkpt>
      <trkpt lat="38.171178" lon="-3.774546">
        <ele>421.5</ele>
        <time>2009-04-08T18:01:56Z</time>
      </trkpt>
      <trkpt lat="38.172664" lon="-3.773255">
        <ele>431.9</ele>
        <time>2009-04-05T08:08:11Z</time>
      </trkpt>
      <trkpt lat="38.172405" lon="-3.773516">
        <ele>430.3</ele>
        <time>2009-04-05T08:08:11Z</time>
      </trkpt>
      <trkpt lat="38.172208" lon="-3.773731">
        <ele>428.0</ele>
        <time>2009-04-05T08:08:11Z</time>
      </trkpt>
      <trkpt lat="38.171938" lon="-3.773698">
        <ele>425.4</ele>
        <time>2009-04-05T08:08:11Z</time>
      </trkpt>
      <trkpt lat="38.171683" lon="-3.773462">
        <ele>421.4</ele>
        <time>2009-04-05T08:08:11Z</time>
      </trkpt>
      <trkpt lat="38.171513" lon="-3.773134">
        <ele>415.2</ele>
        <time>2009-04-05T08:08:11Z</time>
      </trkpt>
      <trkpt lat="38.171687" lon="-3.772764">
        <ele>413.7</ele>
        <time>2009-04-05T08:08:11Z</time>
      </trkpt>
      <trkpt lat="38.171948" lon="-3.772301">
        <ele>411.9</ele>
        <time>2009-04-05T08:08:11Z</time>
      </trkpt>
      <trkpt lat="38.172209" lon="-3.771682">
        <ele>407.4</ele>
        <time>2009-04-05T08:08:11Z</time>
      </trkpt>
      <trkpt lat="38.172459" lon="-3.770971">
        <ele>403.1</ele>
        <time>2009-04-05T08:08:11Z</time>
      </trkpt>
      <trkpt lat="38.172707" lon="-3.770524">
        <ele>403.3</ele>
        <time>2009-04-05T08:08:11Z</time>
      </trkpt>
      <trkpt lat="38.172906" lon="-3.770122">
        <ele>402.7</ele>
        <time>2009-04-05T08:08:11Z</time>
      </trkpt>
      <trkpt lat="38.173142" lon="-3.769550">
        <ele>400.0</ele>
        <time>2009-04-05T08:08:11Z</time>
      </trkpt>
      <trkpt lat="38.173414" lon="-3.769118">
        <ele>399.0</ele>
        <time>2009-04-05T08:08:11Z</time>
      </trkpt>
      <trkpt lat="38.173675" lon="-3.768593">
        <ele>396.5</ele>
        <time>2009-04-05T08:08:11Z</time>
      </trkpt>
      <trkpt lat="38.174023" lon="-3.767976">
        <ele>391.9</ele>
        <time>2009-04-05T08:08:11Z</time>
      </trkpt>
      <trkpt lat="38.174456" lon="-3.767188">
        <ele>387.3</ele>
        <time>2009-04-05T08:08:11Z</time>
      </trkpt>
      <trkpt lat="38.174705" lon="-3.766679">
        <ele>384.8</ele>
        <time>2009-04-05T08:08:11Z</time>
      </trkpt>
      <trkpt lat="38.174709" lon="-3.766120">
        <ele>382.7</ele>
        <time>2009-04-05T08:08:11Z</time>
      </trkpt>
      <trkpt lat="38.174933" lon="-3.765548">
        <ele>382.6</ele>
        <time>2009-04-05T08:08:11Z</time>
      </trkpt>
      <trkpt lat="38.175441" lon="-3.764761">
        <ele>384.7</ele>
        <time>2009-04-05T08:08:11Z</time>
      </trkpt>
      <trkpt lat="38.175836" lon="-3.764222">
        <ele>386.9</ele>
        <time>2009-04-05T08:08:11Z</time>
      </trkpt>
      <trkpt lat="38.176256" lon="-3.763839">
        <ele>389.1</ele>
        <time>2009-04-05T08:08:11Z</time>
      </trkpt>
      <trkpt lat="38.176650" lon="-3.763563">
        <ele>390.6</ele>
        <time>2009-04-05T08:08:11Z</time>
      </trkpt>
      <trkpt lat="38.176896" lon="-3.763348">
        <ele>391.5</ele>
        <time>2009-04-05T08:08:11Z</time>
      </trkpt>
      <trkpt lat="38.177143" lon="-3.763103">
        <ele>391.9</ele>
        <time>2009-04-05T08:08:11Z</time>
      </trkpt>
      <trkpt lat="38.177500" lon="-3.762811">
        <ele>392.4</ele>
        <time>2009-04-05T08:08:11Z</time>
      </trkpt>
      <trkpt lat="38.177759" lon="-3.762488">
        <ele>392.3</ele>
        <time>2009-04-05T08:08:11Z</time>
      </trkpt>
      <trkpt lat="38.178105" lon="-3.762119">
        <ele>392.3</ele>
        <time>2009-04-05T08:08:11Z</time>
      </trkpt>
      <trkpt lat="38.178462" lon="-3.761828">
        <ele>392.3</ele>
        <time>2009-04-05T08:08:11Z</time>
      </trkpt>
      <trkpt lat="38.178694" lon="-3.761923">
        <ele>393.7</ele>
        <time>2009-04-05T08:08:11Z</time>
      </trkpt>
      <trkpt lat="38.179208" lon="-3.762022">
        <ele>396.7</ele>
        <time>2009-04-05T08:08:11Z</time>
      </trkpt>
      <trkpt lat="38.179539" lon="-3.762041">
        <ele>398.0</ele>
        <time>2009-04-05T08:08:11Z</time>
      </trkpt>
      <trkpt lat="38.180005" lon="-3.762123">
        <ele>399.9</ele>
        <time>2009-04-05T08:08:11Z</time>
      </trkpt>
      <trkpt lat="38.180371" lon="-3.762282">
        <ele>400.5</ele>
        <time>2009-04-05T08:08:11Z</time>
      </trkpt>
      <trkpt lat="38.180712" lon="-3.762612">
        <ele>400.4</ele>
        <time>2009-04-05T08:08:11Z</time>
      </trkpt>
      <trkpt lat="38.180824" lon="-3.762349">
        <ele>397.8</ele>
        <time>2009-04-05T08:08:11Z</time>
      </trkpt>
      <trkpt lat="38.181035" lon="-3.761963">
        <ele>394.1</ele>
        <time>2009-04-05T08:08:11Z</time>
      </trkpt>
      <trkpt lat="38.181344" lon="-3.761609">
        <ele>395.7</ele>
        <time>2009-04-05T08:08:11Z</time>
      </trkpt>
      <trkpt lat="38.181652" lon="-3.761349">
        <ele>397.5</ele>
        <time>2009-04-05T08:08:11Z</time>
      </trkpt>
      <trkpt lat="38.181897" lon="-3.761336">
        <ele>399.0</ele>
        <time>2009-04-05T08:08:11Z</time>
      </trkpt>
      <trkpt lat="38.182228" lon="-3.761324">
        <ele>403.1</ele>
        <time>2009-04-05T08:08:11Z</time>
      </trkpt>
      <trkpt lat="38.182719" lon="-3.761236">
        <ele>409.0</ele>
        <time>2009-04-05T08:08:11Z</time>
      </trkpt>
      <trkpt lat="38.183198" lon="-3.760977">
        <ele>411.2</ele>
        <time>2009-04-05T08:08:11Z</time>
      </trkpt>
      <trkpt lat="38.183517" lon="-3.761011">
        <ele>412.7</ele>
        <time>2009-04-05T08:08:11Z</time>
      </trkpt>
      <trkpt lat="38.183858" lon="-3.761216">
        <ele>411.7</ele>
        <time>2009-04-05T08:08:11Z</time>
      </trkpt>
      <trkpt lat="38.184079" lon="-3.761141">
        <ele>411.6</ele>
        <time>2009-04-05T08:08:11Z</time>
      </trkpt>
      <trkpt lat="38.184143" lon="-3.760815">
        <ele>413.2</ele>
        <time>2009-04-05T08:08:11Z</time>
      </trkpt>
      <trkpt lat="38.184183" lon="-3.760350">
        <ele>416.1</ele>
        <time>2009-04-05T08:08:11Z</time>
      </trkpt>
      <trkpt lat="38.184441" lon="-3.760167">
        <ele>418.8</ele>
        <time>2009-04-05T08:08:11Z</time>
      </trkpt>
      <trkpt lat="38.184674" lon="-3.760200">
        <ele>421.3</ele>
        <time>2009-04-05T08:08:11Z</time>
      </trkpt>
      <trkpt lat="38.184893" lon="-3.760342">
        <ele>423.4</ele>
        <time>2009-04-05T08:08:11Z</time>
      </trkpt>
      <trkpt lat="38.185149" lon="-3.760546">
        <ele>424.7</ele>
        <time>2009-04-05T08:08:11Z</time>
      </trkpt>
      <trkpt lat="38.185456" lon="-3.760519">
        <ele>431.6</ele>
        <time>2009-04-05T08:08:11Z</time>
      </trkpt>
      <trkpt lat="38.185775" lon="-3.760506">
        <ele>439.1</ele>
        <time>2009-04-05T08:08:11Z</time>
      </trkpt>
      <trkpt lat="38.185946" lon="-3.760663">
        <ele>442.3</ele>
        <time>2009-04-05T08:08:11Z</time>
      </trkpt>
      <trkpt lat="38.185993" lon="-3.760850">
        <ele>442.6</ele>
        <time>2009-04-05T08:08:11Z</time>
      </trkpt>
      <trkpt lat="38.186237" lon="-3.761117">
        <ele>445.9</ele>
        <time>2009-04-05T08:08:11Z</time>
      </trkpt>
      <trkpt lat="38.186419" lon="-3.761321">
        <ele>448.7</ele>
        <time>2009-04-05T08:08:11Z</time>
      </trkpt>
      <trkpt lat="38.186663" lon="-3.761571">
        <ele>453.1</ele>
        <time>2009-04-05T08:08:11Z</time>
      </trkpt>
      <trkpt lat="38.186703" lon="-3.761060">
        <ele>454.1</ele>
        <time>2009-04-05T08:08:11Z</time>
      </trkpt>
      <trkpt lat="38.186754" lon="-3.760688">
        <ele>454.0</ele>
        <time>2009-04-05T08:08:11Z</time>
      </trkpt>
      <trkpt lat="38.186929" lon="-3.760161">
        <ele>452.7</ele>
        <time>2009-04-05T08:08:11Z</time>
      </trkpt>
      <trkpt lat="38.187030" lon="-3.759727">
        <ele>451.7</ele>
        <time>2009-04-05T08:08:11Z</time>
      </trkpt>
      <trkpt lat="38.187082" lon="-3.759247">
        <ele>451.2</ele>
        <time>2009-04-05T08:08:11Z</time>
      </trkpt>
      <trkpt lat="38.187281" lon="-3.758845">
        <ele>449.5</ele>
        <time>2009-04-05T08:08:11Z</time>
      </trkpt>
      <trkpt lat="38.187393" lon="-3.758474">
        <ele>449.7</ele>
        <time>2009-04-05T08:08:11Z</time>
      </trkpt>
      <trkpt lat="38.187396" lon="-3.758039">
        <ele>449.9</ele>
        <time>2009-04-05T08:08:11Z</time>
      </trkpt>
      <trkpt lat="38.187264" lon="-3.757649">
        <ele>449.6</ele>
        <time>2009-04-05T08:08:11Z</time>
      </trkpt>
      <trkpt lat="38.187144" lon="-3.757322">
        <ele>450.1</ele>
        <time>2009-04-05T08:08:11Z</time>
      </trkpt>
      <trkpt lat="38.187012" lon="-3.756870">
        <ele>451.6</ele>
        <time>2009-04-05T08:08:11Z</time>
      </trkpt>
      <trkpt lat="38.187015" lon="-3.756281">
        <ele>449.8</ele>
        <time>2009-04-05T08:08:11Z</time>
      </trkpt>
      <trkpt lat="38.187142" lon="-3.755676">
        <ele>447.7</ele>
        <time>2009-04-05T08:08:11Z</time>
      </trkpt>
      <trkpt lat="38.187230" lon="-3.755274">
        <ele>446.4</ele>
        <time>2009-04-05T08:08:11Z</time>
      </trkpt>
      <trkpt lat="38.187332" lon="-3.754731">
        <ele>445.7</ele>
        <time>2009-04-05T08:08:11Z</time>
      </trkpt>
      <trkpt lat="38.187407" lon="-3.754406">
        <ele>445.2</ele>
        <time>2009-04-05T08:08:11Z</time>
      </trkpt>
      <trkpt lat="38.187387" lon="-3.753738">
        <ele>446.5</ele>
        <time>2009-04-05T08:08:11Z</time>
      </trkpt>
      <trkpt lat="38.187403" lon="-3.753117">
        <ele>444.8</ele>
        <time>2009-04-05T08:08:11Z</time>
      </trkpt>
      <trkpt lat="38.187552" lon="-3.752808">
        <ele>442.9</ele>
        <time>2009-04-05T08:08:11Z</time>
      </trkpt>
      <trkpt lat="38.187798" lon="-3.752671">
        <ele>441.7</ele>
        <time>2009-04-05T08:08:11Z</time>
      </trkpt>
      <trkpt lat="38.188216" lon="-3.752582">
        <ele>439.8</ele>
        <time>2009-04-05T08:08:11Z</time>
      </trkpt>
      <trkpt lat="38.188304" lon="-3.752257">
        <ele>441.0</ele>
        <time>2009-04-05T08:08:11Z</time>
      </trkpt>
      <trkpt lat="38.188317" lon="-3.752070">
        <ele>441.9</ele>
        <time>2009-04-05T08:08:11Z</time>
      </trkpt>
      <trkpt lat="38.188468" lon="-3.751482">
        <ele>442.0</ele>
        <time>2009-04-05T08:08:11Z</time>
      </trkpt>
      <trkpt lat="38.188617" lon="-3.751219">
        <ele>439.9</ele>
        <time>2009-04-05T08:08:11Z</time>
      </trkpt>
      <trkpt lat="38.188814" lon="-3.750989">
        <ele>435.0</ele>
        <time>2009-04-05T08:08:11Z</time>
      </trkpt>
      <trkpt lat="38.188889" lon="-3.750756">
        <ele>433.0</ele>
        <time>2009-04-05T08:08:11Z</time>
      </trkpt>
      <trkpt lat="38.188991" lon="-3.750105">
        <ele>428.3</ele>
        <time>2009-04-05T08:08:11Z</time>
      </trkpt>
      <trkpt lat="38.189080" lon="-3.749687">
        <ele>421.9</ele>
        <time>2009-04-05T08:08:11Z</time>
      </trkpt>
      <trkpt lat="38.189301" lon="-3.749534">
        <ele>419.1</ele>
        <time>2009-04-05T08:08:11Z</time>
      </trkpt>
      <trkpt lat="38.189511" lon="-3.749365">
        <ele>415.7</ele>
        <time>2009-04-05T08:08:11Z</time>
      </trkpt>
      <trkpt lat="38.189746" lon="-3.749057">
        <ele>413.3</ele>
        <time>2009-04-05T08:08:11Z</time>
      </trkpt>
      <trkpt lat="38.189932" lon="-3.748640">
        <ele>412.9</ele>
        <time>2009-04-05T08:08:11Z</time>
      </trkpt>
      <trkpt lat="38.190019" lon="-3.748485">
        <ele>414.1</ele>
        <time>2009-04-05T08:08:11Z</time>
      </trkpt>
      <trkpt lat="38.190131" lon="-3.748145">
        <ele>419.2</ele>
        <time>2009-04-05T08:08:11Z</time>
      </trkpt>
      <trkpt lat="38.190207" lon="-3.747742">
        <ele>425.9</ele>
        <time>2009-04-05T08:08:11Z</time>
      </trkpt>
      <trkpt lat="38.190381" lon="-3.747340">
        <ele>424.9</ele>
        <time>2009-04-05T08:08:11Z</time>
      </trkpt>
      <trkpt lat="38.190409" lon="-3.746921">
        <ele>426.3</ele>
        <time>2009-04-05T08:08:11Z</time>
      </trkpt>
      <trkpt lat="38.190535" lon="-3.746363">
        <ele>423.7</ele>
        <time>2009-04-05T08:08:11Z</time>
      </trkpt>
      <trkpt lat="38.190612" lon="-3.745821">
        <ele>424.2</ele>
        <time>2009-04-05T08:08:11Z</time>
      </trkpt>
      <trkpt lat="38.190700" lon="-3.745325">
        <ele>426.0</ele>
        <time>2009-04-05T08:08:11Z</time>
      </trkpt>
      <trkpt lat="38.190876" lon="-3.744628">
        <ele>426.0</ele>
        <time>2009-04-05T08:08:11Z</time>
      </trkpt>
      <trkpt lat="38.190990" lon="-3.744163">
        <ele>424.9</ele>
        <time>2009-04-05T08:08:11Z</time>
      </trkpt>
      <trkpt lat="38.191151" lon="-3.743885">
        <ele>424.6</ele>
        <time>2009-04-05T08:08:11Z</time>
      </trkpt>
      <trkpt lat="38.191336" lon="-3.743701">
        <ele>425.4</ele>
        <time>2009-04-05T08:08:11Z</time>
      </trkpt>
      <trkpt lat="38.191557" lon="-3.743641">
        <ele>426.8</ele>
        <time>2009-04-05T08:08:11Z</time>
      </trkpt>
      <trkpt lat="38.191777" lon="-3.743690">
        <ele>428.3</ele>
        <time>2009-04-05T08:08:11Z</time>
      </trkpt>
      <trkpt lat="38.191975" lon="-3.743459">
        <ele>431.4</ele>
        <time>2009-04-05T08:08:11Z</time>
      </trkpt>
      <trkpt lat="38.192209" lon="-3.743275">
        <ele>435.0</ele>
        <time>2009-04-05T08:08:11Z</time>
      </trkpt>
      <trkpt lat="38.192417" lon="-3.743277">
        <ele>439.1</ele>
        <time>2009-04-05T08:08:11Z</time>
      </trkpt>
      <trkpt lat="38.192602" lon="-3.743124">
        <ele>440.0</ele>
        <time>2009-04-05T08:08:11Z</time>
      </trkpt>
      <trkpt lat="38.192848" lon="-3.742971">
        <ele>440.9</ele>
        <time>2009-04-05T08:08:11Z</time>
      </trkpt>
      <trkpt lat="38.193057" lon="-3.742818">
        <ele>440.9</ele>
        <time>2009-04-05T08:08:11Z</time>
      </trkpt>
      <trkpt lat="38.193145" lon="-3.742539">
        <ele>440.4</ele>
        <time>2009-04-05T08:08:11Z</time>
      </trkpt>
      <trkpt lat="38.193233" lon="-3.742167">
        <ele>439.2</ele>
        <time>2009-04-05T08:08:11Z</time>
      </trkpt>
      <trkpt lat="38.193406" lon="-3.741921">
        <ele>438.6</ele>
        <time>2009-04-05T08:08:11Z</time>
      </trkpt>
      <trkpt lat="38.193542" lon="-3.741767">
        <ele>438.9</ele>
        <time>2009-04-05T08:08:11Z</time>
      </trkpt>
      <trkpt lat="38.193739" lon="-3.741629">
        <ele>442.0</ele>
        <time>2009-04-05T08:08:11Z</time>
      </trkpt>
      <trkpt lat="38.193997" lon="-3.741538">
        <ele>445.7</ele>
        <time>2009-04-05T08:08:11Z</time>
      </trkpt>
      <trkpt lat="38.194193" lon="-3.741525">
        <ele>448.7</ele>
        <time>2009-04-05T08:08:11Z</time>
      </trkpt>
      <trkpt lat="38.194353" lon="-3.741480">
        <ele>450.6</ele>
        <time>2009-04-05T08:08:11Z</time>
      </trkpt>
      <trkpt lat="38.194488" lon="-3.741341">
        <ele>450.4</ele>
        <time>2009-04-05T08:08:11Z</time>
      </trkpt>
      <trkpt lat="38.194564" lon="-3.741001">
        <ele>447.9</ele>
        <time>2009-04-05T08:08:11Z</time>
      </trkpt>
      <trkpt lat="38.194541" lon="-3.740752">
        <ele>446.9</ele>
        <time>2009-04-05T08:08:11Z</time>
      </trkpt>
      <trkpt lat="38.194604" lon="-3.740426">
        <ele>447.0</ele>
        <time>2009-04-05T08:08:11Z</time>
      </trkpt>
      <trkpt lat="38.194826" lon="-3.740242">
        <ele>449.8</ele>
        <time>2009-04-05T08:08:11Z</time>
      </trkpt>
      <trkpt lat="38.195047" lon="-3.740214">
        <ele>452.6</ele>
        <time>2009-04-05T08:08:11Z</time>
      </trkpt>
      <trkpt lat="38.195243" lon="-3.740216">
        <ele>454.9</ele>
        <time>2009-04-05T08:08:11Z</time>
      </trkpt>
      <trkpt lat="38.195428" lon="-3.740109">
        <ele>455.5</ele>
        <time>2009-04-05T08:08:11Z</time>
      </trkpt>
      <trkpt lat="38.195649" lon="-3.739971">
        <ele>455.7</ele>
        <time>2009-04-05T08:08:11Z</time>
      </trkpt>
      <trkpt lat="38.195846" lon="-3.739725">
        <ele>453.9</ele>
        <time>2009-04-05T08:08:11Z</time>
      </trkpt>
      <trkpt lat="38.196020" lon="-3.739431">
        <ele>451.0</ele>
        <time>2009-04-05T08:08:11Z</time>
      </trkpt>
      <trkpt lat="38.196279" lon="-3.739061">
        <ele>453.5</ele>
        <time>2009-04-05T08:08:11Z</time>
      </trkpt>
      <trkpt lat="38.196515" lon="-3.738706">
        <ele>454.5</ele>
        <time>2009-04-05T08:08:11Z</time>
      </trkpt>
      <trkpt lat="38.196835" lon="-3.738368">
        <ele>456.0</ele>
        <time>2009-04-05T08:08:11Z</time>
      </trkpt>
      <trkpt lat="38.197218" lon="-3.737937">
        <ele>457.3</ele>
        <time>2009-04-05T08:08:11Z</time>
      </trkpt>
      <trkpt lat="38.197477" lon="-3.737614">
        <ele>458.6</ele>
        <time>2009-04-05T08:08:11Z</time>
      </trkpt>
      <trkpt lat="38.197687" lon="-3.737461">
        <ele>459.6</ele>
        <time>2009-04-05T08:08:11Z</time>
      </trkpt>
      <trkpt lat="38.197896" lon="-3.737338">
        <ele>462.2</ele>
        <time>2009-04-05T08:08:11Z</time>
      </trkpt>
      <trkpt lat="38.198104" lon="-3.737309">
        <ele>464.8</ele>
        <time>2009-04-05T08:08:11Z</time>
      </trkpt>
      <trkpt lat="38.198337" lon="-3.737358">
        <ele>468.0</ele>
        <time>2009-04-05T08:08:11Z</time>
      </trkpt>
      <trkpt lat="38.198460" lon="-3.737282">
        <ele>469.4</ele>
        <time>2009-04-05T08:08:11Z</time>
      </trkpt>
      <trkpt lat="38.198706" lon="-3.737129">
        <ele>471.9</ele>
        <time>2009-04-05T08:08:11Z</time>
      </trkpt>
      <trkpt lat="38.199074" lon="-3.737102">
        <ele>476.3</ele>
        <time>2009-04-05T08:08:11Z</time>
      </trkpt>
      <trkpt lat="38.199332" lon="-3.736903">
        <ele>479.0</ele>
        <time>2009-04-05T08:08:11Z</time>
      </trkpt>
      <trkpt lat="38.199603" lon="-3.736734">
        <ele>478.8</ele>
        <time>2009-04-05T08:08:11Z</time>
      </trkpt>
      <trkpt lat="38.199849" lon="-3.736551">
        <ele>478.5</ele>
        <time>2009-04-05T08:08:11Z</time>
      </trkpt>
      <trkpt lat="38.200010" lon="-3.736366">
        <ele>477.8</ele>
        <time>2009-04-05T08:08:11Z</time>
      </trkpt>
      <trkpt lat="38.200219" lon="-3.736228">
        <ele>478.3</ele>
        <time>2009-04-05T08:08:11Z</time>
      </trkpt>
      <trkpt lat="38.200366" lon="-3.736183">
        <ele>479.1</ele>
        <time>2009-04-05T08:08:11Z</time>
      </trkpt>
      <trkpt lat="38.200649" lon="-3.736093">
        <ele>480.7</ele>
        <time>2009-04-05T08:08:11Z</time>
      </trkpt>
      <trkpt lat="38.200796" lon="-3.736032">
        <ele>481.6</ele>
        <time>2009-04-05T08:08:11Z</time>
      </trkpt>
      <trkpt lat="38.201055" lon="-3.735864">
        <ele>483.0</ele>
        <time>2009-04-05T08:08:11Z</time>
      </trkpt>
      <trkpt lat="38.201227" lon="-3.735788">
        <ele>483.5</ele>
        <time>2009-04-05T08:08:11Z</time>
      </trkpt>
      <trkpt lat="38.201484" lon="-3.735775">
        <ele>484.8</ele>
        <time>2009-04-05T08:08:11Z</time>
      </trkpt>
      <trkpt lat="38.201644" lon="-3.735683">
        <ele>484.8</ele>
        <time>2009-04-05T08:08:11Z</time>
      </trkpt>
      <trkpt lat="38.201780" lon="-3.735421">
        <ele>483.1</ele>
        <time>2009-04-05T08:08:11Z</time>
      </trkpt>
      <trkpt lat="38.201989" lon="-3.735329">
        <ele>482.2</ele>
        <time>2009-04-05T08:08:11Z</time>
      </trkpt>
      <trkpt lat="38.202199" lon="-3.735177">
        <ele>480.4</ele>
        <time>2009-04-05T08:08:11Z</time>
      </trkpt>
      <trkpt lat="38.202347" lon="-3.734929">
        <ele>476.9</ele>
        <time>2009-04-05T08:08:11Z</time>
      </trkpt>
      <trkpt lat="38.202398" lon="-3.734588">
        <ele>472.2</ele>
        <time>2009-04-05T08:08:11Z</time>
      </trkpt>
      <trkpt lat="38.202365" lon="-3.734106">
        <ele>467.9</ele>
        <time>2009-04-05T08:08:11Z</time>
      </trkpt>
      <trkpt lat="38.202355" lon="-3.733734">
        <ele>464.9</ele>
        <time>2009-04-05T08:08:11Z</time>
      </trkpt>
      <trkpt lat="38.202478" lon="-3.733641">
        <ele>464.2</ele>
        <time>2009-04-05T08:08:11Z</time>
      </trkpt>
      <trkpt lat="38.202590" lon="-3.733379">
        <ele>463.1</ele>
        <time>2009-04-05T08:08:11Z</time>
      </trkpt>
      <trkpt lat="38.202518" lon="-3.733098">
        <ele>461.6</ele>
        <time>2009-04-05T08:08:11Z</time>
      </trkpt>
      <trkpt lat="38.202409" lon="-3.732864">
        <ele>459.4</ele>
        <time>2009-04-05T08:08:11Z</time>
      </trkpt>
      <trkpt lat="38.202338" lon="-3.732429">
        <ele>457.5</ele>
        <time>2009-04-05T08:08:11Z</time>
      </trkpt>
      <trkpt lat="38.202341" lon="-3.732087">
        <ele>456.9</ele>
        <time>2009-04-05T08:08:11Z</time>
      </trkpt>
      <trkpt lat="38.202208" lon="-3.731760">
        <ele>453.0</ele>
        <time>2009-04-05T08:08:11Z</time>
      </trkpt>
      <trkpt lat="38.202271" lon="-3.731372">
        <ele>452.0</ele>
        <time>2009-04-05T08:08:11Z</time>
      </trkpt>
      <trkpt lat="38.202285" lon="-3.731062">
        <ele>450.5</ele>
        <time>2009-04-05T08:08:11Z</time>
      </trkpt>
      <trkpt lat="38.202165" lon="-3.730703">
        <ele>445.7</ele>
        <time>2009-04-05T08:08:11Z</time>
      </trkpt>
      <trkpt lat="38.202032" lon="-3.730438">
        <ele>441.4</ele>
        <time>2009-04-05T08:08:11Z</time>
      </trkpt>
      <trkpt lat="38.201887" lon="-3.730142">
        <ele>437.6</ele>
        <time>2009-04-05T08:08:11Z</time>
      </trkpt>
      <trkpt lat="38.201876" lon="-3.729877">
        <ele>437.4</ele>
        <time>2009-04-05T08:08:11Z</time>
      </trkpt>
      <trkpt lat="38.201989" lon="-3.729568">
        <ele>439.6</ele>
        <time>2009-04-05T08:08:11Z</time>
      </trkpt>
      <trkpt lat="38.201904" lon="-3.729334">
        <ele>437.5</ele>
        <time>2009-04-05T08:08:11Z</time>
      </trkpt>
      <trkpt lat="38.201869" lon="-3.729054">
        <ele>435.8</ele>
        <time>2009-04-05T08:08:11Z</time>
      </trkpt>
      <trkpt lat="38.201946" lon="-3.728480">
        <ele>435.2</ele>
        <time>2009-04-05T08:08:11Z</time>
      </trkpt>
      <trkpt lat="38.201887" lon="-3.728092">
        <ele>433.2</ele>
        <time>2009-04-05T08:08:11Z</time>
      </trkpt>
      <trkpt lat="38.201901" lon="-3.727796">
        <ele>432.7</ele>
        <time>2009-04-05T08:08:11Z</time>
      </trkpt>
      <trkpt lat="38.201867" lon="-3.727486">
        <ele>432.8</ele>
        <time>2009-04-05T08:08:11Z</time>
      </trkpt>
      <trkpt lat="38.201869" lon="-3.727097">
        <ele>433.7</ele>
        <time>2009-04-05T08:08:11Z</time>
      </trkpt>
      <trkpt lat="38.201982" lon="-3.726664">
        <ele>436.6</ele>
        <time>2009-04-05T08:08:11Z</time>
      </trkpt>
      <trkpt lat="38.202107" lon="-3.726292">
        <ele>438.4</ele>
        <time>2009-04-05T08:08:11Z</time>
      </trkpt>
      <trkpt lat="38.202207" lon="-3.725874">
        <ele>439.5</ele>
        <time>2009-04-05T08:08:11Z</time>
      </trkpt>
      <trkpt lat="38.202271" lon="-3.725470">
        <ele>440.4</ele>
        <time>2009-04-05T08:08:11Z</time>
      </trkpt>
      <trkpt lat="38.202408" lon="-3.725177">
        <ele>439.9</ele>
        <time>2009-04-05T08:08:11Z</time>
      </trkpt>
      <trkpt lat="38.202605" lon="-3.725039">
        <ele>438.9</ele>
        <time>2009-04-05T08:08:11Z</time>
      </trkpt>
      <trkpt lat="38.202839" lon="-3.724871">
        <ele>438.3</ele>
        <time>2009-04-05T08:08:11Z</time>
      </trkpt>
      <trkpt lat="38.203011" lon="-3.724686">
        <ele>438.1</ele>
        <time>2009-04-05T08:08:11Z</time>
      </trkpt>
      <trkpt lat="38.203184" lon="-3.724470">
        <ele>437.7</ele>
        <time>2009-04-05T08:08:11Z</time>
      </trkpt>
      <trkpt lat="38.203443" lon="-3.724209">
        <ele>437.3</ele>
        <time>2009-04-05T08:08:11Z</time>
      </trkpt>
      <trkpt lat="38.203604" lon="-3.723962">
        <ele>437.8</ele>
        <time>2009-04-05T08:08:11Z</time>
      </trkpt>
      <trkpt lat="38.203840" lon="-3.723514">
        <ele>438.3</ele>
        <time>2009-04-05T08:08:11Z</time>
      </trkpt>
      <trkpt lat="38.204087" lon="-3.723159">
        <ele>434.8</ele>
        <time>2009-04-05T08:08:11Z</time>
      </trkpt>
      <trkpt lat="38.204360" lon="-3.722603">
        <ele>429.1</ele>
        <time>2009-04-05T08:08:11Z</time>
      </trkpt>
      <trkpt lat="38.204570" lon="-3.722341">
        <ele>427.2</ele>
        <time>2009-04-05T08:08:11Z</time>
      </trkpt>
      <trkpt lat="38.204743" lon="-3.722109">
        <ele>425.7</ele>
        <time>2009-04-05T08:08:11Z</time>
      </trkpt>
      <trkpt lat="38.204916" lon="-3.721925">
        <ele>424.7</ele>
        <time>2009-04-05T08:08:11Z</time>
      </trkpt>
      <trkpt lat="38.205163" lon="-3.721648">
        <ele>425.8</ele>
        <time>2009-04-05T08:08:11Z</time>
      </trkpt>
      <trkpt lat="38.205323" lon="-3.721525">
        <ele>426.6</ele>
        <time>2009-04-05T08:08:11Z</time>
      </trkpt>
      <trkpt lat="38.205447" lon="-3.721215">
        <ele>428.2</ele>
        <time>2009-04-05T08:08:11Z</time>
      </trkpt>
      <trkpt lat="38.205596" lon="-3.720922">
        <ele>431.0</ele>
        <time>2009-04-05T08:08:11Z</time>
      </trkpt>
      <trkpt lat="38.205768" lon="-3.720768">
        <ele>432.3</ele>
        <time>2009-04-05T08:08:11Z</time>
      </trkpt>
      <trkpt lat="38.206002" lon="-3.720584">
        <ele>433.2</ele>
        <time>2009-04-05T08:08:11Z</time>
      </trkpt>
      <trkpt lat="38.206237" lon="-3.720323">
        <ele>437.6</ele>
        <time>2009-04-05T08:08:11Z</time>
      </trkpt>
      <trkpt lat="38.206521" lon="-3.719922">
        <ele>445.4</ele>
        <time>2009-04-05T08:08:11Z</time>
      </trkpt>
      <trkpt lat="38.206768" lon="-3.719675">
        <ele>450.0</ele>
        <time>2009-04-05T08:08:11Z</time>
      </trkpt>
      <trkpt lat="38.207077" lon="-3.719213">
        <ele>449.8</ele>
        <time>2009-04-05T08:08:11Z</time>
      </trkpt>
      <trkpt lat="38.207260" lon="-3.719261">
        <ele>448.7</ele>
        <time>2009-04-05T08:08:11Z</time>
      </trkpt>
      <trkpt lat="38.207498" lon="-3.719545">
        <ele>447.7</ele>
        <time>2009-04-05T08:08:11Z</time>
      </trkpt>
      <trkpt lat="38.207629" lon="-3.719908">
        <ele>444.5</ele>
        <time>2009-04-05T08:08:11Z</time>
      </trkpt>
      <trkpt lat="38.207723" lon="-3.720151">
        <ele>442.9</ele>
        <time>2009-04-05T08:08:11Z</time>
      </trkpt>
      <trkpt lat="38.207839" lon="-3.720343">
        <ele>441.6</ele>
        <time>2009-04-05T08:08:11Z</time>
      </trkpt>
      <trkpt lat="38.207858" lon="-3.720326">
        <ele>441.8</ele>
        <time>2009-04-05T08:08:11Z</time>
      </trkpt>
      <trkpt lat="38.207974" lon="-3.720352">
        <ele>441.7</ele>
        <time>2009-04-05T08:08:11Z</time>
      </trkpt>
      <trkpt lat="38.208468" lon="-3.720659">
        <ele>439.7</ele>
        <time>2009-04-05T08:08:11Z</time>
      </trkpt>
      <trkpt lat="38.208912" lon="-3.720773">
        <ele>439.4</ele>
        <time>2009-04-05T08:08:11Z</time>
      </trkpt>
      <trkpt lat="38.208961" lon="-3.720784">
        <ele>439.3</ele>
        <time>2009-04-05T08:08:11Z</time>
      </trkpt>
      <trkpt lat="38.209160" lon="-3.720929">
        <ele>437.7</ele>
        <time>2009-04-05T08:08:11Z</time>
      </trkpt>
      <trkpt lat="38.209390" lon="-3.721021">
        <ele>436.5</ele>
        <time>2009-04-05T08:08:11Z</time>
      </trkpt>
      <trkpt lat="38.209554" lon="-3.720996">
        <ele>437.3</ele>
        <time>2009-04-05T08:08:11Z</time>
      </trkpt>
      <trkpt lat="38.209845" lon="-3.720671">
        <ele>441.6</ele>
        <time>2009-04-05T08:08:11Z</time>
      </trkpt>
      <trkpt lat="38.210001" lon="-3.720448">
        <ele>443.9</ele>
        <time>2009-04-05T08:08:11Z</time>
      </trkpt>
      <trkpt lat="38.210157" lon="-3.720255">
        <ele>445.2</ele>
        <time>2009-04-05T08:08:11Z</time>
      </trkpt>
      <trkpt lat="38.210243" lon="-3.719986">
        <ele>447.0</ele>
        <time>2009-04-05T08:08:11Z</time>
      </trkpt>
      <trkpt lat="38.210490" lon="-3.719601">
        <ele>451.6</ele>
        <time>2009-04-05T08:08:11Z</time>
      </trkpt>
      <trkpt lat="38.210721" lon="-3.719670">
        <ele>453.8</ele>
        <time>2009-04-05T08:08:11Z</time>
      </trkpt>
      <trkpt lat="38.210864" lon="-3.719843">
        <ele>454.8</ele>
        <time>2009-04-05T08:08:11Z</time>
      </trkpt>
      <trkpt lat="38.211165" lon="-3.719931">
        <ele>457.0</ele>
        <time>2009-04-05T08:08:11Z</time>
      </trkpt>
      <trkpt lat="38.211840" lon="-3.720266">
        <ele>463.6</ele>
        <time>2009-04-05T08:08:11Z</time>
      </trkpt>
      <trkpt lat="38.212035" lon="-3.720585">
        <ele>464.9</ele>
        <time>2009-04-05T08:08:11Z</time>
      </trkpt>
      <trkpt lat="38.212114" lon="-3.721057">
        <ele>468.2</ele>
        <time>2009-04-05T08:08:11Z</time>
      </trkpt>
      <trkpt lat="38.212358" lon="-3.721325">
        <ele>465.9</ele>
        <time>2009-04-05T08:08:11Z</time>
      </trkpt>
      <trkpt lat="38.212635" lon="-3.721328">
        <ele>466.4</ele>
        <time>2009-04-05T08:08:11Z</time>
      </trkpt>
      <trkpt lat="38.213183" lon="-3.721064">
        <ele>466.2</ele>
        <time>2009-04-05T08:08:11Z</time>
      </trkpt>
      <trkpt lat="38.213368" lon="-3.720971">
        <ele>464.9</ele>
        <time>2009-04-05T08:08:11Z</time>
      </trkpt>
      <trkpt lat="38.213594" lon="-3.720978">
        <ele>464.5</ele>
        <time>2009-04-05T08:08:11Z</time>
      </trkpt>
      <trkpt lat="38.213749" lon="-3.721062">
        <ele>465.2</ele>
        <time>2009-04-05T08:08:11Z</time>
      </trkpt>
      <trkpt lat="38.214014" lon="-3.720794">
        <ele>467.2</ele>
        <time>2009-04-05T08:08:11Z</time>
      </trkpt>
      <trkpt lat="38.214414" lon="-3.720545">
        <ele>469.8</ele>
        <time>2009-04-05T08:08:11Z</time>
      </trkpt>
      <trkpt lat="38.214568" lon="-3.720448">
        <ele>469.5</ele>
        <time>2009-04-05T08:08:11Z</time>
      </trkpt>
      <trkpt lat="38.214948" lon="-3.720252">
        <ele>468.5</ele>
        <time>2009-04-05T08:08:11Z</time>
      </trkpt>
      <trkpt lat="38.215151" lon="-3.720307">
        <ele>468.0</ele>
        <time>2009-04-05T08:08:11Z</time>
      </trkpt>
      <trkpt lat="38.215226" lon="-3.720327">
        <ele>467.4</ele>
        <time>2009-04-05T08:08:11Z</time>
      </trkpt>
      <trkpt lat="38.215346" lon="-3.720389">
        <ele>465.7</ele>
        <time>2009-04-05T08:08:11Z</time>
      </trkpt>
      <trkpt lat="38.215858" lon="-3.720436">
        <ele>459.8</ele>
        <time>2009-04-05T08:08:11Z</time>
      </trkpt>
      <trkpt lat="38.215993" lon="-3.720540">
        <ele>457.0</ele>
        <time>2009-04-05T08:08:11Z</time>
      </trkpt>
      <trkpt lat="38.216435" lon="-3.720500">
        <ele>459.0</ele>
        <time>2009-04-05T08:08:11Z</time>
      </trkpt>
      <trkpt lat="38.216875" lon="-3.720217">
        <ele>465.1</ele>
        <time>2009-04-05T08:08:11Z</time>
      </trkpt>
      <trkpt lat="38.217282" lon="-3.720132">
        <ele>470.5</ele>
        <time>2009-04-05T08:08:11Z</time>
      </trkpt>
      <trkpt lat="38.217747" lon="-3.719936">
        <ele>477.1</ele>
        <time>2009-04-05T08:08:11Z</time>
      </trkpt>
      <trkpt lat="38.217820" lon="-3.719769">
        <ele>478.6</ele>
        <time>2009-04-05T08:08:11Z</time>
      </trkpt>
      <trkpt lat="38.217829" lon="-3.719766">
        <ele>478.6</ele>
        <time>2009-04-05T08:08:11Z</time>
      </trkpt>
      <trkpt lat="38.217844" lon="-3.719774">
        <ele>478.5</ele>
        <time>2009-04-05T08:08:11Z</time>
      </trkpt>
      <trkpt lat="38.217845" lon="-3.719704">
        <ele>479.1</ele>
        <time>2009-04-05T08:08:11Z</time>
      </trkpt>
      <trkpt lat="38.217791" lon="-3.719565">
        <ele>480.8</ele>
        <time>2009-04-05T08:08:11Z</time>
      </trkpt>
      <trkpt lat="38.217824" lon="-3.719087">
        <ele>484.7</ele>
        <time>2009-04-05T08:08:11Z</time>
      </trkpt>
      <trkpt lat="38.217898" lon="-3.718939">
        <ele>484.9</ele>
        <time>2009-04-05T08:08:11Z</time>
      </trkpt>
      <trkpt lat="38.217938" lon="-3.718726">
        <ele>486.0</ele>
        <time>2009-04-05T08:08:11Z</time>
      </trkpt>
      <trkpt lat="38.217939" lon="-3.718412">
        <ele>485.1</ele>
        <time>2009-04-05T08:08:11Z</time>
      </trkpt>
      <trkpt lat="38.218019" lon="-3.718174">
        <ele>482.3</ele>
        <time>2009-04-05T08:08:11Z</time>
      </trkpt>
      <trkpt lat="38.218531" lon="-3.717643">
        <ele>477.3</ele>
        <time>2009-04-05T08:08:11Z</time>
      </trkpt>
      <trkpt lat="38.218782" lon="-3.717537">
        <ele>474.7</ele>
        <time>2009-04-05T08:08:11Z</time>
      </trkpt>
      <trkpt lat="38.219206" lon="-3.717352">
        <ele>473.0</ele>
        <time>2009-04-05T08:08:11Z</time>
      </trkpt>
      <trkpt lat="38.219453" lon="-3.717194">
        <ele>474.0</ele>
        <time>2009-04-05T08:08:11Z</time>
      </trkpt>
      <trkpt lat="38.219573" lon="-3.717070">
        <ele>475.4</ele>
        <time>2009-04-05T08:08:11Z</time>
      </trkpt>
      <trkpt lat="38.219777" lon="-3.716944">
        <ele>476.0</ele>
        <time>2009-04-05T08:08:11Z</time>
      </trkpt>
      <trkpt lat="38.219984" lon="-3.716792">
        <ele>475.4</ele>
        <time>2009-04-05T08:08:11Z</time>
      </trkpt>
      <trkpt lat="38.220236" lon="-3.716564">
        <ele>476.5</ele>
        <time>2009-04-05T08:08:11Z</time>
      </trkpt>
      <trkpt lat="38.220678" lon="-3.716077">
        <ele>482.3</ele>
        <time>2009-04-05T08:08:11Z</time>
      </trkpt>
      <trkpt lat="38.220704" lon="-3.716029">
        <ele>482.6</ele>
        <time>2009-04-05T08:08:11Z</time>
      </trkpt>
      <trkpt lat="38.220876" lon="-3.715519">
        <ele>486.9</ele>
        <time>2009-04-05T08:08:11Z</time>
      </trkpt>
      <trkpt lat="38.220915" lon="-3.715206">
        <ele>489.5</ele>
        <time>2009-04-05T08:08:11Z</time>
      </trkpt>
      <trkpt lat="38.221015" lon="-3.714796">
        <ele>492.3</ele>
        <time>2009-04-05T08:08:11Z</time>
      </trkpt>
      <trkpt lat="38.221020" lon="-3.714770">
        <ele>492.4</ele>
        <time>2009-04-05T08:08:11Z</time>
      </trkpt>
      <trkpt lat="38.221033" lon="-3.714748">
        <ele>492.7</ele>
        <time>2009-04-05T08:08:11Z</time>
      </trkpt>
      <trkpt lat="38.221042" lon="-3.714748">
        <ele>492.9</ele>
        <time>2009-04-05T08:08:11Z</time>
      </trkpt>
      <trkpt lat="38.221051" lon="-3.714740">
        <ele>493.0</ele>
        <time>2009-04-05T08:08:11Z</time>
      </trkpt>
      <trkpt lat="38.221093" lon="-3.714713">
        <ele>493.8</ele>
        <time>2009-04-05T08:08:11Z</time>
      </trkpt>
      <trkpt lat="38.221117" lon="-3.714715">
        <ele>494.1</ele>
        <time>2009-04-05T08:08:11Z</time>
      </trkpt>
      <trkpt lat="38.221166" lon="-3.714758">
        <ele>494.7</ele>
        <time>2009-04-05T08:08:11Z</time>
      </trkpt>
      <trkpt lat="38.221206" lon="-3.714822">
        <ele>495.2</ele>
        <time>2009-04-05T08:08:11Z</time>
      </trkpt>
      <trkpt lat="38.221209" lon="-3.714853">
        <ele>495.1</ele>
        <time>2009-04-05T08:08:11Z</time>
      </trkpt>
      <trkpt lat="38.221436" lon="-3.715397">
        <ele>497.7</ele>
        <time>2009-04-05T08:08:11Z</time>
      </trkpt>
      <trkpt lat="38.221573" lon="-3.716045">
        <ele>493.3</ele>
        <time>2009-04-05T08:08:11Z</time>
      </trkpt>
      <trkpt lat="38.221608" lon="-3.716196">
        <ele>492.0</ele>
        <time>2009-04-05T08:08:11Z</time>
      </trkpt>
      <trkpt lat="38.221857" lon="-3.716317">
        <ele>495.1</ele>
        <time>2009-04-05T08:08:11Z</time>
      </trkpt>
      <trkpt lat="38.221886" lon="-3.716286">
        <ele>495.9</ele>
        <time>2009-04-05T08:08:11Z</time>
      </trkpt>
      <trkpt lat="38.222327" lon="-3.715839">
        <ele>506.0</ele>
        <time>2009-04-05T08:08:11Z</time>
      </trkpt>
      <trkpt lat="38.222520" lon="-3.715713">
        <ele>509.6</ele>
        <time>2009-04-05T08:08:11Z</time>
      </trkpt>
      <trkpt lat="38.222650" lon="-3.715647">
        <ele>511.8</ele>
        <time>2009-04-05T08:08:11Z</time>
      </trkpt>
      <trkpt lat="38.223001" lon="-3.715464">
        <ele>516.7</ele>
        <time>2009-04-05T08:08:11Z</time>
      </trkpt>
      <trkpt lat="38.223041" lon="-3.715451">
        <ele>517.1</ele>
        <time>2009-04-05T08:08:11Z</time>
      </trkpt>
      <trkpt lat="38.223305" lon="-3.715442">
        <ele>518.8</ele>
        <time>2009-04-05T08:08:11Z</time>
      </trkpt>
      <trkpt lat="38.223623" lon="-3.715576">
        <ele>520.9</ele>
        <time>2009-04-05T08:08:11Z</time>
      </trkpt>
      <trkpt lat="38.224019" lon="-3.715668">
        <ele>526.1</ele>
        <time>2009-04-05T08:08:11Z</time>
      </trkpt>
      <trkpt lat="38.224276" lon="-3.715828">
        <ele>530.0</ele>
        <time>2009-04-05T08:08:11Z</time>
      </trkpt>
      <trkpt lat="38.224306" lon="-3.715858">
        <ele>530.6</ele>
        <time>2009-04-05T08:08:11Z</time>
      </trkpt>
      <trkpt lat="38.224325" lon="-3.715878">
        <ele>530.9</ele>
        <time>2009-04-05T08:08:11Z</time>
      </trkpt>
      <trkpt lat="38.224535" lon="-3.716218">
        <ele>532.1</ele>
        <time>2009-04-05T08:08:11Z</time>
      </trkpt>
      <trkpt lat="38.224782" lon="-3.716766">
        <ele>527.6</ele>
        <time>2009-04-05T08:08:11Z</time>
      </trkpt>
      <trkpt lat="38.225030" lon="-3.717031">
        <ele>522.6</ele>
        <time>2009-04-05T08:08:11Z</time>
      </trkpt>
      <trkpt lat="38.225501" lon="-3.717232">
        <ele>516.3</ele>
        <time>2009-04-05T08:08:11Z</time>
      </trkpt>
      <trkpt lat="38.225924" lon="-3.717185">
        <ele>515.9</ele>
        <time>2009-04-05T08:08:11Z</time>
      </trkpt>
      <trkpt lat="38.226011" lon="-3.717213">
        <ele>515.0</ele>
        <time>2009-04-05T08:08:11Z</time>
      </trkpt>
      <trkpt lat="38.226185" lon="-3.717250">
        <ele>515.9</ele>
        <time>2009-04-05T08:08:11Z</time>
      </trkpt>
      <trkpt lat="38.226676" lon="-3.717060">
        <ele>522.3</ele>
        <time>2009-04-05T08:08:11Z</time>
      </trkpt>
      <trkpt lat="38.226705" lon="-3.717032">
        <ele>522.7</ele>
        <time>2009-04-05T08:08:11Z</time>
      </trkpt>
      <trkpt lat="38.226948" lon="-3.716638">
        <ele>521.9</ele>
        <time>2009-04-05T08:08:11Z</time>
      </trkpt>
      <trkpt lat="38.227115" lon="-3.716340">
        <ele>520.8</ele>
        <time>2009-04-05T08:08:11Z</time>
      </trkpt>
      <trkpt lat="38.227276" lon="-3.716256">
        <ele>521.1</ele>
        <time>2009-04-05T08:08:11Z</time>
      </trkpt>
      <trkpt lat="38.227714" lon="-3.716210">
        <ele>522.5</ele>
        <time>2009-04-05T08:08:11Z</time>
      </trkpt>
      <trkpt lat="38.228071" lon="-3.716168">
        <ele>521.1</ele>
        <time>2009-04-05T08:08:11Z</time>
      </trkpt>
      <trkpt lat="38.228560" lon="-3.716020">
        <ele>519.0</ele>
        <time>2009-04-05T08:08:11Z</time>
      </trkpt>
      <trkpt lat="38.229030" lon="-3.716083">
        <ele>512.2</ele>
        <time>2009-04-05T08:08:11Z</time>
      </trkpt>
      <trkpt lat="38.229072" lon="-3.716084">
        <ele>511.6</ele>
        <time>2009-04-05T08:08:11Z</time>
      </trkpt>
      <trkpt lat="38.229450" lon="-3.716211">
        <ele>505.3</ele>
        <time>2009-04-05T08:08:11Z</time>
      </trkpt>
      <trkpt lat="38.229732" lon="-3.716281">
        <ele>504.2</ele>
        <time>2009-04-05T08:08:11Z</time>
      </trkpt>
      <trkpt lat="38.229871" lon="-3.716622">
        <ele>502.3</ele>
        <time>2009-04-05T08:08:11Z</time>
      </trkpt>
      <trkpt lat="38.229898" lon="-3.716746">
        <ele>501.8</ele>
        <time>2009-04-05T08:08:11Z</time>
      </trkpt>
      <trkpt lat="38.230137" lon="-3.717100">
        <ele>503.7</ele>
        <time>2009-04-05T08:08:11Z</time>
      </trkpt>
      <trkpt lat="38.230304" lon="-3.717177">
        <ele>505.7</ele>
        <time>2009-04-05T08:08:11Z</time>
      </trkpt>
      <trkpt lat="38.230828" lon="-3.717314">
        <ele>511.8</ele>
        <time>2009-04-05T08:08:11Z</time>
      </trkpt>
      <trkpt lat="38.231075" lon="-3.717360">
        <ele>514.4</ele>
        <time>2009-04-05T08:08:11Z</time>
      </trkpt>
      <trkpt lat="38.231285" lon="-3.717362">
        <ele>514.0</ele>
        <time>2009-04-05T08:08:11Z</time>
      </trkpt>
      <trkpt lat="38.231618" lon="-3.717293">
        <ele>513.0</ele>
        <time>2009-04-05T08:08:11Z</time>
      </trkpt>
      <trkpt lat="38.231723" lon="-3.717177">
        <ele>512.3</ele>
        <time>2009-04-05T08:08:11Z</time>
      </trkpt>
      <trkpt lat="38.231779" lon="-3.716809">
        <ele>511.0</ele>
        <time>2009-04-05T08:08:11Z</time>
      </trkpt>
      <trkpt lat="38.231763" lon="-3.716809">
        <ele>511.0</ele>
        <time>2009-04-05T08:08:11Z</time>
      </trkpt>
      <trkpt lat="38.231744" lon="-3.716815">
        <ele>511.0</ele>
        <time>2009-04-05T08:08:11Z</time>
      </trkpt>
      <trkpt lat="38.231856" lon="-3.716526">
        <ele>511.0</ele>
        <time>2009-04-05T08:08:11Z</time>
      </trkpt>
      <trkpt lat="38.232097" lon="-3.716374">
        <ele>512.1</ele>
        <time>2009-04-05T08:08:11Z</time>
      </trkpt>
      <trkpt lat="38.232588" lon="-3.716206">
        <ele>515.0</ele>
        <time>2009-04-05T08:08:11Z</time>
      </trkpt>
      <trkpt lat="38.232718" lon="-3.716070">
        <ele>516.4</ele>
        <time>2009-04-05T08:08:11Z</time>
      </trkpt>
      <trkpt lat="38.233084" lon="-3.715720">
        <ele>521.0</ele>
        <time>2009-04-05T08:08:11Z</time>
      </trkpt>
      <trkpt lat="38.233339" lon="-3.715378">
        <ele>525.6</ele>
        <time>2009-04-05T08:08:11Z</time>
      </trkpt>
      <trkpt lat="38.233473" lon="-3.715040">
        <ele>528.4</ele>
        <time>2009-04-05T08:08:11Z</time>
      </trkpt>
      <trkpt lat="38.233480" lon="-3.715024">
        <ele>528.5</ele>
        <time>2009-04-05T08:08:11Z</time>
      </trkpt>
      <trkpt lat="38.233473" lon="-3.715052">
        <ele>528.4</ele>
        <time>2009-04-05T08:08:11Z</time>
      </trkpt>
      <trkpt lat="38.233455" lon="-3.715097">
        <ele>528.1</ele>
        <time>2009-04-05T08:08:11Z</time>
      </trkpt>
      <trkpt lat="38.233553" lon="-3.714895">
        <ele>529.5</ele>
        <time>2009-04-05T08:08:11Z</time>
      </trkpt>
      <trkpt lat="38.233802" lon="-3.714425">
        <ele>532.2</ele>
        <time>2009-04-05T08:08:11Z</time>
      </trkpt>
      <trkpt lat="38.234050" lon="-3.714036">
        <ele>532.0</ele>
        <time>2009-04-05T08:08:11Z</time>
      </trkpt>
      <trkpt lat="38.234382" lon="-3.713367">
        <ele>531.8</ele>
        <time>2009-04-05T08:08:11Z</time>
      </trkpt>
      <trkpt lat="38.234632" lon="-3.712877">
        <ele>533.0</ele>
        <time>2009-04-05T08:08:11Z</time>
      </trkpt>
      <trkpt lat="38.234778" lon="-3.712480">
        <ele>532.9</ele>
        <time>2009-04-05T08:08:11Z</time>
      </trkpt>
      <trkpt lat="38.234841" lon="-3.712329">
        <ele>532.8</ele>
        <time>2009-04-05T08:08:11Z</time>
      </trkpt>
      <trkpt lat="38.234877" lon="-3.712222">
        <ele>532.7</ele>
        <time>2009-04-05T08:08:11Z</time>
      </trkpt>
      <trkpt lat="38.234866" lon="-3.712065">
        <ele>532.1</ele>
        <time>2009-04-05T08:08:11Z</time>
      </trkpt>
      <trkpt lat="38.234914" lon="-3.711861">
        <ele>532.3</ele>
        <time>2009-04-05T08:08:11Z</time>
      </trkpt>
      <trkpt lat="38.235102" lon="-3.711582">
        <ele>534.3</ele>
        <time>2009-04-05T08:08:11Z</time>
      </trkpt>
      <trkpt lat="38.235367" lon="-3.711388">
        <ele>536.1</ele>
        <time>2009-04-05T08:08:11Z</time>
      </trkpt>
      <trkpt lat="38.235367" lon="-3.711390">
        <ele>536.1</ele>
        <time>2009-04-05T08:08:11Z</time>
      </trkpt>
      <trkpt lat="38.235459" lon="-3.711449">
        <ele>536.4</ele>
        <time>2009-04-05T08:08:11Z</time>
      </trkpt>
      <trkpt lat="38.235765" lon="-3.711709">
        <ele>537.6</ele>
        <time>2009-04-05T08:08:11Z</time>
      </trkpt>
      <trkpt lat="38.236066" lon="-3.711911">
        <ele>539.1</ele>
        <time>2009-04-05T08:08:11Z</time>
      </trkpt>
      <trkpt lat="38.236128" lon="-3.711916">
        <ele>539.3</ele>
        <time>2009-04-05T08:08:11Z</time>
      </trkpt>
      <trkpt lat="38.236176" lon="-3.711980">
        <ele>539.4</ele>
        <time>2009-04-05T08:08:11Z</time>
      </trkpt>
      <trkpt lat="38.236204" lon="-3.711997">
        <ele>539.5</ele>
        <time>2009-04-05T08:08:11Z</time>
      </trkpt>
      <trkpt lat="38.236262" lon="-3.712017">
        <ele>539.7</ele>
        <time>2009-04-05T08:08:11Z</time>
      </trkpt>
      <trkpt lat="38.236346" lon="-3.712016">
        <ele>539.9</ele>
        <time>2009-04-05T08:08:11Z</time>
      </trkpt>
      <trkpt lat="38.236542" lon="-3.711688">
        <ele>540.4</ele>
        <time>2009-04-05T08:08:11Z</time>
      </trkpt>
      <trkpt lat="38.236948" lon="-3.710999">
        <ele>542.0</ele>
        <time>2009-04-05T08:08:11Z</time>
      </trkpt>
      <trkpt lat="38.237152" lon="-3.710673">
        <ele>542.0</ele>
        <time>2009-04-05T08:08:11Z</time>
      </trkpt>
      <trkpt lat="38.237160" lon="-3.710640">
        <ele>542.0</ele>
        <time>2009-04-05T08:08:11Z</time>
      </trkpt>
      <trkpt lat="38.237181" lon="-3.710491">
        <ele>541.9</ele>
        <time>2009-04-05T08:08:11Z</time>
      </trkpt>
      <trkpt lat="38.237187" lon="-3.710370">
        <ele>541.7</ele>
        <time>2009-04-05T08:08:11Z</time>
      </trkpt>
      <trkpt lat="38.237146" lon="-3.710209">
        <ele>541.3</ele>
        <time>2009-04-05T08:08:11Z</time>
      </trkpt>
      <trkpt lat="38.237189" lon="-3.709646">
        <ele>540.8</ele>
        <time>2009-04-05T08:08:11Z</time>
      </trkpt>
      <trkpt lat="38.237273" lon="-3.709041">
        <ele>540.7</ele>
        <time>2009-04-05T08:08:11Z</time>
      </trkpt>
      <trkpt lat="38.237409" lon="-3.708231">
        <ele>541.8</ele>
        <time>2009-04-05T08:08:11Z</time>
      </trkpt>
      <trkpt lat="38.237581" lon="-3.707842">
        <ele>543.8</ele>
        <time>2009-04-05T08:08:11Z</time>
      </trkpt>
      <trkpt lat="38.237825" lon="-3.706649">
        <ele>545.6</ele>
        <time>2009-04-05T08:08:11Z</time>
      </trkpt>
      <trkpt lat="38.237907" lon="-3.705884">
        <ele>544.8</ele>
        <time>2009-04-05T08:08:11Z</time>
      </trkpt>
      <trkpt lat="38.237934" lon="-3.705357">
        <ele>545.3</ele>
        <time>2009-04-05T08:08:11Z</time>
      </trkpt>
      <trkpt lat="38.238061" lon="-3.705107">
        <ele>545.9</ele>
        <time>2009-04-05T08:08:11Z</time>
      </trkpt>
      <trkpt lat="38.238364" lon="-3.704689">
        <ele>547.7</ele>
        <time>2009-04-05T08:08:11Z</time>
      </trkpt>
      <trkpt lat="38.238507" lon="-3.704543">
        <ele>548.5</ele>
        <time>2009-04-05T08:08:11Z</time>
      </trkpt>
      <trkpt lat="38.238538" lon="-3.704457">
        <ele>548.9</ele>
        <time>2009-04-05T08:08:11Z</time>
      </trkpt>
      <trkpt lat="38.238579" lon="-3.704237">
        <ele>548.8</ele>
        <time>2009-04-05T08:08:11Z</time>
      </trkpt>
      <trkpt lat="38.238616" lon="-3.703939">
        <ele>549.0</ele>
        <time>2009-04-05T08:08:11Z</time>
      </trkpt>
      <trkpt lat="38.238652" lon="-3.703421">
        <ele>548.6</ele>
        <time>2009-04-05T08:08:11Z</time>
      </trkpt>
      <trkpt lat="38.238734" lon="-3.702772">
        <ele>547.0</ele>
        <time>2009-04-05T08:08:11Z</time>
      </trkpt>
      <trkpt lat="38.238699" lon="-3.702386">
        <ele>545.6</ele>
        <time>2009-04-05T08:08:11Z</time>
      </trkpt>
      <trkpt lat="38.238571" lon="-3.702082">
        <ele>543.7</ele>
        <time>2009-04-05T08:08:11Z</time>
      </trkpt>
      <trkpt lat="38.238193" lon="-3.701111">
        <ele>541.0</ele>
        <time>2009-04-05T08:08:11Z</time>
      </trkpt>
      <trkpt lat="38.238147" lon="-3.700974">
        <ele>540.2</ele>
        <time>2009-04-05T08:08:11Z</time>
      </trkpt>
      <trkpt lat="38.237949" lon="-3.700708">
        <ele>538.5</ele>
        <time>2009-04-05T08:08:11Z</time>
      </trkpt>
      <trkpt lat="38.237819" lon="-3.700250">
        <ele>535.4</ele>
        <time>2009-04-05T08:08:11Z</time>
      </trkpt>
      <trkpt lat="38.237802" lon="-3.699810">
        <ele>534.4</ele>
        <time>2009-04-05T08:08:11Z</time>
      </trkpt>
      <trkpt lat="38.237600" lon="-3.699440">
        <ele>532.9</ele>
        <time>2009-04-05T08:08:11Z</time>
      </trkpt>
      <trkpt lat="38.237558" lon="-3.699076">
        <ele>533.2</ele>
        <time>2009-04-05T08:08:11Z</time>
      </trkpt>
      <trkpt lat="38.237677" lon="-3.698740">
        <ele>533.8</ele>
        <time>2009-04-05T08:08:11Z</time>
      </trkpt>
      <trkpt lat="38.237704" lon="-3.698207">
        <ele>535.0</ele>
        <time>2009-04-05T08:08:11Z</time>
      </trkpt>
      <trkpt lat="38.237704" lon="-3.697453">
        <ele>537.2</ele>
        <time>2009-04-05T08:08:11Z</time>
      </trkpt>
      <trkpt lat="38.237689" lon="-3.696524">
        <ele>540.5</ele>
        <time>2009-04-05T08:08:11Z</time>
      </trkpt>
      <trkpt lat="38.237614" lon="-3.696021">
        <ele>542.2</ele>
        <time>2009-04-05T08:08:11Z</time>
      </trkpt>
      <trkpt lat="38.237655" lon="-3.695456">
        <ele>542.8</ele>
        <time>2009-04-05T08:08:11Z</time>
      </trkpt>
      <trkpt lat="38.237750" lon="-3.694629">
        <ele>541.9</ele>
        <time>2009-04-05T08:08:11Z</time>
      </trkpt>
      <trkpt lat="38.237754" lon="-3.693998">
        <ele>541.9</ele>
        <time>2009-04-05T08:08:11Z</time>
      </trkpt>
      <trkpt lat="38.237844" lon="-3.693446">
        <ele>540.7</ele>
        <time>2009-04-05T08:08:11Z</time>
      </trkpt>
      <trkpt lat="38.237711" lon="-3.693115">
        <ele>541.6</ele>
        <time>2009-04-05T08:08:11Z</time>
      </trkpt>
      <trkpt lat="38.237805" lon="-3.692746">
        <ele>540.1</ele>
        <time>2009-04-05T08:08:11Z</time>
      </trkpt>
      <trkpt lat="38.237886" lon="-3.692467">
        <ele>540.2</ele>
        <time>2009-04-05T08:08:11Z</time>
      </trkpt>
      <trkpt lat="38.238121" lon="-3.691764">
        <ele>542.0</ele>
        <time>2009-04-05T08:08:11Z</time>
      </trkpt>
      <trkpt lat="38.238132" lon="-3.691724">
        <ele>542.2</ele>
        <time>2009-04-05T08:08:11Z</time>
      </trkpt>
      <trkpt lat="38.238264" lon="-3.691559">
        <ele>543.2</ele>
        <time>2009-04-05T08:08:11Z</time>
      </trkpt>
      <trkpt lat="38.238456" lon="-3.690882">
        <ele>545.9</ele>
        <time>2009-04-05T08:08:11Z</time>
      </trkpt>
      <trkpt lat="38.238698" lon="-3.690404">
        <ele>545.6</ele>
        <time>2009-04-05T08:08:11Z</time>
      </trkpt>
      <trkpt lat="38.238940" lon="-3.690077">
        <ele>546.9</ele>
        <time>2009-04-05T08:08:11Z</time>
      </trkpt>
      <trkpt lat="38.238942" lon="-3.689722">
        <ele>545.8</ele>
        <time>2009-04-05T08:08:11Z</time>
      </trkpt>
      <trkpt lat="38.239131" lon="-3.689411">
        <ele>547.2</ele>
        <time>2009-04-05T08:08:11Z</time>
      </trkpt>
      <trkpt lat="38.239275" lon="-3.688527">
        <ele>547.1</ele>
        <time>2009-04-05T08:08:11Z</time>
      </trkpt>
      <trkpt lat="38.239367" lon="-3.687772">
        <ele>545.9</ele>
        <time>2009-04-05T08:08:11Z</time>
      </trkpt>
      <trkpt lat="38.239498" lon="-3.687118">
        <ele>544.8</ele>
        <time>2009-04-05T08:08:11Z</time>
      </trkpt>
      <trkpt lat="38.239626" lon="-3.686419">
        <ele>544.4</ele>
        <time>2009-04-05T08:08:11Z</time>
      </trkpt>
      <trkpt lat="38.239693" lon="-3.685801">
        <ele>544.4</ele>
        <time>2009-04-05T08:08:11Z</time>
      </trkpt>
      <trkpt lat="38.239715" lon="-3.685701">
        <ele>544.5</ele>
        <time>2009-04-05T08:08:11Z</time>
      </trkpt>
      <trkpt lat="38.239737" lon="-3.685597">
        <ele>544.6</ele>
        <time>2009-04-05T08:08:11Z</time>
      </trkpt>
      <trkpt lat="38.239872" lon="-3.684263">
        <ele>545.0</ele>
        <time>2009-04-05T08:08:11Z</time>
      </trkpt>
      <trkpt lat="38.239958" lon="-3.683302">
        <ele>544.5</ele>
        <time>2009-04-05T08:08:11Z</time>
      </trkpt>
      <trkpt lat="38.239941" lon="-3.682695">
        <ele>544.6</ele>
        <time>2009-04-05T08:08:11Z</time>
      </trkpt>
      <trkpt lat="38.240261" lon="-3.682596">
        <ele>546.1</ele>
        <time>2009-04-05T08:08:11Z</time>
      </trkpt>
      <trkpt lat="38.240840" lon="-3.682602">
        <ele>545.3</ele>
        <time>2009-04-05T08:08:11Z</time>
      </trkpt>
      <trkpt lat="38.241379" lon="-3.682632">
        <ele>545.5</ele>
        <time>2009-04-05T08:08:11Z</time>
      </trkpt>
      <trkpt lat="38.241792" lon="-3.682528">
        <ele>546.2</ele>
        <time>2009-04-05T08:08:11Z</time>
      </trkpt>
      <trkpt lat="38.242220" lon="-3.682433">
        <ele>547.4</ele>
        <time>2009-04-05T08:08:11Z</time>
      </trkpt>
      <trkpt lat="38.242588" lon="-3.682504">
        <ele>548.4</ele>
        <time>2009-04-05T08:08:11Z</time>
      </trkpt>
      <trkpt lat="38.242752" lon="-3.682360">
        <ele>547.6</ele>
        <time>2009-04-05T08:08:11Z</time>
      </trkpt>
      <trkpt lat="38.242793" lon="-3.682341">
        <ele>547.1</ele>
        <time>2009-04-05T08:08:11Z</time>
      </trkpt>
      <trkpt lat="38.243115" lon="-3.681958">
        <ele>544.9</ele>
        <time>2009-04-05T08:08:11Z</time>
      </trkpt>
      <trkpt lat="38.243310" lon="-3.681741">
        <ele>545.1</ele>
        <time>2009-04-05T08:08:11Z</time>
      </trkpt>
      <trkpt lat="38.243858" lon="-3.681461">
        <ele>546.9</ele>
        <time>2009-04-05T08:08:11Z</time>
      </trkpt>
      <trkpt lat="38.244268" lon="-3.681050">
        <ele>550.6</ele>
        <time>2009-04-05T08:08:11Z</time>
      </trkpt>
      <trkpt lat="38.244641" lon="-3.680856">
        <ele>550.2</ele>
        <time>2009-04-05T08:08:11Z</time>
      </trkpt>
      <trkpt lat="38.244979" lon="-3.680800">
        <ele>548.2</ele>
        <time>2009-04-05T08:08:11Z</time>
      </trkpt>
      <trkpt lat="38.245187" lon="-3.680288">
        <ele>551.0</ele>
        <time>2009-04-05T08:08:11Z</time>
      </trkpt>
      <trkpt lat="38.245350" lon="-3.679656">
        <ele>548.4</ele>
        <time>2009-04-05T08:08:11Z</time>
      </trkpt>
      <trkpt lat="38.246147" lon="-3.679867">
        <ele>552.4</ele>
        <time>2009-04-05T08:08:11Z</time>
      </trkpt>
      <trkpt lat="38.246545" lon="-3.680174">
        <ele>556.8</ele>
        <time>2009-04-05T08:08:11Z</time>
      </trkpt>
      <trkpt lat="38.246884" lon="-3.680177">
        <ele>557.9</ele>
        <time>2009-04-05T08:08:11Z</time>
      </trkpt>
      <trkpt lat="38.247157" lon="-3.680200">
        <ele>557.4</ele>
        <time>2009-04-05T08:08:11Z</time>
      </trkpt>
      <trkpt lat="38.247326" lon="-3.679845">
        <ele>555.5</ele>
        <time>2009-04-05T08:08:11Z</time>
      </trkpt>
      <trkpt lat="38.247568" lon="-3.679303">
        <ele>555.6</ele>
        <time>2009-04-05T08:08:11Z</time>
      </trkpt>
      <trkpt lat="38.247844" lon="-3.678564">
        <ele>558.9</ele>
        <time>2009-04-05T08:08:11Z</time>
      </trkpt>
      <trkpt lat="38.247993" lon="-3.678413">
        <ele>558.6</ele>
        <time>2009-04-05T08:08:11Z</time>
      </trkpt>
      <trkpt lat="38.247979" lon="-3.678386">
        <ele>558.4</ele>
        <time>2009-04-05T08:08:11Z</time>
      </trkpt>
      <trkpt lat="38.248059" lon="-3.678295">
        <ele>558.2</ele>
        <time>2009-04-05T08:08:11Z</time>
      </trkpt>
      <trkpt lat="38.248157" lon="-3.678141">
        <ele>557.9</ele>
        <time>2009-04-05T08:08:11Z</time>
      </trkpt>
      <trkpt lat="38.248505" lon="-3.677462">
        <ele>557.9</ele>
        <time>2009-04-05T08:08:11Z</time>
      </trkpt>
      <trkpt lat="38.248722" lon="-3.677114">
        <ele>557.8</ele>
        <time>2009-04-05T08:08:11Z</time>
      </trkpt>
      <trkpt lat="38.248894" lon="-3.676294">
        <ele>560.6</ele>
        <time>2009-04-05T08:08:11Z</time>
      </trkpt>
      <trkpt lat="38.248904" lon="-3.676244">
        <ele>560.9</ele>
        <time>2009-04-05T08:08:11Z</time>
      </trkpt>
      <trkpt lat="38.249200" lon="-3.675552">
        <ele>561.1</ele>
        <time>2009-04-05T08:08:11Z</time>
      </trkpt>
      <trkpt lat="38.249324" lon="-3.675051">
        <ele>560.8</ele>
        <time>2009-04-05T08:08:11Z</time>
      </trkpt>
      <trkpt lat="38.249412" lon="-3.674851">
        <ele>560.5</ele>
        <time>2009-04-05T08:08:11Z</time>
      </trkpt>
      <trkpt lat="38.249538" lon="-3.674654">
        <ele>560.2</ele>
        <time>2009-04-05T08:08:11Z</time>
      </trkpt>
      <trkpt lat="38.249530" lon="-3.674656">
        <ele>560.2</ele>
        <time>2009-04-05T08:08:11Z</time>
      </trkpt>
      <trkpt lat="38.249521" lon="-3.674683">
        <ele>560.3</ele>
        <time>2009-04-05T08:08:11Z</time>
      </trkpt>
      <trkpt lat="38.249524" lon="-3.674679">
        <ele>560.3</ele>
        <time>2009-04-05T08:08:11Z</time>
      </trkpt>
      <trkpt lat="38.249527" lon="-3.674689">
        <ele>560.3</ele>
        <time>2009-04-05T08:08:11Z</time>
      </trkpt>
      <trkpt lat="38.249534" lon="-3.674672">
        <ele>560.3</ele>
        <time>2009-04-05T08:08:11Z</time>
      </trkpt>
      <trkpt lat="38.249534" lon="-3.674686">
        <ele>560.3</ele>
        <time>2009-04-05T08:08:11Z</time>
      </trkpt>
      <trkpt lat="38.249535" lon="-3.674679">
        <ele>560.3</ele>
        <time>2009-04-05T08:08:11Z</time>
      </trkpt>
      <trkpt lat="38.249677" lon="-3.674424">
        <ele>560.0</ele>
        <time>2009-04-05T08:08:11Z</time>
      </trkpt>
      <trkpt lat="38.249700" lon="-3.674329">
        <ele>559.7</ele>
        <time>2009-04-05T08:08:11Z</time>
      </trkpt>
      <trkpt lat="38.249728" lon="-3.674022">
        <ele>558.5</ele>
        <time>2009-04-05T08:08:11Z</time>
      </trkpt>
      <trkpt lat="38.249585" lon="-3.673255">
        <ele>554.3</ele>
        <time>2009-04-05T08:08:11Z</time>
      </trkpt>
      <trkpt lat="38.249505" lon="-3.672635">
        <ele>551.9</ele>
        <time>2009-04-05T08:08:11Z</time>
      </trkpt>
      <trkpt lat="38.249559" lon="-3.671894">
        <ele>553.2</ele>
        <time>2009-04-05T08:08:11Z</time>
      </trkpt>
      <trkpt lat="38.249783" lon="-3.671340">
        <ele>557.3</ele>
        <time>2009-04-05T08:08:11Z</time>
      </trkpt>
      <trkpt lat="38.249928" lon="-3.671115">
        <ele>559.4</ele>
        <time>2009-04-05T08:08:11Z</time>
      </trkpt>
      <trkpt lat="38.249916" lon="-3.671042">
        <ele>559.4</ele>
        <time>2009-04-05T08:08:11Z</time>
      </trkpt>
      <trkpt lat="38.249918" lon="-3.671087">
        <ele>559.4</ele>
        <time>2009-04-05T08:08:11Z</time>
      </trkpt>
      <trkpt lat="38.249971" lon="-3.671121">
        <ele>559.7</ele>
        <time>2009-04-05T08:08:11Z</time>
      </trkpt>
      <trkpt lat="38.249980" lon="-3.671120">
        <ele>559.7</ele>
        <time>2009-04-05T08:08:11Z</time>
      </trkpt>
      <trkpt lat="38.249955" lon="-3.671115">
        <ele>559.6</ele>
        <time>2009-04-05T08:08:11Z</time>
      </trkpt>
      <trkpt lat="38.249955" lon="-3.671103">
        <ele>559.6</ele>
        <time>2009-04-05T08:08:11Z</time>
      </trkpt>
      <trkpt lat="38.249921" lon="-3.670835">
        <ele>559.7</ele>
        <time>2009-04-05T08:08:11Z</time>
      </trkpt>
      <trkpt lat="38.249976" lon="-3.670244">
        <ele>560.0</ele>
        <time>2009-04-05T08:08:11Z</time>
      </trkpt>
      <trkpt lat="38.250023" lon="-3.669818">
        <ele>556.7</ele>
        <time>2009-04-05T08:08:11Z</time>
      </trkpt>
      <trkpt lat="38.250124" lon="-3.669484">
        <ele>554.2</ele>
        <time>2009-04-05T08:08:11Z</time>
      </trkpt>
      <trkpt lat="38.250248" lon="-3.669276">
        <ele>552.2</ele>
        <time>2009-04-05T08:08:11Z</time>
      </trkpt>
      <trkpt lat="38.250494" lon="-3.668462">
        <ele>543.1</ele>
        <time>2009-04-05T08:08:11Z</time>
      </trkpt>
      <trkpt lat="38.250498" lon="-3.668348">
        <ele>542.2</ele>
        <time>2009-04-05T08:08:11Z</time>
      </trkpt>
      <trkpt lat="38.250404" lon="-3.667744">
        <ele>538.4</ele>
        <time>2009-04-05T08:08:11Z</time>
      </trkpt>
      <trkpt lat="38.250402" lon="-3.667687">
        <ele>538.0</ele>
        <time>2009-04-05T08:08:11Z</time>
      </trkpt>
      <trkpt lat="38.250575" lon="-3.666992">
        <ele>531.2</ele>
        <time>2009-04-05T08:08:11Z</time>
      </trkpt>
      <trkpt lat="38.250734" lon="-3.666461">
        <ele>526.5</ele>
        <time>2009-04-05T08:08:11Z</time>
      </trkpt>
      <trkpt lat="38.250764" lon="-3.666241">
        <ele>525.3</ele>
        <time>2009-04-05T08:08:11Z</time>
      </trkpt>
      <trkpt lat="38.250942" lon="-3.665577">
        <ele>525.5</ele>
        <time>2009-04-05T08:08:11Z</time>
      </trkpt>
      <trkpt lat="38.251172" lon="-3.665152">
        <ele>527.0</ele>
        <time>2009-04-05T08:08:11Z</time>
      </trkpt>
      <trkpt lat="38.251409" lon="-3.664651">
        <ele>528.0</ele>
        <time>2009-04-05T08:08:11Z</time>
      </trkpt>
      <trkpt lat="38.251509" lon="-3.664543">
        <ele>528.9</ele>
        <time>2009-04-05T08:08:11Z</time>
      </trkpt>
      <trkpt lat="38.251720" lon="-3.664192">
        <ele>529.9</ele>
        <time>2009-04-05T08:08:11Z</time>
      </trkpt>
      <trkpt lat="38.251889" lon="-3.663635">
        <ele>528.9</ele>
        <time>2009-04-05T08:08:11Z</time>
      </trkpt>
      <trkpt lat="38.252115" lon="-3.663351">
        <ele>529.3</ele>
        <time>2009-04-05T08:08:11Z</time>
      </trkpt>
      <trkpt lat="38.252192" lon="-3.663284">
        <ele>529.2</ele>
        <time>2009-04-05T08:08:11Z</time>
      </trkpt>
      <trkpt lat="38.252504" lon="-3.662955">
        <ele>529.3</ele>
        <time>2009-04-05T08:08:11Z</time>
      </trkpt>
      <trkpt lat="38.252583" lon="-3.662709">
        <ele>530.4</ele>
        <time>2009-04-05T08:08:11Z</time>
      </trkpt>
      <trkpt lat="38.252606" lon="-3.662249">
        <ele>534.9</ele>
        <time>2009-04-05T08:08:11Z</time>
      </trkpt>
      <trkpt lat="38.252709" lon="-3.661797">
        <ele>537.1</ele>
        <time>2009-04-05T08:08:11Z</time>
      </trkpt>
      <trkpt lat="38.252823" lon="-3.661511">
        <ele>536.3</ele>
        <time>2009-04-05T08:08:11Z</time>
      </trkpt>
      <trkpt lat="38.252887" lon="-3.661424">
        <ele>535.8</ele>
        <time>2009-04-05T08:08:11Z</time>
      </trkpt>
      <trkpt lat="38.252976" lon="-3.661205">
        <ele>535.8</ele>
        <time>2009-04-05T08:08:11Z</time>
      </trkpt>
      <trkpt lat="38.253059" lon="-3.660826">
        <ele>536.3</ele>
        <time>2009-04-05T08:08:11Z</time>
      </trkpt>
      <trkpt lat="38.253382" lon="-3.660401">
        <ele>538.3</ele>
        <time>2009-04-05T08:08:11Z</time>
      </trkpt>
      <trkpt lat="38.253499" lon="-3.660007">
        <ele>540.8</ele>
        <time>2009-04-05T08:08:11Z</time>
      </trkpt>
      <trkpt lat="38.253456" lon="-3.659525">
        <ele>541.6</ele>
        <time>2009-04-05T08:08:11Z</time>
      </trkpt>
      <trkpt lat="38.253445" lon="-3.659470">
        <ele>541.6</ele>
        <time>2009-04-05T08:08:11Z</time>
      </trkpt>
      <trkpt lat="38.253297" lon="-3.659068">
        <ele>540.9</ele>
        <time>2009-04-05T08:08:11Z</time>
      </trkpt>
      <trkpt lat="38.253273" lon="-3.658893">
        <ele>541.2</ele>
        <time>2009-04-05T08:08:11Z</time>
      </trkpt>
      <trkpt lat="38.253301" lon="-3.658620">
        <ele>542.9</ele>
        <time>2009-04-05T08:08:11Z</time>
      </trkpt>
      <trkpt lat="38.253302" lon="-3.658618">
        <ele>543.0</ele>
        <time>2009-04-05T08:08:11Z</time>
      </trkpt>
      <trkpt lat="38.253301" lon="-3.658621">
        <ele>542.9</ele>
        <time>2009-04-05T08:08:11Z</time>
      </trkpt>
      <trkpt lat="38.253320" lon="-3.658630">
        <ele>543.2</ele>
        <time>2009-04-05T08:08:11Z</time>
      </trkpt>
      <trkpt lat="38.253359" lon="-3.658372">
        <ele>543.8</ele>
        <time>2009-04-05T08:08:11Z</time>
      </trkpt>
      <trkpt lat="38.253452" lon="-3.657880">
        <ele>544.9</ele>
        <time>2009-04-05T08:08:11Z</time>
      </trkpt>
      <trkpt lat="38.253587" lon="-3.657719">
        <ele>545.9</ele>
        <time>2009-04-05T08:08:11Z</time>
      </trkpt>
      <trkpt lat="38.254137" lon="-3.657393">
        <ele>545.1</ele>
        <time>2009-04-05T08:08:11Z</time>
      </trkpt>
      <trkpt lat="38.254390" lon="-3.657171">
        <ele>543.9</ele>
        <time>2009-04-05T08:08:11Z</time>
      </trkpt>
      <trkpt lat="38.254654" lon="-3.657057">
        <ele>542.6</ele>
        <time>2009-04-05T08:08:11Z</time>
      </trkpt>
      <trkpt lat="38.255479" lon="-3.657418">
        <ele>538.3</ele>
        <time>2009-04-05T08:08:11Z</time>
      </trkpt>
      <trkpt lat="38.256253" lon="-3.656978">
        <ele>547.1</ele>
        <time>2009-04-05T08:08:11Z</time>
      </trkpt>
      <trkpt lat="38.256742" lon="-3.656843">
        <ele>549.5</ele>
        <time>2009-04-05T08:08:11Z</time>
      </trkpt>
      <trkpt lat="38.256852" lon="-3.656845">
        <ele>549.9</ele>
        <time>2009-04-05T08:08:11Z</time>
      </trkpt>
      <trkpt lat="38.257082" lon="-3.656786">
        <ele>551.6</ele>
        <time>2009-04-05T08:08:11Z</time>
      </trkpt>
      <trkpt lat="38.257371" lon="-3.656628">
        <ele>554.9</ele>
        <time>2009-04-05T08:08:11Z</time>
      </trkpt>
      <trkpt lat="38.257523" lon="-3.656429">
        <ele>558.1</ele>
        <time>2009-04-05T08:08:11Z</time>
      </trkpt>
      <trkpt lat="38.257605" lon="-3.656228">
        <ele>561.0</ele>
        <time>2009-04-05T08:08:11Z</time>
      </trkpt>
      <trkpt lat="38.258003" lon="-3.655827">
        <ele>566.3</ele>
        <time>2009-04-05T08:08:11Z</time>
      </trkpt>
      <trkpt lat="38.258149" lon="-3.655758">
        <ele>568.0</ele>
        <time>2009-04-05T08:08:11Z</time>
      </trkpt>
      <trkpt lat="38.258718" lon="-3.655274">
        <ele>575.9</ele>
        <time>2009-04-05T08:08:11Z</time>
      </trkpt>
      <trkpt lat="38.259222" lon="-3.654816">
        <ele>579.0</ele>
        <time>2009-04-05T08:08:11Z</time>
      </trkpt>
      <trkpt lat="38.259310" lon="-3.654663">
        <ele>579.6</ele>
        <time>2009-04-05T08:08:11Z</time>
      </trkpt>
      <trkpt lat="38.259385" lon="-3.654559">
        <ele>580.0</ele>
        <time>2009-04-05T08:08:11Z</time>
      </trkpt>
      <trkpt lat="38.259613" lon="-3.654388">
        <ele>581.7</ele>
        <time>2009-04-05T08:08:11Z</time>
      </trkpt>
      <trkpt lat="38.259925" lon="-3.654239">
        <ele>584.0</ele>
        <time>2009-04-05T08:08:11Z</time>
      </trkpt>
      <trkpt lat="38.260147" lon="-3.654051">
        <ele>585.7</ele>
        <time>2009-04-05T08:08:11Z</time>
      </trkpt>
      <trkpt lat="38.260583" lon="-3.653576">
        <ele>588.8</ele>
        <time>2009-04-05T08:08:11Z</time>
      </trkpt>
      <trkpt lat="38.260745" lon="-3.653351">
        <ele>589.1</ele>
        <time>2009-04-05T08:08:11Z</time>
      </trkpt>
      <trkpt lat="38.260977" lon="-3.653059">
        <ele>588.9</ele>
        <time>2009-04-05T08:08:11Z</time>
      </trkpt>
      <trkpt lat="38.261319" lon="-3.652774">
        <ele>587.2</ele>
        <time>2009-04-05T08:08:11Z</time>
      </trkpt>
      <trkpt lat="38.261638" lon="-3.652228">
        <ele>585.1</ele>
        <time>2009-04-05T08:08:11Z</time>
      </trkpt>
      <trkpt lat="38.261991" lon="-3.651953">
        <ele>585.8</ele>
        <time>2009-04-05T08:08:11Z</time>
      </trkpt>
      <trkpt lat="38.262029" lon="-3.651955">
        <ele>585.8</ele>
        <time>2009-04-05T08:08:11Z</time>
      </trkpt>
      <trkpt lat="38.262218" lon="-3.651918">
        <ele>585.7</ele>
        <time>2009-04-05T08:08:11Z</time>
      </trkpt>
      <trkpt lat="38.262670" lon="-3.651931">
        <ele>585.2</ele>
        <time>2009-04-05T08:08:11Z</time>
      </trkpt>
      <trkpt lat="38.263114" lon="-3.651732">
        <ele>586.3</ele>
        <time>2009-04-05T08:08:11Z</time>
      </trkpt>
      <trkpt lat="38.263619" lon="-3.651458">
        <ele>588.7</ele>
        <time>2009-04-05T08:08:11Z</time>
      </trkpt>
      <trkpt lat="38.263763" lon="-3.651264">
        <ele>589.8</ele>
        <time>2009-04-05T08:08:11Z</time>
      </trkpt>
      <trkpt lat="38.263980" lon="-3.650670">
        <ele>589.4</ele>
        <time>2009-04-05T08:08:11Z</time>
      </trkpt>
      <trkpt lat="38.264119" lon="-3.650343">
        <ele>589.0</ele>
        <time>2009-04-05T08:08:11Z</time>
      </trkpt>
      <trkpt lat="38.264259" lon="-3.650144">
        <ele>588.1</ele>
        <time>2009-04-05T08:08:11Z</time>
      </trkpt>
      <trkpt lat="38.264455" lon="-3.649833">
        <ele>587.6</ele>
        <time>2009-04-05T08:08:11Z</time>
      </trkpt>
      <trkpt lat="38.264698" lon="-3.649265">
        <ele>589.6</ele>
        <time>2009-04-05T08:08:11Z</time>
      </trkpt>
      <trkpt lat="38.264751" lon="-3.649111">
        <ele>590.5</ele>
        <time>2009-04-05T08:08:11Z</time>
      </trkpt>
      <trkpt lat="38.264914" lon="-3.648774">
        <ele>593.6</ele>
        <time>2009-04-05T08:08:11Z</time>
      </trkpt>
      <trkpt lat="38.265388" lon="-3.648251">
        <ele>598.3</ele>
        <time>2009-04-05T08:08:11Z</time>
      </trkpt>
      <trkpt lat="38.265690" lon="-3.648222">
        <ele>601.2</ele>
        <time>2009-04-05T08:08:11Z</time>
      </trkpt>
      <trkpt lat="38.265879" lon="-3.648294">
        <ele>603.7</ele>
        <time>2009-04-05T08:08:11Z</time>
      </trkpt>
      <trkpt lat="38.266293" lon="-3.648250">
        <ele>600.4</ele>
        <time>2009-04-05T08:08:11Z</time>
      </trkpt>
      <trkpt lat="38.266448" lon="-3.648171">
        <ele>597.6</ele>
        <time>2009-04-05T08:08:11Z</time>
      </trkpt>
      <trkpt lat="38.266682" lon="-3.647847">
        <ele>594.6</ele>
        <time>2009-04-05T08:08:11Z</time>
      </trkpt>
      <trkpt lat="38.266796" lon="-3.647255">
        <ele>592.4</ele>
        <time>2009-04-05T08:08:11Z</time>
      </trkpt>
      <trkpt lat="38.266862" lon="-3.647062">
        <ele>592.1</ele>
        <time>2009-04-05T08:08:11Z</time>
      </trkpt>
      <trkpt lat="38.267035" lon="-3.646802">
        <ele>592.4</ele>
        <time>2009-04-05T08:08:11Z</time>
      </trkpt>
      <trkpt lat="38.267597" lon="-3.646412">
        <ele>594.7</ele>
        <time>2009-04-05T08:08:11Z</time>
      </trkpt>
      <trkpt lat="38.267791" lon="-3.645959">
        <ele>594.5</ele>
        <time>2009-04-05T08:08:11Z</time>
      </trkpt>
      <trkpt lat="38.267767" lon="-3.645787">
        <ele>593.3</ele>
        <time>2009-04-05T08:08:11Z</time>
      </trkpt>
      <trkpt lat="38.267852" lon="-3.645421">
        <ele>592.0</ele>
        <time>2009-04-05T08:08:11Z</time>
      </trkpt>
      <trkpt lat="38.268125" lon="-3.644965">
        <ele>593.7</ele>
        <time>2009-04-05T08:08:11Z</time>
      </trkpt>
      <trkpt lat="38.268549" lon="-3.644266">
        <ele>595.2</ele>
        <time>2009-04-05T08:08:11Z</time>
      </trkpt>
      <trkpt lat="38.268948" lon="-3.643479">
        <ele>597.0</ele>
        <time>2009-04-05T08:08:11Z</time>
      </trkpt>
      <trkpt lat="38.269037" lon="-3.642825">
        <ele>597.1</ele>
        <time>2009-04-05T08:08:11Z</time>
      </trkpt>
      <trkpt lat="38.268924" lon="-3.642220">
        <ele>600.1</ele>
        <time>2009-04-05T08:08:11Z</time>
      </trkpt>
      <trkpt lat="38.268958" lon="-3.641375">
        <ele>602.1</ele>
        <time>2009-04-05T08:08:11Z</time>
      </trkpt>
      <trkpt lat="38.268943" lon="-3.640995">
        <ele>601.0</ele>
        <time>2009-04-05T08:08:11Z</time>
      </trkpt>
      <trkpt lat="38.268943" lon="-3.640971">
        <ele>600.9</ele>
        <time>2009-04-05T08:08:11Z</time>
      </trkpt>
      <trkpt lat="38.268942" lon="-3.640939">
        <ele>600.6</ele>
        <time>2009-04-05T08:08:11Z</time>
      </trkpt>
      <trkpt lat="38.268939" lon="-3.640911">
        <ele>600.4</ele>
        <time>2009-04-05T08:08:11Z</time>
      </trkpt>
      <trkpt lat="38.268941" lon="-3.640889">
        <ele>600.2</ele>
        <time>2009-04-05T08:08:11Z</time>
      </trkpt>
      <trkpt lat="38.268942" lon="-3.640857">
        <ele>600.0</ele>
        <time>2009-04-05T08:08:11Z</time>
      </trkpt>
      <trkpt lat="38.268944" lon="-3.640556">
        <ele>597.6</ele>
        <time>2009-04-05T08:08:11Z</time>
      </trkpt>
      <trkpt lat="38.269150" lon="-3.639840">
        <ele>594.0</ele>
        <time>2009-04-05T08:08:11Z</time>
      </trkpt>
      <trkpt lat="38.269222" lon="-3.639637">
        <ele>593.7</ele>
        <time>2009-04-05T08:08:11Z</time>
      </trkpt>
      <trkpt lat="38.269124" lon="-3.639030">
        <ele>596.5</ele>
        <time>2009-04-05T08:08:11Z</time>
      </trkpt>
      <trkpt lat="38.268937" lon="-3.638978">
        <ele>596.2</ele>
        <time>2009-04-05T08:08:11Z</time>
      </trkpt>
      <trkpt lat="38.268665" lon="-3.638965">
        <ele>595.2</ele>
        <time>2009-04-05T08:08:11Z</time>
      </trkpt>
      <trkpt lat="38.268405" lon="-3.638942">
        <ele>594.7</ele>
        <time>2009-04-05T08:08:11Z</time>
      </trkpt>
      <trkpt lat="38.267975" lon="-3.638678">
        <ele>596.2</ele>
        <time>2009-04-05T08:08:11Z</time>
      </trkpt>
      <trkpt lat="38.268150" lon="-3.638261">
        <ele>599.2</ele>
        <time>2009-04-05T08:08:11Z</time>
      </trkpt>
      <trkpt lat="38.268256" lon="-3.638167">
        <ele>600.6</ele>
        <time>2009-04-05T08:08:11Z</time>
      </trkpt>
      <trkpt lat="38.268413" lon="-3.637914">
        <ele>604.3</ele>
        <time>2009-04-05T08:08:11Z</time>
      </trkpt>
      <trkpt lat="38.268623" lon="-3.637458">
        <ele>607.0</ele>
        <time>2009-04-05T08:08:11Z</time>
      </trkpt>
      <trkpt lat="38.269066" lon="-3.637304">
        <ele>611.8</ele>
        <time>2009-04-05T08:08:11Z</time>
      </trkpt>
      <trkpt lat="38.269185" lon="-3.637412">
        <ele>613.5</ele>
        <time>2009-04-05T08:08:11Z</time>
      </trkpt>
      <trkpt lat="38.269294" lon="-3.637530">
        <ele>614.9</ele>
        <time>2009-04-05T08:08:11Z</time>
      </trkpt>
      <trkpt lat="38.269737" lon="-3.637550">
        <ele>618.1</ele>
        <time>2009-04-05T08:08:11Z</time>
      </trkpt>
      <trkpt lat="38.270125" lon="-3.636783">
        <ele>618.7</ele>
        <time>2009-04-05T08:08:11Z</time>
      </trkpt>
      <trkpt lat="38.270234" lon="-3.635681">
        <ele>609.5</ele>
        <time>2009-04-05T08:08:11Z</time>
      </trkpt>
      <trkpt lat="38.270541" lon="-3.635327">
        <ele>610.0</ele>
        <time>2009-04-05T08:08:11Z</time>
      </trkpt>
      <trkpt lat="38.270937" lon="-3.635250">
        <ele>613.0</ele>
        <time>2009-04-05T08:08:11Z</time>
      </trkpt>
      <trkpt lat="38.271189" lon="-3.634940">
        <ele>612.5</ele>
        <time>2009-04-05T08:08:11Z</time>
      </trkpt>
      <trkpt lat="38.271297" lon="-3.634702">
        <ele>612.4</ele>
        <time>2009-04-05T08:08:11Z</time>
      </trkpt>
      <trkpt lat="38.271688" lon="-3.634202">
        <ele>614.4</ele>
        <time>2009-04-05T08:08:11Z</time>
      </trkpt>
      <trkpt lat="38.271844" lon="-3.633580">
        <ele>610.6</ele>
        <time>2009-04-05T08:08:11Z</time>
      </trkpt>
      <trkpt lat="38.271961" lon="-3.632271">
        <ele>604.6</ele>
        <time>2009-04-05T08:08:11Z</time>
      </trkpt>
      <trkpt lat="38.271959" lon="-3.631981">
        <ele>604.0</ele>
        <time>2009-04-05T08:08:11Z</time>
      </trkpt>
      <trkpt lat="38.271983" lon="-3.631865">
        <ele>604.8</ele>
        <time>2009-04-05T08:08:11Z</time>
      </trkpt>
      <trkpt lat="38.271963" lon="-3.631373">
        <ele>605.2</ele>
        <time>2009-04-05T08:08:11Z</time>
      </trkpt>
      <trkpt lat="38.272004" lon="-3.630946">
        <ele>606.4</ele>
        <time>2009-04-05T08:08:11Z</time>
      </trkpt>
      <trkpt lat="38.272136" lon="-3.630771">
        <ele>609.3</ele>
        <time>2009-04-05T08:08:11Z</time>
      </trkpt>
      <trkpt lat="38.272213" lon="-3.630561">
        <ele>610.7</ele>
        <time>2009-04-05T08:08:11Z</time>
      </trkpt>
      <trkpt lat="38.272248" lon="-3.630151">
        <ele>610.1</ele>
        <time>2009-04-05T08:08:11Z</time>
      </trkpt>
      <trkpt lat="38.272142" lon="-3.629923">
        <ele>606.5</ele>
        <time>2009-04-05T08:08:11Z</time>
      </trkpt>
      <trkpt lat="38.272097" lon="-3.629552">
        <ele>604.0</ele>
        <time>2009-04-05T08:08:11Z</time>
      </trkpt>
      <trkpt lat="38.272229" lon="-3.629288">
        <ele>605.9</ele>
        <time>2009-04-05T08:08:11Z</time>
      </trkpt>
      <trkpt lat="38.272372" lon="-3.629189">
        <ele>608.0</ele>
        <time>2009-04-05T08:08:11Z</time>
      </trkpt>
      <trkpt lat="38.272428" lon="-3.629074">
        <ele>608.5</ele>
        <time>2009-04-05T08:08:11Z</time>
      </trkpt>
      <trkpt lat="38.272480" lon="-3.629049">
        <ele>609.1</ele>
        <time>2009-04-05T08:08:11Z</time>
      </trkpt>
      <trkpt lat="38.272535" lon="-3.628975">
        <ele>609.5</ele>
        <time>2009-04-05T08:08:11Z</time>
      </trkpt>
      <trkpt lat="38.272579" lon="-3.628904">
        <ele>609.7</ele>
        <time>2009-04-05T08:08:11Z</time>
      </trkpt>
      <trkpt lat="38.272398" lon="-3.628783">
        <ele>607.1</ele>
        <time>2009-04-05T08:08:11Z</time>
      </trkpt>
      <trkpt lat="38.271217" lon="-3.628195">
        <ele>590.0</ele>
        <time>2009-04-05T08:08:11Z</time>
      </trkpt>
      <trkpt lat="38.270414" lon="-3.627254">
        <ele>583.0</ele>
        <time>2009-04-05T08:08:11Z</time>
      </trkpt>
      <trkpt lat="38.269410" lon="-3.626363">
        <ele>578.2</ele>
        <time>2009-04-05T08:08:11Z</time>
      </trkpt>
      <trkpt lat="38.268971" lon="-3.626119">
        <ele>571.8</ele>
        <time>2009-04-05T08:08:11Z</time>
      </trkpt>
      <trkpt lat="38.268819" lon="-3.626071">
        <ele>570.1</ele>
        <time>2009-04-05T08:08:11Z</time>
      </trkpt>
      <trkpt lat="38.268802" lon="-3.626087">
        <ele>570.0</ele>
        <time>2009-04-05T08:08:11Z</time>
      </trkpt>
      <trkpt lat="38.268647" lon="-3.625972">
        <ele>568.5</ele>
        <time>2009-04-05T08:08:11Z</time>
      </trkpt>
      <trkpt lat="38.268321" lon="-3.625842">
        <ele>567.0</ele>
        <time>2009-04-05T08:08:11Z</time>
      </trkpt>
      <trkpt lat="38.268296" lon="-3.625866">
        <ele>566.8</ele>
        <time>2009-04-05T08:08:11Z</time>
      </trkpt>
      <trkpt lat="38.268253" lon="-3.625832">
        <ele>566.8</ele>
        <time>2009-04-05T08:08:11Z</time>
      </trkpt>
      <trkpt lat="38.268265" lon="-3.625607">
        <ele>567.7</ele>
        <time>2009-04-05T08:08:11Z</time>
      </trkpt>
      <trkpt lat="38.268331" lon="-3.625554">
        <ele>568.0</ele>
        <time>2009-04-05T08:08:11Z</time>
      </trkpt>
      <trkpt lat="38.268383" lon="-3.625488">
        <ele>568.3</ele>
        <time>2009-04-05T08:08:11Z</time>
      </trkpt>
      <trkpt lat="38.268462" lon="-3.625434">
        <ele>568.6</ele>
        <time>2009-04-05T08:08:11Z</time>
      </trkpt>
      <trkpt lat="38.268474" lon="-3.625432">
        <ele>568.6</ele>
        <time>2009-04-05T08:08:11Z</time>
      </trkpt>
      <trkpt lat="38.268449" lon="-3.625436">
        <ele>568.6</ele>
        <time>2009-04-05T08:08:11Z</time>
      </trkpt>
      <trkpt lat="38.268494" lon="-3.625263">
        <ele>569.1</ele>
        <time>2009-04-05T08:08:11Z</time>
      </trkpt>
      <trkpt lat="38.271044" lon="-3.610051">
        <ele>587.3</ele>
        <time>2010-09-20T06:47:40Z</time>
      </trkpt>
      <trkpt lat="38.271280" lon="-3.609915">
        <ele>587.4</ele>
        <time>2010-09-20T06:47:40Z</time>
      </trkpt>
      <trkpt lat="38.271407" lon="-3.609940">
        <ele>587.4</ele>
        <time>2010-09-20T06:47:40Z</time>
      </trkpt>
      <trkpt lat="38.271606" lon="-3.609918">
        <ele>587.4</ele>
        <time>2010-09-20T06:47:40Z</time>
      </trkpt>
      <trkpt lat="38.271733" lon="-3.609850">
        <ele>587.5</ele>
        <time>2010-09-20T06:47:40Z</time>
      </trkpt>
      <trkpt lat="38.271969" lon="-3.609783">
        <ele>587.7</ele>
        <time>2010-09-20T06:47:40Z</time>
      </trkpt>
      <trkpt lat="38.272133" lon="-3.609693">
        <ele>587.9</ele>
        <time>2010-09-20T06:47:40Z</time>
      </trkpt>
      <trkpt lat="38.272352" lon="-3.609510">
        <ele>588.5</ele>
        <time>2010-09-20T06:47:40Z</time>
      </trkpt>
      <trkpt lat="38.272515" lon="-3.609374">
        <ele>588.8</ele>
        <time>2010-09-20T06:47:40Z</time>
      </trkpt>
      <trkpt lat="38.272607" lon="-3.609214">
        <ele>588.9</ele>
        <time>2010-09-20T06:47:40Z</time>
      </trkpt>
      <trkpt lat="38.272789" lon="-3.609077">
        <ele>589.3</ele>
        <time>2010-09-20T06:47:40Z</time>
      </trkpt>
      <trkpt lat="38.272916" lon="-3.608963">
        <ele>589.8</ele>
        <time>2010-09-20T06:47:40Z</time>
      </trkpt>
      <trkpt lat="38.273062" lon="-3.608872">
        <ele>590.3</ele>
        <time>2010-09-20T06:47:40Z</time>
      </trkpt>
      <trkpt lat="38.273226" lon="-3.608621">
        <ele>590.9</ele>
        <time>2010-09-20T06:47:40Z</time>
      </trkpt>
      <trkpt lat="38.273408" lon="-3.608530">
        <ele>591.6</ele>
        <time>2010-09-20T06:47:40Z</time>
      </trkpt>
      <trkpt lat="38.273554" lon="-3.608370">
        <ele>592.4</ele>
        <time>2010-09-20T06:47:40Z</time>
      </trkpt>
      <trkpt lat="38.273700" lon="-3.608210">
        <ele>593.0</ele>
        <time>2010-09-20T06:47:40Z</time>
      </trkpt>
      <trkpt lat="38.273846" lon="-3.608074">
        <ele>593.7</ele>
        <time>2010-09-20T06:47:40Z</time>
      </trkpt>
      <trkpt lat="38.274027" lon="-3.607961">
        <ele>594.5</ele>
        <time>2010-09-20T06:47:40Z</time>
      </trkpt>
      <trkpt lat="38.274210" lon="-3.607801">
        <ele>595.4</ele>
        <time>2010-09-20T06:47:40Z</time>
      </trkpt>
      <trkpt lat="38.274373" lon="-3.607687">
        <ele>596.2</ele>
        <time>2010-09-20T06:47:40Z</time>
      </trkpt>
      <trkpt lat="38.274447" lon="-3.607527">
        <ele>596.6</ele>
        <time>2010-09-20T06:47:40Z</time>
      </trkpt>
      <trkpt lat="38.274538" lon="-3.607459">
        <ele>597.0</ele>
        <time>2010-09-20T06:47:40Z</time>
      </trkpt>
      <trkpt lat="38.274665" lon="-3.607322">
        <ele>597.7</ele>
        <time>2010-09-20T06:47:40Z</time>
      </trkpt>
      <trkpt lat="38.274829" lon="-3.607277">
        <ele>598.3</ele>
        <time>2010-09-20T06:47:40Z</time>
      </trkpt>
      <trkpt lat="38.274956" lon="-3.607186">
        <ele>598.9</ele>
        <time>2010-09-20T06:47:40Z</time>
      </trkpt>
      <trkpt lat="38.275066" lon="-3.607026">
        <ele>599.4</ele>
        <time>2010-09-20T06:47:40Z</time>
      </trkpt>
      <trkpt lat="38.275156" lon="-3.607004">
        <ele>599.8</ele>
        <time>2010-09-20T06:47:40Z</time>
      </trkpt>
      <trkpt lat="38.275266" lon="-3.606890">
        <ele>599.9</ele>
        <time>2010-09-20T06:47:40Z</time>
      </trkpt>
      <trkpt lat="38.275429" lon="-3.606868">
        <ele>600.7</ele>
        <time>2010-09-20T06:47:40Z</time>
      </trkpt>
      <trkpt lat="38.275629" lon="-3.606778">
        <ele>601.4</ele>
        <time>2010-09-20T06:47:40Z</time>
      </trkpt>
      <trkpt lat="38.275810" lon="-3.606688">
        <ele>602.1</ele>
        <time>2010-09-20T06:47:40Z</time>
      </trkpt>
      <trkpt lat="38.276064" lon="-3.606667">
        <ele>603.7</ele>
        <time>2010-09-20T06:47:40Z</time>
      </trkpt>
      <trkpt lat="38.276264" lon="-3.606668">
        <ele>604.2</ele>
        <time>2010-09-20T06:47:40Z</time>
      </trkpt>
      <trkpt lat="38.276482" lon="-3.606647">
        <ele>604.6</ele>
        <time>2010-09-20T06:47:40Z</time>
      </trkpt>
      <trkpt lat="38.276681" lon="-3.606603">
        <ele>604.9</ele>
        <time>2010-09-20T06:47:40Z</time>
      </trkpt>
      <trkpt lat="38.276808" lon="-3.606558">
        <ele>605.0</ele>
        <time>2010-09-20T06:47:40Z</time>
      </trkpt>
      <trkpt lat="38.277008" lon="-3.606559">
        <ele>605.1</ele>
        <time>2010-09-20T06:47:40Z</time>
      </trkpt>
      <trkpt lat="38.277207" lon="-3.606561">
        <ele>605.1</ele>
        <time>2010-09-20T06:47:40Z</time>
      </trkpt>
      <trkpt lat="38.277389" lon="-3.606540">
        <ele>605.0</ele>
        <time>2010-09-20T06:47:40Z</time>
      </trkpt>
      <trkpt lat="38.277570" lon="-3.606426">
        <ele>604.7</ele>
        <time>2010-09-20T06:47:40Z</time>
      </trkpt>
      <trkpt lat="38.277734" lon="-3.606289">
        <ele>604.4</ele>
        <time>2010-09-20T06:47:40Z</time>
      </trkpt>
      <trkpt lat="38.277935" lon="-3.606107">
        <ele>604.0</ele>
        <time>2010-09-20T06:47:40Z</time>
      </trkpt>
      <trkpt lat="38.278025" lon="-3.606016">
        <ele>603.9</ele>
        <time>2010-09-20T06:47:40Z</time>
      </trkpt>
      <trkpt lat="38.278099" lon="-3.605902">
        <ele>603.9</ele>
        <time>2010-09-20T06:47:40Z</time>
      </trkpt>
      <trkpt lat="38.278245" lon="-3.605696">
        <ele>603.8</ele>
        <time>2010-09-20T06:47:40Z</time>
      </trkpt>
      <trkpt lat="38.278318" lon="-3.605581">
        <ele>603.8</ele>
        <time>2010-09-20T06:47:40Z</time>
      </trkpt>
      <trkpt lat="38.278446" lon="-3.605399">
        <ele>603.9</ele>
        <time>2010-09-20T06:47:40Z</time>
      </trkpt>
      <trkpt lat="38.278465" lon="-3.605284">
        <ele>603.9</ele>
        <time>2010-09-20T06:47:40Z</time>
      </trkpt>
      <trkpt lat="38.278557" lon="-3.604963">
        <ele>604.0</ele>
        <time>2010-09-20T06:47:40Z</time>
      </trkpt>
      <trkpt lat="38.278594" lon="-3.604779">
        <ele>604.1</ele>
        <time>2010-09-20T06:47:40Z</time>
      </trkpt>
      <trkpt lat="38.278723" lon="-3.604435">
        <ele>604.5</ele>
        <time>2010-09-20T06:47:40Z</time>
      </trkpt>
      <trkpt lat="38.278742" lon="-3.604205">
        <ele>604.5</ele>
        <time>2010-09-20T06:47:40Z</time>
      </trkpt>
      <trkpt lat="38.278798" lon="-3.603999">
        <ele>604.6</ele>
        <time>2010-09-20T06:47:40Z</time>
      </trkpt>
      <trkpt lat="38.278872" lon="-3.603723">
        <ele>604.8</ele>
        <time>2010-09-20T06:47:40Z</time>
      </trkpt>
      <trkpt lat="38.278945" lon="-3.603517">
        <ele>605.1</ele>
        <time>2010-09-20T06:47:40Z</time>
      </trkpt>
      <trkpt lat="38.278947" lon="-3.603241">
        <ele>605.2</ele>
        <time>2010-09-20T06:47:40Z</time>
      </trkpt>
      <trkpt lat="38.279002" lon="-3.602965">
        <ele>605.5</ele>
        <time>2010-09-20T06:47:40Z</time>
      </trkpt>
      <trkpt lat="38.279003" lon="-3.602736">
        <ele>605.6</ele>
        <time>2010-09-20T06:47:40Z</time>
      </trkpt>
      <trkpt lat="38.279022" lon="-3.602575">
        <ele>605.6</ele>
        <time>2010-09-20T06:47:40Z</time>
      </trkpt>
      <trkpt lat="38.279059" lon="-3.602437">
        <ele>605.6</ele>
        <time>2010-09-20T06:47:40Z</time>
      </trkpt>
      <trkpt lat="38.279097" lon="-3.602230">
        <ele>605.7</ele>
        <time>2010-09-20T06:47:40Z</time>
      </trkpt>
      <trkpt lat="38.279277" lon="-3.602347">
        <ele>605.9</ele>
        <time>2010-09-20T06:47:40Z</time>
      </trkpt>
      <trkpt lat="38.279422" lon="-3.602440">
        <ele>606.0</ele>
        <time>2010-09-20T06:47:40Z</time>
      </trkpt>
      <trkpt lat="38.279566" lon="-3.602510">
        <ele>606.0</ele>
        <time>2010-09-20T06:47:40Z</time>
      </trkpt>
      <trkpt lat="38.279711" lon="-3.602695">
        <ele>606.0</ele>
        <time>2010-09-20T06:47:40Z</time>
      </trkpt>
      <trkpt lat="38.279855" lon="-3.602812">
        <ele>606.0</ele>
        <time>2010-09-20T06:47:40Z</time>
      </trkpt>
      <trkpt lat="38.280072" lon="-3.602905">
        <ele>606.1</ele>
        <time>2010-09-20T06:47:40Z</time>
      </trkpt>
      <trkpt lat="38.280253" lon="-3.602999">
        <ele>606.2</ele>
        <time>2010-09-20T06:47:40Z</time>
      </trkpt>
      <trkpt lat="38.280488" lon="-3.603161">
        <ele>605.9</ele>
        <time>2010-09-20T06:47:40Z</time>
      </trkpt>
      <trkpt lat="38.280650" lon="-3.603324">
        <ele>605.7</ele>
        <time>2010-09-20T06:47:40Z</time>
      </trkpt>
      <trkpt lat="38.280867" lon="-3.603418">
        <ele>605.3</ele>
        <time>2010-09-20T06:47:40Z</time>
      </trkpt>
      <trkpt lat="38.281030" lon="-3.603534">
        <ele>605.0</ele>
        <time>2010-09-20T06:47:40Z</time>
      </trkpt>
      <trkpt lat="38.281192" lon="-3.603650">
        <ele>604.8</ele>
        <time>2010-09-20T06:47:40Z</time>
      </trkpt>
      <trkpt lat="38.281355" lon="-3.603744">
        <ele>604.6</ele>
        <time>2010-09-20T06:47:40Z</time>
      </trkpt>
      <trkpt lat="38.281535" lon="-3.603883">
        <ele>604.4</ele>
        <time>2010-09-20T06:47:40Z</time>
      </trkpt>
      <trkpt lat="38.281716" lon="-3.604023">
        <ele>604.2</ele>
        <time>2010-09-20T06:47:40Z</time>
      </trkpt>
      <trkpt lat="38.281879" lon="-3.604047">
        <ele>603.9</ele>
        <time>2010-09-20T06:47:40Z</time>
      </trkpt>
      <trkpt lat="38.282041" lon="-3.604233">
        <ele>603.3</ele>
        <time>2010-09-20T06:47:40Z</time>
      </trkpt>
      <trkpt lat="38.282204" lon="-3.604349">
        <ele>602.7</ele>
        <time>2010-09-20T06:47:40Z</time>
      </trkpt>
      <trkpt lat="38.282421" lon="-3.604443">
        <ele>602.0</ele>
        <time>2010-09-20T06:47:40Z</time>
      </trkpt>
      <trkpt lat="38.282620" lon="-3.604582">
        <ele>601.4</ele>
        <time>2010-09-20T06:47:40Z</time>
      </trkpt>
      <trkpt lat="38.282836" lon="-3.604745">
        <ele>600.9</ele>
        <time>2010-09-20T06:47:40Z</time>
      </trkpt>
      <trkpt lat="38.283053" lon="-3.604931">
        <ele>600.2</ele>
        <time>2010-09-20T06:47:40Z</time>
      </trkpt>
      <trkpt lat="38.283324" lon="-3.605071">
        <ele>599.1</ele>
        <time>2010-09-20T06:47:40Z</time>
      </trkpt>
      <trkpt lat="38.283505" lon="-3.605188">
        <ele>598.2</ele>
        <time>2010-09-20T06:47:40Z</time>
      </trkpt>
      <trkpt lat="38.283685" lon="-3.605350">
        <ele>597.7</ele>
        <time>2010-09-20T06:47:40Z</time>
      </trkpt>
      <trkpt lat="38.283848" lon="-3.605443">
        <ele>597.3</ele>
        <time>2010-09-20T06:47:40Z</time>
      </trkpt>
      <trkpt lat="38.284010" lon="-3.605560">
        <ele>596.8</ele>
        <time>2010-09-20T06:47:40Z</time>
      </trkpt>
      <trkpt lat="38.284173" lon="-3.605607">
        <ele>596.2</ele>
        <time>2010-09-20T06:47:40Z</time>
      </trkpt>
      <trkpt lat="38.284300" lon="-3.605700">
        <ele>595.7</ele>
        <time>2010-09-20T06:47:40Z</time>
      </trkpt>
      <trkpt lat="38.284462" lon="-3.605793">
        <ele>595.4</ele>
        <time>2010-09-20T06:47:40Z</time>
      </trkpt>
      <trkpt lat="38.284663" lon="-3.605703">
        <ele>595.7</ele>
        <time>2010-09-20T06:47:40Z</time>
      </trkpt>
      <trkpt lat="38.284754" lon="-3.605566">
        <ele>596.0</ele>
        <time>2010-09-20T06:47:40Z</time>
      </trkpt>
      <trkpt lat="38.284863" lon="-3.605429">
        <ele>596.3</ele>
        <time>2010-09-20T06:47:40Z</time>
      </trkpt>
      <trkpt lat="38.284973" lon="-3.605315">
        <ele>596.7</ele>
        <time>2010-09-20T06:47:40Z</time>
      </trkpt>
      <trkpt lat="38.285173" lon="-3.605201">
        <ele>597.4</ele>
        <time>2010-09-20T06:47:40Z</time>
      </trkpt>
      <trkpt lat="38.285300" lon="-3.605133">
        <ele>598.6</ele>
        <time>2010-09-20T06:47:40Z</time>
      </trkpt>
      <trkpt lat="38.285445" lon="-3.605020">
        <ele>600.3</ele>
        <time>2010-09-20T06:47:40Z</time>
      </trkpt>
      <trkpt lat="38.285555" lon="-3.604975">
        <ele>601.3</ele>
        <time>2010-09-20T06:47:40Z</time>
      </trkpt>
      <trkpt lat="38.285700" lon="-3.604976">
        <ele>602.5</ele>
        <time>2010-09-20T06:47:40Z</time>
      </trkpt>
      <trkpt lat="38.285826" lon="-3.605138">
        <ele>602.9</ele>
        <time>2010-09-20T06:47:40Z</time>
      </trkpt>
      <trkpt lat="38.285952" lon="-3.605346">
        <ele>603.1</ele>
        <time>2010-09-20T06:47:40Z</time>
      </trkpt>
      <trkpt lat="38.286132" lon="-3.605509">
        <ele>603.9</ele>
        <time>2010-09-20T06:47:40Z</time>
      </trkpt>
      <trkpt lat="38.286240" lon="-3.605670">
        <ele>604.1</ele>
        <time>2010-09-20T06:47:40Z</time>
      </trkpt>
      <trkpt lat="38.286384" lon="-3.605832">
        <ele>604.6</ele>
        <time>2010-09-20T06:47:40Z</time>
      </trkpt>
      <trkpt lat="38.286528" lon="-3.606064">
        <ele>604.8</ele>
        <time>2010-09-20T06:47:40Z</time>
      </trkpt>
      <trkpt lat="38.286744" lon="-3.606226">
        <ele>605.6</ele>
        <time>2010-09-20T06:47:40Z</time>
      </trkpt>
      <trkpt lat="38.286889" lon="-3.606365">
        <ele>605.3</ele>
        <time>2010-09-20T06:47:40Z</time>
      </trkpt>
      <trkpt lat="38.287033" lon="-3.606459">
        <ele>603.3</ele>
        <time>2010-09-20T06:47:40Z</time>
      </trkpt>
      <trkpt lat="38.287196" lon="-3.606598">
        <ele>600.5</ele>
        <time>2010-09-20T06:47:40Z</time>
      </trkpt>
      <trkpt lat="38.287413" lon="-3.606669">
        <ele>597.5</ele>
        <time>2010-09-20T06:47:40Z</time>
      </trkpt>
      <trkpt lat="38.287612" lon="-3.606809">
        <ele>593.7</ele>
        <time>2010-09-20T06:47:40Z</time>
      </trkpt>
      <trkpt lat="38.287738" lon="-3.606856">
        <ele>591.5</ele>
        <time>2010-09-20T06:47:40Z</time>
      </trkpt>
      <trkpt lat="38.287956" lon="-3.606857">
        <ele>588.1</ele>
        <time>2010-09-20T06:47:40Z</time>
      </trkpt>
      <trkpt lat="38.288137" lon="-3.606836">
        <ele>585.6</ele>
        <time>2010-09-20T06:47:40Z</time>
      </trkpt>
      <trkpt lat="38.288228" lon="-3.606814">
        <ele>584.5</ele>
        <time>2010-09-20T06:47:40Z</time>
      </trkpt>
      <trkpt lat="38.288337" lon="-3.606746">
        <ele>583.8</ele>
        <time>2010-09-20T06:47:40Z</time>
      </trkpt>
      <trkpt lat="38.288411" lon="-3.606562">
        <ele>585.3</ele>
        <time>2010-09-20T06:47:40Z</time>
      </trkpt>
      <trkpt lat="38.288465" lon="-3.606402">
        <ele>586.8</ele>
        <time>2010-09-20T06:47:40Z</time>
      </trkpt>
      <trkpt lat="38.288485" lon="-3.606264">
        <ele>588.5</ele>
        <time>2010-09-20T06:47:40Z</time>
      </trkpt>
      <trkpt lat="38.288449" lon="-3.606103">
        <ele>591.1</ele>
        <time>2010-09-20T06:47:40Z</time>
      </trkpt>
      <trkpt lat="38.288431" lon="-3.606011">
        <ele>591.8</ele>
        <time>2010-09-20T06:47:40Z</time>
      </trkpt>
      <trkpt lat="38.288414" lon="-3.605895">
        <ele>592.7</ele>
        <time>2010-09-20T06:47:40Z</time>
      </trkpt>
      <trkpt lat="38.288433" lon="-3.605781">
        <ele>593.1</ele>
        <time>2010-09-20T06:47:40Z</time>
      </trkpt>
      <trkpt lat="38.288487" lon="-3.605666">
        <ele>592.8</ele>
        <time>2010-09-20T06:47:40Z</time>
      </trkpt>
      <trkpt lat="38.288489" lon="-3.605413">
        <ele>594.0</ele>
        <time>2010-09-20T06:47:40Z</time>
      </trkpt>
      <trkpt lat="38.288490" lon="-3.605229">
        <ele>594.8</ele>
        <time>2010-09-20T06:47:40Z</time>
      </trkpt>
      <trkpt lat="38.288400" lon="-3.605021">
        <ele>597.0</ele>
        <time>2010-09-20T06:47:40Z</time>
      </trkpt>
      <trkpt lat="38.288473" lon="-3.604907">
        <ele>595.9</ele>
        <time>2010-09-20T06:47:40Z</time>
      </trkpt>
      <trkpt lat="38.288619" lon="-3.604885">
        <ele>593.5</ele>
        <time>2010-09-20T06:47:40Z</time>
      </trkpt>
      <trkpt lat="38.288782" lon="-3.604840">
        <ele>591.2</ele>
        <time>2010-09-20T06:47:40Z</time>
      </trkpt>
      <trkpt lat="38.288908" lon="-3.605048">
        <ele>588.0</ele>
        <time>2010-09-20T06:47:40Z</time>
      </trkpt>
      <trkpt lat="38.289016" lon="-3.605164">
        <ele>585.4</ele>
        <time>2010-09-20T06:47:40Z</time>
      </trkpt>
      <trkpt lat="38.289106" lon="-3.605372">
        <ele>582.3</ele>
        <time>2010-09-20T06:47:40Z</time>
      </trkpt>
      <trkpt lat="38.289231" lon="-3.605672">
        <ele>577.5</ele>
        <time>2010-09-20T06:47:40Z</time>
      </trkpt>
      <trkpt lat="38.289284" lon="-3.605857">
        <ele>574.8</ele>
        <time>2010-09-20T06:47:40Z</time>
      </trkpt>
      <trkpt lat="38.289392" lon="-3.606133">
        <ele>570.9</ele>
        <time>2010-09-20T06:47:40Z</time>
      </trkpt>
      <trkpt lat="38.289426" lon="-3.606387">
        <ele>568.3</ele>
        <time>2010-09-20T06:47:40Z</time>
      </trkpt>
      <trkpt lat="38.289498" lon="-3.606641">
        <ele>565.6</ele>
        <time>2010-09-20T06:47:40Z</time>
      </trkpt>
      <trkpt lat="38.289605" lon="-3.606871">
        <ele>563.2</ele>
        <time>2010-09-20T06:47:40Z</time>
      </trkpt>
      <trkpt lat="38.289731" lon="-3.607033">
        <ele>562.1</ele>
        <time>2010-09-20T06:47:40Z</time>
      </trkpt>
      <trkpt lat="38.289876" lon="-3.607195">
        <ele>561.2</ele>
        <time>2010-09-20T06:47:40Z</time>
      </trkpt>
      <trkpt lat="38.290038" lon="-3.607335">
        <ele>560.1</ele>
        <time>2010-09-20T06:47:40Z</time>
      </trkpt>
      <trkpt lat="38.290182" lon="-3.607497">
        <ele>558.5</ele>
        <time>2010-09-20T06:47:40Z</time>
      </trkpt>
      <trkpt lat="38.290236" lon="-3.607681">
        <ele>557.0</ele>
        <time>2010-09-20T06:47:40Z</time>
      </trkpt>
      <trkpt lat="38.290361" lon="-3.607913">
        <ele>556.4</ele>
        <time>2010-09-20T06:47:40Z</time>
      </trkpt>
      <trkpt lat="38.290559" lon="-3.608213">
        <ele>557.5</ele>
        <time>2010-09-20T06:47:40Z</time>
      </trkpt>
      <trkpt lat="38.290758" lon="-3.608376">
        <ele>559.7</ele>
        <time>2010-09-20T06:47:40Z</time>
      </trkpt>
      <trkpt lat="38.290957" lon="-3.608400">
        <ele>562.1</ele>
        <time>2010-09-20T06:47:40Z</time>
      </trkpt>
      <trkpt lat="38.291228" lon="-3.608495">
        <ele>563.3</ele>
        <time>2010-09-20T06:47:40Z</time>
      </trkpt>
      <trkpt lat="38.291391" lon="-3.608611">
        <ele>564.0</ele>
        <time>2010-09-20T06:47:40Z</time>
      </trkpt>
      <trkpt lat="38.291554" lon="-3.608728">
        <ele>563.6</ele>
        <time>2010-09-20T06:47:40Z</time>
      </trkpt>
      <trkpt lat="38.291753" lon="-3.608798">
        <ele>563.2</ele>
        <time>2010-09-20T06:47:40Z</time>
      </trkpt>
      <trkpt lat="38.291952" lon="-3.608777">
        <ele>562.4</ele>
        <time>2010-09-20T06:47:40Z</time>
      </trkpt>
      <trkpt lat="38.292134" lon="-3.608755">
        <ele>560.8</ele>
        <time>2010-09-20T06:47:40Z</time>
      </trkpt>
      <trkpt lat="38.292261" lon="-3.608779">
        <ele>559.4</ele>
        <time>2010-09-20T06:47:40Z</time>
      </trkpt>
      <trkpt lat="38.292423" lon="-3.608896">
        <ele>556.8</ele>
        <time>2010-09-20T06:47:40Z</time>
      </trkpt>
      <trkpt lat="38.292568" lon="-3.608920">
        <ele>555.1</ele>
        <time>2010-09-20T06:47:40Z</time>
      </trkpt>
      <trkpt lat="38.292748" lon="-3.609082">
        <ele>551.7</ele>
        <time>2010-09-20T06:47:40Z</time>
      </trkpt>
      <trkpt lat="38.292929" lon="-3.609176">
        <ele>550.0</ele>
        <time>2010-09-20T06:47:40Z</time>
      </trkpt>
      <trkpt lat="38.293039" lon="-3.608993">
        <ele>551.2</ele>
        <time>2010-09-20T06:47:40Z</time>
      </trkpt>
      <trkpt lat="38.293094" lon="-3.608833">
        <ele>552.3</ele>
        <time>2010-09-20T06:47:40Z</time>
      </trkpt>
      <trkpt lat="38.293113" lon="-3.608649">
        <ele>553.7</ele>
        <time>2010-09-20T06:47:40Z</time>
      </trkpt>
      <trkpt lat="38.293168" lon="-3.608465">
        <ele>552.3</ele>
        <time>2010-09-20T06:47:40Z</time>
      </trkpt>
      <trkpt lat="38.293242" lon="-3.608328">
        <ele>550.4</ele>
        <time>2010-09-20T06:47:40Z</time>
      </trkpt>
      <trkpt lat="38.293297" lon="-3.608190">
        <ele>548.6</ele>
        <time>2010-09-20T06:47:40Z</time>
      </trkpt>
      <trkpt lat="38.293352" lon="-3.608029">
        <ele>546.5</ele>
        <time>2010-09-20T06:47:40Z</time>
      </trkpt>
      <trkpt lat="38.293316" lon="-3.607937">
        <ele>546.0</ele>
        <time>2010-09-20T06:47:40Z</time>
      </trkpt>
      <trkpt lat="38.293317" lon="-3.607845">
        <ele>545.1</ele>
        <time>2010-09-20T06:47:40Z</time>
      </trkpt>
      <trkpt lat="38.293353" lon="-3.607776">
        <ele>544.0</ele>
        <time>2010-09-20T06:47:40Z</time>
      </trkpt>
      <trkpt lat="38.293317" lon="-3.607661">
        <ele>543.1</ele>
        <time>2010-09-20T06:47:40Z</time>
      </trkpt>
      <trkpt lat="38.293409" lon="-3.607455">
        <ele>539.6</ele>
        <time>2010-09-20T06:47:40Z</time>
      </trkpt>
      <trkpt lat="38.293410" lon="-3.607317">
        <ele>538.1</ele>
        <time>2010-09-20T06:47:40Z</time>
      </trkpt>
      <trkpt lat="38.293483" lon="-3.607202">
        <ele>536.1</ele>
        <time>2010-09-20T06:47:40Z</time>
      </trkpt>
      <trkpt lat="38.293520" lon="-3.607065">
        <ele>534.3</ele>
        <time>2010-09-20T06:47:40Z</time>
      </trkpt>
      <trkpt lat="38.293593" lon="-3.607019">
        <ele>532.8</ele>
        <time>2010-09-20T06:47:40Z</time>
      </trkpt>
      <trkpt lat="38.293684" lon="-3.606974">
        <ele>531.1</ele>
        <time>2010-09-20T06:47:40Z</time>
      </trkpt>
      <trkpt lat="38.293721" lon="-3.606882">
        <ele>530.2</ele>
        <time>2010-09-20T06:47:40Z</time>
      </trkpt>
      <trkpt lat="38.293830" lon="-3.606676">
        <ele>528.2</ele>
        <time>2010-09-20T06:47:40Z</time>
      </trkpt>
      <trkpt lat="38.293831" lon="-3.606561">
        <ele>527.9</ele>
        <time>2010-09-20T06:47:40Z</time>
      </trkpt>
      <trkpt lat="38.293832" lon="-3.606378">
        <ele>527.3</ele>
        <time>2010-09-20T06:47:40Z</time>
      </trkpt>
      <trkpt lat="38.293815" lon="-3.606147">
        <ele>526.7</ele>
        <time>2010-09-20T06:47:40Z</time>
      </trkpt>
      <trkpt lat="38.293870" lon="-3.605987">
        <ele>526.8</ele>
        <time>2010-09-20T06:47:40Z</time>
      </trkpt>
      <trkpt lat="38.293853" lon="-3.605894">
        <ele>527.1</ele>
        <time>2010-09-20T06:47:40Z</time>
      </trkpt>
      <trkpt lat="38.293853" lon="-3.605734">
        <ele>527.6</ele>
        <time>2010-09-20T06:47:40Z</time>
      </trkpt>
      <trkpt lat="38.293818" lon="-3.605572">
        <ele>528.2</ele>
        <time>2010-09-20T06:47:40Z</time>
      </trkpt>
      <trkpt lat="38.293782" lon="-3.605388">
        <ele>528.7</ele>
        <time>2010-09-20T06:47:40Z</time>
      </trkpt>
      <trkpt lat="38.293802" lon="-3.605227">
        <ele>529.1</ele>
        <time>2010-09-20T06:47:40Z</time>
      </trkpt>
      <trkpt lat="38.293820" lon="-3.605135">
        <ele>529.2</ele>
        <time>2010-09-20T06:47:40Z</time>
      </trkpt>
      <trkpt lat="38.293875" lon="-3.604974">
        <ele>529.6</ele>
        <time>2010-09-20T06:47:40Z</time>
      </trkpt>
      <trkpt lat="38.293876" lon="-3.604813">
        <ele>529.9</ele>
        <time>2010-09-20T06:47:40Z</time>
      </trkpt>
      <trkpt lat="38.293877" lon="-3.604653">
        <ele>530.1</ele>
        <time>2010-09-20T06:47:40Z</time>
      </trkpt>
      <trkpt lat="38.293842" lon="-3.604468">
        <ele>530.2</ele>
        <time>2010-09-20T06:47:40Z</time>
      </trkpt>
      <trkpt lat="38.293788" lon="-3.604261">
        <ele>530.1</ele>
        <time>2010-09-20T06:47:40Z</time>
      </trkpt>
      <trkpt lat="38.293753" lon="-3.604076">
        <ele>530.1</ele>
        <time>2010-09-20T06:47:40Z</time>
      </trkpt>
      <trkpt lat="38.293682" lon="-3.603846">
        <ele>529.8</ele>
        <time>2010-09-20T06:47:40Z</time>
      </trkpt>
      <trkpt lat="38.293628" lon="-3.603684">
        <ele>529.6</ele>
        <time>2010-09-20T06:47:40Z</time>
      </trkpt>
      <trkpt lat="38.293611" lon="-3.603454">
        <ele>530.0</ele>
        <time>2010-09-20T06:47:40Z</time>
      </trkpt>
      <trkpt lat="38.293576" lon="-3.603339">
        <ele>530.1</ele>
        <time>2010-09-20T06:47:40Z</time>
      </trkpt>
      <trkpt lat="38.293540" lon="-3.603201">
        <ele>530.1</ele>
        <time>2010-09-20T06:47:40Z</time>
      </trkpt>
      <trkpt lat="38.293540" lon="-3.603086">
        <ele>530.4</ele>
        <time>2010-09-20T06:47:40Z</time>
      </trkpt>
      <trkpt lat="38.293541" lon="-3.602993">
        <ele>530.6</ele>
        <time>2010-09-20T06:47:40Z</time>
      </trkpt>
      <trkpt lat="38.293633" lon="-3.602834">
        <ele>531.9</ele>
        <time>2010-09-20T06:47:40Z</time>
      </trkpt>
      <trkpt lat="38.293706" lon="-3.602673">
        <ele>532.8</ele>
        <time>2010-09-20T06:47:40Z</time>
      </trkpt>
      <trkpt lat="38.293779" lon="-3.602536">
        <ele>533.8</ele>
        <time>2010-09-20T06:47:40Z</time>
      </trkpt>
      <trkpt lat="38.293907" lon="-3.602376">
        <ele>535.5</ele>
        <time>2010-09-20T06:47:40Z</time>
      </trkpt>
      <trkpt lat="38.293962" lon="-3.602192">
        <ele>536.6</ele>
        <time>2010-09-20T06:47:40Z</time>
      </trkpt>
      <trkpt lat="38.294054" lon="-3.602055">
        <ele>538.3</ele>
        <time>2010-09-20T06:47:40Z</time>
      </trkpt>
      <trkpt lat="38.294145" lon="-3.601848">
        <ele>540.0</ele>
        <time>2010-09-20T06:47:40Z</time>
      </trkpt>
      <trkpt lat="38.294255" lon="-3.601619">
        <ele>541.9</ele>
        <time>2010-09-20T06:47:40Z</time>
      </trkpt>
      <trkpt lat="38.294329" lon="-3.601459">
        <ele>543.1</ele>
        <time>2010-09-20T06:47:40Z</time>
      </trkpt>
      <trkpt lat="38.294329" lon="-3.601298">
        <ele>543.3</ele>
        <time>2010-09-20T06:47:40Z</time>
      </trkpt>
      <trkpt lat="38.294312" lon="-3.601137">
        <ele>543.3</ele>
        <time>2010-09-20T06:47:40Z</time>
      </trkpt>
      <trkpt lat="38.294422" lon="-3.600862">
        <ele>544.4</ele>
        <time>2010-09-20T06:47:40Z</time>
      </trkpt>
      <trkpt lat="38.294514" lon="-3.600655">
        <ele>545.3</ele>
        <time>2010-09-20T06:47:40Z</time>
      </trkpt>
      <trkpt lat="38.294533" lon="-3.600448">
        <ele>545.0</ele>
        <time>2010-09-20T06:47:40Z</time>
      </trkpt>
      <trkpt lat="38.294534" lon="-3.600264">
        <ele>544.6</ele>
        <time>2010-09-20T06:47:40Z</time>
      </trkpt>
      <trkpt lat="38.294553" lon="-3.600149">
        <ele>545.6</ele>
        <time>2010-09-20T06:47:40Z</time>
      </trkpt>
      <trkpt lat="38.294663" lon="-3.599944">
        <ele>548.2</ele>
        <time>2010-09-20T06:47:40Z</time>
      </trkpt>
      <trkpt lat="38.294645" lon="-3.599805">
        <ele>548.7</ele>
        <time>2010-09-20T06:47:40Z</time>
      </trkpt>
      <trkpt lat="38.294646" lon="-3.599713">
        <ele>549.3</ele>
        <time>2010-09-20T06:47:40Z</time>
      </trkpt>
      <trkpt lat="38.294646" lon="-3.599575">
        <ele>550.0</ele>
        <time>2010-09-20T06:47:40Z</time>
      </trkpt>
      <trkpt lat="38.294647" lon="-3.599437">
        <ele>550.9</ele>
        <time>2010-09-20T06:47:40Z</time>
      </trkpt>
      <trkpt lat="38.294648" lon="-3.599253">
        <ele>553.0</ele>
        <time>2010-09-20T06:47:40Z</time>
      </trkpt>
      <trkpt lat="38.294722" lon="-3.598978">
        <ele>556.8</ele>
        <time>2010-09-20T06:47:40Z</time>
      </trkpt>
      <trkpt lat="38.294723" lon="-3.598771">
        <ele>559.2</ele>
        <time>2010-09-20T06:47:40Z</time>
      </trkpt>
      <trkpt lat="38.294724" lon="-3.598495">
        <ele>561.8</ele>
        <time>2010-09-20T06:47:40Z</time>
      </trkpt>
      <trkpt lat="38.294672" lon="-3.598195">
        <ele>563.0</ele>
        <time>2010-09-20T06:47:40Z</time>
      </trkpt>
      <trkpt lat="38.294709" lon="-3.597988">
        <ele>564.6</ele>
        <time>2010-09-20T06:47:40Z</time>
      </trkpt>
      <trkpt lat="38.294711" lon="-3.597689">
        <ele>566.7</ele>
        <time>2010-09-20T06:47:40Z</time>
      </trkpt>
      <trkpt lat="38.294711" lon="-3.597506">
        <ele>568.4</ele>
        <time>2010-09-20T06:47:40Z</time>
      </trkpt>
      <trkpt lat="38.294766" lon="-3.597368">
        <ele>570.4</ele>
        <time>2010-09-20T06:47:40Z</time>
      </trkpt>
      <trkpt lat="38.294858" lon="-3.597162">
        <ele>573.3</ele>
        <time>2010-09-20T06:47:40Z</time>
      </trkpt>
      <trkpt lat="38.294877" lon="-3.596955">
        <ele>575.5</ele>
        <time>2010-09-20T06:47:40Z</time>
      </trkpt>
      <trkpt lat="38.294897" lon="-3.596748">
        <ele>578.5</ele>
        <time>2010-09-20T06:47:40Z</time>
      </trkpt>
      <trkpt lat="38.294898" lon="-3.596518">
        <ele>581.6</ele>
        <time>2010-09-20T06:47:40Z</time>
      </trkpt>
      <trkpt lat="38.294935" lon="-3.596288">
        <ele>584.7</ele>
        <time>2010-09-20T06:47:40Z</time>
      </trkpt>
      <trkpt lat="38.294990" lon="-3.596058">
        <ele>587.6</ele>
        <time>2010-09-20T06:47:40Z</time>
      </trkpt>
      <trkpt lat="38.295046" lon="-3.595806">
        <ele>591.3</ele>
        <time>2010-09-20T06:47:40Z</time>
      </trkpt>
      <trkpt lat="38.295101" lon="-3.595623">
        <ele>593.7</ele>
        <time>2010-09-20T06:47:40Z</time>
      </trkpt>
      <trkpt lat="38.295247" lon="-3.595508">
        <ele>594.8</ele>
        <time>2010-09-20T06:47:40Z</time>
      </trkpt>
      <trkpt lat="38.295230" lon="-3.595347">
        <ele>597.1</ele>
        <time>2010-09-20T06:47:40Z</time>
      </trkpt>
      <trkpt lat="38.295340" lon="-3.595141">
        <ele>599.6</ele>
        <time>2010-09-20T06:47:40Z</time>
      </trkpt>
      <trkpt lat="38.295413" lon="-3.594935">
        <ele>602.3</ele>
        <time>2010-09-20T06:47:40Z</time>
      </trkpt>
      <trkpt lat="38.295523" lon="-3.594774">
        <ele>604.4</ele>
        <time>2010-09-20T06:47:40Z</time>
      </trkpt>
      <trkpt lat="38.295578" lon="-3.594614">
        <ele>606.7</ele>
        <time>2010-09-20T06:47:40Z</time>
      </trkpt>
      <trkpt lat="38.295651" lon="-3.594431">
        <ele>609.2</ele>
        <time>2010-09-20T06:47:40Z</time>
      </trkpt>
      <trkpt lat="38.295761" lon="-3.594293">
        <ele>610.5</ele>
        <time>2010-09-20T06:47:40Z</time>
      </trkpt>
      <trkpt lat="38.295853" lon="-3.594041">
        <ele>612.7</ele>
        <time>2010-09-20T06:47:40Z</time>
      </trkpt>
      <trkpt lat="38.295962" lon="-3.593881">
        <ele>614.5</ele>
        <time>2010-09-20T06:47:40Z</time>
      </trkpt>
      <trkpt lat="38.296036" lon="-3.593698">
        <ele>616.3</ele>
        <time>2010-09-20T06:47:40Z</time>
      </trkpt>
      <trkpt lat="38.296055" lon="-3.593514">
        <ele>616.9</ele>
        <time>2010-09-20T06:47:40Z</time>
      </trkpt>
      <trkpt lat="38.296146" lon="-3.593354">
        <ele>616.8</ele>
        <time>2010-09-20T06:47:40Z</time>
      </trkpt>
      <trkpt lat="38.296147" lon="-3.593170">
        <ele>616.6</ele>
        <time>2010-09-20T06:47:40Z</time>
      </trkpt>
      <trkpt lat="38.296148" lon="-3.593031">
        <ele>616.5</ele>
        <time>2010-09-20T06:47:40Z</time>
      </trkpt>
      <trkpt lat="38.296167" lon="-3.592917">
        <ele>616.4</ele>
        <time>2010-09-20T06:47:40Z</time>
      </trkpt>
      <trkpt lat="38.296167" lon="-3.592756">
        <ele>616.4</ele>
        <time>2010-09-20T06:47:40Z</time>
      </trkpt>
      <trkpt lat="38.296168" lon="-3.592641">
        <ele>616.6</ele>
        <time>2010-09-20T06:47:40Z</time>
      </trkpt>
      <trkpt lat="38.296187" lon="-3.592480">
        <ele>616.9</ele>
        <time>2010-09-20T06:47:40Z</time>
      </trkpt>
      <trkpt lat="38.296188" lon="-3.592319">
        <ele>617.2</ele>
        <time>2010-09-20T06:47:40Z</time>
      </trkpt>
      <trkpt lat="38.296262" lon="-3.591998">
        <ele>618.0</ele>
        <time>2010-09-20T06:47:40Z</time>
      </trkpt>
      <trkpt lat="38.296245" lon="-3.591790">
        <ele>618.6</ele>
        <time>2010-09-20T06:47:40Z</time>
      </trkpt>
      <trkpt lat="38.296245" lon="-3.591629">
        <ele>619.2</ele>
        <time>2010-09-20T06:47:40Z</time>
      </trkpt>
      <trkpt lat="38.296247" lon="-3.591445">
        <ele>619.9</ele>
        <time>2010-09-20T06:47:40Z</time>
      </trkpt>
      <trkpt lat="38.296247" lon="-3.591238">
        <ele>620.6</ele>
        <time>2010-09-20T06:47:40Z</time>
      </trkpt>
      <trkpt lat="38.296285" lon="-3.591008">
        <ele>621.9</ele>
        <time>2010-09-20T06:47:40Z</time>
      </trkpt>
      <trkpt lat="38.296286" lon="-3.590778">
        <ele>623.3</ele>
        <time>2010-09-20T06:47:40Z</time>
      </trkpt>
      <trkpt lat="38.296269" lon="-3.590594">
        <ele>624.3</ele>
        <time>2010-09-20T06:47:40Z</time>
      </trkpt>
      <trkpt lat="38.296252" lon="-3.590410">
        <ele>625.3</ele>
        <time>2010-09-20T06:47:40Z</time>
      </trkpt>
      <trkpt lat="38.296235" lon="-3.590249">
        <ele>626.2</ele>
        <time>2010-09-20T06:47:40Z</time>
      </trkpt>
      <trkpt lat="38.296199" lon="-3.590134">
        <ele>626.5</ele>
        <time>2010-09-20T06:47:40Z</time>
      </trkpt>
      <trkpt lat="38.296163" lon="-3.589972">
        <ele>627.1</ele>
        <time>2010-09-20T06:47:40Z</time>
      </trkpt>
      <trkpt lat="38.296164" lon="-3.589857">
        <ele>627.7</ele>
        <time>2010-09-20T06:47:40Z</time>
      </trkpt>
      <trkpt lat="38.296183" lon="-3.589697">
        <ele>628.6</ele>
        <time>2010-09-20T06:47:40Z</time>
      </trkpt>
      <trkpt lat="38.296202" lon="-3.589536">
        <ele>629.4</ele>
        <time>2010-09-20T06:47:40Z</time>
      </trkpt>
      <trkpt lat="38.296202" lon="-3.589443">
        <ele>629.8</ele>
        <time>2010-09-20T06:47:40Z</time>
      </trkpt>
      <trkpt lat="38.296221" lon="-3.589260">
        <ele>629.9</ele>
        <time>2010-09-20T06:47:40Z</time>
      </trkpt>
      <trkpt lat="38.296222" lon="-3.589098">
        <ele>629.8</ele>
        <time>2010-09-20T06:47:40Z</time>
      </trkpt>
      <trkpt lat="38.296277" lon="-3.589007">
        <ele>630.0</ele>
        <time>2010-09-20T06:47:40Z</time>
      </trkpt>
      <trkpt lat="38.296369" lon="-3.588824">
        <ele>630.3</ele>
        <time>2010-09-20T06:47:40Z</time>
      </trkpt>
      <trkpt lat="38.296370" lon="-3.588594">
        <ele>630.2</ele>
        <time>2010-09-20T06:47:40Z</time>
      </trkpt>
      <trkpt lat="38.296352" lon="-3.588479">
        <ele>629.7</ele>
        <time>2010-09-20T06:47:40Z</time>
      </trkpt>
      <trkpt lat="38.296353" lon="-3.588387">
        <ele>629.5</ele>
        <time>2010-09-20T06:47:40Z</time>
      </trkpt>
      <trkpt lat="38.296353" lon="-3.588272">
        <ele>629.1</ele>
        <time>2010-09-20T06:47:40Z</time>
      </trkpt>
      <trkpt lat="38.296354" lon="-3.588157">
        <ele>628.8</ele>
        <time>2010-09-20T06:47:40Z</time>
      </trkpt>
      <trkpt lat="38.296355" lon="-3.588042">
        <ele>628.4</ele>
        <time>2010-09-20T06:47:40Z</time>
      </trkpt>
      <trkpt lat="38.296355" lon="-3.587903">
        <ele>628.0</ele>
        <time>2010-09-20T06:47:40Z</time>
      </trkpt>
      <trkpt lat="38.296428" lon="-3.587812">
        <ele>627.6</ele>
        <time>2010-09-20T06:47:40Z</time>
      </trkpt>
      <trkpt lat="38.296519" lon="-3.587721">
        <ele>627.3</ele>
        <time>2010-09-20T06:47:40Z</time>
      </trkpt>
      <trkpt lat="38.296664" lon="-3.587653">
        <ele>627.0</ele>
        <time>2010-09-20T06:47:40Z</time>
      </trkpt>
      <trkpt lat="38.296828" lon="-3.587608">
        <ele>626.6</ele>
        <time>2010-09-20T06:47:40Z</time>
      </trkpt>
      <trkpt lat="38.297010" lon="-3.587518">
        <ele>625.3</ele>
        <time>2010-09-20T06:47:40Z</time>
      </trkpt>
      <trkpt lat="38.297155" lon="-3.587450">
        <ele>624.1</ele>
        <time>2010-09-20T06:47:40Z</time>
      </trkpt>
      <trkpt lat="38.297282" lon="-3.587336">
        <ele>622.9</ele>
        <time>2010-09-20T06:47:40Z</time>
      </trkpt>
      <trkpt lat="38.297392" lon="-3.587245">
        <ele>621.9</ele>
        <time>2010-09-20T06:47:40Z</time>
      </trkpt>
      <trkpt lat="38.297465" lon="-3.587176">
        <ele>621.2</ele>
        <time>2010-09-20T06:47:40Z</time>
      </trkpt>
      <trkpt lat="38.297610" lon="-3.587017">
        <ele>619.8</ele>
        <time>2010-09-20T06:47:40Z</time>
      </trkpt>
      <trkpt lat="38.297683" lon="-3.586902">
        <ele>619.4</ele>
        <time>2010-09-20T06:47:40Z</time>
      </trkpt>
      <trkpt lat="38.297829" lon="-3.586788">
        <ele>619.8</ele>
        <time>2010-09-20T06:47:40Z</time>
      </trkpt>
      <trkpt lat="38.298028" lon="-3.586744">
        <ele>619.7</ele>
        <time>2010-09-20T06:47:40Z</time>
      </trkpt>
      <trkpt lat="38.298173" lon="-3.586814">
        <ele>619.1</ele>
        <time>2010-09-20T06:47:40Z</time>
      </trkpt>
      <trkpt lat="38.298318" lon="-3.586953">
        <ele>618.3</ele>
        <time>2010-09-20T06:47:40Z</time>
      </trkpt>
      <trkpt lat="38.298480" lon="-3.586954">
        <ele>618.1</ele>
        <time>2010-09-20T06:47:40Z</time>
      </trkpt>
      <trkpt lat="38.298608" lon="-3.586956">
        <ele>618.2</ele>
        <time>2010-09-20T06:47:40Z</time>
      </trkpt>
      <trkpt lat="38.298807" lon="-3.586934">
        <ele>618.7</ele>
        <time>2010-09-20T06:47:40Z</time>
      </trkpt>
      <trkpt lat="38.298989" lon="-3.586844">
        <ele>619.6</ele>
        <time>2010-09-20T06:47:40Z</time>
      </trkpt>
      <trkpt lat="38.299116" lon="-3.586822">
        <ele>620.0</ele>
        <time>2010-09-20T06:47:40Z</time>
      </trkpt>
      <trkpt lat="38.299225" lon="-3.586776">
        <ele>620.5</ele>
        <time>2010-09-20T06:47:40Z</time>
      </trkpt>
      <trkpt lat="38.299297" lon="-3.586731">
        <ele>620.9</ele>
        <time>2010-09-20T06:47:40Z</time>
      </trkpt>
      <trkpt lat="38.299388" lon="-3.586686">
        <ele>621.5</ele>
        <time>2010-09-20T06:47:40Z</time>
      </trkpt>
      <trkpt lat="38.299534" lon="-3.586641">
        <ele>623.1</ele>
        <time>2010-09-20T06:47:40Z</time>
      </trkpt>
      <trkpt lat="38.299661" lon="-3.586642">
        <ele>624.3</ele>
        <time>2010-09-20T06:47:40Z</time>
      </trkpt>
      <trkpt lat="38.299715" lon="-3.586596">
        <ele>625.0</ele>
        <time>2010-09-20T06:47:40Z</time>
      </trkpt>
      <trkpt lat="38.299661" lon="-3.586596">
        <ele>624.5</ele>
        <time>2010-09-20T06:47:40Z</time>
      </trkpt>
      <trkpt lat="38.299806" lon="-3.586597">
        <ele>625.8</ele>
        <time>2010-09-20T06:47:40Z</time>
      </trkpt>
      <trkpt lat="38.299969" lon="-3.586552">
        <ele>627.4</ele>
        <time>2010-09-20T06:47:40Z</time>
      </trkpt>
      <trkpt lat="38.300151" lon="-3.586508">
        <ele>629.1</ele>
        <time>2010-09-20T06:47:40Z</time>
      </trkpt>
      <trkpt lat="38.300296" lon="-3.586509">
        <ele>631.2</ele>
        <time>2010-09-20T06:47:40Z</time>
      </trkpt>
      <trkpt lat="38.300496" lon="-3.586511">
        <ele>634.3</ele>
        <time>2010-09-20T06:47:40Z</time>
      </trkpt>
      <trkpt lat="38.300604" lon="-3.586511">
        <ele>636.1</ele>
        <time>2010-09-20T06:47:40Z</time>
      </trkpt>
      <trkpt lat="38.300731" lon="-3.586513">
        <ele>638.1</ele>
        <time>2010-09-20T06:47:40Z</time>
      </trkpt>
      <trkpt lat="38.300840" lon="-3.586582">
        <ele>640.1</ele>
        <time>2010-09-20T06:47:40Z</time>
      </trkpt>
      <trkpt lat="38.300893" lon="-3.586675">
        <ele>641.4</ele>
        <time>2010-09-20T06:47:40Z</time>
      </trkpt>
      <trkpt lat="38.301002" lon="-3.586676">
        <ele>643.2</ele>
        <time>2010-09-20T06:47:40Z</time>
      </trkpt>
      <trkpt lat="38.301111" lon="-3.586677">
        <ele>645.0</ele>
        <time>2010-09-20T06:47:40Z</time>
      </trkpt>
      <trkpt lat="38.301256" lon="-3.586655">
        <ele>647.1</ele>
        <time>2010-09-20T06:47:40Z</time>
      </trkpt>
      <trkpt lat="38.301383" lon="-3.586656">
        <ele>649.1</ele>
        <time>2010-09-20T06:47:40Z</time>
      </trkpt>
      <trkpt lat="38.301528" lon="-3.586657">
        <ele>651.4</ele>
        <time>2010-09-20T06:47:40Z</time>
      </trkpt>
      <trkpt lat="38.301636" lon="-3.586727">
        <ele>653.4</ele>
        <time>2010-09-20T06:47:40Z</time>
      </trkpt>
      <trkpt lat="38.301818" lon="-3.586728">
        <ele>656.2</ele>
        <time>2010-09-20T06:47:40Z</time>
      </trkpt>
      <trkpt lat="38.301963" lon="-3.586729">
        <ele>657.1</ele>
        <time>2010-09-20T06:47:40Z</time>
      </trkpt>
      <trkpt lat="38.302162" lon="-3.586708">
        <ele>657.3</ele>
        <time>2010-09-20T06:47:40Z</time>
      </trkpt>
      <trkpt lat="38.302217" lon="-3.586663">
        <ele>657.4</ele>
        <time>2010-09-20T06:47:40Z</time>
      </trkpt>
      <trkpt lat="38.302506" lon="-3.586711">
        <ele>657.9</ele>
        <time>2010-09-20T06:47:40Z</time>
      </trkpt>
      <trkpt lat="38.302670" lon="-3.586666">
        <ele>658.3</ele>
        <time>2010-09-20T06:47:40Z</time>
      </trkpt>
      <trkpt lat="38.302797" lon="-3.586621">
        <ele>657.9</ele>
        <time>2010-09-20T06:47:40Z</time>
      </trkpt>
      <trkpt lat="38.302978" lon="-3.586623">
        <ele>656.6</ele>
        <time>2010-09-20T06:47:40Z</time>
      </trkpt>
      <trkpt lat="38.303069" lon="-3.586577">
        <ele>656.4</ele>
        <time>2010-09-20T06:47:40Z</time>
      </trkpt>
      <trkpt lat="38.303251" lon="-3.586556">
        <ele>655.4</ele>
        <time>2010-09-20T06:47:40Z</time>
      </trkpt>
      <trkpt lat="38.303359" lon="-3.586533">
        <ele>655.0</ele>
        <time>2010-09-20T06:47:40Z</time>
      </trkpt>
      <trkpt lat="38.303450" lon="-3.586465">
        <ele>655.4</ele>
        <time>2010-09-20T06:47:40Z</time>
      </trkpt>
      <trkpt lat="38.303596" lon="-3.586443">
        <ele>655.0</ele>
        <time>2010-09-20T06:47:40Z</time>
      </trkpt>
      <trkpt lat="38.303723" lon="-3.586353">
        <ele>655.8</ele>
        <time>2010-09-20T06:47:40Z</time>
      </trkpt>
      <trkpt lat="38.303886" lon="-3.586331">
        <ele>655.4</ele>
        <time>2010-09-20T06:47:40Z</time>
      </trkpt>
      <trkpt lat="38.304068" lon="-3.586332">
        <ele>654.6</ele>
        <time>2010-09-20T06:47:40Z</time>
      </trkpt>
      <trkpt lat="38.304212" lon="-3.586402">
        <ele>652.9</ele>
        <time>2010-09-20T06:47:40Z</time>
      </trkpt>
      <trkpt lat="38.304266" lon="-3.586587">
        <ele>649.6</ele>
        <time>2010-09-20T06:47:40Z</time>
      </trkpt>
      <trkpt lat="38.304392" lon="-3.586703">
        <ele>647.1</ele>
        <time>2010-09-20T06:47:40Z</time>
      </trkpt>
      <trkpt lat="38.304482" lon="-3.586842">
        <ele>644.7</ele>
        <time>2010-09-20T06:47:40Z</time>
      </trkpt>
      <trkpt lat="38.304608" lon="-3.587004">
        <ele>641.5</ele>
        <time>2010-09-20T06:47:40Z</time>
      </trkpt>
      <trkpt lat="38.304735" lon="-3.587005">
        <ele>641.3</ele>
        <time>2010-09-20T06:47:40Z</time>
      </trkpt>
      <trkpt lat="38.304862" lon="-3.586960">
        <ele>642.2</ele>
        <time>2010-09-20T06:47:40Z</time>
      </trkpt>
      <trkpt lat="38.304917" lon="-3.586914">
        <ele>643.0</ele>
        <time>2010-09-20T06:47:40Z</time>
      </trkpt>
      <trkpt lat="38.304917" lon="-3.586845">
        <ele>644.2</ele>
        <time>2010-09-20T06:47:40Z</time>
      </trkpt>
      <trkpt lat="38.304917" lon="-3.586707">
        <ele>646.6</ele>
        <time>2010-09-20T06:47:40Z</time>
      </trkpt>
      <trkpt lat="38.304973" lon="-3.586616">
        <ele>648.2</ele>
        <time>2010-09-20T06:47:40Z</time>
      </trkpt>
      <trkpt lat="38.304991" lon="-3.586546">
        <ele>649.4</ele>
        <time>2010-09-20T06:47:40Z</time>
      </trkpt>
      <trkpt lat="38.305064" lon="-3.586478">
        <ele>650.6</ele>
        <time>2010-09-20T06:47:40Z</time>
      </trkpt>
      <trkpt lat="38.305082" lon="-3.586409">
        <ele>651.8</ele>
        <time>2010-09-20T06:47:40Z</time>
      </trkpt>
      <trkpt lat="38.305137" lon="-3.586295">
        <ele>653.8</ele>
        <time>2010-09-20T06:47:40Z</time>
      </trkpt>
      <trkpt lat="38.305138" lon="-3.586157">
        <ele>656.3</ele>
        <time>2010-09-20T06:47:40Z</time>
      </trkpt>
      <trkpt lat="38.305139" lon="-3.586065">
        <ele>657.5</ele>
        <time>2010-09-20T06:47:40Z</time>
      </trkpt>
      <trkpt lat="38.305175" lon="-3.585950">
        <ele>658.6</ele>
        <time>2010-09-20T06:47:40Z</time>
      </trkpt>
      <trkpt lat="38.305176" lon="-3.585789">
        <ele>660.2</ele>
        <time>2010-09-20T06:47:40Z</time>
      </trkpt>
      <trkpt lat="38.305176" lon="-3.585697">
        <ele>661.0</ele>
        <time>2010-09-20T06:47:40Z</time>
      </trkpt>
      <trkpt lat="38.305177" lon="-3.585628">
        <ele>661.7</ele>
        <time>2010-09-20T06:47:40Z</time>
      </trkpt>
      <trkpt lat="38.305178" lon="-3.585490">
        <ele>663.0</ele>
        <time>2010-09-20T06:47:40Z</time>
      </trkpt>
      <trkpt lat="38.305214" lon="-3.585398">
        <ele>663.5</ele>
        <time>2010-09-20T06:47:40Z</time>
      </trkpt>
      <trkpt lat="38.305288" lon="-3.585261">
        <ele>663.3</ele>
        <time>2010-09-20T06:47:40Z</time>
      </trkpt>
      <trkpt lat="38.305342" lon="-3.585215">
        <ele>662.5</ele>
        <time>2010-09-20T06:47:40Z</time>
      </trkpt>
      <trkpt lat="38.305433" lon="-3.585193">
        <ele>660.9</ele>
        <time>2010-09-20T06:47:40Z</time>
      </trkpt>
      <trkpt lat="38.305523" lon="-3.585171">
        <ele>659.3</ele>
        <time>2010-09-20T06:47:40Z</time>
      </trkpt>
      <trkpt lat="38.305597" lon="-3.585102">
        <ele>658.4</ele>
        <time>2010-09-20T06:47:40Z</time>
      </trkpt>
      <trkpt lat="38.305669" lon="-3.585103">
        <ele>657.0</ele>
        <time>2010-09-20T06:47:40Z</time>
      </trkpt>
      <trkpt lat="38.305759" lon="-3.585173">
        <ele>654.6</ele>
        <time>2010-09-20T06:47:40Z</time>
      </trkpt>
      <trkpt lat="38.305922" lon="-3.585174">
        <ele>651.3</ele>
        <time>2010-09-20T06:47:40Z</time>
      </trkpt>
      <trkpt lat="38.306032" lon="-3.585152">
        <ele>649.4</ele>
        <time>2010-09-20T06:47:40Z</time>
      </trkpt>
      <trkpt lat="38.306068" lon="-3.585037">
        <ele>649.8</ele>
        <time>2010-09-20T06:47:40Z</time>
      </trkpt>
      <trkpt lat="38.306123" lon="-3.584946">
        <ele>649.8</ele>
        <time>2010-09-20T06:47:40Z</time>
      </trkpt>
      <trkpt lat="38.306214" lon="-3.584785">
        <ele>649.9</ele>
        <time>2010-09-20T06:47:40Z</time>
      </trkpt>
      <trkpt lat="38.306375" lon="-3.584700">
        <ele>648.2</ele>
        <time>2010-09-20T06:47:40Z</time>
      </trkpt>
      <trkpt lat="38.306608" lon="-3.584720">
        <ele>643.7</ele>
        <time>2010-09-20T06:47:40Z</time>
      </trkpt>
      <trkpt lat="38.306761" lon="-3.584786">
        <ele>639.8</ele>
        <time>2010-09-20T06:47:40Z</time>
      </trkpt>
      <trkpt lat="38.306935" lon="-3.584964">
        <ele>635.1</ele>
        <time>2010-09-20T06:47:40Z</time>
      </trkpt>
      <trkpt lat="38.307065" lon="-3.585131">
        <ele>632.3</ele>
        <time>2010-09-20T06:47:40Z</time>
      </trkpt>
      <trkpt lat="38.307182" lon="-3.585253">
        <ele>630.1</ele>
        <time>2010-09-20T06:47:40Z</time>
      </trkpt>
      <trkpt lat="38.307371" lon="-3.585356">
        <ele>628.5</ele>
        <time>2010-09-20T06:47:40Z</time>
      </trkpt>
      <trkpt lat="38.307619" lon="-3.585432">
        <ele>627.2</ele>
        <time>2010-09-20T06:47:40Z</time>
      </trkpt>
      <trkpt lat="38.307881" lon="-3.585462">
        <ele>628.4</ele>
        <time>2010-09-20T06:47:40Z</time>
      </trkpt>
      <trkpt lat="38.308063" lon="-3.585464">
        <ele>630.1</ele>
        <time>2010-09-20T06:47:40Z</time>
      </trkpt>
      <trkpt lat="38.308290" lon="-3.585373">
        <ele>633.7</ele>
        <time>2010-09-20T06:47:40Z</time>
      </trkpt>
      <trkpt lat="38.308415" lon="-3.585198">
        <ele>637.7</ele>
        <time>2010-09-20T06:47:40Z</time>
      </trkpt>
      <trkpt lat="38.308539" lon="-3.585079">
        <ele>640.6</ele>
        <time>2010-09-20T06:47:40Z</time>
      </trkpt>
      <trkpt lat="38.308700" lon="-3.585071">
        <ele>639.2</ele>
        <time>2010-09-20T06:47:40Z</time>
      </trkpt>
      <trkpt lat="38.308825" lon="-3.584942">
        <ele>640.2</ele>
        <time>2010-09-20T06:47:40Z</time>
      </trkpt>
      <trkpt lat="38.309058" lon="-3.584972">
        <ele>637.5</ele>
        <time>2010-09-20T06:47:40Z</time>
      </trkpt>
      <trkpt lat="38.309277" lon="-3.584908">
        <ele>636.3</ele>
        <time>2010-09-20T06:47:40Z</time>
      </trkpt>
      <trkpt lat="38.309337" lon="-3.584705">
        <ele>638.6</ele>
        <time>2010-09-20T06:47:40Z</time>
      </trkpt>
      <trkpt lat="38.309441" lon="-3.584364">
        <ele>641.4</ele>
        <time>2010-09-20T06:47:40Z</time>
      </trkpt>
      <trkpt lat="38.309515" lon="-3.584151">
        <ele>642.6</ele>
        <time>2010-09-20T06:47:40Z</time>
      </trkpt>
      <trkpt lat="38.309538" lon="-3.583809">
        <ele>646.8</ele>
        <time>2010-09-20T06:47:40Z</time>
      </trkpt>
      <trkpt lat="38.309591" lon="-3.583494">
        <ele>649.4</ele>
        <time>2010-09-20T06:47:40Z</time>
      </trkpt>
      <trkpt lat="38.309709" lon="-3.583217">
        <ele>649.0</ele>
        <time>2010-09-20T06:47:40Z</time>
      </trkpt>
      <trkpt lat="38.309929" lon="-3.583015">
        <ele>644.3</ele>
        <time>2010-09-20T06:47:40Z</time>
      </trkpt>
      <trkpt lat="38.310134" lon="-3.582813">
        <ele>639.7</ele>
        <time>2010-09-20T06:47:40Z</time>
      </trkpt>
      <trkpt lat="38.310339" lon="-3.582685">
        <ele>637.0</ele>
        <time>2010-09-20T06:47:40Z</time>
      </trkpt>
      <trkpt lat="38.310552" lon="-3.582400">
        <ele>638.4</ele>
        <time>2010-09-20T06:47:40Z</time>
      </trkpt>
      <trkpt lat="38.310663" lon="-3.582105">
        <ele>642.1</ele>
        <time>2010-09-20T06:47:40Z</time>
      </trkpt>
      <trkpt lat="38.310672" lon="-3.581799">
        <ele>647.9</ele>
        <time>2010-09-20T06:47:40Z</time>
      </trkpt>
      <trkpt lat="38.310739" lon="-3.581503">
        <ele>651.5</ele>
        <time>2010-09-20T06:47:40Z</time>
      </trkpt>
      <trkpt lat="38.310856" lon="-3.581328">
        <ele>651.4</ele>
        <time>2010-09-20T06:47:40Z</time>
      </trkpt>
      <trkpt lat="38.311017" lon="-3.581302">
        <ele>647.4</ele>
        <time>2010-09-20T06:47:40Z</time>
      </trkpt>
      <trkpt lat="38.311206" lon="-3.581488">
        <ele>643.2</ele>
        <time>2010-09-20T06:47:40Z</time>
      </trkpt>
      <trkpt lat="38.311453" lon="-3.581639">
        <ele>638.9</ele>
        <time>2010-09-20T06:47:40Z</time>
      </trkpt>
      <trkpt lat="38.311730" lon="-3.581696">
        <ele>635.8</ele>
        <time>2010-09-20T06:47:40Z</time>
      </trkpt>
      <trkpt lat="38.311912" lon="-3.581698">
        <ele>634.7</ele>
        <time>2010-09-20T06:47:40Z</time>
      </trkpt>
      <trkpt lat="38.312125" lon="-3.581607">
        <ele>636.4</ele>
        <time>2010-09-20T06:47:40Z</time>
      </trkpt>
      <trkpt lat="38.312447" lon="-3.581434">
        <ele>638.9</ele>
        <time>2010-09-20T06:47:40Z</time>
      </trkpt>
      <trkpt lat="38.312608" lon="-3.581194">
        <ele>642.3</ele>
        <time>2010-09-20T06:47:40Z</time>
      </trkpt>
      <trkpt lat="38.312828" lon="-3.581048">
        <ele>644.2</ele>
        <time>2010-09-20T06:47:40Z</time>
      </trkpt>
      <trkpt lat="38.313047" lon="-3.580957">
        <ele>645.3</ele>
        <time>2010-09-20T06:47:40Z</time>
      </trkpt>
      <trkpt lat="38.313265" lon="-3.581135">
        <ele>642.1</ele>
        <time>2010-09-20T06:47:40Z</time>
      </trkpt>
      <trkpt lat="38.313402" lon="-3.581404">
        <ele>639.7</ele>
        <time>2010-09-20T06:47:40Z</time>
      </trkpt>
      <trkpt lat="38.313621" lon="-3.581443">
        <ele>639.5</ele>
        <time>2010-09-20T06:47:40Z</time>
      </trkpt>
      <trkpt lat="38.313818" lon="-3.581408">
        <ele>639.3</ele>
        <time>2010-09-20T06:47:40Z</time>
      </trkpt>
      <trkpt lat="38.314023" lon="-3.581344">
        <ele>639.3</ele>
        <time>2010-09-20T06:47:40Z</time>
      </trkpt>
      <trkpt lat="38.314191" lon="-3.581281">
        <ele>639.4</ele>
        <time>2010-09-20T06:47:40Z</time>
      </trkpt>
      <trkpt lat="38.314286" lon="-3.581115">
        <ele>640.2</ele>
        <time>2010-09-20T06:47:40Z</time>
      </trkpt>
      <trkpt lat="38.314353" lon="-3.580912">
        <ele>642.5</ele>
        <time>2010-09-20T06:47:40Z</time>
      </trkpt>
      <trkpt lat="38.314667" lon="-3.580905">
        <ele>645.0</ele>
        <time>2010-09-20T06:47:40Z</time>
      </trkpt>
      <trkpt lat="38.314914" lon="-3.581046">
        <ele>645.9</ele>
        <time>2010-09-20T06:47:40Z</time>
      </trkpt>
      <trkpt lat="38.315075" lon="-3.581112">
        <ele>646.9</ele>
        <time>2010-09-20T06:47:40Z</time>
      </trkpt>
      <trkpt lat="38.315183" lon="-3.581382">
        <ele>646.6</ele>
        <time>2010-09-20T06:47:40Z</time>
      </trkpt>
      <trkpt lat="38.315166" lon="-3.581807">
        <ele>644.4</ele>
        <time>2010-09-20T06:47:40Z</time>
      </trkpt>
      <trkpt lat="38.315142" lon="-3.582298">
        <ele>639.8</ele>
        <time>2010-09-20T06:47:40Z</time>
      </trkpt>
      <trkpt lat="38.315206" lon="-3.582585">
        <ele>637.3</ele>
        <time>2010-09-20T06:47:40Z</time>
      </trkpt>
      <trkpt lat="38.315526" lon="-3.582810">
        <ele>640.5</ele>
        <time>2010-09-20T06:47:40Z</time>
      </trkpt>
      <trkpt lat="38.315787" lon="-3.583025">
        <ele>643.2</ele>
        <time>2010-09-20T06:47:40Z</time>
      </trkpt>
      <trkpt lat="38.315968" lon="-3.583332">
        <ele>642.5</ele>
        <time>2010-09-20T06:47:40Z</time>
      </trkpt>
      <trkpt lat="38.316141" lon="-3.583723">
        <ele>643.7</ele>
        <time>2010-09-20T06:47:40Z</time>
      </trkpt>
      <trkpt lat="38.316322" lon="-3.584094">
        <ele>648.1</ele>
        <time>2010-09-20T06:47:40Z</time>
      </trkpt>
      <trkpt lat="38.316416" lon="-3.584318">
        <ele>648.8</ele>
        <time>2010-09-20T06:47:40Z</time>
      </trkpt>
      <trkpt lat="38.316545" lon="-3.584698">
        <ele>648.7</ele>
        <time>2010-09-20T06:47:40Z</time>
      </trkpt>
      <trkpt lat="38.316645" lon="-3.585181">
        <ele>647.6</ele>
        <time>2010-09-20T06:47:40Z</time>
      </trkpt>
      <trkpt lat="38.316716" lon="-3.585542">
        <ele>646.5</ele>
        <time>2010-09-20T06:47:40Z</time>
      </trkpt>
      <trkpt lat="38.316875" lon="-3.585932">
        <ele>643.5</ele>
        <time>2010-09-20T06:47:40Z</time>
      </trkpt>
      <trkpt lat="38.317093" lon="-3.586064">
        <ele>643.2</ele>
        <time>2010-09-20T06:47:40Z</time>
      </trkpt>
      <trkpt lat="38.317450" lon="-3.586085">
        <ele>643.3</ele>
        <time>2010-09-20T06:47:40Z</time>
      </trkpt>
      <trkpt lat="38.317786" lon="-3.585995">
        <ele>644.5</ele>
        <time>2010-09-20T06:47:40Z</time>
      </trkpt>
      <trkpt lat="38.318071" lon="-3.585877">
        <ele>646.1</ele>
        <time>2010-09-20T06:47:40Z</time>
      </trkpt>
      <trkpt lat="38.318422" lon="-3.585797">
        <ele>647.2</ele>
        <time>2010-09-20T06:47:40Z</time>
      </trkpt>
      <trkpt lat="38.318904" lon="-3.585708">
        <ele>647.5</ele>
        <time>2010-09-20T06:47:40Z</time>
      </trkpt>
      <trkpt lat="38.319218" lon="-3.585590">
        <ele>647.1</ele>
        <time>2010-09-20T06:47:40Z</time>
      </trkpt>
      <trkpt lat="38.319365" lon="-3.585527">
        <ele>646.6</ele>
        <time>2010-09-20T06:47:40Z</time>
      </trkpt>
      <trkpt lat="38.319860" lon="-3.585605">
        <ele>647.2</ele>
        <time>2010-09-20T06:47:40Z</time>
      </trkpt>
      <trkpt lat="38.320159" lon="-3.585728">
        <ele>646.9</ele>
        <time>2010-09-20T06:47:40Z</time>
      </trkpt>
      <trkpt lat="38.320391" lon="-3.585952">
        <ele>647.4</ele>
        <time>2010-09-20T06:47:40Z</time>
      </trkpt>
      <trkpt lat="38.320543" lon="-3.586231">
        <ele>648.2</ele>
        <time>2010-09-20T06:47:40Z</time>
      </trkpt>
      <trkpt lat="38.320680" lon="-3.586519">
        <ele>649.9</ele>
        <time>2010-09-20T06:47:40Z</time>
      </trkpt>
      <trkpt lat="38.320847" lon="-3.586687">
        <ele>649.7</ele>
        <time>2010-09-20T06:47:40Z</time>
      </trkpt>
      <trkpt lat="38.320992" lon="-3.586808">
        <ele>648.8</ele>
        <time>2010-09-20T06:47:40Z</time>
      </trkpt>
      <trkpt lat="38.321057" lon="-3.586929">
        <ele>648.3</ele>
        <time>2010-09-20T06:47:40Z</time>
      </trkpt>
      <trkpt lat="38.321100" lon="-3.587217">
        <ele>649.5</ele>
        <time>2010-09-20T06:47:40Z</time>
      </trkpt>
      <trkpt lat="38.321194" lon="-3.587403">
        <ele>650.3</ele>
        <time>2010-09-20T06:47:40Z</time>
      </trkpt>
      <trkpt lat="38.321273" lon="-3.587579">
        <ele>650.4</ele>
        <time>2010-09-20T06:47:40Z</time>
      </trkpt>
      <trkpt lat="38.321513" lon="-3.587711">
        <ele>649.4</ele>
        <time>2010-09-20T06:47:40Z</time>
      </trkpt>
      <trkpt lat="38.321637" lon="-3.587814">
        <ele>648.7</ele>
        <time>2010-09-20T06:47:40Z</time>
      </trkpt>
      <trkpt lat="38.321789" lon="-3.588056">
        <ele>649.4</ele>
        <time>2010-09-20T06:47:40Z</time>
      </trkpt>
      <trkpt lat="38.322000" lon="-3.588178">
        <ele>649.3</ele>
        <time>2010-09-20T06:47:40Z</time>
      </trkpt>
      <trkpt lat="38.322197" lon="-3.588078">
        <ele>648.6</ele>
        <time>2010-09-20T06:47:40Z</time>
      </trkpt>
      <trkpt lat="38.322315" lon="-3.587940">
        <ele>647.8</ele>
        <time>2010-09-20T06:47:40Z</time>
      </trkpt>
      <trkpt lat="38.322630" lon="-3.587692">
        <ele>647.9</ele>
        <time>2010-09-20T06:47:40Z</time>
      </trkpt>
      <trkpt lat="38.322901" lon="-3.587407">
        <ele>650.8</ele>
        <time>2010-09-20T06:47:40Z</time>
      </trkpt>
      <trkpt lat="38.323113" lon="-3.587298">
        <ele>651.8</ele>
        <time>2010-09-20T06:47:40Z</time>
      </trkpt>
      <trkpt lat="38.323332" lon="-3.587216">
        <ele>652.4</ele>
        <time>2010-09-20T06:47:40Z</time>
      </trkpt>
      <trkpt lat="38.323493" lon="-3.587107">
        <ele>653.1</ele>
        <time>2010-09-20T06:47:40Z</time>
      </trkpt>
      <trkpt lat="38.323626" lon="-3.586904">
        <ele>654.8</ele>
        <time>2010-09-20T06:47:40Z</time>
      </trkpt>
      <trkpt lat="38.323685" lon="-3.586747">
        <ele>656.7</ele>
        <time>2010-09-20T06:47:40Z</time>
      </trkpt>
      <trkpt lat="38.323875" lon="-3.586684">
        <ele>656.9</ele>
        <time>2010-09-20T06:47:40Z</time>
      </trkpt>
      <trkpt lat="38.323934" lon="-3.586499">
        <ele>658.0</ele>
        <time>2010-09-20T06:47:40Z</time>
      </trkpt>
      <trkpt lat="38.323955" lon="-3.586175">
        <ele>660.0</ele>
        <time>2010-09-20T06:47:40Z</time>
      </trkpt>
      <trkpt lat="38.323978" lon="-3.585860">
        <ele>661.8</ele>
        <time>2010-09-20T06:47:40Z</time>
      </trkpt>
      <trkpt lat="38.324008" lon="-3.585638">
        <ele>662.6</ele>
        <time>2010-09-20T06:47:40Z</time>
      </trkpt>
      <trkpt lat="38.324010" lon="-3.585360">
        <ele>664.3</ele>
        <time>2010-09-20T06:47:40Z</time>
      </trkpt>
      <trkpt lat="38.323989" lon="-3.585045">
        <ele>665.7</ele>
        <time>2010-09-20T06:47:40Z</time>
      </trkpt>
      <trkpt lat="38.323976" lon="-3.584776">
        <ele>666.5</ele>
        <time>2010-09-20T06:47:40Z</time>
      </trkpt>
      <trkpt lat="38.324007" lon="-3.584471">
        <ele>666.1</ele>
        <time>2010-09-20T06:47:40Z</time>
      </trkpt>
      <trkpt lat="38.324037" lon="-3.584277">
        <ele>665.1</ele>
        <time>2010-09-20T06:47:40Z</time>
      </trkpt>
      <trkpt lat="38.324038" lon="-3.584129">
        <ele>665.0</ele>
        <time>2010-09-20T06:47:40Z</time>
      </trkpt>
      <trkpt lat="38.324075" lon="-3.583879">
        <ele>663.7</ele>
        <time>2010-09-20T06:47:40Z</time>
      </trkpt>
      <trkpt lat="38.324091" lon="-3.583722">
        <ele>663.2</ele>
        <time>2010-09-20T06:47:40Z</time>
      </trkpt>
      <trkpt lat="38.324106" lon="-3.583546">
        <ele>663.1</ele>
        <time>2010-09-20T06:47:40Z</time>
      </trkpt>
      <trkpt lat="38.324129" lon="-3.583351">
        <ele>663.4</ele>
        <time>2010-09-20T06:47:40Z</time>
      </trkpt>
      <trkpt lat="38.324145" lon="-3.583148">
        <ele>664.1</ele>
        <time>2010-09-20T06:47:40Z</time>
      </trkpt>
      <trkpt lat="38.324218" lon="-3.582991">
        <ele>662.6</ele>
        <time>2010-09-20T06:47:40Z</time>
      </trkpt>
      <trkpt lat="38.324329" lon="-3.582816">
        <ele>659.9</ele>
        <time>2010-09-20T06:47:40Z</time>
      </trkpt>
      <trkpt lat="38.324403" lon="-3.582585">
        <ele>660.4</ele>
        <time>2010-09-20T06:47:40Z</time>
      </trkpt>
      <trkpt lat="38.324492" lon="-3.582372">
        <ele>661.3</ele>
        <time>2010-09-20T06:47:40Z</time>
      </trkpt>
      <trkpt lat="38.324594" lon="-3.582216">
        <ele>661.3</ele>
        <time>2010-09-20T06:47:40Z</time>
      </trkpt>
      <trkpt lat="38.324734" lon="-3.582060">
        <ele>660.6</ele>
        <time>2010-09-20T06:47:40Z</time>
      </trkpt>
      <trkpt lat="38.324939" lon="-3.581830">
        <ele>660.2</ele>
        <time>2010-09-20T06:47:40Z</time>
      </trkpt>
      <trkpt lat="38.325064" lon="-3.581747">
        <ele>659.7</ele>
        <time>2010-09-20T06:47:40Z</time>
      </trkpt>
      <trkpt lat="38.325378" lon="-3.581620">
        <ele>659.8</ele>
        <time>2010-09-20T06:47:40Z</time>
      </trkpt>
      <trkpt lat="38.325604" lon="-3.581548">
        <ele>660.4</ele>
        <time>2010-09-20T06:47:40Z</time>
      </trkpt>
      <trkpt lat="38.325817" lon="-3.581475">
        <ele>660.5</ele>
        <time>2010-09-20T06:47:40Z</time>
      </trkpt>
      <trkpt lat="38.326094" lon="-3.581431">
        <ele>660.2</ele>
        <time>2010-09-20T06:47:40Z</time>
      </trkpt>
      <trkpt lat="38.326335" lon="-3.581294">
        <ele>660.8</ele>
        <time>2010-09-20T06:47:40Z</time>
      </trkpt>
      <trkpt lat="38.326526" lon="-3.581074">
        <ele>660.8</ele>
        <time>2010-09-20T06:47:40Z</time>
      </trkpt>
      <trkpt lat="38.326709" lon="-3.580899">
        <ele>661.3</ele>
        <time>2010-09-20T06:47:40Z</time>
      </trkpt>
      <trkpt lat="38.327061" lon="-3.580634">
        <ele>662.8</ele>
        <time>2010-09-20T06:47:40Z</time>
      </trkpt>
      <trkpt lat="38.327208" lon="-3.580412">
        <ele>663.1</ele>
        <time>2010-09-20T06:47:40Z</time>
      </trkpt>
      <trkpt lat="38.327348" lon="-3.580126">
        <ele>663.9</ele>
        <time>2010-09-20T06:47:40Z</time>
      </trkpt>
      <trkpt lat="38.327488" lon="-3.579896">
        <ele>664.5</ele>
        <time>2010-09-20T06:47:40Z</time>
      </trkpt>
      <trkpt lat="38.327642" lon="-3.579675">
        <ele>664.3</ele>
        <time>2010-09-20T06:47:40Z</time>
      </trkpt>
      <trkpt lat="38.327841" lon="-3.579371">
        <ele>665.6</ele>
        <time>2010-09-20T06:47:40Z</time>
      </trkpt>
      <trkpt lat="38.327938" lon="-3.579001">
        <ele>669.1</ele>
        <time>2010-09-20T06:47:40Z</time>
      </trkpt>
      <trkpt lat="38.328070" lon="-3.578761">
        <ele>670.4</ele>
        <time>2010-09-20T06:47:40Z</time>
      </trkpt>
      <trkpt lat="38.328195" lon="-3.578540">
        <ele>671.2</ele>
        <time>2010-09-20T06:47:40Z</time>
      </trkpt>
      <trkpt lat="38.328298" lon="-3.578281">
        <ele>672.6</ele>
        <time>2010-09-20T06:47:40Z</time>
      </trkpt>
      <trkpt lat="38.328445" lon="-3.578144">
        <ele>671.6</ele>
        <time>2010-09-20T06:47:40Z</time>
      </trkpt>
      <trkpt lat="38.328563" lon="-3.577996">
        <ele>671.1</ele>
        <time>2010-09-20T06:47:40Z</time>
      </trkpt>
      <trkpt lat="38.328716" lon="-3.577877">
        <ele>671.8</ele>
        <time>2010-09-20T06:47:40Z</time>
      </trkpt>
      <trkpt lat="38.328819" lon="-3.577711">
        <ele>672.7</ele>
        <time>2010-09-20T06:47:40Z</time>
      </trkpt>
      <trkpt lat="38.328914" lon="-3.577703">
        <ele>672.6</ele>
        <time>2010-09-20T06:47:40Z</time>
      </trkpt>
      <trkpt lat="38.329126" lon="-3.577584">
        <ele>672.7</ele>
        <time>2010-09-20T06:47:40Z</time>
      </trkpt>
      <trkpt lat="38.329317" lon="-3.577456">
        <ele>671.9</ele>
        <time>2010-09-20T06:47:40Z</time>
      </trkpt>
      <trkpt lat="38.329470" lon="-3.577466">
        <ele>672.0</ele>
        <time>2010-09-20T06:47:40Z</time>
      </trkpt>
      <trkpt lat="38.329580" lon="-3.577328">
        <ele>672.0</ele>
        <time>2010-09-20T06:47:40Z</time>
      </trkpt>
      <trkpt lat="38.329705" lon="-3.577163">
        <ele>671.6</ele>
        <time>2010-09-20T06:47:40Z</time>
      </trkpt>
      <trkpt lat="38.329888" lon="-3.576923">
        <ele>670.5</ele>
        <time>2010-09-20T06:47:40Z</time>
      </trkpt>
      <trkpt lat="38.330064" lon="-3.576786">
        <ele>670.4</ele>
        <time>2010-09-20T06:47:40Z</time>
      </trkpt>
      <trkpt lat="38.330335" lon="-3.576528">
        <ele>670.7</ele>
        <time>2010-09-20T06:47:40Z</time>
      </trkpt>
      <trkpt lat="38.330607" lon="-3.576262">
        <ele>670.7</ele>
        <time>2010-09-20T06:47:40Z</time>
      </trkpt>
      <trkpt lat="38.330761" lon="-3.576087">
        <ele>670.1</ele>
        <time>2010-09-20T06:47:40Z</time>
      </trkpt>
      <trkpt lat="38.331002" lon="-3.575894">
        <ele>670.3</ele>
        <time>2010-09-20T06:47:40Z</time>
      </trkpt>
      <trkpt lat="38.331295" lon="-3.575712">
        <ele>672.6</ele>
        <time>2010-09-20T06:47:40Z</time>
      </trkpt>
      <trkpt lat="38.331456" lon="-3.575537">
        <ele>673.3</ele>
        <time>2010-09-20T06:47:40Z</time>
      </trkpt>
      <trkpt lat="38.331399" lon="-3.575277">
        <ele>672.4</ele>
        <time>2010-09-20T06:47:40Z</time>
      </trkpt>
      <trkpt lat="38.331371" lon="-3.575166">
        <ele>672.9</ele>
        <time>2010-09-20T06:47:40Z</time>
      </trkpt>
      <trkpt lat="38.331546" lon="-3.575130">
        <ele>673.6</ele>
        <time>2010-09-20T06:47:40Z</time>
      </trkpt>
      <trkpt lat="38.331743" lon="-3.575030">
        <ele>674.4</ele>
        <time>2010-09-20T06:47:40Z</time>
      </trkpt>
      <trkpt lat="38.332007" lon="-3.574856">
        <ele>676.0</ele>
        <time>2010-09-20T06:47:40Z</time>
      </trkpt>
      <trkpt lat="38.332212" lon="-3.574737">
        <ele>677.3</ele>
        <time>2010-09-20T06:47:40Z</time>
      </trkpt>
      <trkpt lat="38.332373" lon="-3.574618">
        <ele>678.1</ele>
        <time>2010-09-20T06:47:40Z</time>
      </trkpt>
      <trkpt lat="38.332636" lon="-3.574629">
        <ele>679.4</ele>
        <time>2010-09-20T06:47:40Z</time>
      </trkpt>
      <trkpt lat="38.332862" lon="-3.574603">
        <ele>679.6</ele>
        <time>2010-09-20T06:47:40Z</time>
      </trkpt>
      <trkpt lat="38.333051" lon="-3.574605">
        <ele>679.8</ele>
        <time>2010-09-20T06:47:40Z</time>
      </trkpt>
      <trkpt lat="38.333373" lon="-3.574598">
        <ele>679.9</ele>
        <time>2010-09-20T06:47:40Z</time>
      </trkpt>
      <trkpt lat="38.333613" lon="-3.574572">
        <ele>680.1</ele>
        <time>2010-09-20T06:47:40Z</time>
      </trkpt>
      <trkpt lat="38.333723" lon="-3.574490">
        <ele>679.5</ele>
        <time>2010-09-20T06:47:40Z</time>
      </trkpt>
      <trkpt lat="38.333490" lon="-3.574414">
        <ele>678.6</ele>
        <time>2010-09-20T06:47:40Z</time>
      </trkpt>
      <trkpt lat="38.333352" lon="-3.574394">
        <ele>679.0</ele>
        <time>2010-09-20T06:47:40Z</time>
      </trkpt>
      <trkpt lat="38.333235" lon="-3.574356">
        <ele>679.6</ele>
        <time>2010-09-20T06:47:40Z</time>
      </trkpt>
      <trkpt lat="38.333053" lon="-3.574225">
        <ele>681.4</ele>
        <time>2010-09-20T06:47:40Z</time>
      </trkpt>
      <trkpt lat="38.332864" lon="-3.574140">
        <ele>682.4</ele>
        <time>2010-09-20T06:47:40Z</time>
      </trkpt>
      <trkpt lat="38.332726" lon="-3.574074">
        <ele>683.1</ele>
        <time>2010-09-20T06:47:40Z</time>
      </trkpt>
      <trkpt lat="38.332566" lon="-3.574026">
        <ele>682.9</ele>
        <time>2010-09-20T06:47:40Z</time>
      </trkpt>
      <trkpt lat="38.332362" lon="-3.573932">
        <ele>682.6</ele>
        <time>2010-09-20T06:47:40Z</time>
      </trkpt>
      <trkpt lat="38.332304" lon="-3.573830">
        <ele>683.2</ele>
        <time>2010-09-20T06:47:40Z</time>
      </trkpt>
      <trkpt lat="38.332320" lon="-3.573617">
        <ele>685.3</ele>
        <time>2010-09-20T06:47:40Z</time>
      </trkpt>
      <trkpt lat="38.332387" lon="-3.573303">
        <ele>689.3</ele>
        <time>2010-09-20T06:47:40Z</time>
      </trkpt>
      <trkpt lat="38.332461" lon="-3.573109">
        <ele>692.4</ele>
        <time>2010-09-20T06:47:40Z</time>
      </trkpt>
      <trkpt lat="38.332411" lon="-3.572849">
        <ele>694.8</ele>
        <time>2010-09-20T06:47:40Z</time>
      </trkpt>
      <trkpt lat="38.332434" lon="-3.572618">
        <ele>696.4</ele>
        <time>2010-09-20T06:47:40Z</time>
      </trkpt>
      <trkpt lat="38.332421" lon="-3.572321">
        <ele>697.0</ele>
        <time>2010-09-20T06:47:40Z</time>
      </trkpt>
      <trkpt lat="38.332371" lon="-3.572145">
        <ele>696.6</ele>
        <time>2010-09-20T06:47:40Z</time>
      </trkpt>
      <trkpt lat="38.332306" lon="-3.571903">
        <ele>696.4</ele>
        <time>2010-09-20T06:47:40Z</time>
      </trkpt>
      <trkpt lat="38.332314" lon="-3.571755">
        <ele>697.7</ele>
        <time>2010-09-20T06:47:40Z</time>
      </trkpt>
      <trkpt lat="38.332418" lon="-3.571450">
        <ele>702.0</ele>
        <time>2010-09-20T06:47:40Z</time>
      </trkpt>
      <trkpt lat="38.332499" lon="-3.571201">
        <ele>705.3</ele>
        <time>2010-09-20T06:47:40Z</time>
      </trkpt>
      <trkpt lat="38.332589" lon="-3.570785">
        <ele>708.8</ele>
        <time>2010-09-20T06:47:40Z</time>
      </trkpt>
      <trkpt lat="38.332715" lon="-3.570360">
        <ele>712.1</ele>
        <time>2010-09-20T06:47:40Z</time>
      </trkpt>
      <trkpt lat="38.332826" lon="-3.570009">
        <ele>715.3</ele>
        <time>2010-09-20T06:47:40Z</time>
      </trkpt>
      <trkpt lat="38.332929" lon="-3.569704">
        <ele>718.0</ele>
        <time>2010-09-20T06:47:40Z</time>
      </trkpt>
      <trkpt lat="38.332960" lon="-3.569454">
        <ele>719.1</ele>
        <time>2010-09-20T06:47:40Z</time>
      </trkpt>
      <trkpt lat="38.332816" lon="-3.569110">
        <ele>718.6</ele>
        <time>2010-09-20T06:47:40Z</time>
      </trkpt>
      <trkpt lat="38.332751" lon="-3.568906">
        <ele>718.9</ele>
        <time>2010-09-20T06:47:40Z</time>
      </trkpt>
      <trkpt lat="38.332680" lon="-3.568526">
        <ele>720.4</ele>
        <time>2010-09-20T06:47:40Z</time>
      </trkpt>
      <trkpt lat="38.332703" lon="-3.568322">
        <ele>721.5</ele>
        <time>2010-09-20T06:47:40Z</time>
      </trkpt>
      <trkpt lat="38.332711" lon="-3.568035">
        <ele>722.8</ele>
        <time>2010-09-20T06:47:40Z</time>
      </trkpt>
      <trkpt lat="38.332691" lon="-3.567757">
        <ele>724.1</ele>
        <time>2010-09-20T06:47:40Z</time>
      </trkpt>
      <trkpt lat="38.332605" lon="-3.567432">
        <ele>724.9</ele>
        <time>2010-09-20T06:47:40Z</time>
      </trkpt>
      <trkpt lat="38.332505" lon="-3.567061">
        <ele>726.4</ele>
        <time>2010-09-20T06:47:40Z</time>
      </trkpt>
      <trkpt lat="38.332404" lon="-3.566754">
        <ele>727.6</ele>
        <time>2010-09-20T06:47:40Z</time>
      </trkpt>
      <trkpt lat="38.332325" lon="-3.566541">
        <ele>728.3</ele>
        <time>2010-09-20T06:47:40Z</time>
      </trkpt>
      <trkpt lat="38.332194" lon="-3.566364">
        <ele>728.7</ele>
        <time>2010-09-20T06:47:40Z</time>
      </trkpt>
      <trkpt lat="38.332085" lon="-3.566214">
        <ele>729.0</ele>
        <time>2010-09-20T06:47:40Z</time>
      </trkpt>
      <trkpt lat="38.331955" lon="-3.565936">
        <ele>729.7</ele>
        <time>2010-09-20T06:47:40Z</time>
      </trkpt>
      <trkpt lat="38.331855" lon="-3.565675">
        <ele>730.5</ele>
        <time>2010-09-20T06:47:40Z</time>
      </trkpt>
      <trkpt lat="38.331739" lon="-3.565452">
        <ele>730.5</ele>
        <time>2010-09-20T06:47:40Z</time>
      </trkpt>
      <trkpt lat="38.331594" lon="-3.565275">
        <ele>730.1</ele>
        <time>2010-09-20T06:47:40Z</time>
      </trkpt>
      <trkpt lat="38.331558" lon="-3.565173">
        <ele>730.7</ele>
        <time>2010-09-20T06:47:40Z</time>
      </trkpt>
      <trkpt lat="38.331493" lon="-3.565071">
        <ele>731.3</ele>
        <time>2010-09-20T06:47:40Z</time>
      </trkpt>
      <trkpt lat="38.331376" lon="-3.564949">
        <ele>732.0</ele>
        <time>2010-09-20T06:47:40Z</time>
      </trkpt>
      <trkpt lat="38.331254" lon="-3.564735">
        <ele>734.1</ele>
        <time>2010-09-20T06:47:40Z</time>
      </trkpt>
      <trkpt lat="38.331117" lon="-3.564355">
        <ele>738.3</ele>
        <time>2010-09-20T06:47:40Z</time>
      </trkpt>
      <trkpt lat="38.331016" lon="-3.564011">
        <ele>740.7</ele>
        <time>2010-09-20T06:47:40Z</time>
      </trkpt>
      <trkpt lat="38.330916" lon="-3.563723">
        <ele>743.0</ele>
        <time>2010-09-20T06:47:40Z</time>
      </trkpt>
      <trkpt lat="38.330843" lon="-3.563611">
        <ele>744.1</ele>
        <time>2010-09-20T06:47:40Z</time>
      </trkpt>
      <trkpt lat="38.330822" lon="-3.563389">
        <ele>744.4</ele>
        <time>2010-09-20T06:47:40Z</time>
      </trkpt>
      <trkpt lat="38.330969" lon="-3.563270">
        <ele>743.1</ele>
        <time>2010-09-20T06:47:40Z</time>
      </trkpt>
      <trkpt lat="38.331101" lon="-3.563076">
        <ele>741.3</ele>
        <time>2010-09-20T06:47:40Z</time>
      </trkpt>
      <trkpt lat="38.331175" lon="-3.562929">
        <ele>740.1</ele>
        <time>2010-09-20T06:47:40Z</time>
      </trkpt>
      <trkpt lat="38.331198" lon="-3.562716">
        <ele>740.0</ele>
        <time>2010-09-20T06:47:40Z</time>
      </trkpt>
      <trkpt lat="38.331235" lon="-3.562549">
        <ele>740.5</ele>
        <time>2010-09-20T06:47:40Z</time>
      </trkpt>
      <trkpt lat="38.331243" lon="-3.562383">
        <ele>741.5</ele>
        <time>2010-09-20T06:47:40Z</time>
      </trkpt>
      <trkpt lat="38.331112" lon="-3.562224">
        <ele>744.2</ele>
        <time>2010-09-20T06:47:40Z</time>
      </trkpt>
      <trkpt lat="38.330974" lon="-3.562140">
        <ele>746.7</ele>
        <time>2010-09-20T06:47:40Z</time>
      </trkpt>
      <trkpt lat="38.330843" lon="-3.562009">
        <ele>749.5</ele>
        <time>2010-09-20T06:47:40Z</time>
      </trkpt>
      <trkpt lat="38.330735" lon="-3.561841">
        <ele>751.6</ele>
        <time>2010-09-20T06:47:40Z</time>
      </trkpt>
      <trkpt lat="38.330750" lon="-3.561675">
        <ele>751.5</ele>
        <time>2010-09-20T06:47:40Z</time>
      </trkpt>
      <trkpt lat="38.330911" lon="-3.561509">
        <ele>748.9</ele>
        <time>2010-09-20T06:47:40Z</time>
      </trkpt>
      <trkpt lat="38.331029" lon="-3.561362">
        <ele>747.0</ele>
        <time>2010-09-20T06:47:40Z</time>
      </trkpt>
      <trkpt lat="38.331059" lon="-3.561131">
        <ele>746.6</ele>
        <time>2010-09-20T06:47:40Z</time>
      </trkpt>
      <trkpt lat="38.331038" lon="-3.560899">
        <ele>747.7</ele>
        <time>2010-09-20T06:47:40Z</time>
      </trkpt>
      <trkpt lat="38.330981" lon="-3.560723">
        <ele>749.3</ele>
        <time>2010-09-20T06:47:40Z</time>
      </trkpt>
      <trkpt lat="38.330873" lon="-3.560462">
        <ele>752.3</ele>
        <time>2010-09-20T06:47:40Z</time>
      </trkpt>
      <trkpt lat="38.330881" lon="-3.560222">
        <ele>753.1</ele>
        <time>2010-09-20T06:47:40Z</time>
      </trkpt>
      <trkpt lat="38.331063" lon="-3.560214">
        <ele>749.9</ele>
        <time>2010-09-20T06:47:40Z</time>
      </trkpt>
      <trkpt lat="38.331348" lon="-3.560197">
        <ele>746.0</ele>
        <time>2010-09-20T06:47:40Z</time>
      </trkpt>
      <trkpt lat="38.331472" lon="-3.560189">
        <ele>744.4</ele>
        <time>2010-09-20T06:47:40Z</time>
      </trkpt>
      <trkpt lat="38.331576" lon="-3.559977">
        <ele>744.8</ele>
        <time>2010-09-20T06:47:40Z</time>
      </trkpt>
      <trkpt lat="38.331737" lon="-3.559765">
        <ele>744.9</ele>
        <time>2010-09-20T06:47:40Z</time>
      </trkpt>
      <trkpt lat="38.331876" lon="-3.559618">
        <ele>745.0</ele>
        <time>2010-09-20T06:47:40Z</time>
      </trkpt>
      <trkpt lat="38.331878" lon="-3.559349">
        <ele>747.9</ele>
        <time>2010-09-20T06:47:40Z</time>
      </trkpt>
      <trkpt lat="38.331887" lon="-3.558942">
        <ele>752.1</ele>
        <time>2010-09-20T06:47:40Z</time>
      </trkpt>
      <trkpt lat="38.331947" lon="-3.558618">
        <ele>754.4</ele>
        <time>2010-09-20T06:47:40Z</time>
      </trkpt>
      <trkpt lat="38.332014" lon="-3.558230">
        <ele>754.6</ele>
        <time>2010-09-20T06:47:40Z</time>
      </trkpt>
      <trkpt lat="38.332016" lon="-3.557831">
        <ele>756.1</ele>
        <time>2010-09-20T06:47:40Z</time>
      </trkpt>
      <trkpt lat="38.331834" lon="-3.557682">
        <ele>759.2</ele>
        <time>2010-09-20T06:47:40Z</time>
      </trkpt>
      <trkpt lat="38.331675" lon="-3.557560">
        <ele>761.2</ele>
        <time>2010-09-20T06:47:40Z</time>
      </trkpt>
      <trkpt lat="38.331558" lon="-3.557429">
        <ele>762.4</ele>
        <time>2010-09-20T06:47:40Z</time>
      </trkpt>
      <trkpt lat="38.331464" lon="-3.557346">
        <ele>763.5</ele>
        <time>2010-09-20T06:47:40Z</time>
      </trkpt>
      <trkpt lat="38.331296" lon="-3.557316">
        <ele>765.5</ele>
        <time>2010-09-20T06:47:40Z</time>
      </trkpt>
      <trkpt lat="38.331246" lon="-3.557159">
        <ele>765.8</ele>
        <time>2010-09-20T06:47:40Z</time>
      </trkpt>
      <trkpt lat="38.331290" lon="-3.556974">
        <ele>764.9</ele>
        <time>2010-09-20T06:47:40Z</time>
      </trkpt>
      <trkpt lat="38.331415" lon="-3.556789">
        <ele>763.1</ele>
        <time>2010-09-20T06:47:40Z</time>
      </trkpt>
      <trkpt lat="38.331511" lon="-3.556623">
        <ele>761.7</ele>
        <time>2010-09-20T06:47:40Z</time>
      </trkpt>
      <trkpt lat="38.331585" lon="-3.556420">
        <ele>760.7</ele>
        <time>2010-09-20T06:47:40Z</time>
      </trkpt>
      <trkpt lat="38.331674" lon="-3.556171">
        <ele>759.6</ele>
        <time>2010-09-20T06:47:40Z</time>
      </trkpt>
      <trkpt lat="38.331762" lon="-3.555986">
        <ele>759.3</ele>
        <time>2010-09-20T06:47:40Z</time>
      </trkpt>
      <trkpt lat="38.331858" lon="-3.555737">
        <ele>759.4</ele>
        <time>2010-09-20T06:47:40Z</time>
      </trkpt>
      <trkpt lat="38.331939" lon="-3.555534">
        <ele>759.7</ele>
        <time>2010-09-20T06:47:40Z</time>
      </trkpt>
      <trkpt lat="38.331992" lon="-3.555340">
        <ele>760.2</ele>
        <time>2010-09-20T06:47:40Z</time>
      </trkpt>
      <trkpt lat="38.332036" lon="-3.555090">
        <ele>760.4</ele>
        <time>2010-09-20T06:47:40Z</time>
      </trkpt>
      <trkpt lat="38.332052" lon="-3.554923">
        <ele>760.5</ele>
        <time>2010-09-20T06:47:40Z</time>
      </trkpt>
      <trkpt lat="38.332052" lon="-3.554923">
        <ele>760.5</ele>
        <time>2010-09-20T06:47:40Z</time>
      </trkpt>
      <trkpt lat="38.332140" lon="-3.554748">
        <ele>760.3</ele>
        <time>2010-09-20T06:47:40Z</time>
      </trkpt>
      <trkpt lat="38.332279" lon="-3.554610">
        <ele>759.8</ele>
        <time>2010-09-20T06:47:40Z</time>
      </trkpt>
      <trkpt lat="38.332463" lon="-3.554324">
        <ele>759.1</ele>
        <time>2010-09-20T06:47:40Z</time>
      </trkpt>
      <trkpt lat="38.332669" lon="-3.554094">
        <ele>758.1</ele>
        <time>2010-09-20T06:47:40Z</time>
      </trkpt>
      <trkpt lat="38.332866" lon="-3.553910">
        <ele>756.4</ele>
        <time>2010-09-20T06:47:40Z</time>
      </trkpt>
      <trkpt lat="38.333072" lon="-3.553690">
        <ele>755.1</ele>
        <time>2010-09-20T06:47:40Z</time>
      </trkpt>
      <trkpt lat="38.333299" lon="-3.553460">
        <ele>754.1</ele>
        <time>2010-09-20T06:47:40Z</time>
      </trkpt>
      <trkpt lat="38.333526" lon="-3.553221">
        <ele>753.4</ele>
        <time>2010-09-20T06:47:40Z</time>
      </trkpt>
      <trkpt lat="38.333680" lon="-3.553037">
        <ele>753.5</ele>
        <time>2010-09-20T06:47:40Z</time>
      </trkpt>
      <trkpt lat="38.333776" lon="-3.552936">
        <ele>753.5</ele>
        <time>2010-09-20T06:47:40Z</time>
      </trkpt>
      <trkpt lat="38.334075" lon="-3.552891">
        <ele>752.6</ele>
        <time>2010-09-20T06:47:40Z</time>
      </trkpt>
      <trkpt lat="38.334272" lon="-3.552847">
        <ele>752.0</ele>
        <time>2010-09-20T06:47:40Z</time>
      </trkpt>
      <trkpt lat="38.334455" lon="-3.552718">
        <ele>752.8</ele>
        <time>2010-09-20T06:47:40Z</time>
      </trkpt>
      <trkpt lat="38.334631" lon="-3.552618">
        <ele>754.3</ele>
        <time>2010-09-20T06:47:40Z</time>
      </trkpt>
      <trkpt lat="38.334821" lon="-3.552517">
        <ele>755.9</ele>
        <time>2010-09-20T06:47:40Z</time>
      </trkpt>
      <trkpt lat="38.334967" lon="-3.552509">
        <ele>756.6</ele>
        <time>2010-09-20T06:47:40Z</time>
      </trkpt>
      <trkpt lat="38.335077" lon="-3.552473">
        <ele>757.4</ele>
        <time>2010-09-20T06:47:40Z</time>
      </trkpt>
      <trkpt lat="38.334968" lon="-3.552361">
        <ele>758.0</ele>
        <time>2010-09-20T06:47:40Z</time>
      </trkpt>
      <trkpt lat="38.334866" lon="-3.552203">
        <ele>758.8</ele>
        <time>2010-09-20T06:47:40Z</time>
      </trkpt>
      <trkpt lat="38.334750" lon="-3.552026">
        <ele>759.7</ele>
        <time>2010-09-20T06:47:40Z</time>
      </trkpt>
      <trkpt lat="38.334649" lon="-3.551933">
        <ele>759.7</ele>
        <time>2010-09-20T06:47:40Z</time>
      </trkpt>
      <trkpt lat="38.334562" lon="-3.551673">
        <ele>758.8</ele>
        <time>2010-09-20T06:47:40Z</time>
      </trkpt>
      <trkpt lat="38.334431" lon="-3.551560">
        <ele>757.6</ele>
        <time>2010-09-20T06:47:40Z</time>
      </trkpt>
      <trkpt lat="38.334374" lon="-3.551356">
        <ele>756.7</ele>
        <time>2010-09-20T06:47:40Z</time>
      </trkpt>
      <trkpt lat="38.334411" lon="-3.551227">
        <ele>756.7</ele>
        <time>2010-09-20T06:47:40Z</time>
      </trkpt>
      <trkpt lat="38.334565" lon="-3.551071">
        <ele>757.8</ele>
        <time>2010-09-20T06:47:40Z</time>
      </trkpt>
      <trkpt lat="38.334785" lon="-3.550831">
        <ele>759.0</ele>
        <time>2010-09-20T06:47:40Z</time>
      </trkpt>
      <trkpt lat="38.334932" lon="-3.550619">
        <ele>759.7</ele>
        <time>2010-09-20T06:47:40Z</time>
      </trkpt>
      <trkpt lat="38.335028" lon="-3.550425">
        <ele>759.9</ele>
        <time>2010-09-20T06:47:40Z</time>
      </trkpt>
      <trkpt lat="38.335218" lon="-3.550242">
        <ele>760.9</ele>
        <time>2010-09-20T06:47:40Z</time>
      </trkpt>
      <trkpt lat="38.335350" lon="-3.550085">
        <ele>760.7</ele>
        <time>2010-09-20T06:47:40Z</time>
      </trkpt>
      <trkpt lat="38.335548" lon="-3.549883">
        <ele>760.9</ele>
        <time>2010-09-20T06:47:40Z</time>
      </trkpt>
      <trkpt lat="38.335651" lon="-3.549773">
        <ele>761.1</ele>
        <time>2010-09-20T06:47:40Z</time>
      </trkpt>
      <trkpt lat="38.335842" lon="-3.549552">
        <ele>761.8</ele>
        <time>2010-09-20T06:47:40Z</time>
      </trkpt>
      <trkpt lat="38.336025" lon="-3.549368">
        <ele>762.9</ele>
        <time>2010-09-20T06:47:40Z</time>
      </trkpt>
      <trkpt lat="38.336157" lon="-3.549230">
        <ele>763.6</ele>
        <time>2010-09-20T06:47:40Z</time>
      </trkpt>
      <trkpt lat="38.336282" lon="-3.549064">
        <ele>764.2</ele>
        <time>2010-09-20T06:47:40Z</time>
      </trkpt>
      <trkpt lat="38.336472" lon="-3.549001">
        <ele>765.4</ele>
        <time>2010-09-20T06:47:40Z</time>
      </trkpt>
      <trkpt lat="38.336648" lon="-3.548854">
        <ele>766.2</ele>
        <time>2010-09-20T06:47:40Z</time>
      </trkpt>
      <trkpt lat="38.336882" lon="-3.548633">
        <ele>767.0</ele>
        <time>2010-09-20T06:47:40Z</time>
      </trkpt>
      <trkpt lat="38.337021" lon="-3.548467">
        <ele>766.3</ele>
        <time>2010-09-20T06:47:40Z</time>
      </trkpt>
      <trkpt lat="38.337227" lon="-3.548237">
        <ele>765.2</ele>
        <time>2010-09-20T06:47:40Z</time>
      </trkpt>
      <trkpt lat="38.337446" lon="-3.548073">
        <ele>764.3</ele>
        <time>2010-09-20T06:47:40Z</time>
      </trkpt>
      <trkpt lat="38.337579" lon="-3.547833">
        <ele>763.3</ele>
        <time>2010-09-20T06:47:40Z</time>
      </trkpt>
      <trkpt lat="38.337718" lon="-3.547685">
        <ele>762.2</ele>
        <time>2010-09-20T06:47:40Z</time>
      </trkpt>
      <trkpt lat="38.337821" lon="-3.547584">
        <ele>761.6</ele>
        <time>2010-09-20T06:47:40Z</time>
      </trkpt>
      <trkpt lat="38.337952" lon="-3.547548">
        <ele>761.9</ele>
        <time>2010-09-20T06:47:40Z</time>
      </trkpt>
      <trkpt lat="38.337946" lon="-3.547317">
        <ele>759.9</ele>
        <time>2010-09-20T06:47:40Z</time>
      </trkpt>
      <trkpt lat="38.337940" lon="-3.546992">
        <ele>757.1</ele>
        <time>2010-09-20T06:47:40Z</time>
      </trkpt>
      <trkpt lat="38.337979" lon="-3.546669">
        <ele>755.3</ele>
        <time>2010-09-20T06:47:40Z</time>
      </trkpt>
      <trkpt lat="38.338038" lon="-3.546354">
        <ele>753.7</ele>
        <time>2010-09-20T06:47:40Z</time>
      </trkpt>
      <trkpt lat="38.338084" lon="-3.545928">
        <ele>750.7</ele>
        <time>2010-09-20T06:47:40Z</time>
      </trkpt>
      <trkpt lat="38.338136" lon="-3.545706">
        <ele>748.9</ele>
        <time>2010-09-20T06:47:40Z</time>
      </trkpt>
      <trkpt lat="38.338210" lon="-3.545392">
        <ele>746.4</ele>
        <time>2010-09-20T06:47:40Z</time>
      </trkpt>
      <trkpt lat="38.338226" lon="-3.545105">
        <ele>745.2</ele>
        <time>2010-09-20T06:47:40Z</time>
      </trkpt>
      <trkpt lat="38.338337" lon="-3.544800">
        <ele>745.2</ele>
        <time>2010-09-20T06:47:40Z</time>
      </trkpt>
      <trkpt lat="38.338383" lon="-3.544439">
        <ele>745.0</ele>
        <time>2010-09-20T06:47:40Z</time>
      </trkpt>
      <trkpt lat="38.338479" lon="-3.544106">
        <ele>747.2</ele>
        <time>2010-09-20T06:47:40Z</time>
      </trkpt>
      <trkpt lat="38.338547" lon="-3.543681">
        <ele>749.8</ele>
        <time>2010-09-20T06:47:40Z</time>
      </trkpt>
      <trkpt lat="38.338599" lon="-3.543329">
        <ele>749.9</ele>
        <time>2010-09-20T06:47:40Z</time>
      </trkpt>
      <trkpt lat="38.338601" lon="-3.543024">
        <ele>749.2</ele>
        <time>2010-09-20T06:47:40Z</time>
      </trkpt>
      <trkpt lat="38.338602" lon="-3.542671">
        <ele>748.5</ele>
        <time>2010-09-20T06:47:40Z</time>
      </trkpt>
      <trkpt lat="38.338611" lon="-3.542431">
        <ele>748.2</ele>
        <time>2010-09-20T06:47:40Z</time>
      </trkpt>
      <trkpt lat="38.338620" lon="-3.542097">
        <ele>747.8</ele>
        <time>2010-09-20T06:47:40Z</time>
      </trkpt>
      <trkpt lat="38.338665" lon="-3.541801">
        <ele>747.1</ele>
        <time>2010-09-20T06:47:40Z</time>
      </trkpt>
      <trkpt lat="38.338645" lon="-3.541384">
        <ele>744.5</ele>
        <time>2010-09-20T06:47:40Z</time>
      </trkpt>
    </trkseg>
  </trk>
</gpx>
